<?xml version="1.0" encoding="UTF-8"?>
<gpx version="1.1" creator="2bulu-scraper" xmlns="http://www.topografix.com/GPX/1/1">
  <metadata><name>峨眉山</name><desc>source: 2bulu.com trackId=85792407; exported 2026-09-01T16:24:19.718Z</desc>
    <bounds minlat="29.5099605" minlon="103.3268035" maxlat="29.5831166" maxlon="103.4049585"/>
    <link href="https://www.2bulu.com/track/t-l%252Bmj%252FQdIlMHp%252FR2KBg5Tzw%253D%253D.htm"><text>2bulu 源页面</text></link>
  </metadata>
  <wpt lat="29.5782217" lon="103.4048583"><ele>624</ele><name>
        </name></wpt>
  <wpt lat="29.5782155" lon="103.4049585"><ele>630</ele><name>
        </name></wpt>
  <wpt lat="29.5762546" lon="103.3982963"><ele>613</ele><name>
        </name></wpt>
  <wpt lat="29.5757602" lon="103.3967057"><ele>620</ele><name>
        </name></wpt>
  <wpt lat="29.5746417" lon="103.39265"><ele>622</ele><name>
        </name></wpt>
  <wpt lat="29.5743301" lon="103.3923926"><ele>638</ele><name>
        </name></wpt>
  <wpt lat="29.574124" lon="103.3921048"><ele>640</ele><name>
        </name></wpt>
  <wpt lat="29.5762564" lon="103.3919551"><ele>694</ele><name>
        </name></wpt>
  <wpt lat="29.5790191" lon="103.3885984"><ele>769</ele><name>
        </name></wpt>
  <wpt lat="29.5816883" lon="103.38417"><ele>925</ele><name>
        </name></wpt>
  <wpt lat="29.5815465" lon="103.3841059"><ele>926</ele><name>
        </name></wpt>
  <wpt lat="29.5815465" lon="103.3841059"><ele>926</ele><name>
        </name></wpt>
  <wpt lat="29.5814549" lon="103.3837838"><ele>939</ele><name>
        </name></wpt>
  <wpt lat="29.5827121" lon="103.379374"><ele>979</ele><name>
        </name></wpt>
  <wpt lat="29.577641" lon="103.3710872"><ele>1423</ele><name>
        </name></wpt>
  <wpt lat="29.5684928" lon="103.3596505"><ele>1697</ele><name>
        </name></wpt>
  <wpt lat="29.568298" lon="103.3596995"><ele>1695</ele><name>
        </name></wpt>
  <wpt lat="29.564271" lon="103.3564295"><ele>1849</ele><name>
        </name></wpt>
  <wpt lat="29.5628541" lon="103.3507436"><ele>1794</ele><name>
        </name></wpt>
  <wpt lat="29.5614302" lon="103.3452766"><ele>1796</ele><name>
        </name></wpt>
  <wpt lat="29.5589133" lon="103.3442233"><ele>2016</ele><name>
        </name></wpt>
  <wpt lat="29.5589133" lon="103.3442233"><ele>2016</ele><name>
        </name></wpt>
  <wpt lat="29.5494114" lon="103.3419987"><ele>2243</ele><name>
        </name></wpt>
  <wpt lat="29.5467167" lon="103.3370583"><ele>2430</ele><name>
        </name></wpt>
  <wpt lat="29.5466983" lon="103.33713"><ele>2428</ele><name>
        </name></wpt>
  <wpt lat="29.5466233" lon="103.3370433"><ele>2427</ele><name>
        </name></wpt>
  <wpt lat="29.5422917" lon="103.332095"><ele>2388</ele><name>
        </name></wpt>
  <wpt lat="29.542255" lon="103.3319933"><ele>2389</ele><name>
        </name></wpt>
  <wpt lat="29.5349932" lon="103.3328216"><ele>2476</ele><name>
        </name></wpt>
  <wpt lat="29.5337923" lon="103.3330835"><ele>2482</ele><name>
        </name></wpt>
  <wpt lat="29.5327256" lon="103.3323674"><ele>2498</ele><name>
        </name></wpt>
  <wpt lat="29.5318546" lon="103.3300528"><ele>2578</ele><name>
        </name></wpt>
  <wpt lat="29.5312829" lon="103.3298015"><ele>2709</ele><name>
        </name></wpt>
  <wpt lat="29.5312872" lon="103.3276226"><ele>2746</ele><name>
        </name></wpt>
  <wpt lat="29.5286838" lon="103.3295652"><ele>2769</ele><name>
        </name></wpt>
  <wpt lat="29.5274014" lon="103.3320473"><ele>2767</ele><name>
        </name></wpt>
  <wpt lat="29.5229381" lon="103.3342149"><ele>2805</ele><name>
        </name></wpt>
  <wpt lat="29.5227803" lon="103.334366"><ele>2818</ele><name>
        </name></wpt>
  <wpt lat="29.5227803" lon="103.334366"><ele>2818</ele><name>
        </name></wpt>
  <wpt lat="29.5227803" lon="103.334366"><ele>2818</ele><name>
        </name></wpt>
  <wpt lat="29.5227803" lon="103.334366"><ele>2818</ele><name>
        </name></wpt>
  <wpt lat="29.5227803" lon="103.334366"><ele>2818</ele><name>
        </name></wpt>
  <wpt lat="29.5220233" lon="103.3345783"><ele>2992</ele><name>
        </name></wpt>
  <wpt lat="29.5220233" lon="103.3345783"><ele>2992</ele><name>
        </name></wpt>
  <wpt lat="29.5220233" lon="103.3345783"><ele>2992</ele><name>
        </name></wpt>
  <wpt lat="29.5220233" lon="103.3345783"><ele>2992</ele><name>
        </name></wpt>
  <wpt lat="29.5220233" lon="103.3345783"><ele>2992</ele><name>
        </name></wpt>
  <wpt lat="29.5220233" lon="103.3345783"><ele>2992</ele><name>
        </name></wpt>
  <wpt lat="29.5220233" lon="103.3345783"><ele>2992</ele><name>
        </name></wpt>
  <wpt lat="29.5218409" lon="103.3344474"><ele>2989</ele><name>
        </name></wpt>
  <wpt lat="29.513598" lon="103.3315764"><ele>2993</ele><name>
        </name></wpt>
  <wpt lat="29.5121123" lon="103.3327306"><ele>3028</ele><name>
        </name></wpt>
  <wpt lat="29.5121123" lon="103.3327306"><ele>3028</ele><name>
        </name></wpt>
  <wpt lat="29.5116317" lon="103.3324733"><ele>3044</ele><name>
        </name></wpt>
  <wpt lat="29.5099605" lon="103.3323332"><ele>3048</ele><name>
        </name></wpt>
  <wpt lat="29.5154348" lon="103.3313702"><ele>3000</ele><name>
        </name></wpt>
  <wpt lat="29.5192474" lon="103.3333813"><ele>2973</ele><name>
        </name></wpt>
  <wpt lat="29.5191567" lon="103.3334133"><ele>2975</ele><name>
        </name></wpt>
  <wpt lat="29.5228904" lon="103.3347145"><ele>2999</ele><name>
        </name></wpt>
  <wpt lat="29.5227439" lon="103.3347771"><ele>2999</ele><name>
        </name></wpt>
  <wpt lat="29.5241478" lon="103.3347986"><ele>2989</ele><name>
        </name></wpt>
  <wpt lat="29.5295568" lon="103.3278278"><ele>2815</ele><name>
        </name></wpt>
  <wpt lat="29.532152" lon="103.330298"><ele>2659</ele><name>
        </name></wpt>
  <wpt lat="29.5322762" lon="103.3312785"><ele>2620</ele><name>
        </name></wpt>
  <wpt lat="29.5349685" lon="103.3327763"><ele>2492</ele><name>
        </name></wpt>
  <wpt lat="29.5349846" lon="103.3327332"><ele>2522</ele><name>
        </name></wpt>
  <wpt lat="29.541773" lon="103.331393"><ele>2378</ele><name>
        </name></wpt>
  <trk><name>峨眉山</name>
      <trkseg>
        <trkpt lat="29.5782217" lon="103.4048583"><ele>624.3</ele><time>2026-06-12T17:47:53.000Z</time></trkpt>
        <trkpt lat="29.5782155" lon="103.4049585"><ele>624.3</ele><time>2026-06-12T17:48:03.000Z</time></trkpt>
        <trkpt lat="29.5782063" lon="103.40488"><ele>626.62</ele><time>2026-06-12T17:48:17.000Z</time></trkpt>
        <trkpt lat="29.5781434" lon="103.4047573"><ele>624.81</ele><time>2026-06-12T17:48:23.000Z</time></trkpt>
        <trkpt lat="29.5781076" lon="103.4046359"><ele>623.73</ele><time>2026-06-12T17:48:29.000Z</time></trkpt>
        <trkpt lat="29.5781009" lon="103.4045026"><ele>623.8</ele><time>2026-06-12T17:48:37.000Z</time></trkpt>
        <trkpt lat="29.5780937" lon="103.4043749"><ele>623.93</ele><time>2026-06-12T17:48:45.000Z</time></trkpt>
        <trkpt lat="29.5780785" lon="103.4042582"><ele>623.06</ele><time>2026-06-12T17:48:51.000Z</time></trkpt>
        <trkpt lat="29.5780584" lon="103.4041466"><ele>621.48</ele><time>2026-06-12T17:48:59.000Z</time></trkpt>
        <trkpt lat="29.5780115" lon="103.4040343"><ele>621.06</ele><time>2026-06-12T17:49:05.000Z</time></trkpt>
        <trkpt lat="29.5779813" lon="103.4039302"><ele>620.17</ele><time>2026-06-12T17:49:11.000Z</time></trkpt>
        <trkpt lat="29.577994" lon="103.4038266"><ele>620.06</ele><time>2026-06-12T17:49:17.000Z</time></trkpt>
        <trkpt lat="29.578026" lon="103.403715"><ele>619.82</ele><time>2026-06-12T17:49:25.000Z</time></trkpt>
        <trkpt lat="29.5780213" lon="103.4036103"><ele>619.64</ele><time>2026-06-12T17:49:35.000Z</time></trkpt>
        <trkpt lat="29.5779522" lon="103.4035447"><ele>619.71</ele><time>2026-06-12T17:49:45.000Z</time></trkpt>
        <trkpt lat="29.5778477" lon="103.4035156"><ele>620.18</ele><time>2026-06-12T17:50:01.000Z</time></trkpt>
        <trkpt lat="29.5777342" lon="103.4034652"><ele>620.62</ele><time>2026-06-12T17:50:09.000Z</time></trkpt>
        <trkpt lat="29.5776353" lon="103.4034274"><ele>620.14</ele><time>2026-06-12T17:50:15.000Z</time></trkpt>
        <trkpt lat="29.5775468" lon="103.4033725"><ele>619.13</ele><time>2026-06-12T17:50:21.000Z</time></trkpt>
        <trkpt lat="29.5774627" lon="103.4032829"><ele>618.69</ele><time>2026-06-12T17:50:27.000Z</time></trkpt>
        <trkpt lat="29.5773725" lon="103.4032072"><ele>618.61</ele><time>2026-06-12T17:50:35.000Z</time></trkpt>
        <trkpt lat="29.5772959" lon="103.4031212"><ele>620.28</ele><time>2026-06-12T17:50:45.000Z</time></trkpt>
        <trkpt lat="29.5772858" lon="103.4030006"><ele>617.67</ele><time>2026-06-12T17:50:53.000Z</time></trkpt>
        <trkpt lat="29.5772981" lon="103.402888"><ele>617.94</ele><time>2026-06-12T17:50:59.000Z</time></trkpt>
        <trkpt lat="29.5772732" lon="103.4027645"><ele>618.95</ele><time>2026-06-12T17:51:07.000Z</time></trkpt>
        <trkpt lat="29.5772264" lon="103.402659"><ele>620.18</ele><time>2026-06-12T17:51:19.000Z</time></trkpt>
        <trkpt lat="29.5771656" lon="103.4025736"><ele>621.13</ele><time>2026-06-12T17:51:27.000Z</time></trkpt>
        <trkpt lat="29.577101" lon="103.4024613"><ele>621.08</ele><time>2026-06-12T17:51:37.000Z</time></trkpt>
        <trkpt lat="29.5771354" lon="103.4023679"><ele>619.58</ele><time>2026-06-12T17:51:45.000Z</time></trkpt>
        <trkpt lat="29.5772095" lon="103.4022996"><ele>618.86</ele><time>2026-06-12T17:51:51.000Z</time></trkpt>
        <trkpt lat="29.5772744" lon="103.4022074"><ele>618.45</ele><time>2026-06-12T17:51:57.000Z</time></trkpt>
        <trkpt lat="29.5773863" lon="103.4021461"><ele>619.63</ele><time>2026-06-12T17:52:03.000Z</time></trkpt>
        <trkpt lat="29.5774494" lon="103.4020463"><ele>621.12</ele><time>2026-06-12T17:52:09.000Z</time></trkpt>
        <trkpt lat="29.5774373" lon="103.401936"><ele>622.53</ele><time>2026-06-12T17:52:13.000Z</time></trkpt>
        <trkpt lat="29.5774409" lon="103.4018583"><ele>622.99</ele><time>2026-06-12T17:52:17.000Z</time></trkpt>
        <trkpt lat="29.5775012" lon="103.40177"><ele>623.94</ele><time>2026-06-12T17:52:25.000Z</time></trkpt>
        <trkpt lat="29.577615" lon="103.401718"><ele>624.83</ele><time>2026-06-12T17:52:31.000Z</time></trkpt>
        <trkpt lat="29.5776821" lon="103.4016216"><ele>625.89</ele><time>2026-06-12T17:52:37.000Z</time></trkpt>
        <trkpt lat="29.5777156" lon="103.4015046"><ele>625.98</ele><time>2026-06-12T17:52:43.000Z</time></trkpt>
        <trkpt lat="29.5777885" lon="103.4014039"><ele>625.95</ele><time>2026-06-12T17:52:49.000Z</time></trkpt>
        <trkpt lat="29.577874" lon="103.4013261"><ele>625.8</ele><time>2026-06-12T17:52:55.000Z</time></trkpt>
        <trkpt lat="29.5779067" lon="103.4012191"><ele>625.11</ele><time>2026-06-12T17:53:01.000Z</time></trkpt>
        <trkpt lat="29.5778964" lon="103.4010865"><ele>624.42</ele><time>2026-06-12T17:53:07.000Z</time></trkpt>
        <trkpt lat="29.5778587" lon="103.4009593"><ele>623.72</ele><time>2026-06-12T17:53:13.000Z</time></trkpt>
        <trkpt lat="29.5778221" lon="103.4008385"><ele>623.02</ele><time>2026-06-12T17:53:19.000Z</time></trkpt>
        <trkpt lat="29.5777981" lon="103.4007283"><ele>623.57</ele><time>2026-06-12T17:53:25.000Z</time></trkpt>
        <trkpt lat="29.5777979" lon="103.4006244"><ele>625.13</ele><time>2026-06-12T17:53:31.000Z</time></trkpt>
        <trkpt lat="29.5778141" lon="103.4005073"><ele>626.19</ele><time>2026-06-12T17:53:37.000Z</time></trkpt>
        <trkpt lat="29.5778064" lon="103.4003797"><ele>626.41</ele><time>2026-06-12T17:53:45.000Z</time></trkpt>
        <trkpt lat="29.577757" lon="103.4002712"><ele>626.54</ele><time>2026-06-12T17:53:51.000Z</time></trkpt>
        <trkpt lat="29.5776943" lon="103.4001792"><ele>626.22</ele><time>2026-06-12T17:53:57.000Z</time></trkpt>
        <trkpt lat="29.5775978" lon="103.4001439"><ele>625.65</ele><time>2026-06-12T17:54:03.000Z</time></trkpt>
        <trkpt lat="29.5774987" lon="103.4001181"><ele>624.77</ele><time>2026-06-12T17:54:09.000Z</time></trkpt>
        <trkpt lat="29.5774065" lon="103.4001283"><ele>623.49</ele><time>2026-06-12T17:54:29.000Z</time></trkpt>
        <trkpt lat="29.5773073" lon="103.4001016"><ele>621.95</ele><time>2026-06-12T17:54:41.000Z</time></trkpt>
        <trkpt lat="29.5772049" lon="103.4001019"><ele>621.58</ele><time>2026-06-12T17:54:49.000Z</time></trkpt>
        <trkpt lat="29.5771369" lon="103.4001887"><ele>621.55</ele><time>2026-06-12T17:54:53.000Z</time></trkpt>
        <trkpt lat="29.5770584" lon="103.4002545"><ele>621.01</ele><time>2026-06-12T17:55:01.000Z</time></trkpt>
        <trkpt lat="29.5770219" lon="103.4002746"><ele>619.41</ele><time>2026-06-12T17:55:05.000Z</time></trkpt>
        <trkpt lat="29.5769504" lon="103.4002499"><ele>618.46</ele><time>2026-06-12T17:55:11.000Z</time></trkpt>
        <trkpt lat="29.5768649" lon="103.4002017"><ele>617.66</ele><time>2026-06-12T17:55:15.000Z</time></trkpt>
        <trkpt lat="29.5768401" lon="103.4001006"><ele>617.12</ele><time>2026-06-12T17:55:23.000Z</time></trkpt>
        <trkpt lat="29.5768936" lon="103.3999318"><ele>616.51</ele><time>2026-06-12T17:55:27.000Z</time></trkpt>
        <trkpt lat="29.576963" lon="103.3998043"><ele>616.55</ele><time>2026-06-12T17:55:29.000Z</time></trkpt>
        <trkpt lat="29.5769961" lon="103.3996703"><ele>616.66</ele><time>2026-06-12T17:55:33.000Z</time></trkpt>
        <trkpt lat="29.576987" lon="103.3995387"><ele>617.79</ele><time>2026-06-12T17:55:37.000Z</time></trkpt>
        <trkpt lat="29.5768685" lon="103.3994727"><ele>620.08</ele><time>2026-06-12T17:55:41.000Z</time></trkpt>
        <trkpt lat="29.5767598" lon="103.399416"><ele>621.68</ele><time>2026-06-12T17:55:45.000Z</time></trkpt>
        <trkpt lat="29.5766682" lon="103.3993329"><ele>622.72</ele><time>2026-06-12T17:55:51.000Z</time></trkpt>
        <trkpt lat="29.5766212" lon="103.3992355"><ele>622.45</ele><time>2026-06-12T17:55:57.000Z</time></trkpt>
        <trkpt lat="29.5766188" lon="103.3991317"><ele>621.23</ele><time>2026-06-12T17:56:03.000Z</time></trkpt>
        <trkpt lat="29.5766119" lon="103.3990277"><ele>619.58</ele><time>2026-06-12T17:56:09.000Z</time></trkpt>
        <trkpt lat="29.5765723" lon="103.398917"><ele>618.21</ele><time>2026-06-12T17:56:17.000Z</time></trkpt>
        <trkpt lat="29.5765166" lon="103.3988256"><ele>616.96</ele><time>2026-06-12T17:56:25.000Z</time></trkpt>
        <trkpt lat="29.576451" lon="103.398733"><ele>615.6</ele><time>2026-06-12T17:56:33.000Z</time></trkpt>
        <trkpt lat="29.5764095" lon="103.3986331"><ele>614.31</ele><time>2026-06-12T17:56:39.000Z</time></trkpt>
        <trkpt lat="29.5763729" lon="103.3985263"><ele>613.7</ele><time>2026-06-12T17:56:45.000Z</time></trkpt>
        <trkpt lat="29.5763314" lon="103.3984073"><ele>613.66</ele><time>2026-06-12T17:56:53.000Z</time></trkpt>
        <trkpt lat="29.57638" lon="103.3983269"><ele>614.19</ele><time>2026-06-12T17:57:03.000Z</time></trkpt>
        <trkpt lat="29.5763876" lon="103.3982502"><ele>614.54</ele><time>2026-06-12T17:57:11.000Z</time></trkpt>
        <trkpt lat="29.5763378" lon="103.3981495"><ele>614.61</ele><time>2026-06-12T17:57:21.000Z</time></trkpt>
        <trkpt lat="29.5763378" lon="103.3981495"><ele>614.61</ele><time>2026-06-12T17:57:29.000Z</time></trkpt>
        <trkpt lat="29.5763378" lon="103.3981495"><ele>614.61</ele><time>2026-06-12T17:57:32.000Z</time></trkpt>
        <trkpt lat="29.5763378" lon="103.3981495"><ele>614.61</ele><time>2026-06-12T17:57:55.000Z</time></trkpt>
        <trkpt lat="29.5763567" lon="103.3984467"><ele>614.65</ele><time>2026-06-12T17:59:18.000Z</time></trkpt>
        <trkpt lat="29.5763567" lon="103.3984467"><ele>614.65</ele><time>2026-06-12T18:00:13.000Z</time></trkpt>
        <trkpt lat="29.5763567" lon="103.3984467"><ele>614.65</ele><time>2026-06-12T18:00:47.000Z</time></trkpt>
        <trkpt lat="29.5763567" lon="103.3985517"><ele>614.58</ele><time>2026-06-12T18:01:04.000Z</time></trkpt>
        <trkpt lat="29.5763567" lon="103.3985517"><ele>614.58</ele><time>2026-06-12T18:01:09.000Z</time></trkpt>
        <trkpt lat="29.5763115" lon="103.398424"><ele>615.11</ele><time>2026-06-12T18:01:13.000Z</time></trkpt>
        <trkpt lat="29.5762546" lon="103.3982963"><ele>613.64</ele><time>2026-06-12T18:01:37.000Z</time></trkpt>
        <trkpt lat="29.5762476" lon="103.3981774"><ele>613.19</ele><time>2026-06-12T18:02:09.000Z</time></trkpt>
        <trkpt lat="29.576237" lon="103.3980597"><ele>614.79</ele><time>2026-06-12T18:02:31.000Z</time></trkpt>
        <trkpt lat="29.576251" lon="103.3979463"><ele>615.91</ele><time>2026-06-12T18:02:47.000Z</time></trkpt>
        <trkpt lat="29.5762721" lon="103.3978381"><ele>617.37</ele><time>2026-06-12T18:02:53.000Z</time></trkpt>
        <trkpt lat="29.5763114" lon="103.3977111"><ele>617.98</ele><time>2026-06-12T18:03:01.000Z</time></trkpt>
        <trkpt lat="29.5763273" lon="103.397576"><ele>618.38</ele><time>2026-06-12T18:03:09.000Z</time></trkpt>
        <trkpt lat="29.5763217" lon="103.3974351"><ele>619.16</ele><time>2026-06-12T18:03:17.000Z</time></trkpt>
        <trkpt lat="29.5762986" lon="103.3973231"><ele>619.52</ele><time>2026-06-12T18:03:23.000Z</time></trkpt>
        <trkpt lat="29.5762479" lon="103.3972075"><ele>619.04</ele><time>2026-06-12T18:03:35.000Z</time></trkpt>
        <trkpt lat="29.5761988" lon="103.3970983"><ele>618.16</ele><time>2026-06-12T18:03:45.000Z</time></trkpt>
        <trkpt lat="29.5761578" lon="103.3969934"><ele>616.03</ele><time>2026-06-12T18:03:51.000Z</time></trkpt>
        <trkpt lat="29.5761209" lon="103.3968858"><ele>615.54</ele><time>2026-06-12T18:03:57.000Z</time></trkpt>
        <trkpt lat="29.5760769" lon="103.396788"><ele>615.4</ele><time>2026-06-12T18:04:07.000Z</time></trkpt>
        <trkpt lat="29.5760769" lon="103.396788"><ele>615.4</ele><time>2026-06-12T18:04:43.000Z</time></trkpt>
        <trkpt lat="29.575995" lon="103.39672"><ele>616.21</ele><time>2026-06-12T18:05:00.000Z</time></trkpt>
        <trkpt lat="29.575995" lon="103.39672"><ele>616.21</ele><time>2026-06-12T18:05:11.000Z</time></trkpt>
        <trkpt lat="29.5758983" lon="103.39674"><ele>618.4</ele><time>2026-06-12T18:05:17.000Z</time></trkpt>
        <trkpt lat="29.5757904" lon="103.3967318"><ele>619.22</ele><time>2026-06-12T18:05:25.000Z</time></trkpt>
        <trkpt lat="29.5757602" lon="103.3967057"><ele>619.55</ele><time>2026-06-12T18:05:37.000Z</time></trkpt>
        <trkpt lat="29.5756953" lon="103.3966664"><ele>619.7</ele><time>2026-06-12T18:06:13.000Z</time></trkpt>
        <trkpt lat="29.5756083" lon="103.3966245"><ele>618.8</ele><time>2026-06-12T18:06:19.000Z</time></trkpt>
        <trkpt lat="29.5755217" lon="103.3965818"><ele>617.51</ele><time>2026-06-12T18:06:27.000Z</time></trkpt>
        <trkpt lat="29.5754965" lon="103.396545"><ele>617.98</ele><time>2026-06-12T18:06:35.000Z</time></trkpt>
        <trkpt lat="29.5754266" lon="103.396487"><ele>618.93</ele><time>2026-06-12T18:06:49.000Z</time></trkpt>
        <trkpt lat="29.5753374" lon="103.3964425"><ele>620.51</ele><time>2026-06-12T18:06:55.000Z</time></trkpt>
        <trkpt lat="29.5752506" lon="103.3963879"><ele>619.69</ele><time>2026-06-12T18:07:01.000Z</time></trkpt>
        <trkpt lat="29.5751701" lon="103.3962869"><ele>618.19</ele><time>2026-06-12T18:07:09.000Z</time></trkpt>
        <trkpt lat="29.5751037" lon="103.3961857"><ele>619.78</ele><time>2026-06-12T18:07:15.000Z</time></trkpt>
        <trkpt lat="29.5750688" lon="103.3960772"><ele>621.56</ele><time>2026-06-12T18:07:21.000Z</time></trkpt>
        <trkpt lat="29.5750146" lon="103.3959938"><ele>623.12</ele><time>2026-06-12T18:07:27.000Z</time></trkpt>
        <trkpt lat="29.5749549" lon="103.3959133"><ele>623.46</ele><time>2026-06-12T18:07:33.000Z</time></trkpt>
        <trkpt lat="29.5748982" lon="103.3958319"><ele>623.05</ele><time>2026-06-12T18:07:39.000Z</time></trkpt>
        <trkpt lat="29.574829" lon="103.3957207"><ele>622.64</ele><time>2026-06-12T18:07:47.000Z</time></trkpt>
        <trkpt lat="29.5747628" lon="103.3955997"><ele>621.93</ele><time>2026-06-12T18:07:55.000Z</time></trkpt>
        <trkpt lat="29.5747034" lon="103.3954892"><ele>621.88</ele><time>2026-06-12T18:08:01.000Z</time></trkpt>
        <trkpt lat="29.5746779" lon="103.3953549"><ele>621.89</ele><time>2026-06-12T18:08:09.000Z</time></trkpt>
        <trkpt lat="29.5746683" lon="103.395216"><ele>621.72</ele><time>2026-06-12T18:08:17.000Z</time></trkpt>
        <trkpt lat="29.5746688" lon="103.395153"><ele>621.24</ele><time>2026-06-12T18:08:31.000Z</time></trkpt>
        <trkpt lat="29.5746535" lon="103.39507"><ele>621.39</ele><time>2026-06-12T18:08:47.000Z</time></trkpt>
        <trkpt lat="29.5746521" lon="103.3949597"><ele>621.22</ele><time>2026-06-12T18:08:53.000Z</time></trkpt>
        <trkpt lat="29.5746847" lon="103.3948461"><ele>620.91</ele><time>2026-06-12T18:09:01.000Z</time></trkpt>
        <trkpt lat="29.574754" lon="103.394755"><ele>621.85</ele><time>2026-06-12T18:09:09.000Z</time></trkpt>
        <trkpt lat="29.5748344" lon="103.3946827"><ele>622</ele><time>2026-06-12T18:09:21.000Z</time></trkpt>
        <trkpt lat="29.5749194" lon="103.3946141"><ele>621.92</ele><time>2026-06-12T18:09:27.000Z</time></trkpt>
        <trkpt lat="29.574995" lon="103.3945465"><ele>621.61</ele><time>2026-06-12T18:09:33.000Z</time></trkpt>
        <trkpt lat="29.5750783" lon="103.3945046"><ele>621.48</ele><time>2026-06-12T18:09:39.000Z</time></trkpt>
        <trkpt lat="29.5751728" lon="103.3944553"><ele>622.69</ele><time>2026-06-12T18:09:47.000Z</time></trkpt>
        <trkpt lat="29.5752671" lon="103.3944216"><ele>624.29</ele><time>2026-06-12T18:09:53.000Z</time></trkpt>
        <trkpt lat="29.5753191" lon="103.3943968"><ele>625.97</ele><time>2026-06-12T18:10:03.000Z</time></trkpt>
        <trkpt lat="29.5753915" lon="103.3943529"><ele>626.63</ele><time>2026-06-12T18:10:25.000Z</time></trkpt>
        <trkpt lat="29.5754747" lon="103.3942796"><ele>626.14</ele><time>2026-06-12T18:10:33.000Z</time></trkpt>
        <trkpt lat="29.5755756" lon="103.3942148"><ele>626.04</ele><time>2026-06-12T18:10:41.000Z</time></trkpt>
        <trkpt lat="29.575681" lon="103.3941588"><ele>626.75</ele><time>2026-06-12T18:10:49.000Z</time></trkpt>
        <trkpt lat="29.575748" lon="103.394144"><ele>627.12</ele><time>2026-06-12T18:11:01.000Z</time></trkpt>
        <trkpt lat="29.5757888" lon="103.3940653"><ele>625.6</ele><time>2026-06-12T18:11:13.000Z</time></trkpt>
        <trkpt lat="29.5758442" lon="103.3939695"><ele>625.34</ele><time>2026-06-12T18:11:19.000Z</time></trkpt>
        <trkpt lat="29.5758884" lon="103.3938648"><ele>625.45</ele><time>2026-06-12T18:11:25.000Z</time></trkpt>
        <trkpt lat="29.5759439" lon="103.3937677"><ele>625.78</ele><time>2026-06-12T18:11:31.000Z</time></trkpt>
        <trkpt lat="29.5759832" lon="103.3936599"><ele>626.13</ele><time>2026-06-12T18:11:39.000Z</time></trkpt>
        <trkpt lat="29.5760125" lon="103.3935437"><ele>626.29</ele><time>2026-06-12T18:11:49.000Z</time></trkpt>
        <trkpt lat="29.575999" lon="103.393429"><ele>626.08</ele><time>2026-06-12T18:11:57.000Z</time></trkpt>
        <trkpt lat="29.5759356" lon="103.3933421"><ele>625.36</ele><time>2026-06-12T18:12:07.000Z</time></trkpt>
        <trkpt lat="29.5758745" lon="103.3932469"><ele>624.34</ele><time>2026-06-12T18:12:21.000Z</time></trkpt>
        <trkpt lat="29.575821" lon="103.3931436"><ele>623.08</ele><time>2026-06-12T18:12:31.000Z</time></trkpt>
        <trkpt lat="29.5757723" lon="103.3930346"><ele>622.48</ele><time>2026-06-12T18:12:39.000Z</time></trkpt>
        <trkpt lat="29.575745" lon="103.3929188"><ele>621.72</ele><time>2026-06-12T18:12:47.000Z</time></trkpt>
        <trkpt lat="29.5757067" lon="103.3928198"><ele>621.97</ele><time>2026-06-12T18:13:01.000Z</time></trkpt>
        <trkpt lat="29.5756659" lon="103.392715"><ele>624.26</ele><time>2026-06-12T18:13:13.000Z</time></trkpt>
        <trkpt lat="29.5755853" lon="103.3926739"><ele>625.18</ele><time>2026-06-12T18:13:21.000Z</time></trkpt>
        <trkpt lat="29.5755016" lon="103.392735"><ele>625.19</ele><time>2026-06-12T18:13:27.000Z</time></trkpt>
        <trkpt lat="29.575409" lon="103.3928086"><ele>625.54</ele><time>2026-06-12T18:13:37.000Z</time></trkpt>
        <trkpt lat="29.5753133" lon="103.3928531"><ele>625.95</ele><time>2026-06-12T18:14:09.000Z</time></trkpt>
        <trkpt lat="29.5752113" lon="103.3929036"><ele>624.25</ele><time>2026-06-12T18:14:27.000Z</time></trkpt>
        <trkpt lat="29.5751042" lon="103.3929516"><ele>622.55</ele><time>2026-06-12T18:14:35.000Z</time></trkpt>
        <trkpt lat="29.5749972" lon="103.3929842"><ele>620.64</ele><time>2026-06-12T18:14:45.000Z</time></trkpt>
        <trkpt lat="29.5748959" lon="103.3929833"><ele>618.04</ele><time>2026-06-12T18:15:07.000Z</time></trkpt>
        <trkpt lat="29.5748172" lon="103.392912"><ele>617.46</ele><time>2026-06-12T18:15:23.000Z</time></trkpt>
        <trkpt lat="29.5747315" lon="103.3928535"><ele>617.31</ele><time>2026-06-12T18:16:15.000Z</time></trkpt>
        <trkpt lat="29.5747315" lon="103.3928535"><ele>617.31</ele><time>2026-06-12T18:16:51.000Z</time></trkpt>
        <trkpt lat="29.5747315" lon="103.3928535"><ele>617.31</ele><time>2026-06-12T18:17:00.000Z</time></trkpt>
        <trkpt lat="29.5747315" lon="103.3928535"><ele>617.31</ele><time>2026-06-12T18:17:23.000Z</time></trkpt>
        <trkpt lat="29.5747133" lon="103.3927383"><ele>618.85</ele><time>2026-06-12T18:17:26.000Z</time></trkpt>
        <trkpt lat="29.5747133" lon="103.3927383"><ele>618.85</ele><time>2026-06-12T18:17:53.000Z</time></trkpt>
        <trkpt lat="29.5746417" lon="103.39265"><ele>620.03</ele><time>2026-06-12T18:18:05.000Z</time></trkpt>
        <trkpt lat="29.5745503" lon="103.3926054"><ele>620.84</ele><time>2026-06-12T18:18:31.000Z</time></trkpt>
        <trkpt lat="29.5744708" lon="103.3926496"><ele>623.1</ele><time>2026-06-12T18:18:53.000Z</time></trkpt>
        <trkpt lat="29.5744083" lon="103.3925967"><ele>623.36</ele><time>2026-06-12T18:20:45.000Z</time></trkpt>
        <trkpt lat="29.574365" lon="103.3925017"><ele>626.82</ele><time>2026-06-12T18:21:01.000Z</time></trkpt>
        <trkpt lat="29.5743301" lon="103.3923926"><ele>631.2</ele><time>2026-06-12T18:21:21.000Z</time></trkpt>
        <trkpt lat="29.5742646" lon="103.3922951"><ele>634.08</ele><time>2026-06-12T18:22:03.000Z</time></trkpt>
        <trkpt lat="29.5741782" lon="103.3922476"><ele>638.09</ele><time>2026-06-12T18:22:27.000Z</time></trkpt>
        <trkpt lat="29.574224" lon="103.3922267"><ele>635.51</ele><time>2026-06-12T18:22:33.000Z</time></trkpt>
        <trkpt lat="29.5741898" lon="103.3921716"><ele>634.73</ele><time>2026-06-12T18:23:09.000Z</time></trkpt>
        <trkpt lat="29.574124" lon="103.3921048"><ele>636.14</ele><time>2026-06-12T18:23:19.000Z</time></trkpt>
        <trkpt lat="29.5740413" lon="103.3920489"><ele>637.71</ele><time>2026-06-12T18:23:59.000Z</time></trkpt>
        <trkpt lat="29.5740413" lon="103.3920489"><ele>637.71</ele><time>2026-06-12T18:24:19.000Z</time></trkpt>
        <trkpt lat="29.5739861" lon="103.391959"><ele>640.93</ele><time>2026-06-12T18:24:26.000Z</time></trkpt>
        <trkpt lat="29.5739861" lon="103.391959"><ele>640.93</ele><time>2026-06-12T18:24:47.000Z</time></trkpt>
        <trkpt lat="29.5740007" lon="103.3920068"><ele>645.91</ele><time>2026-06-12T18:25:27.000Z</time></trkpt>
        <trkpt lat="29.5740007" lon="103.3920068"><ele>645.91</ele><time>2026-06-12T18:25:35.000Z</time></trkpt>
        <trkpt lat="29.5738288" lon="103.3919701"><ele>649.05</ele><time>2026-06-12T18:26:06.000Z</time></trkpt>
        <trkpt lat="29.5738288" lon="103.3919701"><ele>649.05</ele><time>2026-06-12T18:26:06.000Z</time></trkpt>
        <trkpt lat="29.5736862" lon="103.3919273"><ele>646.27</ele><time>2026-06-12T18:26:24.000Z</time></trkpt>
        <trkpt lat="29.5737227" lon="103.3918909"><ele>642.28</ele><time>2026-06-12T18:26:50.000Z</time></trkpt>
        <trkpt lat="29.5737258" lon="103.3918001"><ele>636.78</ele><time>2026-06-12T18:26:56.000Z</time></trkpt>
        <trkpt lat="29.5738023" lon="103.3917648"><ele>632.4</ele><time>2026-06-12T18:27:08.000Z</time></trkpt>
        <trkpt lat="29.5738667" lon="103.3918479"><ele>632.92</ele><time>2026-06-12T18:27:18.000Z</time></trkpt>
        <trkpt lat="29.5738667" lon="103.3918479"><ele>632.92</ele><time>2026-06-12T18:27:27.000Z</time></trkpt>
        <trkpt lat="29.57396" lon="103.391879"><ele>634.42</ele><time>2026-06-12T18:27:30.000Z</time></trkpt>
        <trkpt lat="29.57396" lon="103.391879"><ele>634.42</ele><time>2026-06-12T18:27:35.000Z</time></trkpt>
        <trkpt lat="29.574088" lon="103.3919364"><ele>636.65</ele><time>2026-06-12T18:27:39.000Z</time></trkpt>
        <trkpt lat="29.5740531" lon="103.3919549"><ele>637.36</ele><time>2026-06-12T18:28:01.000Z</time></trkpt>
        <trkpt lat="29.5740818" lon="103.3920073"><ele>642.54</ele><time>2026-06-12T18:28:51.000Z</time></trkpt>
        <trkpt lat="29.5741184" lon="103.3921019"><ele>647.12</ele><time>2026-06-12T18:29:03.000Z</time></trkpt>
        <trkpt lat="29.5741393" lon="103.3921205"><ele>647.76</ele><time>2026-06-12T18:29:11.000Z</time></trkpt>
        <trkpt lat="29.5741881" lon="103.3921861"><ele>648.12</ele><time>2026-06-12T18:29:33.000Z</time></trkpt>
        <trkpt lat="29.5742753" lon="103.3922137"><ele>648.46</ele><time>2026-06-12T18:29:43.000Z</time></trkpt>
        <trkpt lat="29.5743641" lon="103.3921849"><ele>647.7</ele><time>2026-06-12T18:29:49.000Z</time></trkpt>
        <trkpt lat="29.5744333" lon="103.3921533"><ele>647.92</ele><time>2026-06-12T18:30:01.000Z</time></trkpt>
        <trkpt lat="29.5745263" lon="103.392127"><ele>649.63</ele><time>2026-06-12T18:30:11.000Z</time></trkpt>
        <trkpt lat="29.5746245" lon="103.3921286"><ele>650.43</ele><time>2026-06-12T18:30:25.000Z</time></trkpt>
        <trkpt lat="29.5747223" lon="103.3921388"><ele>651.15</ele><time>2026-06-12T18:30:37.000Z</time></trkpt>
        <trkpt lat="29.5748177" lon="103.3921022"><ele>653.19</ele><time>2026-06-12T18:30:53.000Z</time></trkpt>
        <trkpt lat="29.5749067" lon="103.3920612"><ele>657.15</ele><time>2026-06-12T18:31:09.000Z</time></trkpt>
        <trkpt lat="29.5750009" lon="103.3920182"><ele>660.01</ele><time>2026-06-12T18:31:21.000Z</time></trkpt>
        <trkpt lat="29.5750859" lon="103.3919707"><ele>661.56</ele><time>2026-06-12T18:31:35.000Z</time></trkpt>
        <trkpt lat="29.5751826" lon="103.3919387"><ele>663.25</ele><time>2026-06-12T18:31:49.000Z</time></trkpt>
        <trkpt lat="29.5752813" lon="103.391903"><ele>665.51</ele><time>2026-06-12T18:32:03.000Z</time></trkpt>
        <trkpt lat="29.5753266" lon="103.3918767"><ele>666.93</ele><time>2026-06-12T18:32:07.000Z</time></trkpt>
        <trkpt lat="29.5753946" lon="103.3918388"><ele>667.69</ele><time>2026-06-12T18:32:19.000Z</time></trkpt>
        <trkpt lat="29.5754887" lon="103.3918499"><ele>668.64</ele><time>2026-06-12T18:32:37.000Z</time></trkpt>
        <trkpt lat="29.5755851" lon="103.3918843"><ele>669.78</ele><time>2026-06-12T18:33:05.000Z</time></trkpt>
        <trkpt lat="29.5756784" lon="103.3919259"><ele>670.87</ele><time>2026-06-12T18:33:21.000Z</time></trkpt>
        <trkpt lat="29.5757723" lon="103.3919263"><ele>672</ele><time>2026-06-12T18:33:37.000Z</time></trkpt>
        <trkpt lat="29.5758699" lon="103.3919035"><ele>673.85</ele><time>2026-06-12T18:33:53.000Z</time></trkpt>
        <trkpt lat="29.5759674" lon="103.3918824"><ele>676.32</ele><time>2026-06-12T18:34:03.000Z</time></trkpt>
        <trkpt lat="29.5760621" lon="103.3919077"><ele>678.33</ele><time>2026-06-12T18:34:11.000Z</time></trkpt>
        <trkpt lat="29.5761594" lon="103.3919346"><ele>680.3</ele><time>2026-06-12T18:34:25.000Z</time></trkpt>
        <trkpt lat="29.5762564" lon="103.3919551"><ele>683.61</ele><time>2026-06-12T18:34:45.000Z</time></trkpt>
        <trkpt lat="29.5763495" lon="103.3919795"><ele>688.17</ele><time>2026-06-12T18:35:19.000Z</time></trkpt>
        <trkpt lat="29.5764549" lon="103.3919901"><ele>695.62</ele><time>2026-06-12T18:35:31.000Z</time></trkpt>
        <trkpt lat="29.5765524" lon="103.391959"><ele>700</ele><time>2026-06-12T18:35:41.000Z</time></trkpt>
        <trkpt lat="29.5766503" lon="103.3919332"><ele>703.66</ele><time>2026-06-12T18:35:49.000Z</time></trkpt>
        <trkpt lat="29.5767371" lon="103.3918819"><ele>708.84</ele><time>2026-06-12T18:35:57.000Z</time></trkpt>
        <trkpt lat="29.5767862" lon="103.3917898"><ele>714.63</ele><time>2026-06-12T18:36:05.000Z</time></trkpt>
        <trkpt lat="29.5768271" lon="103.3916873"><ele>719.22</ele><time>2026-06-12T18:36:15.000Z</time></trkpt>
        <trkpt lat="29.5768724" lon="103.3915755"><ele>723.47</ele><time>2026-06-12T18:36:27.000Z</time></trkpt>
        <trkpt lat="29.5769148" lon="103.3914626"><ele>726.58</ele><time>2026-06-12T18:36:33.000Z</time></trkpt>
        <trkpt lat="29.5769543" lon="103.3913623"><ele>728.22</ele><time>2026-06-12T18:36:41.000Z</time></trkpt>
        <trkpt lat="29.577007" lon="103.3912576"><ele>730.36</ele><time>2026-06-12T18:36:51.000Z</time></trkpt>
        <trkpt lat="29.5770738" lon="103.3911624"><ele>732.4</ele><time>2026-06-12T18:37:01.000Z</time></trkpt>
        <trkpt lat="29.5771314" lon="103.3910645"><ele>733.61</ele><time>2026-06-12T18:37:11.000Z</time></trkpt>
        <trkpt lat="29.5771771" lon="103.3909639"><ele>734.68</ele><time>2026-06-12T18:37:21.000Z</time></trkpt>
        <trkpt lat="29.577256" lon="103.3909362"><ele>736.92</ele><time>2026-06-12T18:37:31.000Z</time></trkpt>
        <trkpt lat="29.5773502" lon="103.3909452"><ele>738.72</ele><time>2026-06-12T18:37:39.000Z</time></trkpt>
        <trkpt lat="29.5774497" lon="103.3909787"><ele>740.13</ele><time>2026-06-12T18:37:49.000Z</time></trkpt>
        <trkpt lat="29.5774969" lon="103.3910046"><ele>740.55</ele><time>2026-06-12T18:38:03.000Z</time></trkpt>
        <trkpt lat="29.5775728" lon="103.3910416"><ele>740.96</ele><time>2026-06-12T18:38:49.000Z</time></trkpt>
        <trkpt lat="29.5776725" lon="103.3910901"><ele>743.3</ele><time>2026-06-12T18:38:59.000Z</time></trkpt>
        <trkpt lat="29.5777682" lon="103.3911088"><ele>743.64</ele><time>2026-06-12T18:39:11.000Z</time></trkpt>
        <trkpt lat="29.5778671" lon="103.3911165"><ele>741.95</ele><time>2026-06-12T18:39:37.000Z</time></trkpt>
        <trkpt lat="29.5779328" lon="103.391041"><ele>741.37</ele><time>2026-06-12T18:40:05.000Z</time></trkpt>
        <trkpt lat="29.5779833" lon="103.3909249"><ele>743.88</ele><time>2026-06-12T18:40:11.000Z</time></trkpt>
        <trkpt lat="29.5780487" lon="103.3908179"><ele>745.78</ele><time>2026-06-12T18:40:19.000Z</time></trkpt>
        <trkpt lat="29.5781137" lon="103.390694"><ele>745.4</ele><time>2026-06-12T18:40:27.000Z</time></trkpt>
        <trkpt lat="29.5781698" lon="103.3905712"><ele>745.23</ele><time>2026-06-12T18:40:35.000Z</time></trkpt>
        <trkpt lat="29.5782139" lon="103.3904533"><ele>746.08</ele><time>2026-06-12T18:40:43.000Z</time></trkpt>
        <trkpt lat="29.5782693" lon="103.3903608"><ele>748.02</ele><time>2026-06-12T18:40:55.000Z</time></trkpt>
        <trkpt lat="29.5783271" lon="103.3902628"><ele>749.91</ele><time>2026-06-12T18:41:01.000Z</time></trkpt>
        <trkpt lat="29.5783457" lon="103.3901616"><ele>749.39</ele><time>2026-06-12T18:41:09.000Z</time></trkpt>
        <trkpt lat="29.5783747" lon="103.3900601"><ele>749.87</ele><time>2026-06-12T18:41:17.000Z</time></trkpt>
        <trkpt lat="29.5784147" lon="103.3899546"><ele>751.21</ele><time>2026-06-12T18:41:27.000Z</time></trkpt>
        <trkpt lat="29.5784579" lon="103.3898578"><ele>753.27</ele><time>2026-06-12T18:41:33.000Z</time></trkpt>
        <trkpt lat="29.5784969" lon="103.3897494"><ele>754.62</ele><time>2026-06-12T18:41:43.000Z</time></trkpt>
        <trkpt lat="29.5784953" lon="103.3896288"><ele>756.2</ele><time>2026-06-12T18:41:55.000Z</time></trkpt>
        <trkpt lat="29.5784876" lon="103.3895167"><ele>757.53</ele><time>2026-06-12T18:42:01.000Z</time></trkpt>
        <trkpt lat="29.5784861" lon="103.3894049"><ele>758.51</ele><time>2026-06-12T18:42:15.000Z</time></trkpt>
        <trkpt lat="29.5784497" lon="103.3893058"><ele>759.54</ele><time>2026-06-12T18:42:23.000Z</time></trkpt>
        <trkpt lat="29.5783822" lon="103.389215"><ele>760.12</ele><time>2026-06-12T18:42:31.000Z</time></trkpt>
        <trkpt lat="29.5783368" lon="103.3891065"><ele>760.11</ele><time>2026-06-12T18:42:41.000Z</time></trkpt>
        <trkpt lat="29.5783838" lon="103.3890334"><ele>760.19</ele><time>2026-06-12T18:42:59.000Z</time></trkpt>
        <trkpt lat="29.5784685" lon="103.3890562"><ele>761.36</ele><time>2026-06-12T18:43:13.000Z</time></trkpt>
        <trkpt lat="29.5785696" lon="103.38908"><ele>761.38</ele><time>2026-06-12T18:43:39.000Z</time></trkpt>
        <trkpt lat="29.5786383" lon="103.3891593"><ele>760.05</ele><time>2026-06-12T18:43:49.000Z</time></trkpt>
        <trkpt lat="29.5787255" lon="103.3892156"><ele>759.04</ele><time>2026-06-12T18:44:03.000Z</time></trkpt>
        <trkpt lat="29.578817" lon="103.3892461"><ele>758.51</ele><time>2026-06-12T18:44:21.000Z</time></trkpt>
        <trkpt lat="29.5788677" lon="103.3893297"><ele>758.25</ele><time>2026-06-12T18:44:47.000Z</time></trkpt>
        <trkpt lat="29.5788514" lon="103.3892745"><ele>757.8</ele><time>2026-06-12T18:45:05.000Z</time></trkpt>
        <trkpt lat="29.57875" lon="103.3893117"><ele>756.94</ele><time>2026-06-12T18:46:29.000Z</time></trkpt>
        <trkpt lat="29.5786667" lon="103.3892467"><ele>759.55</ele><time>2026-06-12T18:47:13.000Z</time></trkpt>
        <trkpt lat="29.5786003" lon="103.3891676"><ele>760.47</ele><time>2026-06-12T18:47:25.000Z</time></trkpt>
        <trkpt lat="29.5786003" lon="103.3891676"><ele>760.47</ele><time>2026-06-12T18:47:35.000Z</time></trkpt>
        <trkpt lat="29.5786513" lon="103.3891104"><ele>761.22</ele><time>2026-06-12T18:47:44.000Z</time></trkpt>
        <trkpt lat="29.5786513" lon="103.3891104"><ele>761.22</ele><time>2026-06-12T18:48:11.000Z</time></trkpt>
        <trkpt lat="29.578822" lon="103.3890287"><ele>761.64</ele><time>2026-06-12T18:48:31.000Z</time></trkpt>
        <trkpt lat="29.5787843" lon="103.3889789"><ele>761.49</ele><time>2026-06-12T18:48:37.000Z</time></trkpt>
        <trkpt lat="29.5787322" lon="103.3889931"><ele>761.24</ele><time>2026-06-12T18:48:41.000Z</time></trkpt>
        <trkpt lat="29.5786946" lon="103.3891257"><ele>761.87</ele><time>2026-06-12T18:49:07.000Z</time></trkpt>
        <trkpt lat="29.5786185" lon="103.3892161"><ele>759.77</ele><time>2026-06-12T18:49:11.000Z</time></trkpt>
        <trkpt lat="29.5785135" lon="103.3892397"><ele>760.3</ele><time>2026-06-12T18:49:15.000Z</time></trkpt>
        <trkpt lat="29.5784696" lon="103.389154"><ele>759.4</ele><time>2026-06-12T18:49:19.000Z</time></trkpt>
        <trkpt lat="29.5784536" lon="103.3890182"><ele>760.73</ele><time>2026-06-12T18:49:27.000Z</time></trkpt>
        <trkpt lat="29.5784573" lon="103.388879"><ele>762.05</ele><time>2026-06-12T18:49:37.000Z</time></trkpt>
        <trkpt lat="29.5784573" lon="103.388879"><ele>762.05</ele><time>2026-06-12T18:50:03.000Z</time></trkpt>
        <trkpt lat="29.5785472" lon="103.388834"><ele>763.23</ele><time>2026-06-12T18:50:10.000Z</time></trkpt>
        <trkpt lat="29.5785472" lon="103.388834"><ele>763.23</ele><time>2026-06-12T18:50:19.000Z</time></trkpt>
        <trkpt lat="29.5786574" lon="103.3888234"><ele>769.2</ele><time>2026-06-12T18:50:25.000Z</time></trkpt>
        <trkpt lat="29.5787566" lon="103.3887945"><ele>771.78</ele><time>2026-06-12T18:50:31.000Z</time></trkpt>
        <trkpt lat="29.5788474" lon="103.3887279"><ele>771.87</ele><time>2026-06-12T18:50:39.000Z</time></trkpt>
        <trkpt lat="29.5789448" lon="103.3886754"><ele>771.24</ele><time>2026-06-12T18:50:55.000Z</time></trkpt>
        <trkpt lat="29.5790191" lon="103.3885984"><ele>769.76</ele><time>2026-06-12T18:51:05.000Z</time></trkpt>
        <trkpt lat="29.5790844" lon="103.3885111"><ele>769.52</ele><time>2026-06-12T18:52:03.000Z</time></trkpt>
        <trkpt lat="29.5790647" lon="103.3884078"><ele>772.31</ele><time>2026-06-12T18:52:09.000Z</time></trkpt>
        <trkpt lat="29.5790137" lon="103.3883111"><ele>773.38</ele><time>2026-06-12T18:52:15.000Z</time></trkpt>
        <trkpt lat="29.5790152" lon="103.3882097"><ele>773.17</ele><time>2026-06-12T18:52:33.000Z</time></trkpt>
        <trkpt lat="29.5790192" lon="103.388102"><ele>774.6</ele><time>2026-06-12T18:52:43.000Z</time></trkpt>
        <trkpt lat="29.5790223" lon="103.3879938"><ele>775.08</ele><time>2026-06-12T18:52:49.000Z</time></trkpt>
        <trkpt lat="29.5790072" lon="103.3879186"><ele>775.34</ele><time>2026-06-12T18:52:59.000Z</time></trkpt>
        <trkpt lat="29.578999" lon="103.3878257"><ele>776.66</ele><time>2026-06-12T18:53:11.000Z</time></trkpt>
        <trkpt lat="29.5789854" lon="103.3877172"><ele>777.19</ele><time>2026-06-12T18:53:17.000Z</time></trkpt>
        <trkpt lat="29.5789826" lon="103.3876006"><ele>777.8</ele><time>2026-06-12T18:53:23.000Z</time></trkpt>
        <trkpt lat="29.578984" lon="103.3874657"><ele>778.57</ele><time>2026-06-12T18:53:31.000Z</time></trkpt>
        <trkpt lat="29.5790516" lon="103.3874027"><ele>779.45</ele><time>2026-06-12T18:53:43.000Z</time></trkpt>
        <trkpt lat="29.579098" lon="103.3873649"><ele>780.93</ele><time>2026-06-12T18:53:49.000Z</time></trkpt>
        <trkpt lat="29.5792091" lon="103.3874008"><ele>782.17</ele><time>2026-06-12T18:53:59.000Z</time></trkpt>
        <trkpt lat="29.5792091" lon="103.3874008"><ele>782.17</ele><time>2026-06-12T18:54:05.000Z</time></trkpt>
        <trkpt lat="29.5791538" lon="103.3873592"><ele>783.6</ele><time>2026-06-12T18:54:16.000Z</time></trkpt>
        <trkpt lat="29.5791538" lon="103.3873592"><ele>783.6</ele><time>2026-06-12T18:54:17.000Z</time></trkpt>
        <trkpt lat="29.5791578" lon="103.3872773"><ele>784.33</ele><time>2026-06-12T18:54:31.000Z</time></trkpt>
        <trkpt lat="29.5791728" lon="103.3871594"><ele>784.58</ele><time>2026-06-12T18:54:37.000Z</time></trkpt>
        <trkpt lat="29.5791728" lon="103.3871594"><ele>784.58</ele><time>2026-06-12T18:54:43.000Z</time></trkpt>
        <trkpt lat="29.5790922" lon="103.3872291"><ele>784.76</ele><time>2026-06-12T18:54:48.000Z</time></trkpt>
        <trkpt lat="29.5790922" lon="103.3872291"><ele>784.76</ele><time>2026-06-12T18:54:55.000Z</time></trkpt>
        <trkpt lat="29.57902" lon="103.387198"><ele>784.86</ele><time>2026-06-12T18:55:11.000Z</time></trkpt>
        <trkpt lat="29.5790262" lon="103.3871029"><ele>785.05</ele><time>2026-06-12T18:55:19.000Z</time></trkpt>
        <trkpt lat="29.5790832" lon="103.3870142"><ele>784.86</ele><time>2026-06-12T18:55:35.000Z</time></trkpt>
        <trkpt lat="29.5791544" lon="103.3869195"><ele>784.75</ele><time>2026-06-12T18:56:07.000Z</time></trkpt>
        <trkpt lat="29.5792264" lon="103.3868305"><ele>788.12</ele><time>2026-06-12T18:56:19.000Z</time></trkpt>
        <trkpt lat="29.5792967" lon="103.3867475"><ele>791.77</ele><time>2026-06-12T18:56:31.000Z</time></trkpt>
        <trkpt lat="29.5793485" lon="103.3866571"><ele>797.03</ele><time>2026-06-12T18:56:45.000Z</time></trkpt>
        <trkpt lat="29.5793827" lon="103.3865587"><ele>803.08</ele><time>2026-06-12T18:56:59.000Z</time></trkpt>
        <trkpt lat="29.579421" lon="103.3864515"><ele>807.39</ele><time>2026-06-12T18:57:37.000Z</time></trkpt>
        <trkpt lat="29.5794371" lon="103.3863343"><ele>807.91</ele><time>2026-06-12T18:57:53.000Z</time></trkpt>
        <trkpt lat="29.5794493" lon="103.3862116"><ele>810.1</ele><time>2026-06-12T18:58:15.000Z</time></trkpt>
        <trkpt lat="29.5794577" lon="103.3860992"><ele>812.55</ele><time>2026-06-12T18:58:33.000Z</time></trkpt>
        <trkpt lat="29.5793982" lon="103.3859927"><ele>815.71</ele><time>2026-06-12T18:58:51.000Z</time></trkpt>
        <trkpt lat="29.5793982" lon="103.3859927"><ele>815.71</ele><time>2026-06-12T18:59:09.000Z</time></trkpt>
        <trkpt lat="29.5794435" lon="103.3859733"><ele>818.2</ele><time>2026-06-12T18:59:12.000Z</time></trkpt>
        <trkpt lat="29.5794435" lon="103.3859733"><ele>818.2</ele><time>2026-06-12T18:59:46.000Z</time></trkpt>
        <trkpt lat="29.5795012" lon="103.3859089"><ele>822.67</ele><time>2026-06-12T18:59:52.000Z</time></trkpt>
        <trkpt lat="29.5795322" lon="103.3858081"><ele>824.11</ele><time>2026-06-12T19:00:08.000Z</time></trkpt>
        <trkpt lat="29.5795836" lon="103.3857177"><ele>829.14</ele><time>2026-06-12T19:00:20.000Z</time></trkpt>
        <trkpt lat="29.5796362" lon="103.3856191"><ele>832.43</ele><time>2026-06-12T19:00:32.000Z</time></trkpt>
        <trkpt lat="29.5796869" lon="103.385533"><ele>835.77</ele><time>2026-06-12T19:00:50.000Z</time></trkpt>
        <trkpt lat="29.5797627" lon="103.385481"><ele>838.84</ele><time>2026-06-12T19:01:04.000Z</time></trkpt>
        <trkpt lat="29.5798473" lon="103.3854299"><ele>841.1</ele><time>2026-06-12T19:01:22.000Z</time></trkpt>
        <trkpt lat="29.5799274" lon="103.3853607"><ele>842.22</ele><time>2026-06-12T19:01:34.000Z</time></trkpt>
        <trkpt lat="29.5800171" lon="103.3853276"><ele>843.2</ele><time>2026-06-12T19:01:46.000Z</time></trkpt>
        <trkpt lat="29.5801024" lon="103.3852756"><ele>844.71</ele><time>2026-06-12T19:02:00.000Z</time></trkpt>
        <trkpt lat="29.5801803" lon="103.3852124"><ele>846.6</ele><time>2026-06-12T19:02:06.000Z</time></trkpt>
        <trkpt lat="29.5802415" lon="103.3851313"><ele>848.06</ele><time>2026-06-12T19:02:14.000Z</time></trkpt>
        <trkpt lat="29.5803046" lon="103.385037"><ele>849.37</ele><time>2026-06-12T19:02:22.000Z</time></trkpt>
        <trkpt lat="29.5803643" lon="103.3849491"><ele>850.63</ele><time>2026-06-12T19:02:34.000Z</time></trkpt>
        <trkpt lat="29.5804258" lon="103.3848563"><ele>852.72</ele><time>2026-06-12T19:02:44.000Z</time></trkpt>
        <trkpt lat="29.5804922" lon="103.3847645"><ele>854</ele><time>2026-06-12T19:03:18.000Z</time></trkpt>
        <trkpt lat="29.5805491" lon="103.3846637"><ele>854.65</ele><time>2026-06-12T19:03:26.000Z</time></trkpt>
        <trkpt lat="29.5806" lon="103.3845571"><ele>856.65</ele><time>2026-06-12T19:03:38.000Z</time></trkpt>
        <trkpt lat="29.5806716" lon="103.3844755"><ele>859.9</ele><time>2026-06-12T19:03:52.000Z</time></trkpt>
        <trkpt lat="29.5807475" lon="103.3844073"><ele>863.12</ele><time>2026-06-12T19:04:12.000Z</time></trkpt>
        <trkpt lat="29.5808267" lon="103.3843342"><ele>866.68</ele><time>2026-06-12T19:04:24.000Z</time></trkpt>
        <trkpt lat="29.5808964" lon="103.3842493"><ele>869.7</ele><time>2026-06-12T19:04:44.000Z</time></trkpt>
        <trkpt lat="29.5809746" lon="103.3841934"><ele>873.06</ele><time>2026-06-12T19:04:58.000Z</time></trkpt>
        <trkpt lat="29.5810687" lon="103.3842062"><ele>876.99</ele><time>2026-06-12T19:05:20.000Z</time></trkpt>
        <trkpt lat="29.5811581" lon="103.3842528"><ele>881.3</ele><time>2026-06-12T19:05:46.000Z</time></trkpt>
        <trkpt lat="29.5812499" lon="103.3842947"><ele>887.53</ele><time>2026-06-12T19:06:00.000Z</time></trkpt>
        <trkpt lat="29.581351" lon="103.3843506"><ele>892.38</ele><time>2026-06-12T19:06:34.000Z</time></trkpt>
        <trkpt lat="29.581351" lon="103.3843506"><ele>892.38</ele><time>2026-06-12T19:06:39.000Z</time></trkpt>
        <trkpt lat="29.5814013" lon="103.3842958"><ele>897.46</ele><time>2026-06-12T19:07:02.000Z</time></trkpt>
        <trkpt lat="29.5814013" lon="103.3842958"><ele>897.46</ele><time>2026-06-12T19:07:31.000Z</time></trkpt>
        <trkpt lat="29.5814013" lon="103.3842958"><ele>897.46</ele><time>2026-06-12T19:07:37.000Z</time></trkpt>
        <trkpt lat="29.5814851" lon="103.3843164"><ele>903.2</ele><time>2026-06-12T19:07:40.000Z</time></trkpt>
        <trkpt lat="29.5814851" lon="103.3843164"><ele>903.2</ele><time>2026-06-12T19:07:57.000Z</time></trkpt>
        <trkpt lat="29.5815922" lon="103.3843283"><ele>905.39</ele><time>2026-06-12T19:08:07.000Z</time></trkpt>
        <trkpt lat="29.581691" lon="103.3843181"><ele>909.14</ele><time>2026-06-12T19:08:21.000Z</time></trkpt>
        <trkpt lat="29.581691" lon="103.3843181"><ele>909.14</ele><time>2026-06-12T19:09:09.000Z</time></trkpt>
        <trkpt lat="29.581691" lon="103.3843181"><ele>909.14</ele><time>2026-06-12T19:09:22.000Z</time></trkpt>
        <trkpt lat="29.581691" lon="103.3843181"><ele>909.14</ele><time>2026-06-12T19:09:55.000Z</time></trkpt>
        <trkpt lat="29.581691" lon="103.3843181"><ele>909.14</ele><time>2026-06-12T19:10:00.000Z</time></trkpt>
        <trkpt lat="29.581691" lon="103.3843181"><ele>909.14</ele><time>2026-06-12T19:10:37.000Z</time></trkpt>
        <trkpt lat="29.581691" lon="103.3843181"><ele>909.14</ele><time>2026-06-12T19:10:52.000Z</time></trkpt>
        <trkpt lat="29.581691" lon="103.3843181"><ele>909.14</ele><time>2026-06-12T19:11:11.000Z</time></trkpt>
        <trkpt lat="29.581691" lon="103.3843181"><ele>909.14</ele><time>2026-06-12T19:11:14.000Z</time></trkpt>
        <trkpt lat="29.581691" lon="103.3843181"><ele>909.14</ele><time>2026-06-12T19:11:33.000Z</time></trkpt>
        <trkpt lat="29.581691" lon="103.3843181"><ele>909.14</ele><time>2026-06-12T19:11:42.000Z</time></trkpt>
        <trkpt lat="29.581691" lon="103.3843181"><ele>909.14</ele><time>2026-06-12T19:12:03.000Z</time></trkpt>
        <trkpt lat="29.581691" lon="103.3843181"><ele>909.14</ele><time>2026-06-12T19:12:08.000Z</time></trkpt>
        <trkpt lat="29.581691" lon="103.3843181"><ele>909.14</ele><time>2026-06-12T19:12:19.000Z</time></trkpt>
        <trkpt lat="29.581691" lon="103.3843181"><ele>909.14</ele><time>2026-06-12T19:13:00.000Z</time></trkpt>
        <trkpt lat="29.581691" lon="103.3843181"><ele>909.14</ele><time>2026-06-12T19:13:31.000Z</time></trkpt>
        <trkpt lat="29.581691" lon="103.3843181"><ele>909.14</ele><time>2026-06-12T19:13:32.000Z</time></trkpt>
        <trkpt lat="29.581691" lon="103.3843181"><ele>909.14</ele><time>2026-06-12T19:13:59.000Z</time></trkpt>
        <trkpt lat="29.581665" lon="103.384415"><ele>916.18</ele><time>2026-06-12T19:14:10.000Z</time></trkpt>
        <trkpt lat="29.581665" lon="103.384415"><ele>916.18</ele><time>2026-06-12T19:14:23.000Z</time></trkpt>
        <trkpt lat="29.5817333" lon="103.3842783"><ele>917.91</ele><time>2026-06-12T19:14:45.000Z</time></trkpt>
        <trkpt lat="29.5816433" lon="103.3842583"><ele>917.52</ele><time>2026-06-12T19:16:07.000Z</time></trkpt>
        <trkpt lat="29.5815967" lon="103.3841617"><ele>917.72</ele><time>2026-06-12T19:16:19.000Z</time></trkpt>
        <trkpt lat="29.5815288" lon="103.3840904"><ele>918.06</ele><time>2026-06-12T19:16:31.000Z</time></trkpt>
        <trkpt lat="29.5815288" lon="103.3840904"><ele>918.06</ele><time>2026-06-12T19:19:23.000Z</time></trkpt>
        <trkpt lat="29.5815983" lon="103.3841667"><ele>919.07</ele><time>2026-06-12T19:19:26.000Z</time></trkpt>
        <trkpt lat="29.5815983" lon="103.3841667"><ele>919.07</ele><time>2026-06-12T19:21:11.000Z</time></trkpt>
        <trkpt lat="29.5816883" lon="103.38417"><ele>922.18</ele><time>2026-06-12T19:21:41.000Z</time></trkpt>
        <trkpt lat="29.5816246" lon="103.3841733"><ele>923.26</ele><time>2026-06-12T19:22:23.000Z</time></trkpt>
        <trkpt lat="29.5815465" lon="103.3841059"><ele>923.32</ele><time>2026-06-12T19:22:51.000Z</time></trkpt>
        <trkpt lat="29.581495" lon="103.3839817"><ele>924.34</ele><time>2026-06-12T19:23:53.000Z</time></trkpt>
        <trkpt lat="29.5814333" lon="103.3838933"><ele>926.22</ele><time>2026-06-12T19:24:05.000Z</time></trkpt>
        <trkpt lat="29.5814549" lon="103.3837838"><ele>929.31</ele><time>2026-06-12T19:24:15.000Z</time></trkpt>
        <trkpt lat="29.5815323" lon="103.3837118"><ele>933.26</ele><time>2026-06-12T19:24:49.000Z</time></trkpt>
        <trkpt lat="29.5816176" lon="103.3836513"><ele>936.5</ele><time>2026-06-12T19:24:55.000Z</time></trkpt>
        <trkpt lat="29.5816867" lon="103.3835754"><ele>937.84</ele><time>2026-06-12T19:25:01.000Z</time></trkpt>
        <trkpt lat="29.5817457" lon="103.38349"><ele>937.99</ele><time>2026-06-12T19:25:07.000Z</time></trkpt>
        <trkpt lat="29.5818027" lon="103.383405"><ele>938.12</ele><time>2026-06-12T19:25:15.000Z</time></trkpt>
        <trkpt lat="29.5818779" lon="103.3833144"><ele>937.81</ele><time>2026-06-12T19:25:25.000Z</time></trkpt>
        <trkpt lat="29.5819436" lon="103.383232"><ele>937.03</ele><time>2026-06-12T19:25:33.000Z</time></trkpt>
        <trkpt lat="29.581931" lon="103.3831319"><ele>937.06</ele><time>2026-06-12T19:25:43.000Z</time></trkpt>
        <trkpt lat="29.5819175" lon="103.383025"><ele>938.41</ele><time>2026-06-12T19:25:55.000Z</time></trkpt>
        <trkpt lat="29.5818778" lon="103.382904"><ele>941.2</ele><time>2026-06-12T19:26:41.000Z</time></trkpt>
        <trkpt lat="29.5819061" lon="103.3828012"><ele>944.64</ele><time>2026-06-12T19:27:29.000Z</time></trkpt>
        <trkpt lat="29.5819456" lon="103.3826712"><ele>950.04</ele><time>2026-06-12T19:27:39.000Z</time></trkpt>
        <trkpt lat="29.5819656" lon="103.3825447"><ele>950.33</ele><time>2026-06-12T19:27:49.000Z</time></trkpt>
        <trkpt lat="29.5819991" lon="103.3824195"><ele>949.45</ele><time>2026-06-12T19:28:07.000Z</time></trkpt>
        <trkpt lat="29.5820628" lon="103.3823128"><ele>950.89</ele><time>2026-06-12T19:28:19.000Z</time></trkpt>
        <trkpt lat="29.582108" lon="103.3821993"><ele>951.76</ele><time>2026-06-12T19:28:27.000Z</time></trkpt>
        <trkpt lat="29.5821532" lon="103.3820925"><ele>950.87</ele><time>2026-06-12T19:28:35.000Z</time></trkpt>
        <trkpt lat="29.582207" lon="103.3819754"><ele>951.7</ele><time>2026-06-12T19:28:43.000Z</time></trkpt>
        <trkpt lat="29.5822903" lon="103.381903"><ele>952.95</ele><time>2026-06-12T19:28:51.000Z</time></trkpt>
        <trkpt lat="29.5823802" lon="103.3818159"><ele>953.74</ele><time>2026-06-12T19:28:59.000Z</time></trkpt>
        <trkpt lat="29.5824542" lon="103.3817187"><ele>954.59</ele><time>2026-06-12T19:29:09.000Z</time></trkpt>
        <trkpt lat="29.5825124" lon="103.38163"><ele>955.71</ele><time>2026-06-12T19:29:15.000Z</time></trkpt>
        <trkpt lat="29.5825687" lon="103.3815183"><ele>956.74</ele><time>2026-06-12T19:29:23.000Z</time></trkpt>
        <trkpt lat="29.5826252" lon="103.3814143"><ele>957.67</ele><time>2026-06-12T19:29:29.000Z</time></trkpt>
        <trkpt lat="29.5826887" lon="103.381328"><ele>957.98</ele><time>2026-06-12T19:29:35.000Z</time></trkpt>
        <trkpt lat="29.5827375" lon="103.3812396"><ele>958.21</ele><time>2026-06-12T19:29:41.000Z</time></trkpt>
        <trkpt lat="29.5827957" lon="103.3811344"><ele>958.63</ele><time>2026-06-12T19:29:49.000Z</time></trkpt>
        <trkpt lat="29.5827993" lon="103.3810453"><ele>958.79</ele><time>2026-06-12T19:30:13.000Z</time></trkpt>
        <trkpt lat="29.5827689" lon="103.3809191"><ele>958.58</ele><time>2026-06-12T19:30:23.000Z</time></trkpt>
        <trkpt lat="29.5827779" lon="103.3807925"><ele>957.64</ele><time>2026-06-12T19:30:31.000Z</time></trkpt>
        <trkpt lat="29.5827934" lon="103.3806563"><ele>956.94</ele><time>2026-06-12T19:30:39.000Z</time></trkpt>
        <trkpt lat="29.5828297" lon="103.3805238"><ele>956.32</ele><time>2026-06-12T19:30:47.000Z</time></trkpt>
        <trkpt lat="29.5828706" lon="103.3804112"><ele>955.02</ele><time>2026-06-12T19:30:53.000Z</time></trkpt>
        <trkpt lat="29.5829117" lon="103.380305"><ele>953.81</ele><time>2026-06-12T19:30:59.000Z</time></trkpt>
        <trkpt lat="29.5829619" lon="103.380209"><ele>953.5</ele><time>2026-06-12T19:31:05.000Z</time></trkpt>
        <trkpt lat="29.5830186" lon="103.3801246"><ele>953.54</ele><time>2026-06-12T19:31:11.000Z</time></trkpt>
        <trkpt lat="29.5830845" lon="103.3800435"><ele>954.6</ele><time>2026-06-12T19:31:17.000Z</time></trkpt>
        <trkpt lat="29.5831166" lon="103.3799361"><ele>956.02</ele><time>2026-06-12T19:31:25.000Z</time></trkpt>
        <trkpt lat="29.5830991" lon="103.3798321"><ele>958.08</ele><time>2026-06-12T19:31:33.000Z</time></trkpt>
        <trkpt lat="29.5830436" lon="103.3797367"><ele>960.8</ele><time>2026-06-12T19:31:41.000Z</time></trkpt>
        <trkpt lat="29.5829939" lon="103.3796371"><ele>963.72</ele><time>2026-06-12T19:31:51.000Z</time></trkpt>
        <trkpt lat="29.5830079" lon="103.3795271"><ele>966.38</ele><time>2026-06-12T19:32:13.000Z</time></trkpt>
        <trkpt lat="29.5829517" lon="103.3794608"><ele>968.15</ele><time>2026-06-12T19:32:35.000Z</time></trkpt>
        <trkpt lat="29.5828673" lon="103.3794951"><ele>970.28</ele><time>2026-06-12T19:32:43.000Z</time></trkpt>
        <trkpt lat="29.5827738" lon="103.3795502"><ele>972.18</ele><time>2026-06-12T19:32:51.000Z</time></trkpt>
        <trkpt lat="29.582725" lon="103.3794862"><ele>973.18</ele><time>2026-06-12T19:33:09.000Z</time></trkpt>
        <trkpt lat="29.5827121" lon="103.379374"><ele>973.96</ele><time>2026-06-12T19:33:17.000Z</time></trkpt>
        <trkpt lat="29.5827872" lon="103.3793171"><ele>975.96</ele><time>2026-06-12T19:33:39.000Z</time></trkpt>
        <trkpt lat="29.5828881" lon="103.3792751"><ele>977.52</ele><time>2026-06-12T19:33:51.000Z</time></trkpt>
        <trkpt lat="29.5829658" lon="103.3791881"><ele>979.62</ele><time>2026-06-12T19:34:01.000Z</time></trkpt>
        <trkpt lat="29.5830291" lon="103.3790886"><ele>981.94</ele><time>2026-06-12T19:34:07.000Z</time></trkpt>
        <trkpt lat="29.5830659" lon="103.3789851"><ele>983.73</ele><time>2026-06-12T19:34:19.000Z</time></trkpt>
        <trkpt lat="29.5830655" lon="103.3788743"><ele>985.35</ele><time>2026-06-12T19:34:29.000Z</time></trkpt>
        <trkpt lat="29.5830155" lon="103.378777"><ele>986.49</ele><time>2026-06-12T19:34:41.000Z</time></trkpt>
        <trkpt lat="29.582949" lon="103.3786819"><ele>988.09</ele><time>2026-06-12T19:35:01.000Z</time></trkpt>
        <trkpt lat="29.5828707" lon="103.3786074"><ele>991.02</ele><time>2026-06-12T19:35:19.000Z</time></trkpt>
        <trkpt lat="29.5827949" lon="103.3785252"><ele>995.48</ele><time>2026-06-12T19:35:55.000Z</time></trkpt>
        <trkpt lat="29.5827949" lon="103.3785252"><ele>995.48</ele><time>2026-06-12T19:36:19.000Z</time></trkpt>
        <trkpt lat="29.5827949" lon="103.3785252"><ele>995.48</ele><time>2026-06-12T19:36:20.000Z</time></trkpt>
        <trkpt lat="29.5827949" lon="103.3785252"><ele>995.48</ele><time>2026-06-12T19:36:31.000Z</time></trkpt>
        <trkpt lat="29.582705" lon="103.3784767"><ele>998.97</ele><time>2026-06-12T19:36:56.000Z</time></trkpt>
        <trkpt lat="29.582705" lon="103.3784767"><ele>998.97</ele><time>2026-06-12T19:37:09.000Z</time></trkpt>
        <trkpt lat="29.582705" lon="103.3784767"><ele>998.97</ele><time>2026-06-12T19:37:19.000Z</time></trkpt>
        <trkpt lat="29.582705" lon="103.3784767"><ele>998.97</ele><time>2026-06-12T19:41:04.000Z</time></trkpt>
        <trkpt lat="29.582705" lon="103.3784767"><ele>998.97</ele><time>2026-06-12T19:41:27.000Z</time></trkpt>
        <trkpt lat="29.5827033" lon="103.3785883"><ele>1000.84</ele><time>2026-06-12T19:42:42.000Z</time></trkpt>
        <trkpt lat="29.5827033" lon="103.3785883"><ele>1000.84</ele><time>2026-06-12T19:42:43.000Z</time></trkpt>
        <trkpt lat="29.5827033" lon="103.3785883"><ele>1000.84</ele><time>2026-06-12T19:42:53.000Z</time></trkpt>
        <trkpt lat="29.5827033" lon="103.3785883"><ele>1000.84</ele><time>2026-06-12T19:45:56.000Z</time></trkpt>
        <trkpt lat="29.5827033" lon="103.3785883"><ele>1000.84</ele><time>2026-06-12T19:46:05.000Z</time></trkpt>
        <trkpt lat="29.582755" lon="103.378475"><ele>1004.78</ele><time>2026-06-12T19:46:06.000Z</time></trkpt>
        <trkpt lat="29.582755" lon="103.378475"><ele>1004.78</ele><time>2026-06-12T19:46:28.000Z</time></trkpt>
        <trkpt lat="29.582755" lon="103.378475"><ele>1004.78</ele><time>2026-06-12T19:46:49.000Z</time></trkpt>
        <trkpt lat="29.5826617" lon="103.37845"><ele>1001.17</ele><time>2026-06-12T19:46:50.000Z</time></trkpt>
        <trkpt lat="29.5826617" lon="103.37845"><ele>1001.17</ele><time>2026-06-12T19:46:58.000Z</time></trkpt>
        <trkpt lat="29.5825782" lon="103.3783799"><ele>1004.33</ele><time>2026-06-12T19:47:08.000Z</time></trkpt>
        <trkpt lat="29.5825068" lon="103.3783069"><ele>1007.28</ele><time>2026-06-12T19:47:24.000Z</time></trkpt>
        <trkpt lat="29.5824404" lon="103.3781939"><ele>1009.44</ele><time>2026-06-12T19:48:06.000Z</time></trkpt>
        <trkpt lat="29.5823967" lon="103.3780873"><ele>1012.61</ele><time>2026-06-12T19:48:16.000Z</time></trkpt>
        <trkpt lat="29.5823843" lon="103.3779718"><ele>1015.49</ele><time>2026-06-12T19:48:30.000Z</time></trkpt>
        <trkpt lat="29.582398" lon="103.377853"><ele>1019.06</ele><time>2026-06-12T19:48:42.000Z</time></trkpt>
        <trkpt lat="29.5824112" lon="103.3777442"><ele>1023.64</ele><time>2026-06-12T19:48:54.000Z</time></trkpt>
        <trkpt lat="29.5824288" lon="103.3776335"><ele>1028.35</ele><time>2026-06-12T19:49:08.000Z</time></trkpt>
        <trkpt lat="29.5824279" lon="103.377527"><ele>1032.63</ele><time>2026-06-12T19:49:24.000Z</time></trkpt>
        <trkpt lat="29.5824517" lon="103.3774284"><ele>1036.19</ele><time>2026-06-12T19:49:40.000Z</time></trkpt>
        <trkpt lat="29.5824098" lon="103.3773512"><ele>1039.12</ele><time>2026-06-12T19:50:02.000Z</time></trkpt>
        <trkpt lat="29.5823342" lon="103.37728"><ele>1042.21</ele><time>2026-06-12T19:50:24.000Z</time></trkpt>
        <trkpt lat="29.5822692" lon="103.3771983"><ele>1044.23</ele><time>2026-06-12T19:50:40.000Z</time></trkpt>
        <trkpt lat="29.5821853" lon="103.3771354"><ele>1048.04</ele><time>2026-06-12T19:51:00.000Z</time></trkpt>
        <trkpt lat="29.582137" lon="103.3770493"><ele>1052.63</ele><time>2026-06-12T19:51:46.000Z</time></trkpt>
        <trkpt lat="29.5821347" lon="103.3769388"><ele>1058.16</ele><time>2026-06-12T19:52:04.000Z</time></trkpt>
        <trkpt lat="29.582152" lon="103.3768274"><ele>1063.26</ele><time>2026-06-12T19:52:24.000Z</time></trkpt>
        <trkpt lat="29.5820994" lon="103.3767639"><ele>1068.48</ele><time>2026-06-12T19:52:54.000Z</time></trkpt>
        <trkpt lat="29.5820994" lon="103.3767639"><ele>1068.48</ele><time>2026-06-12T19:53:21.000Z</time></trkpt>
        <trkpt lat="29.5820994" lon="103.3767639"><ele>1068.48</ele><time>2026-06-12T19:53:24.000Z</time></trkpt>
        <trkpt lat="29.5820994" lon="103.3767639"><ele>1068.48</ele><time>2026-06-12T19:53:51.000Z</time></trkpt>
        <trkpt lat="29.58204" lon="103.376685"><ele>1073.09</ele><time>2026-06-12T19:53:52.000Z</time></trkpt>
        <trkpt lat="29.58204" lon="103.376685"><ele>1073.09</ele><time>2026-06-12T19:54:32.000Z</time></trkpt>
        <trkpt lat="29.5820383" lon="103.3765717"><ele>1079.72</ele><time>2026-06-12T19:54:54.000Z</time></trkpt>
        <trkpt lat="29.5819605" lon="103.3765317"><ele>1085.17</ele><time>2026-06-12T19:55:30.000Z</time></trkpt>
        <trkpt lat="29.5818744" lon="103.3764931"><ele>1090.05</ele><time>2026-06-12T19:55:54.000Z</time></trkpt>
        <trkpt lat="29.5817814" lon="103.3764866"><ele>1095.49</ele><time>2026-06-12T19:56:12.000Z</time></trkpt>
        <trkpt lat="29.5817649" lon="103.3764107"><ele>1099.24</ele><time>2026-06-12T19:56:42.000Z</time></trkpt>
        <trkpt lat="29.5818067" lon="103.3763218"><ele>1104.43</ele><time>2026-06-12T19:56:56.000Z</time></trkpt>
        <trkpt lat="29.5818001" lon="103.3762191"><ele>1108.89</ele><time>2026-06-12T19:57:12.000Z</time></trkpt>
        <trkpt lat="29.5817245" lon="103.3762123"><ele>1113.19</ele><time>2026-06-12T19:57:46.000Z</time></trkpt>
        <trkpt lat="29.5816338" lon="103.3762536"><ele>1117.97</ele><time>2026-06-12T19:58:04.000Z</time></trkpt>
        <trkpt lat="29.5815376" lon="103.3762944"><ele>1121</ele><time>2026-06-12T19:58:22.000Z</time></trkpt>
        <trkpt lat="29.5814409" lon="103.3763038"><ele>1124.52</ele><time>2026-06-12T19:58:46.000Z</time></trkpt>
        <trkpt lat="29.5814409" lon="103.3763038"><ele>1124.52</ele><time>2026-06-12T19:59:19.000Z</time></trkpt>
        <trkpt lat="29.5813417" lon="103.37635"><ele>1128.64</ele><time>2026-06-12T19:59:28.000Z</time></trkpt>
        <trkpt lat="29.5813417" lon="103.37635"><ele>1128.64</ele><time>2026-06-12T19:59:56.000Z</time></trkpt>
        <trkpt lat="29.581255" lon="103.37639"><ele>1135.55</ele><time>2026-06-12T20:00:14.000Z</time></trkpt>
        <trkpt lat="29.5811951" lon="103.3764681"><ele>1140.65</ele><time>2026-06-12T20:00:30.000Z</time></trkpt>
        <trkpt lat="29.5811117" lon="103.376477"><ele>1144.8</ele><time>2026-06-12T20:01:20.000Z</time></trkpt>
        <trkpt lat="29.5811117" lon="103.376477"><ele>1144.8</ele><time>2026-06-12T20:01:37.000Z</time></trkpt>
        <trkpt lat="29.5811117" lon="103.376477"><ele>1144.8</ele><time>2026-06-12T20:01:38.000Z</time></trkpt>
        <trkpt lat="29.5811117" lon="103.376477"><ele>1144.8</ele><time>2026-06-12T20:03:03.000Z</time></trkpt>
        <trkpt lat="29.5811117" lon="103.376477"><ele>1144.8</ele><time>2026-06-12T20:03:16.000Z</time></trkpt>
        <trkpt lat="29.5811117" lon="103.376477"><ele>1144.8</ele><time>2026-06-12T20:03:53.000Z</time></trkpt>
        <trkpt lat="29.5811117" lon="103.376477"><ele>1144.8</ele><time>2026-06-12T20:04:04.000Z</time></trkpt>
        <trkpt lat="29.5811117" lon="103.376477"><ele>1144.8</ele><time>2026-06-12T20:04:25.000Z</time></trkpt>
        <trkpt lat="29.58102" lon="103.37644"><ele>1151.04</ele><time>2026-06-12T20:04:34.000Z</time></trkpt>
        <trkpt lat="29.58102" lon="103.37644"><ele>1151.04</ele><time>2026-06-12T20:05:50.000Z</time></trkpt>
        <trkpt lat="29.5809267" lon="103.376405"><ele>1160.4</ele><time>2026-06-12T20:06:08.000Z</time></trkpt>
        <trkpt lat="29.5809744" lon="103.3763488"><ele>1167.58</ele><time>2026-06-12T20:06:30.000Z</time></trkpt>
        <trkpt lat="29.5809891" lon="103.3762465"><ele>1173.91</ele><time>2026-06-12T20:06:50.000Z</time></trkpt>
        <trkpt lat="29.5809279" lon="103.3761898"><ele>1179.33</ele><time>2026-06-12T20:07:16.000Z</time></trkpt>
        <trkpt lat="29.5808358" lon="103.3761887"><ele>1184.48</ele><time>2026-06-12T20:07:34.000Z</time></trkpt>
        <trkpt lat="29.580728" lon="103.3762272"><ele>1188.7</ele><time>2026-06-12T20:07:46.000Z</time></trkpt>
        <trkpt lat="29.5806215" lon="103.3762479"><ele>1192.53</ele><time>2026-06-12T20:07:52.000Z</time></trkpt>
        <trkpt lat="29.5805133" lon="103.3762856"><ele>1195.06</ele><time>2026-06-12T20:08:00.000Z</time></trkpt>
        <trkpt lat="29.580412" lon="103.3763171"><ele>1196.75</ele><time>2026-06-12T20:08:08.000Z</time></trkpt>
        <trkpt lat="29.5803203" lon="103.3762971"><ele>1197.25</ele><time>2026-06-12T20:08:16.000Z</time></trkpt>
        <trkpt lat="29.5802235" lon="103.3762817"><ele>1196.67</ele><time>2026-06-12T20:08:24.000Z</time></trkpt>
        <trkpt lat="29.5801217" lon="103.3762392"><ele>1195.61</ele><time>2026-06-12T20:08:32.000Z</time></trkpt>
        <trkpt lat="29.5800419" lon="103.3761578"><ele>1195.95</ele><time>2026-06-12T20:08:40.000Z</time></trkpt>
        <trkpt lat="29.5799968" lon="103.3760869"><ele>1196.62</ele><time>2026-06-12T20:08:56.000Z</time></trkpt>
        <trkpt lat="29.5799432" lon="103.375998"><ele>1198.67</ele><time>2026-06-12T20:09:18.000Z</time></trkpt>
        <trkpt lat="29.5798816" lon="103.3758898"><ele>1201.27</ele><time>2026-06-12T20:09:24.000Z</time></trkpt>
        <trkpt lat="29.5798413" lon="103.375775"><ele>1202.92</ele><time>2026-06-12T20:09:30.000Z</time></trkpt>
        <trkpt lat="29.5798049" lon="103.3756571"><ele>1204.29</ele><time>2026-06-12T20:09:40.000Z</time></trkpt>
        <trkpt lat="29.5798528" lon="103.3755745"><ele>1207.17</ele><time>2026-06-12T20:09:52.000Z</time></trkpt>
        <trkpt lat="29.5799431" lon="103.3755195"><ele>1210.45</ele><time>2026-06-12T20:10:08.000Z</time></trkpt>
        <trkpt lat="29.5800325" lon="103.3754569"><ele>1211.81</ele><time>2026-06-12T20:10:28.000Z</time></trkpt>
        <trkpt lat="29.5800325" lon="103.3754569"><ele>1211.81</ele><time>2026-06-12T20:10:39.000Z</time></trkpt>
        <trkpt lat="29.5801317" lon="103.3754317"><ele>1213.4</ele><time>2026-06-12T20:10:42.000Z</time></trkpt>
        <trkpt lat="29.5801317" lon="103.3754317"><ele>1213.4</ele><time>2026-06-12T20:10:55.000Z</time></trkpt>
        <trkpt lat="29.5802294" lon="103.3754357"><ele>1215.63</ele><time>2026-06-12T20:11:17.000Z</time></trkpt>
        <trkpt lat="29.5803495" lon="103.3754793"><ele>1219.79</ele><time>2026-06-12T20:12:07.000Z</time></trkpt>
        <trkpt lat="29.5804445" lon="103.3754654"><ele>1226.03</ele><time>2026-06-12T20:12:21.000Z</time></trkpt>
        <trkpt lat="29.5805109" lon="103.3753981"><ele>1230.36</ele><time>2026-06-12T20:12:37.000Z</time></trkpt>
        <trkpt lat="29.5805925" lon="103.3753463"><ele>1234.38</ele><time>2026-06-12T20:12:59.000Z</time></trkpt>
        <trkpt lat="29.5806914" lon="103.3753349"><ele>1238.52</ele><time>2026-06-12T20:13:11.000Z</time></trkpt>
        <trkpt lat="29.5807278" lon="103.3752568"><ele>1240.79</ele><time>2026-06-12T20:13:57.000Z</time></trkpt>
        <trkpt lat="29.5807256" lon="103.3751488"><ele>1242.34</ele><time>2026-06-12T20:14:17.000Z</time></trkpt>
        <trkpt lat="29.5807256" lon="103.3751488"><ele>1242.34</ele><time>2026-06-12T20:14:53.000Z</time></trkpt>
        <trkpt lat="29.5807473" lon="103.3750164"><ele>1245.25</ele><time>2026-06-12T20:14:58.000Z</time></trkpt>
        <trkpt lat="29.5807473" lon="103.3750164"><ele>1245.25</ele><time>2026-06-12T20:15:05.000Z</time></trkpt>
        <trkpt lat="29.5807387" lon="103.3748969"><ele>1249.4</ele><time>2026-06-12T20:15:41.000Z</time></trkpt>
        <trkpt lat="29.5807011" lon="103.374789"><ele>1254.09</ele><time>2026-06-12T20:16:01.000Z</time></trkpt>
        <trkpt lat="29.5807011" lon="103.374789"><ele>1254.09</ele><time>2026-06-12T20:16:37.000Z</time></trkpt>
        <trkpt lat="29.5807011" lon="103.374789"><ele>1254.09</ele><time>2026-06-12T20:16:42.000Z</time></trkpt>
        <trkpt lat="29.5807011" lon="103.374789"><ele>1254.09</ele><time>2026-06-12T20:16:53.000Z</time></trkpt>
        <trkpt lat="29.5807011" lon="103.374789"><ele>1254.09</ele><time>2026-06-12T20:17:48.000Z</time></trkpt>
        <trkpt lat="29.5807011" lon="103.374789"><ele>1254.09</ele><time>2026-06-12T20:17:59.000Z</time></trkpt>
        <trkpt lat="29.5807011" lon="103.374789"><ele>1254.09</ele><time>2026-06-12T20:18:04.000Z</time></trkpt>
        <trkpt lat="29.5807011" lon="103.374789"><ele>1254.09</ele><time>2026-06-12T20:18:39.000Z</time></trkpt>
        <trkpt lat="29.5807011" lon="103.374789"><ele>1254.09</ele><time>2026-06-12T20:18:44.000Z</time></trkpt>
        <trkpt lat="29.5807011" lon="103.374789"><ele>1254.09</ele><time>2026-06-12T20:18:53.000Z</time></trkpt>
        <trkpt lat="29.5807011" lon="103.374789"><ele>1254.09</ele><time>2026-06-12T20:19:22.000Z</time></trkpt>
        <trkpt lat="29.5807011" lon="103.374789"><ele>1254.09</ele><time>2026-06-12T20:19:31.000Z</time></trkpt>
        <trkpt lat="29.5807011" lon="103.374789"><ele>1254.09</ele><time>2026-06-12T20:19:36.000Z</time></trkpt>
        <trkpt lat="29.5807011" lon="103.374789"><ele>1254.09</ele><time>2026-06-12T20:19:47.000Z</time></trkpt>
        <trkpt lat="29.5807011" lon="103.374789"><ele>1254.09</ele><time>2026-06-12T20:19:50.000Z</time></trkpt>
        <trkpt lat="29.5807011" lon="103.374789"><ele>1254.09</ele><time>2026-06-12T20:20:07.000Z</time></trkpt>
        <trkpt lat="29.5807011" lon="103.374789"><ele>1254.09</ele><time>2026-06-12T20:20:26.000Z</time></trkpt>
        <trkpt lat="29.5807011" lon="103.374789"><ele>1254.09</ele><time>2026-06-12T20:20:37.000Z</time></trkpt>
        <trkpt lat="29.5807011" lon="103.374789"><ele>1254.09</ele><time>2026-06-12T20:20:40.000Z</time></trkpt>
        <trkpt lat="29.5807011" lon="103.374789"><ele>1254.09</ele><time>2026-06-12T20:20:51.000Z</time></trkpt>
        <trkpt lat="29.5807011" lon="103.374789"><ele>1254.09</ele><time>2026-06-12T20:21:14.000Z</time></trkpt>
        <trkpt lat="29.5807011" lon="103.374789"><ele>1254.09</ele><time>2026-06-12T20:22:19.000Z</time></trkpt>
        <trkpt lat="29.5807011" lon="103.374789"><ele>1254.09</ele><time>2026-06-12T20:22:20.000Z</time></trkpt>
        <trkpt lat="29.5807011" lon="103.374789"><ele>1254.09</ele><time>2026-06-12T20:22:31.000Z</time></trkpt>
        <trkpt lat="29.5807011" lon="103.374789"><ele>1254.09</ele><time>2026-06-12T20:22:48.000Z</time></trkpt>
        <trkpt lat="29.5807011" lon="103.374789"><ele>1254.09</ele><time>2026-06-12T20:23:05.000Z</time></trkpt>
        <trkpt lat="29.5807011" lon="103.374789"><ele>1254.09</ele><time>2026-06-12T20:24:08.000Z</time></trkpt>
        <trkpt lat="29.5807011" lon="103.374789"><ele>1254.09</ele><time>2026-06-12T20:24:59.000Z</time></trkpt>
        <trkpt lat="29.5807011" lon="103.374789"><ele>1254.09</ele><time>2026-06-12T20:25:08.000Z</time></trkpt>
        <trkpt lat="29.5807011" lon="103.374789"><ele>1254.09</ele><time>2026-06-12T20:25:37.000Z</time></trkpt>
        <trkpt lat="29.5807011" lon="103.374789"><ele>1254.09</ele><time>2026-06-12T20:25:40.000Z</time></trkpt>
        <trkpt lat="29.5807011" lon="103.374789"><ele>1254.09</ele><time>2026-06-12T20:25:59.000Z</time></trkpt>
        <trkpt lat="29.5807011" lon="103.374789"><ele>1254.09</ele><time>2026-06-12T20:26:06.000Z</time></trkpt>
        <trkpt lat="29.5807011" lon="103.374789"><ele>1254.09</ele><time>2026-06-12T20:26:51.000Z</time></trkpt>
        <trkpt lat="29.5807011" lon="103.374789"><ele>1254.09</ele><time>2026-06-12T20:26:52.000Z</time></trkpt>
        <trkpt lat="29.5807011" lon="103.374789"><ele>1254.09</ele><time>2026-06-12T20:27:15.000Z</time></trkpt>
        <trkpt lat="29.5807011" lon="103.374789"><ele>1254.09</ele><time>2026-06-12T20:27:18.000Z</time></trkpt>
        <trkpt lat="29.5807011" lon="103.374789"><ele>1254.09</ele><time>2026-06-12T20:28:41.000Z</time></trkpt>
        <trkpt lat="29.5806767" lon="103.3746667"><ele>1259.64</ele><time>2026-06-12T20:28:44.000Z</time></trkpt>
        <trkpt lat="29.5806767" lon="103.3746667"><ele>1259.64</ele><time>2026-06-12T20:29:14.000Z</time></trkpt>
        <trkpt lat="29.580675" lon="103.374555"><ele>1268.96</ele><time>2026-06-12T20:29:34.000Z</time></trkpt>
        <trkpt lat="29.580679" lon="103.3744504"><ele>1275.43</ele><time>2026-06-12T20:29:48.000Z</time></trkpt>
        <trkpt lat="29.5806865" lon="103.3743432"><ele>1280.19</ele><time>2026-06-12T20:30:00.000Z</time></trkpt>
        <trkpt lat="29.5806965" lon="103.3742389"><ele>1284.63</ele><time>2026-06-12T20:30:26.000Z</time></trkpt>
        <trkpt lat="29.5807058" lon="103.3741307"><ele>1289.17</ele><time>2026-06-12T20:30:52.000Z</time></trkpt>
        <trkpt lat="29.5807035" lon="103.3740184"><ele>1293.49</ele><time>2026-06-12T20:31:04.000Z</time></trkpt>
        <trkpt lat="29.5806841" lon="103.3739147"><ele>1297.11</ele><time>2026-06-12T20:31:18.000Z</time></trkpt>
        <trkpt lat="29.5806141" lon="103.3738471"><ele>1300.85</ele><time>2026-06-12T20:31:36.000Z</time></trkpt>
        <trkpt lat="29.5805255" lon="103.3738035"><ele>1305</ele><time>2026-06-12T20:31:48.000Z</time></trkpt>
        <trkpt lat="29.580436" lon="103.373744"><ele>1308.74</ele><time>2026-06-12T20:32:00.000Z</time></trkpt>
        <trkpt lat="29.5803629" lon="103.3736676"><ele>1312.38</ele><time>2026-06-12T20:32:08.000Z</time></trkpt>
        <trkpt lat="29.580286" lon="103.3736045"><ele>1314.88</ele><time>2026-06-12T20:32:18.000Z</time></trkpt>
        <trkpt lat="29.5802252" lon="103.3735257"><ele>1316.61</ele><time>2026-06-12T20:32:30.000Z</time></trkpt>
        <trkpt lat="29.580178" lon="103.3734471"><ele>1318.28</ele><time>2026-06-12T20:32:46.000Z</time></trkpt>
        <trkpt lat="29.5801111" lon="103.3733705"><ele>1317.65</ele><time>2026-06-12T20:33:04.000Z</time></trkpt>
        <trkpt lat="29.5800559" lon="103.3732836"><ele>1317.54</ele><time>2026-06-12T20:33:24.000Z</time></trkpt>
        <trkpt lat="29.579993" lon="103.3732082"><ele>1318.25</ele><time>2026-06-12T20:33:46.000Z</time></trkpt>
        <trkpt lat="29.579918" lon="103.3731362"><ele>1320.17</ele><time>2026-06-12T20:34:24.000Z</time></trkpt>
        <trkpt lat="29.5798451" lon="103.373064"><ele>1325.04</ele><time>2026-06-12T20:34:50.000Z</time></trkpt>
        <trkpt lat="29.5797976" lon="103.3729725"><ele>1329.97</ele><time>2026-06-12T20:35:38.000Z</time></trkpt>
        <trkpt lat="29.5797257" lon="103.3729114"><ele>1335.32</ele><time>2026-06-12T20:36:00.000Z</time></trkpt>
        <trkpt lat="29.5796589" lon="103.3728348"><ele>1339.65</ele><time>2026-06-12T20:36:36.000Z</time></trkpt>
        <trkpt lat="29.5795744" lon="103.3728215"><ele>1344.92</ele><time>2026-06-12T20:36:58.000Z</time></trkpt>
        <trkpt lat="29.5794912" lon="103.3727827"><ele>1350.38</ele><time>2026-06-12T20:37:16.000Z</time></trkpt>
        <trkpt lat="29.5794231" lon="103.3727063"><ele>1354.95</ele><time>2026-06-12T20:37:30.000Z</time></trkpt>
        <trkpt lat="29.5793574" lon="103.3726269"><ele>1357.94</ele><time>2026-06-12T20:37:44.000Z</time></trkpt>
        <trkpt lat="29.5792843" lon="103.3725534"><ele>1359.94</ele><time>2026-06-12T20:38:00.000Z</time></trkpt>
        <trkpt lat="29.579202" lon="103.372502"><ele>1361.77</ele><time>2026-06-12T20:38:22.000Z</time></trkpt>
        <trkpt lat="29.5791126" lon="103.3724989"><ele>1364.8</ele><time>2026-06-12T20:38:32.000Z</time></trkpt>
        <trkpt lat="29.5790225" lon="103.3724537"><ele>1366.82</ele><time>2026-06-12T20:38:44.000Z</time></trkpt>
        <trkpt lat="29.5789566" lon="103.3723785"><ele>1368.36</ele><time>2026-06-12T20:39:02.000Z</time></trkpt>
        <trkpt lat="29.5788825" lon="103.3723056"><ele>1370.23</ele><time>2026-06-12T20:39:34.000Z</time></trkpt>
        <trkpt lat="29.578798" lon="103.3722529"><ele>1371.12</ele><time>2026-06-12T20:39:46.000Z</time></trkpt>
        <trkpt lat="29.5787258" lon="103.3721873"><ele>1372.27</ele><time>2026-06-12T20:39:54.000Z</time></trkpt>
        <trkpt lat="29.5786675" lon="103.3721076"><ele>1373.53</ele><time>2026-06-12T20:40:08.000Z</time></trkpt>
        <trkpt lat="29.5786062" lon="103.3720306"><ele>1375.32</ele><time>2026-06-12T20:40:54.000Z</time></trkpt>
        <trkpt lat="29.5785404" lon="103.3719493"><ele>1379.19</ele><time>2026-06-12T20:41:20.000Z</time></trkpt>
        <trkpt lat="29.5784688" lon="103.3718517"><ele>1382.72</ele><time>2026-06-12T20:41:48.000Z</time></trkpt>
        <trkpt lat="29.5784039" lon="103.3717562"><ele>1385.89</ele><time>2026-06-12T20:42:28.000Z</time></trkpt>
        <trkpt lat="29.5783619" lon="103.3716576"><ele>1388.82</ele><time>2026-06-12T20:42:40.000Z</time></trkpt>
        <trkpt lat="29.5782942" lon="103.3715796"><ele>1390.79</ele><time>2026-06-12T20:42:58.000Z</time></trkpt>
        <trkpt lat="29.5782032" lon="103.371542"><ele>1392.43</ele><time>2026-06-12T20:43:34.000Z</time></trkpt>
        <trkpt lat="29.578112" lon="103.3714646"><ele>1394.61</ele><time>2026-06-12T20:44:14.000Z</time></trkpt>
        <trkpt lat="29.5780311" lon="103.3713999"><ele>1397.4</ele><time>2026-06-12T20:44:44.000Z</time></trkpt>
        <trkpt lat="29.5779461" lon="103.3713519"><ele>1400.5</ele><time>2026-06-12T20:45:14.000Z</time></trkpt>
        <trkpt lat="29.5778644" lon="103.3712971"><ele>1404.33</ele><time>2026-06-12T20:45:52.000Z</time></trkpt>
        <trkpt lat="29.577793" lon="103.3712213"><ele>1407.67</ele><time>2026-06-12T20:46:14.000Z</time></trkpt>
        <trkpt lat="29.5777264" lon="103.3711376"><ele>1411.12</ele><time>2026-06-12T20:46:38.000Z</time></trkpt>
        <trkpt lat="29.577641" lon="103.3710872"><ele>1414.68</ele><time>2026-06-12T20:46:52.000Z</time></trkpt>
        <trkpt lat="29.5775606" lon="103.3710298"><ele>1418.05</ele><time>2026-06-12T20:47:36.000Z</time></trkpt>
        <trkpt lat="29.5774866" lon="103.3709411"><ele>1422.54</ele><time>2026-06-12T20:47:46.000Z</time></trkpt>
        <trkpt lat="29.5774199" lon="103.3708769"><ele>1426.4</ele><time>2026-06-12T20:48:00.000Z</time></trkpt>
        <trkpt lat="29.5774199" lon="103.3708769"><ele>1426.4</ele><time>2026-06-12T20:48:15.000Z</time></trkpt>
        <trkpt lat="29.5774296" lon="103.3709422"><ele>1429.58</ele><time>2026-06-12T20:48:16.000Z</time></trkpt>
        <trkpt lat="29.5774296" lon="103.3709422"><ele>1429.58</ele><time>2026-06-12T20:48:38.000Z</time></trkpt>
        <trkpt lat="29.5773752" lon="103.3710204"><ele>1429.98</ele><time>2026-06-12T20:48:48.000Z</time></trkpt>
        <trkpt lat="29.5774344" lon="103.3710109"><ele>1429.26</ele><time>2026-06-12T20:49:08.000Z</time></trkpt>
        <trkpt lat="29.5775349" lon="103.3710373"><ele>1432.67</ele><time>2026-06-12T20:49:40.000Z</time></trkpt>
        <trkpt lat="29.577655" lon="103.3710805"><ele>1432.9</ele><time>2026-06-12T20:49:56.000Z</time></trkpt>
        <trkpt lat="29.5777019" lon="103.3710026"><ele>1432</ele><time>2026-06-12T20:50:14.000Z</time></trkpt>
        <trkpt lat="29.5776818" lon="103.3708954"><ele>1429.33</ele><time>2026-06-12T20:50:20.000Z</time></trkpt>
        <trkpt lat="29.5776355" lon="103.3707835"><ele>1428.07</ele><time>2026-06-12T20:50:26.000Z</time></trkpt>
        <trkpt lat="29.577573" lon="103.3706871"><ele>1426.62</ele><time>2026-06-12T20:50:34.000Z</time></trkpt>
        <trkpt lat="29.5774785" lon="103.3706105"><ele>1424.98</ele><time>2026-06-12T20:50:42.000Z</time></trkpt>
        <trkpt lat="29.5773853" lon="103.3705404"><ele>1423.7</ele><time>2026-06-12T20:50:50.000Z</time></trkpt>
        <trkpt lat="29.5772984" lon="103.3704532"><ele>1423.4</ele><time>2026-06-12T20:50:58.000Z</time></trkpt>
        <trkpt lat="29.5772205" lon="103.3703703"><ele>1423.48</ele><time>2026-06-12T20:51:04.000Z</time></trkpt>
        <trkpt lat="29.5771402" lon="103.3702995"><ele>1424.05</ele><time>2026-06-12T20:51:14.000Z</time></trkpt>
        <trkpt lat="29.5770751" lon="103.3702144"><ele>1424.59</ele><time>2026-06-12T20:51:22.000Z</time></trkpt>
        <trkpt lat="29.5770105" lon="103.3701371"><ele>1425.28</ele><time>2026-06-12T20:51:30.000Z</time></trkpt>
        <trkpt lat="29.5769829" lon="103.3700357"><ele>1425.46</ele><time>2026-06-12T20:51:38.000Z</time></trkpt>
        <trkpt lat="29.5769409" lon="103.3699177"><ele>1425.56</ele><time>2026-06-12T20:51:46.000Z</time></trkpt>
        <trkpt lat="29.576945" lon="103.3697974"><ele>1426.18</ele><time>2026-06-12T20:51:54.000Z</time></trkpt>
        <trkpt lat="29.5769645" lon="103.3696791"><ele>1426.92</ele><time>2026-06-12T20:52:02.000Z</time></trkpt>
        <trkpt lat="29.5769767" lon="103.3695649"><ele>1427.73</ele><time>2026-06-12T20:52:10.000Z</time></trkpt>
        <trkpt lat="29.5769777" lon="103.3694364"><ele>1428.45</ele><time>2026-06-12T20:52:18.000Z</time></trkpt>
        <trkpt lat="29.5769638" lon="103.3693226"><ele>1430.1</ele><time>2026-06-12T20:52:28.000Z</time></trkpt>
        <trkpt lat="29.5769772" lon="103.3692113"><ele>1432.25</ele><time>2026-06-12T20:52:38.000Z</time></trkpt>
        <trkpt lat="29.5769727" lon="103.3690829"><ele>1434.42</ele><time>2026-06-12T20:52:48.000Z</time></trkpt>
        <trkpt lat="29.5769907" lon="103.3689567"><ele>1436.65</ele><time>2026-06-12T20:52:58.000Z</time></trkpt>
        <trkpt lat="29.576996" lon="103.3688421"><ele>1438.39</ele><time>2026-06-12T20:53:06.000Z</time></trkpt>
        <trkpt lat="29.5769995" lon="103.3687307"><ele>1438.78</ele><time>2026-06-12T20:53:12.000Z</time></trkpt>
        <trkpt lat="29.5770112" lon="103.368615"><ele>1438.92</ele><time>2026-06-12T20:53:22.000Z</time></trkpt>
        <trkpt lat="29.5770261" lon="103.3684848"><ele>1439.26</ele><time>2026-06-12T20:53:28.000Z</time></trkpt>
        <trkpt lat="29.5770457" lon="103.3683731"><ele>1439.15</ele><time>2026-06-12T20:53:36.000Z</time></trkpt>
        <trkpt lat="29.5770702" lon="103.3682577"><ele>1439.34</ele><time>2026-06-12T20:53:46.000Z</time></trkpt>
        <trkpt lat="29.5770912" lon="103.3681478"><ele>1440.18</ele><time>2026-06-12T20:53:58.000Z</time></trkpt>
        <trkpt lat="29.5770953" lon="103.3680424"><ele>1442.3</ele><time>2026-06-12T20:54:16.000Z</time></trkpt>
        <trkpt lat="29.5771634" lon="103.3679695"><ele>1445.18</ele><time>2026-06-12T20:54:48.000Z</time></trkpt>
        <trkpt lat="29.5772368" lon="103.3678943"><ele>1449.71</ele><time>2026-06-12T20:55:14.000Z</time></trkpt>
        <trkpt lat="29.5772992" lon="103.36781"><ele>1453.96</ele><time>2026-06-12T20:55:44.000Z</time></trkpt>
        <trkpt lat="29.5772968" lon="103.3677001"><ele>1458.62</ele><time>2026-06-12T20:56:02.000Z</time></trkpt>
        <trkpt lat="29.5772265" lon="103.3676135"><ele>1462.92</ele><time>2026-06-12T20:56:14.000Z</time></trkpt>
        <trkpt lat="29.5771422" lon="103.3675405"><ele>1466.13</ele><time>2026-06-12T20:56:22.000Z</time></trkpt>
        <trkpt lat="29.5770784" lon="103.3674569"><ele>1467.84</ele><time>2026-06-12T20:56:28.000Z</time></trkpt>
        <trkpt lat="29.5770244" lon="103.3673684"><ele>1469.07</ele><time>2026-06-12T20:56:36.000Z</time></trkpt>
        <trkpt lat="29.5769573" lon="103.3672894"><ele>1469.77</ele><time>2026-06-12T20:56:44.000Z</time></trkpt>
        <trkpt lat="29.5768566" lon="103.3672531"><ele>1470.52</ele><time>2026-06-12T20:56:54.000Z</time></trkpt>
        <trkpt lat="29.5767805" lon="103.367168"><ele>1469.69</ele><time>2026-06-12T20:57:06.000Z</time></trkpt>
        <trkpt lat="29.5767232" lon="103.3670752"><ele>1469.52</ele><time>2026-06-12T20:57:14.000Z</time></trkpt>
        <trkpt lat="29.5766763" lon="103.366977"><ele>1470.33</ele><time>2026-06-12T20:57:20.000Z</time></trkpt>
        <trkpt lat="29.5766082" lon="103.3668693"><ele>1471.05</ele><time>2026-06-12T20:57:28.000Z</time></trkpt>
        <trkpt lat="29.576505" lon="103.3668079"><ele>1471.59</ele><time>2026-06-12T20:57:34.000Z</time></trkpt>
        <trkpt lat="29.5764208" lon="103.3667255"><ele>1470.39</ele><time>2026-06-12T20:57:42.000Z</time></trkpt>
        <trkpt lat="29.5763633" lon="103.3666197"><ele>1468.5</ele><time>2026-06-12T20:57:50.000Z</time></trkpt>
        <trkpt lat="29.5763369" lon="103.3665104"><ele>1468.63</ele><time>2026-06-12T20:57:58.000Z</time></trkpt>
        <trkpt lat="29.5763005" lon="103.3663937"><ele>1471.24</ele><time>2026-06-12T20:58:06.000Z</time></trkpt>
        <trkpt lat="29.5762755" lon="103.3663264"><ele>1473.55</ele><time>2026-06-12T20:58:10.000Z</time></trkpt>
        <trkpt lat="29.5762614" lon="103.3662269"><ele>1475.2</ele><time>2026-06-12T20:58:26.000Z</time></trkpt>
        <trkpt lat="29.5762303" lon="103.3661307"><ele>1472.54</ele><time>2026-06-12T20:59:04.000Z</time></trkpt>
        <trkpt lat="29.5761893" lon="103.3660214"><ele>1467.19</ele><time>2026-06-12T20:59:24.000Z</time></trkpt>
        <trkpt lat="29.5761187" lon="103.365935"><ele>1461.69</ele><time>2026-06-12T20:59:34.000Z</time></trkpt>
        <trkpt lat="29.5760456" lon="103.3658526"><ele>1457.91</ele><time>2026-06-12T20:59:42.000Z</time></trkpt>
        <trkpt lat="29.5759547" lon="103.3658123"><ele>1455.75</ele><time>2026-06-12T20:59:52.000Z</time></trkpt>
        <trkpt lat="29.5758573" lon="103.3657653"><ele>1451.82</ele><time>2026-06-12T21:00:02.000Z</time></trkpt>
        <trkpt lat="29.5757792" lon="103.3657321"><ele>1446.3</ele><time>2026-06-12T21:00:10.000Z</time></trkpt>
        <trkpt lat="29.5756892" lon="103.3656928"><ele>1442.77</ele><time>2026-06-12T21:00:18.000Z</time></trkpt>
        <trkpt lat="29.5756159" lon="103.3656225"><ele>1440.59</ele><time>2026-06-12T21:00:30.000Z</time></trkpt>
        <trkpt lat="29.5755791" lon="103.3655103"><ele>1438.23</ele><time>2026-06-12T21:00:42.000Z</time></trkpt>
        <trkpt lat="29.5755036" lon="103.3654947"><ele>1434.52</ele><time>2026-06-12T21:01:02.000Z</time></trkpt>
        <trkpt lat="29.5754191" lon="103.3654722"><ele>1435.41</ele><time>2026-06-12T21:01:28.000Z</time></trkpt>
        <trkpt lat="29.5754191" lon="103.3654722"><ele>1435.41</ele><time>2026-06-12T21:01:49.000Z</time></trkpt>
        <trkpt lat="29.575351" lon="103.3654099"><ele>1438.63</ele><time>2026-06-12T21:02:00.000Z</time></trkpt>
        <trkpt lat="29.575351" lon="103.3654099"><ele>1438.63</ele><time>2026-06-12T21:02:25.000Z</time></trkpt>
        <trkpt lat="29.5752748" lon="103.3653526"><ele>1444.86</ele><time>2026-06-12T21:02:43.000Z</time></trkpt>
        <trkpt lat="29.5752748" lon="103.3653526"><ele>1444.86</ele><time>2026-06-12T21:03:19.000Z</time></trkpt>
        <trkpt lat="29.57525" lon="103.3653383"><ele>1449.95</ele><time>2026-06-12T21:03:54.000Z</time></trkpt>
        <trkpt lat="29.57525" lon="103.3653383"><ele>1449.95</ele><time>2026-06-12T21:03:55.000Z</time></trkpt>
        <trkpt lat="29.5752117" lon="103.3652417"><ele>1451.95</ele><time>2026-06-12T21:04:07.000Z</time></trkpt>
        <trkpt lat="29.5751592" lon="103.3651521"><ele>1454.51</ele><time>2026-06-12T21:04:15.000Z</time></trkpt>
        <trkpt lat="29.5751339" lon="103.3651396"><ele>1455.02</ele><time>2026-06-12T21:04:23.000Z</time></trkpt>
        <trkpt lat="29.575068" lon="103.3650911"><ele>1458.11</ele><time>2026-06-12T21:04:33.000Z</time></trkpt>
        <trkpt lat="29.5750107" lon="103.3650047"><ele>1461.59</ele><time>2026-06-12T21:04:41.000Z</time></trkpt>
        <trkpt lat="29.5749894" lon="103.3648991"><ele>1463.92</ele><time>2026-06-12T21:04:57.000Z</time></trkpt>
        <trkpt lat="29.5749402" lon="103.3648096"><ele>1462.1</ele><time>2026-06-12T21:05:29.000Z</time></trkpt>
        <trkpt lat="29.5749402" lon="103.3648096"><ele>1462.1</ele><time>2026-06-12T21:06:01.000Z</time></trkpt>
        <trkpt lat="29.5749393" lon="103.3647042"><ele>1462.19</ele><time>2026-06-12T21:06:04.000Z</time></trkpt>
        <trkpt lat="29.5749393" lon="103.3647042"><ele>1462.19</ele><time>2026-06-12T21:06:13.000Z</time></trkpt>
        <trkpt lat="29.5749393" lon="103.3647042"><ele>1462.19</ele><time>2026-06-12T21:06:15.000Z</time></trkpt>
        <trkpt lat="29.5749164" lon="103.3645983"><ele>1463.23</ele><time>2026-06-12T21:06:24.000Z</time></trkpt>
        <trkpt lat="29.5749164" lon="103.3645983"><ele>1463.23</ele><time>2026-06-12T21:06:37.000Z</time></trkpt>
        <trkpt lat="29.5748457" lon="103.3645358"><ele>1466.87</ele><time>2026-06-12T21:07:05.000Z</time></trkpt>
        <trkpt lat="29.5747713" lon="103.3644633"><ele>1474.54</ele><time>2026-06-12T21:07:47.000Z</time></trkpt>
        <trkpt lat="29.5747713" lon="103.3644633"><ele>1474.54</ele><time>2026-06-12T21:08:13.000Z</time></trkpt>
        <trkpt lat="29.5747713" lon="103.3644633"><ele>1474.54</ele><time>2026-06-12T21:08:44.000Z</time></trkpt>
        <trkpt lat="29.5747713" lon="103.3644633"><ele>1474.54</ele><time>2026-06-12T21:08:57.000Z</time></trkpt>
        <trkpt lat="29.5747713" lon="103.3644633"><ele>1474.54</ele><time>2026-06-12T21:09:26.000Z</time></trkpt>
        <trkpt lat="29.5747713" lon="103.3644633"><ele>1474.54</ele><time>2026-06-12T21:09:43.000Z</time></trkpt>
        <trkpt lat="29.5747713" lon="103.3644633"><ele>1474.54</ele><time>2026-06-12T21:10:48.000Z</time></trkpt>
        <trkpt lat="29.5747713" lon="103.3644633"><ele>1474.54</ele><time>2026-06-12T21:11:03.000Z</time></trkpt>
        <trkpt lat="29.5747713" lon="103.3644633"><ele>1474.54</ele><time>2026-06-12T21:12:02.000Z</time></trkpt>
        <trkpt lat="29.5747713" lon="103.3644633"><ele>1474.54</ele><time>2026-06-12T21:12:13.000Z</time></trkpt>
        <trkpt lat="29.5747713" lon="103.3644633"><ele>1474.54</ele><time>2026-06-12T21:12:38.000Z</time></trkpt>
        <trkpt lat="29.5747713" lon="103.3644633"><ele>1474.54</ele><time>2026-06-12T21:12:49.000Z</time></trkpt>
        <trkpt lat="29.5747333" lon="103.36435"><ele>1483.34</ele><time>2026-06-12T21:13:32.000Z</time></trkpt>
        <trkpt lat="29.5747333" lon="103.36435"><ele>1483.34</ele><time>2026-06-12T21:13:57.000Z</time></trkpt>
        <trkpt lat="29.5746717" lon="103.3642633"><ele>1488.7</ele><time>2026-06-12T21:14:05.000Z</time></trkpt>
        <trkpt lat="29.5746467" lon="103.3642415"><ele>1492.18</ele><time>2026-06-12T21:14:13.000Z</time></trkpt>
        <trkpt lat="29.5746467" lon="103.3642415"><ele>1492.18</ele><time>2026-06-12T21:14:15.000Z</time></trkpt>
        <trkpt lat="29.5745754" lon="103.3641913"><ele>1495.07</ele><time>2026-06-12T21:14:30.000Z</time></trkpt>
        <trkpt lat="29.5745754" lon="103.3641913"><ele>1495.07</ele><time>2026-06-12T21:14:43.000Z</time></trkpt>
        <trkpt lat="29.5745087" lon="103.3641213"><ele>1495.73</ele><time>2026-06-12T21:14:51.000Z</time></trkpt>
        <trkpt lat="29.5744545" lon="103.3640354"><ele>1496.92</ele><time>2026-06-12T21:14:59.000Z</time></trkpt>
        <trkpt lat="29.574453" lon="103.3639333"><ele>1498.2</ele><time>2026-06-12T21:15:09.000Z</time></trkpt>
        <trkpt lat="29.5744292" lon="103.3638318"><ele>1500.7</ele><time>2026-06-12T21:15:21.000Z</time></trkpt>
        <trkpt lat="29.5744241" lon="103.3637872"><ele>1503.67</ele><time>2026-06-12T21:15:29.000Z</time></trkpt>
        <trkpt lat="29.5744594" lon="103.3637129"><ele>1506.48</ele><time>2026-06-12T21:16:05.000Z</time></trkpt>
        <trkpt lat="29.5744594" lon="103.3637129"><ele>1506.48</ele><time>2026-06-12T21:16:31.000Z</time></trkpt>
        <trkpt lat="29.5745393" lon="103.3636602"><ele>1509.37</ele><time>2026-06-12T21:16:38.000Z</time></trkpt>
        <trkpt lat="29.5745393" lon="103.3636602"><ele>1509.37</ele><time>2026-06-12T21:17:03.000Z</time></trkpt>
        <trkpt lat="29.574634" lon="103.3636732"><ele>1513.38</ele><time>2026-06-12T21:17:21.000Z</time></trkpt>
        <trkpt lat="29.5746663" lon="103.3636039"><ele>1518.64</ele><time>2026-06-12T21:17:59.000Z</time></trkpt>
        <trkpt lat="29.5746553" lon="103.3635041"><ele>1522.36</ele><time>2026-06-12T21:18:45.000Z</time></trkpt>
        <trkpt lat="29.5746003" lon="103.3634105"><ele>1524.44</ele><time>2026-06-12T21:18:49.000Z</time></trkpt>
        <trkpt lat="29.5746078" lon="103.3632958"><ele>1524.12</ele><time>2026-06-12T21:18:57.000Z</time></trkpt>
        <trkpt lat="29.5746372" lon="103.3631846"><ele>1524.8</ele><time>2026-06-12T21:19:13.000Z</time></trkpt>
        <trkpt lat="29.574666" lon="103.3631491"><ele>1528.41</ele><time>2026-06-12T21:19:27.000Z</time></trkpt>
        <trkpt lat="29.5746489" lon="103.3630731"><ele>1532.84</ele><time>2026-06-12T21:19:47.000Z</time></trkpt>
        <trkpt lat="29.5746489" lon="103.3630731"><ele>1532.84</ele><time>2026-06-12T21:20:41.000Z</time></trkpt>
        <trkpt lat="29.5746217" lon="103.3629567"><ele>1536.39</ele><time>2026-06-12T21:20:44.000Z</time></trkpt>
        <trkpt lat="29.5746217" lon="103.3629567"><ele>1536.39</ele><time>2026-06-12T21:20:57.000Z</time></trkpt>
        <trkpt lat="29.574715" lon="103.3628917"><ele>1538.93</ele><time>2026-06-12T21:21:09.000Z</time></trkpt>
        <trkpt lat="29.5748055" lon="103.3628238"><ele>1540.51</ele><time>2026-06-12T21:21:19.000Z</time></trkpt>
        <trkpt lat="29.5748891" lon="103.3627491"><ele>1542.14</ele><time>2026-06-12T21:21:45.000Z</time></trkpt>
        <trkpt lat="29.5749442" lon="103.3626621"><ele>1546.17</ele><time>2026-06-12T21:21:53.000Z</time></trkpt>
        <trkpt lat="29.5749592" lon="103.3626135"><ele>1549.11</ele><time>2026-06-12T21:22:07.000Z</time></trkpt>
        <trkpt lat="29.5749186" lon="103.3625285"><ele>1552.11</ele><time>2026-06-12T21:22:25.000Z</time></trkpt>
        <trkpt lat="29.5748471" lon="103.3624499"><ele>1554.09</ele><time>2026-06-12T21:22:37.000Z</time></trkpt>
        <trkpt lat="29.5747402" lon="103.3624122"><ele>1556.24</ele><time>2026-06-12T21:22:51.000Z</time></trkpt>
        <trkpt lat="29.5746321" lon="103.3624324"><ele>1558.59</ele><time>2026-06-12T21:23:03.000Z</time></trkpt>
        <trkpt lat="29.574534" lon="103.3624779"><ele>1560.75</ele><time>2026-06-12T21:23:11.000Z</time></trkpt>
        <trkpt lat="29.5744356" lon="103.3625083"><ele>1562.15</ele><time>2026-06-12T21:23:19.000Z</time></trkpt>
        <trkpt lat="29.5743189" lon="103.3625157"><ele>1562.51</ele><time>2026-06-12T21:23:27.000Z</time></trkpt>
        <trkpt lat="29.5742009" lon="103.3625224"><ele>1562.59</ele><time>2026-06-12T21:23:35.000Z</time></trkpt>
        <trkpt lat="29.5740849" lon="103.3625332"><ele>1562.12</ele><time>2026-06-12T21:23:43.000Z</time></trkpt>
        <trkpt lat="29.5739741" lon="103.3625297"><ele>1561.47</ele><time>2026-06-12T21:23:55.000Z</time></trkpt>
        <trkpt lat="29.5738943" lon="103.3624533"><ele>1562</ele><time>2026-06-12T21:24:05.000Z</time></trkpt>
        <trkpt lat="29.5738206" lon="103.3623698"><ele>1563.46</ele><time>2026-06-12T21:24:15.000Z</time></trkpt>
        <trkpt lat="29.5737437" lon="103.3622794"><ele>1565.37</ele><time>2026-06-12T21:24:31.000Z</time></trkpt>
        <trkpt lat="29.5736705" lon="103.3622079"><ele>1568.44</ele><time>2026-06-12T21:24:45.000Z</time></trkpt>
        <trkpt lat="29.5735919" lon="103.362149"><ele>1571.82</ele><time>2026-06-12T21:25:03.000Z</time></trkpt>
        <trkpt lat="29.573521" lon="103.362077"><ele>1574.39</ele><time>2026-06-12T21:25:25.000Z</time></trkpt>
        <trkpt lat="29.5734491" lon="103.3620071"><ele>1577.06</ele><time>2026-06-12T21:26:15.000Z</time></trkpt>
        <trkpt lat="29.5733476" lon="103.3619332"><ele>1580.78</ele><time>2026-06-12T21:26:51.000Z</time></trkpt>
        <trkpt lat="29.5732603" lon="103.3618642"><ele>1585.82</ele><time>2026-06-12T21:27:11.000Z</time></trkpt>
        <trkpt lat="29.5731808" lon="103.361801"><ele>1591.1</ele><time>2026-06-12T21:27:25.000Z</time></trkpt>
        <trkpt lat="29.5731081" lon="103.3617247"><ele>1596.18</ele><time>2026-06-12T21:27:37.000Z</time></trkpt>
        <trkpt lat="29.5730312" lon="103.3616521"><ele>1600.75</ele><time>2026-06-12T21:27:45.000Z</time></trkpt>
        <trkpt lat="29.5729346" lon="103.3616101"><ele>1603.91</ele><time>2026-06-12T21:27:51.000Z</time></trkpt>
        <trkpt lat="29.5728357" lon="103.3615969"><ele>1605.88</ele><time>2026-06-12T21:27:59.000Z</time></trkpt>
        <trkpt lat="29.5727408" lon="103.3615988"><ele>1607.4</ele><time>2026-06-12T21:28:07.000Z</time></trkpt>
        <trkpt lat="29.5726481" lon="103.3616051"><ele>1608.77</ele><time>2026-06-12T21:28:17.000Z</time></trkpt>
        <trkpt lat="29.57256" lon="103.3616321"><ele>1611.24</ele><time>2026-06-12T21:28:27.000Z</time></trkpt>
        <trkpt lat="29.5724736" lon="103.3616853"><ele>1613.5</ele><time>2026-06-12T21:28:43.000Z</time></trkpt>
        <trkpt lat="29.5724736" lon="103.3616853"><ele>1613.5</ele><time>2026-06-12T21:29:33.000Z</time></trkpt>
        <trkpt lat="29.5724736" lon="103.3616853"><ele>1613.5</ele><time>2026-06-12T21:29:40.000Z</time></trkpt>
        <trkpt lat="29.5724736" lon="103.3616853"><ele>1613.5</ele><time>2026-06-12T21:29:53.000Z</time></trkpt>
        <trkpt lat="29.5724736" lon="103.3616853"><ele>1613.5</ele><time>2026-06-12T21:30:52.000Z</time></trkpt>
        <trkpt lat="29.5724736" lon="103.3616853"><ele>1613.5</ele><time>2026-06-12T21:31:03.000Z</time></trkpt>
        <trkpt lat="29.5723633" lon="103.3617183"><ele>1615.61</ele><time>2026-06-12T21:33:02.000Z</time></trkpt>
        <trkpt lat="29.5723633" lon="103.3617183"><ele>1615.61</ele><time>2026-06-12T21:33:22.000Z</time></trkpt>
        <trkpt lat="29.57226" lon="103.3617283"><ele>1618.36</ele><time>2026-06-12T21:33:36.000Z</time></trkpt>
        <trkpt lat="29.5721736" lon="103.3617778"><ele>1621.26</ele><time>2026-06-12T21:33:56.000Z</time></trkpt>
        <trkpt lat="29.5720837" lon="103.3617957"><ele>1625.36</ele><time>2026-06-12T21:34:28.000Z</time></trkpt>
        <trkpt lat="29.5719929" lon="103.3617876"><ele>1630.24</ele><time>2026-06-12T21:34:48.000Z</time></trkpt>
        <trkpt lat="29.5719028" lon="103.3617881"><ele>1634.74</ele><time>2026-06-12T21:35:20.000Z</time></trkpt>
        <trkpt lat="29.5718105" lon="103.3617934"><ele>1639.37</ele><time>2026-06-12T21:35:36.000Z</time></trkpt>
        <trkpt lat="29.5718105" lon="103.3617934"><ele>1639.37</ele><time>2026-06-12T21:36:05.000Z</time></trkpt>
        <trkpt lat="29.5718105" lon="103.3617934"><ele>1639.37</ele><time>2026-06-12T21:36:18.000Z</time></trkpt>
        <trkpt lat="29.5718105" lon="103.3617934"><ele>1639.37</ele><time>2026-06-12T21:36:27.000Z</time></trkpt>
        <trkpt lat="29.5718105" lon="103.3617934"><ele>1639.37</ele><time>2026-06-12T21:39:42.000Z</time></trkpt>
        <trkpt lat="29.5718105" lon="103.3617934"><ele>1639.37</ele><time>2026-06-12T21:40:13.000Z</time></trkpt>
        <trkpt lat="29.5718105" lon="103.3617934"><ele>1639.37</ele><time>2026-06-12T21:40:22.000Z</time></trkpt>
        <trkpt lat="29.5718105" lon="103.3617934"><ele>1639.37</ele><time>2026-06-12T21:40:41.000Z</time></trkpt>
        <trkpt lat="29.5718105" lon="103.3617934"><ele>1639.37</ele><time>2026-06-12T21:40:48.000Z</time></trkpt>
        <trkpt lat="29.5718105" lon="103.3617934"><ele>1639.37</ele><time>2026-06-12T21:41:09.000Z</time></trkpt>
        <trkpt lat="29.5718105" lon="103.3617934"><ele>1639.37</ele><time>2026-06-12T21:41:12.000Z</time></trkpt>
        <trkpt lat="29.5718105" lon="103.3617934"><ele>1639.37</ele><time>2026-06-12T21:41:59.000Z</time></trkpt>
        <trkpt lat="29.5718105" lon="103.3617934"><ele>1639.37</ele><time>2026-06-12T21:42:06.000Z</time></trkpt>
        <trkpt lat="29.5718105" lon="103.3617934"><ele>1639.37</ele><time>2026-06-12T21:42:27.000Z</time></trkpt>
        <trkpt lat="29.5718105" lon="103.3617934"><ele>1639.37</ele><time>2026-06-12T21:43:16.000Z</time></trkpt>
        <trkpt lat="29.5718105" lon="103.3617934"><ele>1639.37</ele><time>2026-06-12T21:43:27.000Z</time></trkpt>
        <trkpt lat="29.5718105" lon="103.3617934"><ele>1639.37</ele><time>2026-06-12T21:43:36.000Z</time></trkpt>
        <trkpt lat="29.5718105" lon="103.3617934"><ele>1639.37</ele><time>2026-06-12T21:43:49.000Z</time></trkpt>
        <trkpt lat="29.5717183" lon="103.3618283"><ele>1642.65</ele><time>2026-06-12T21:45:32.000Z</time></trkpt>
        <trkpt lat="29.5717183" lon="103.3618283"><ele>1642.65</ele><time>2026-06-12T21:45:40.000Z</time></trkpt>
        <trkpt lat="29.57162" lon="103.3618333"><ele>1649.77</ele><time>2026-06-12T21:45:48.000Z</time></trkpt>
        <trkpt lat="29.5715273" lon="103.361796"><ele>1653.7</ele><time>2026-06-12T21:45:56.000Z</time></trkpt>
        <trkpt lat="29.5714536" lon="103.3617281"><ele>1656.58</ele><time>2026-06-12T21:46:04.000Z</time></trkpt>
        <trkpt lat="29.5713546" lon="103.3616842"><ele>1657.71</ele><time>2026-06-12T21:46:12.000Z</time></trkpt>
        <trkpt lat="29.5712595" lon="103.3616867"><ele>1658.18</ele><time>2026-06-12T21:46:18.000Z</time></trkpt>
        <trkpt lat="29.5711728" lon="103.3616538"><ele>1657.84</ele><time>2026-06-12T21:46:30.000Z</time></trkpt>
        <trkpt lat="29.5710807" lon="103.3615879"><ele>1656.88</ele><time>2026-06-12T21:46:38.000Z</time></trkpt>
        <trkpt lat="29.5709874" lon="103.3615257"><ele>1656.89</ele><time>2026-06-12T21:46:48.000Z</time></trkpt>
        <trkpt lat="29.5708938" lon="103.3614656"><ele>1658.1</ele><time>2026-06-12T21:46:56.000Z</time></trkpt>
        <trkpt lat="29.5708078" lon="103.3614161"><ele>1660.08</ele><time>2026-06-12T21:47:06.000Z</time></trkpt>
        <trkpt lat="29.5707133" lon="103.361392"><ele>1662.11</ele><time>2026-06-12T21:47:14.000Z</time></trkpt>
        <trkpt lat="29.5706191" lon="103.3613657"><ele>1663.61</ele><time>2026-06-12T21:47:22.000Z</time></trkpt>
        <trkpt lat="29.5705077" lon="103.3613418"><ele>1665.11</ele><time>2026-06-12T21:47:30.000Z</time></trkpt>
        <trkpt lat="29.5704003" lon="103.3613007"><ele>1665.88</ele><time>2026-06-12T21:47:36.000Z</time></trkpt>
        <trkpt lat="29.570299" lon="103.3612465"><ele>1666.19</ele><time>2026-06-12T21:47:48.000Z</time></trkpt>
        <trkpt lat="29.570199" lon="103.3612107"><ele>1664.73</ele><time>2026-06-12T21:47:56.000Z</time></trkpt>
        <trkpt lat="29.5701069" lon="103.3611877"><ele>1663.69</ele><time>2026-06-12T21:48:02.000Z</time></trkpt>
        <trkpt lat="29.570015" lon="103.3611501"><ele>1663.56</ele><time>2026-06-12T21:48:10.000Z</time></trkpt>
        <trkpt lat="29.5699526" lon="103.3610726"><ele>1663.75</ele><time>2026-06-12T21:48:26.000Z</time></trkpt>
        <trkpt lat="29.5698708" lon="103.3610219"><ele>1665.71</ele><time>2026-06-12T21:48:38.000Z</time></trkpt>
        <trkpt lat="29.5697825" lon="103.3609911"><ele>1668.37</ele><time>2026-06-12T21:48:48.000Z</time></trkpt>
        <trkpt lat="29.5696971" lon="103.3609296"><ele>1671.18</ele><time>2026-06-12T21:48:56.000Z</time></trkpt>
        <trkpt lat="29.5696256" lon="103.360847"><ele>1673</ele><time>2026-06-12T21:49:04.000Z</time></trkpt>
        <trkpt lat="29.569543" lon="103.3607727"><ele>1674.03</ele><time>2026-06-12T21:49:12.000Z</time></trkpt>
        <trkpt lat="29.5694556" lon="103.3607708"><ele>1674.62</ele><time>2026-06-12T21:49:24.000Z</time></trkpt>
        <trkpt lat="29.5694556" lon="103.3607708"><ele>1674.62</ele><time>2026-06-12T21:49:29.000Z</time></trkpt>
        <trkpt lat="29.5693955" lon="103.3607019"><ele>1675.82</ele><time>2026-06-12T21:49:36.000Z</time></trkpt>
        <trkpt lat="29.5693955" lon="103.3607019"><ele>1675.82</ele><time>2026-06-12T21:49:50.000Z</time></trkpt>
        <trkpt lat="29.5693207" lon="103.3606148"><ele>1676.24</ele><time>2026-06-12T21:50:00.000Z</time></trkpt>
        <trkpt lat="29.5692443" lon="103.3605478"><ele>1676.52</ele><time>2026-06-12T21:50:08.000Z</time></trkpt>
        <trkpt lat="29.5691786" lon="103.3604724"><ele>1677.33</ele><time>2026-06-12T21:50:16.000Z</time></trkpt>
        <trkpt lat="29.5691032" lon="103.3603802"><ele>1678.52</ele><time>2026-06-12T21:50:24.000Z</time></trkpt>
        <trkpt lat="29.5690238" lon="103.3603173"><ele>1680.06</ele><time>2026-06-12T21:50:32.000Z</time></trkpt>
        <trkpt lat="29.5689395" lon="103.3602537"><ele>1681.8</ele><time>2026-06-12T21:50:42.000Z</time></trkpt>
        <trkpt lat="29.5688737" lon="103.3601713"><ele>1684.12</ele><time>2026-06-12T21:50:56.000Z</time></trkpt>
        <trkpt lat="29.5688189" lon="103.3600678"><ele>1686.13</ele><time>2026-06-12T21:51:08.000Z</time></trkpt>
        <trkpt lat="29.5687861" lon="103.3599448"><ele>1687.88</ele><time>2026-06-12T21:51:16.000Z</time></trkpt>
        <trkpt lat="29.5687729" lon="103.3598238"><ele>1688.79</ele><time>2026-06-12T21:51:24.000Z</time></trkpt>
        <trkpt lat="29.5687752" lon="103.3597104"><ele>1689.14</ele><time>2026-06-12T21:51:38.000Z</time></trkpt>
        <trkpt lat="29.5687752" lon="103.3597104"><ele>1689.14</ele><time>2026-06-12T21:52:11.000Z</time></trkpt>
        <trkpt lat="29.5686959" lon="103.3596532"><ele>1689.6</ele><time>2026-06-12T21:52:16.000Z</time></trkpt>
        <trkpt lat="29.5686959" lon="103.3596532"><ele>1689.6</ele><time>2026-06-12T21:52:29.000Z</time></trkpt>
        <trkpt lat="29.5685937" lon="103.3596393"><ele>1691.49</ele><time>2026-06-12T21:52:39.000Z</time></trkpt>
        <trkpt lat="29.5684928" lon="103.3596505"><ele>1693.26</ele><time>2026-06-12T21:52:51.000Z</time></trkpt>
        <trkpt lat="29.5684928" lon="103.3596505"><ele>1693.26</ele><time>2026-06-12T21:53:09.000Z</time></trkpt>
        <trkpt lat="29.5683905" lon="103.3596671"><ele>1694.74</ele><time>2026-06-12T21:53:10.000Z</time></trkpt>
        <trkpt lat="29.5683905" lon="103.3596671"><ele>1694.74</ele><time>2026-06-12T21:53:20.000Z</time></trkpt>
        <trkpt lat="29.568298" lon="103.3596995"><ele>1695.2</ele><time>2026-06-12T21:53:28.000Z</time></trkpt>
        <trkpt lat="29.5682513" lon="103.3596605"><ele>1695.24</ele><time>2026-06-12T21:53:50.000Z</time></trkpt>
        <trkpt lat="29.5681813" lon="103.3595922"><ele>1695.05</ele><time>2026-06-12T21:54:04.000Z</time></trkpt>
        <trkpt lat="29.5680926" lon="103.359561"><ele>1695.07</ele><time>2026-06-12T21:54:16.000Z</time></trkpt>
        <trkpt lat="29.5679896" lon="103.3595604"><ele>1695.47</ele><time>2026-06-12T21:54:22.000Z</time></trkpt>
        <trkpt lat="29.5678785" lon="103.3595754"><ele>1696.13</ele><time>2026-06-12T21:54:32.000Z</time></trkpt>
        <trkpt lat="29.5677708" lon="103.3595431"><ele>1695.86</ele><time>2026-06-12T21:54:40.000Z</time></trkpt>
        <trkpt lat="29.5676743" lon="103.359494"><ele>1695.23</ele><time>2026-06-12T21:54:50.000Z</time></trkpt>
        <trkpt lat="29.5675848" lon="103.3594305"><ele>1693.84</ele><time>2026-06-12T21:54:58.000Z</time></trkpt>
        <trkpt lat="29.5674849" lon="103.3593985"><ele>1693.44</ele><time>2026-06-12T21:55:14.000Z</time></trkpt>
        <trkpt lat="29.5674006" lon="103.3594411"><ele>1695.18</ele><time>2026-06-12T21:55:32.000Z</time></trkpt>
        <trkpt lat="29.5673011" lon="103.3594563"><ele>1699.71</ele><time>2026-06-12T21:55:50.000Z</time></trkpt>
        <trkpt lat="29.5672052" lon="103.3594707"><ele>1700.95</ele><time>2026-06-12T21:56:04.000Z</time></trkpt>
        <trkpt lat="29.5671124" lon="103.3594489"><ele>1703.51</ele><time>2026-06-12T21:56:22.000Z</time></trkpt>
        <trkpt lat="29.5670221" lon="103.3594072"><ele>1705.14</ele><time>2026-06-12T21:56:48.000Z</time></trkpt>
        <trkpt lat="29.5669199" lon="103.3593813"><ele>1708.65</ele><time>2026-06-12T21:57:34.000Z</time></trkpt>
        <trkpt lat="29.5668383" lon="103.3593042"><ele>1713.19</ele><time>2026-06-12T21:57:42.000Z</time></trkpt>
        <trkpt lat="29.5667559" lon="103.3592175"><ele>1715.9</ele><time>2026-06-12T21:57:52.000Z</time></trkpt>
        <trkpt lat="29.5666599" lon="103.3591427"><ele>1718.01</ele><time>2026-06-12T21:58:02.000Z</time></trkpt>
        <trkpt lat="29.5665723" lon="103.3590756"><ele>1719.17</ele><time>2026-06-12T21:58:12.000Z</time></trkpt>
        <trkpt lat="29.566487" lon="103.3590054"><ele>1721.07</ele><time>2026-06-12T21:58:26.000Z</time></trkpt>
        <trkpt lat="29.5664187" lon="103.3589189"><ele>1723.88</ele><time>2026-06-12T21:59:04.000Z</time></trkpt>
        <trkpt lat="29.5663501" lon="103.3588379"><ele>1728.41</ele><time>2026-06-12T21:59:20.000Z</time></trkpt>
        <trkpt lat="29.5662716" lon="103.3587709"><ele>1730.25</ele><time>2026-06-12T21:59:34.000Z</time></trkpt>
        <trkpt lat="29.5662051" lon="103.3586681"><ele>1731.18</ele><time>2026-06-12T22:00:04.000Z</time></trkpt>
        <trkpt lat="29.5661797" lon="103.3585489"><ele>1733.51</ele><time>2026-06-12T22:00:16.000Z</time></trkpt>
        <trkpt lat="29.566175" lon="103.3584316"><ele>1735.31</ele><time>2026-06-12T22:00:28.000Z</time></trkpt>
        <trkpt lat="29.5661967" lon="103.3583243"><ele>1737.46</ele><time>2026-06-12T22:00:44.000Z</time></trkpt>
        <trkpt lat="29.5661967" lon="103.3583243"><ele>1737.46</ele><time>2026-06-12T22:00:55.000Z</time></trkpt>
        <trkpt lat="29.5661967" lon="103.3583243"><ele>1737.46</ele><time>2026-06-12T22:01:16.000Z</time></trkpt>
        <trkpt lat="29.5661967" lon="103.3583243"><ele>1737.46</ele><time>2026-06-12T22:01:25.000Z</time></trkpt>
        <trkpt lat="29.5661967" lon="103.3583243"><ele>1737.46</ele><time>2026-06-12T22:01:48.000Z</time></trkpt>
        <trkpt lat="29.5661967" lon="103.3583243"><ele>1737.46</ele><time>2026-06-12T22:01:57.000Z</time></trkpt>
        <trkpt lat="29.5661967" lon="103.3583243"><ele>1737.46</ele><time>2026-06-12T22:02:22.000Z</time></trkpt>
        <trkpt lat="29.5661967" lon="103.3583243"><ele>1737.46</ele><time>2026-06-12T22:02:31.000Z</time></trkpt>
        <trkpt lat="29.5661967" lon="103.3583243"><ele>1737.46</ele><time>2026-06-12T22:03:52.000Z</time></trkpt>
        <trkpt lat="29.5661967" lon="103.3583243"><ele>1737.46</ele><time>2026-06-12T22:04:01.000Z</time></trkpt>
        <trkpt lat="29.5661967" lon="103.3583243"><ele>1737.46</ele><time>2026-06-12T22:07:14.000Z</time></trkpt>
        <trkpt lat="29.5661967" lon="103.3583243"><ele>1737.46</ele><time>2026-06-12T22:07:27.000Z</time></trkpt>
        <trkpt lat="29.5661967" lon="103.3583243"><ele>1737.46</ele><time>2026-06-12T22:07:42.000Z</time></trkpt>
        <trkpt lat="29.5661967" lon="103.3583243"><ele>1737.46</ele><time>2026-06-12T22:07:59.000Z</time></trkpt>
        <trkpt lat="29.566245" lon="103.3583367"><ele>1741.22</ele><time>2026-06-12T22:08:52.000Z</time></trkpt>
        <trkpt lat="29.566245" lon="103.3583367"><ele>1741.22</ele><time>2026-06-12T22:08:55.000Z</time></trkpt>
        <trkpt lat="29.566245" lon="103.3583367"><ele>1741.22</ele><time>2026-06-12T22:09:45.000Z</time></trkpt>
        <trkpt lat="29.5662117" lon="103.358235"><ele>1745.56</ele><time>2026-06-12T22:09:56.000Z</time></trkpt>
        <trkpt lat="29.5662117" lon="103.358235"><ele>1745.56</ele><time>2026-06-12T22:10:04.000Z</time></trkpt>
        <trkpt lat="29.5661783" lon="103.3581317"><ele>1748.11</ele><time>2026-06-12T22:10:24.000Z</time></trkpt>
        <trkpt lat="29.5661295" lon="103.358041"><ele>1750.95</ele><time>2026-06-12T22:10:44.000Z</time></trkpt>
        <trkpt lat="29.5661295" lon="103.358041"><ele>1750.95</ele><time>2026-06-12T22:11:15.000Z</time></trkpt>
        <trkpt lat="29.5660805" lon="103.3579359"><ele>1753.55</ele><time>2026-06-12T22:11:22.000Z</time></trkpt>
        <trkpt lat="29.5660805" lon="103.3579359"><ele>1753.55</ele><time>2026-06-12T22:11:42.000Z</time></trkpt>
        <trkpt lat="29.5660376" lon="103.3578376"><ele>1758.39</ele><time>2026-06-12T22:12:00.000Z</time></trkpt>
        <trkpt lat="29.5660034" lon="103.3577358"><ele>1762.52</ele><time>2026-06-12T22:12:14.000Z</time></trkpt>
        <trkpt lat="29.565986" lon="103.3576275"><ele>1766</ele><time>2026-06-12T22:12:28.000Z</time></trkpt>
        <trkpt lat="29.5659392" lon="103.3575371"><ele>1768.67</ele><time>2026-06-12T22:12:46.000Z</time></trkpt>
        <trkpt lat="29.5658716" lon="103.3574674"><ele>1771.91</ele><time>2026-06-12T22:13:08.000Z</time></trkpt>
        <trkpt lat="29.565785" lon="103.3574083"><ele>1776.38</ele><time>2026-06-12T22:13:20.000Z</time></trkpt>
        <trkpt lat="29.5656892" lon="103.3573489"><ele>1780.09</ele><time>2026-06-12T22:13:34.000Z</time></trkpt>
        <trkpt lat="29.5656108" lon="103.3572769"><ele>1783.66</ele><time>2026-06-12T22:13:42.000Z</time></trkpt>
        <trkpt lat="29.5655866" lon="103.3572082"><ele>1786.39</ele><time>2026-06-12T22:13:52.000Z</time></trkpt>
        <trkpt lat="29.5655545" lon="103.3571123"><ele>1786.05</ele><time>2026-06-12T22:14:04.000Z</time></trkpt>
        <trkpt lat="29.5655115" lon="103.3570177"><ele>1785.55</ele><time>2026-06-12T22:14:22.000Z</time></trkpt>
        <trkpt lat="29.565467" lon="103.3569125"><ele>1787.17</ele><time>2026-06-12T22:14:44.000Z</time></trkpt>
        <trkpt lat="29.565467" lon="103.3569125"><ele>1787.17</ele><time>2026-06-12T22:15:11.000Z</time></trkpt>
        <trkpt lat="29.565417" lon="103.3568191"><ele>1791.27</ele><time>2026-06-12T22:15:20.000Z</time></trkpt>
        <trkpt lat="29.565417" lon="103.3568191"><ele>1791.27</ele><time>2026-06-12T22:15:35.000Z</time></trkpt>
        <trkpt lat="29.5653375" lon="103.3567725"><ele>1797.91</ele><time>2026-06-12T22:15:51.000Z</time></trkpt>
        <trkpt lat="29.5652475" lon="103.3567201"><ele>1802.42</ele><time>2026-06-12T22:16:03.000Z</time></trkpt>
        <trkpt lat="29.5651581" lon="103.3566768"><ele>1805.47</ele><time>2026-06-12T22:16:23.000Z</time></trkpt>
        <trkpt lat="29.5651581" lon="103.3566768"><ele>1805.47</ele><time>2026-06-12T22:16:39.000Z</time></trkpt>
        <trkpt lat="29.5650703" lon="103.3566371"><ele>1809.22</ele><time>2026-06-12T22:16:42.000Z</time></trkpt>
        <trkpt lat="29.5650703" lon="103.3566371"><ele>1809.22</ele><time>2026-06-12T22:16:58.000Z</time></trkpt>
        <trkpt lat="29.5649814" lon="103.3565975"><ele>1814.16</ele><time>2026-06-12T22:17:08.000Z</time></trkpt>
        <trkpt lat="29.5648874" lon="103.356556"><ele>1817.23</ele><time>2026-06-12T22:17:16.000Z</time></trkpt>
        <trkpt lat="29.5648319" lon="103.3564983"><ele>1819.54</ele><time>2026-06-12T22:17:30.000Z</time></trkpt>
        <trkpt lat="29.564757" lon="103.3564296"><ele>1820.3</ele><time>2026-06-12T22:17:46.000Z</time></trkpt>
        <trkpt lat="29.5646882" lon="103.3563502"><ele>1819.95</ele><time>2026-06-12T22:18:00.000Z</time></trkpt>
        <trkpt lat="29.5646882" lon="103.3563502"><ele>1819.95</ele><time>2026-06-12T22:18:11.000Z</time></trkpt>
        <trkpt lat="29.5646479" lon="103.3562554"><ele>1820.49</ele><time>2026-06-12T22:18:18.000Z</time></trkpt>
        <trkpt lat="29.5646479" lon="103.3562554"><ele>1820.49</ele><time>2026-06-12T22:18:57.000Z</time></trkpt>
        <trkpt lat="29.5646053" lon="103.3561561"><ele>1823.42</ele><time>2026-06-12T22:19:09.000Z</time></trkpt>
        <trkpt lat="29.5645588" lon="103.3560579"><ele>1825.95</ele><time>2026-06-12T22:19:21.000Z</time></trkpt>
        <trkpt lat="29.5645" lon="103.3560888"><ele>1827.65</ele><time>2026-06-12T22:19:59.000Z</time></trkpt>
        <trkpt lat="29.5644692" lon="103.3561987"><ele>1831.67</ele><time>2026-06-12T22:20:13.000Z</time></trkpt>
        <trkpt lat="29.5644066" lon="103.3561715"><ele>1835.9</ele><time>2026-06-12T22:20:29.000Z</time></trkpt>
        <trkpt lat="29.5644066" lon="103.3561715"><ele>1835.9</ele><time>2026-06-12T22:20:51.000Z</time></trkpt>
        <trkpt lat="29.5644066" lon="103.3561715"><ele>1835.9</ele><time>2026-06-12T22:21:00.000Z</time></trkpt>
        <trkpt lat="29.5644066" lon="103.3561715"><ele>1835.9</ele><time>2026-06-12T22:21:15.000Z</time></trkpt>
        <trkpt lat="29.5643817" lon="103.3562617"><ele>1839.17</ele><time>2026-06-12T22:24:08.000Z</time></trkpt>
        <trkpt lat="29.5643817" lon="103.3562617"><ele>1839.17</ele><time>2026-06-12T22:24:25.000Z</time></trkpt>
        <trkpt lat="29.5643383" lon="103.3563533"><ele>1843.61</ele><time>2026-06-12T22:24:55.000Z</time></trkpt>
        <trkpt lat="29.564271" lon="103.3564295"><ele>1849.37</ele><time>2026-06-12T22:25:23.000Z</time></trkpt>
        <trkpt lat="29.564271" lon="103.3564295"><ele>1849.37</ele><time>2026-06-12T22:26:03.000Z</time></trkpt>
        <trkpt lat="29.564271" lon="103.3564295"><ele>1849.37</ele><time>2026-06-12T22:26:14.000Z</time></trkpt>
        <trkpt lat="29.564271" lon="103.3564295"><ele>1849.37</ele><time>2026-06-12T22:26:37.000Z</time></trkpt>
        <trkpt lat="29.564271" lon="103.3564295"><ele>1849.37</ele><time>2026-06-12T22:26:40.000Z</time></trkpt>
        <trkpt lat="29.564271" lon="103.3564295"><ele>1849.37</ele><time>2026-06-12T22:27:29.000Z</time></trkpt>
        <trkpt lat="29.564271" lon="103.3564295"><ele>1849.37</ele><time>2026-06-12T22:27:34.000Z</time></trkpt>
        <trkpt lat="29.564271" lon="103.3564295"><ele>1849.37</ele><time>2026-06-12T22:28:23.000Z</time></trkpt>
        <trkpt lat="29.564271" lon="103.3564295"><ele>1849.37</ele><time>2026-06-12T22:28:26.000Z</time></trkpt>
        <trkpt lat="29.564271" lon="103.3564295"><ele>1849.37</ele><time>2026-06-12T22:28:37.000Z</time></trkpt>
        <trkpt lat="29.564271" lon="103.3564295"><ele>1849.37</ele><time>2026-06-12T22:29:00.000Z</time></trkpt>
        <trkpt lat="29.564271" lon="103.3564295"><ele>1849.37</ele><time>2026-06-12T22:29:11.000Z</time></trkpt>
        <trkpt lat="29.564271" lon="103.3564295"><ele>1849.37</ele><time>2026-06-12T22:29:16.000Z</time></trkpt>
        <trkpt lat="29.564271" lon="103.3564295"><ele>1849.37</ele><time>2026-06-12T22:29:27.000Z</time></trkpt>
        <trkpt lat="29.5641833" lon="103.3564783"><ele>1856.57</ele><time>2026-06-12T22:29:30.000Z</time></trkpt>
        <trkpt lat="29.5641833" lon="103.3564783"><ele>1856.57</ele><time>2026-06-12T22:31:19.000Z</time></trkpt>
        <trkpt lat="29.5640967" lon="103.356515"><ele>1862.3</ele><time>2026-06-12T22:31:33.000Z</time></trkpt>
        <trkpt lat="29.5640283" lon="103.35646"><ele>1866.04</ele><time>2026-06-12T22:32:01.000Z</time></trkpt>
        <trkpt lat="29.5640283" lon="103.35646"><ele>1866.04</ele><time>2026-06-12T22:32:07.000Z</time></trkpt>
        <trkpt lat="29.5640283" lon="103.35646"><ele>1866.04</ele><time>2026-06-12T22:32:18.000Z</time></trkpt>
        <trkpt lat="29.5640283" lon="103.35646"><ele>1866.04</ele><time>2026-06-12T22:32:59.000Z</time></trkpt>
        <trkpt lat="29.564" lon="103.35654"><ele>1870.76</ele><time>2026-06-12T22:33:06.000Z</time></trkpt>
        <trkpt lat="29.564" lon="103.35654"><ele>1870.76</ele><time>2026-06-12T22:33:31.000Z</time></trkpt>
        <trkpt lat="29.56389" lon="103.3565233"><ele>1873.96</ele><time>2026-06-12T22:33:59.000Z</time></trkpt>
        <trkpt lat="29.5637955" lon="103.3565151"><ele>1875.61</ele><time>2026-06-12T22:34:09.000Z</time></trkpt>
        <trkpt lat="29.5638967" lon="103.3565117"><ele>1876.04</ele><time>2026-06-12T22:36:51.000Z</time></trkpt>
        <trkpt lat="29.5639867" lon="103.356475"><ele>1874.73</ele><time>2026-06-12T22:36:59.000Z</time></trkpt>
        <trkpt lat="29.5640612" lon="103.3564962"><ele>1874.16</ele><time>2026-06-12T22:37:07.000Z</time></trkpt>
        <trkpt lat="29.5641417" lon="103.356465"><ele>1873.66</ele><time>2026-06-12T22:38:19.000Z</time></trkpt>
        <trkpt lat="29.5641633" lon="103.3563617"><ele>1871.61</ele><time>2026-06-12T22:38:31.000Z</time></trkpt>
        <trkpt lat="29.5641441" lon="103.3562471"><ele>1869.5</ele><time>2026-06-12T22:38:41.000Z</time></trkpt>
        <trkpt lat="29.5641163" lon="103.3561446"><ele>1868.21</ele><time>2026-06-12T22:38:53.000Z</time></trkpt>
        <trkpt lat="29.5641163" lon="103.3561446"><ele>1868.21</ele><time>2026-06-12T22:38:59.000Z</time></trkpt>
        <trkpt lat="29.5641163" lon="103.3561446"><ele>1868.21</ele><time>2026-06-12T22:39:00.000Z</time></trkpt>
        <trkpt lat="29.5641163" lon="103.3561446"><ele>1868.21</ele><time>2026-06-12T22:39:11.000Z</time></trkpt>
        <trkpt lat="29.5640932" lon="103.3560258"><ele>1867.17</ele><time>2026-06-12T22:39:12.000Z</time></trkpt>
        <trkpt lat="29.5640932" lon="103.3560258"><ele>1867.17</ele><time>2026-06-12T22:39:24.000Z</time></trkpt>
        <trkpt lat="29.5640601" lon="103.3558997"><ele>1866.75</ele><time>2026-06-12T22:39:32.000Z</time></trkpt>
        <trkpt lat="29.5640238" lon="103.3557502"><ele>1864.32</ele><time>2026-06-12T22:39:42.000Z</time></trkpt>
        <trkpt lat="29.5640034" lon="103.3556118"><ele>1860.96</ele><time>2026-06-12T22:39:54.000Z</time></trkpt>
        <trkpt lat="29.5639832" lon="103.3554991"><ele>1857.32</ele><time>2026-06-12T22:40:00.000Z</time></trkpt>
        <trkpt lat="29.5639725" lon="103.3553911"><ele>1854.6</ele><time>2026-06-12T22:40:10.000Z</time></trkpt>
        <trkpt lat="29.5639563" lon="103.3552798"><ele>1851.72</ele><time>2026-06-12T22:40:18.000Z</time></trkpt>
        <trkpt lat="29.5639224" lon="103.3551814"><ele>1848.7</ele><time>2026-06-12T22:40:26.000Z</time></trkpt>
        <trkpt lat="29.5638643" lon="103.3550887"><ele>1845.56</ele><time>2026-06-12T22:40:34.000Z</time></trkpt>
        <trkpt lat="29.5637909" lon="103.3550071"><ele>1842.78</ele><time>2026-06-12T22:40:42.000Z</time></trkpt>
        <trkpt lat="29.5637212" lon="103.3549202"><ele>1840.51</ele><time>2026-06-12T22:40:50.000Z</time></trkpt>
        <trkpt lat="29.5636359" lon="103.3548515"><ele>1839.56</ele><time>2026-06-12T22:40:58.000Z</time></trkpt>
        <trkpt lat="29.5635569" lon="103.3547742"><ele>1837.51</ele><time>2026-06-12T22:41:04.000Z</time></trkpt>
        <trkpt lat="29.5635041" lon="103.3546764"><ele>1836</ele><time>2026-06-12T22:41:10.000Z</time></trkpt>
        <trkpt lat="29.5634422" lon="103.3545859"><ele>1835.14</ele><time>2026-06-12T22:41:18.000Z</time></trkpt>
        <trkpt lat="29.5633521" lon="103.3545231"><ele>1835.21</ele><time>2026-06-12T22:41:24.000Z</time></trkpt>
        <trkpt lat="29.5633166" lon="103.3544103"><ele>1836.8</ele><time>2026-06-12T22:41:34.000Z</time></trkpt>
        <trkpt lat="29.5632874" lon="103.3542828"><ele>1836.58</ele><time>2026-06-12T22:41:42.000Z</time></trkpt>
        <trkpt lat="29.5632534" lon="103.3541646"><ele>1836.25</ele><time>2026-06-12T22:41:50.000Z</time></trkpt>
        <trkpt lat="29.5632185" lon="103.3540502"><ele>1835.32</ele><time>2026-06-12T22:41:58.000Z</time></trkpt>
        <trkpt lat="29.5631803" lon="103.3539228"><ele>1834.84</ele><time>2026-06-12T22:42:08.000Z</time></trkpt>
        <trkpt lat="29.5631582" lon="103.3538119"><ele>1833.45</ele><time>2026-06-12T22:42:14.000Z</time></trkpt>
        <trkpt lat="29.5631169" lon="103.353704"><ele>1832.14</ele><time>2026-06-12T22:42:22.000Z</time></trkpt>
        <trkpt lat="29.5630854" lon="103.3535817"><ele>1831.65</ele><time>2026-06-12T22:42:32.000Z</time></trkpt>
        <trkpt lat="29.5630855" lon="103.3534675"><ele>1832.49</ele><time>2026-06-12T22:42:40.000Z</time></trkpt>
        <trkpt lat="29.5631108" lon="103.3533655"><ele>1833.22</ele><time>2026-06-12T22:42:50.000Z</time></trkpt>
        <trkpt lat="29.5630945" lon="103.3532641"><ele>1834.07</ele><time>2026-06-12T22:43:02.000Z</time></trkpt>
        <trkpt lat="29.563072" lon="103.3531559"><ele>1833.4</ele><time>2026-06-12T22:43:12.000Z</time></trkpt>
        <trkpt lat="29.5630457" lon="103.3530535"><ele>1831.16</ele><time>2026-06-12T22:43:18.000Z</time></trkpt>
        <trkpt lat="29.5630065" lon="103.3529497"><ele>1830.75</ele><time>2026-06-12T22:43:26.000Z</time></trkpt>
        <trkpt lat="29.5629756" lon="103.3528351"><ele>1830.99</ele><time>2026-06-12T22:43:34.000Z</time></trkpt>
        <trkpt lat="29.5629577" lon="103.3527202"><ele>1830.86</ele><time>2026-06-12T22:43:44.000Z</time></trkpt>
        <trkpt lat="29.5630098" lon="103.3526209"><ele>1831.57</ele><time>2026-06-12T22:43:56.000Z</time></trkpt>
        <trkpt lat="29.5630604" lon="103.3525262"><ele>1829.77</ele><time>2026-06-12T22:44:04.000Z</time></trkpt>
        <trkpt lat="29.5631214" lon="103.3524176"><ele>1827.25</ele><time>2026-06-12T22:44:16.000Z</time></trkpt>
        <trkpt lat="29.5631752" lon="103.3523196"><ele>1822.93</ele><time>2026-06-12T22:44:24.000Z</time></trkpt>
        <trkpt lat="29.5631772" lon="103.3522584"><ele>1818.31</ele><time>2026-06-12T22:44:42.000Z</time></trkpt>
        <trkpt lat="29.5631772" lon="103.3522584"><ele>1818.31</ele><time>2026-06-12T22:45:09.000Z</time></trkpt>
        <trkpt lat="29.5631772" lon="103.3522584"><ele>1818.31</ele><time>2026-06-12T22:45:12.000Z</time></trkpt>
        <trkpt lat="29.5631772" lon="103.3522584"><ele>1818.31</ele><time>2026-06-12T22:45:23.000Z</time></trkpt>
        <trkpt lat="29.56313" lon="103.3521583"><ele>1813.62</ele><time>2026-06-12T22:45:26.000Z</time></trkpt>
        <trkpt lat="29.56313" lon="103.3521583"><ele>1813.62</ele><time>2026-06-12T22:45:46.000Z</time></trkpt>
        <trkpt lat="29.5630633" lon="103.3520733"><ele>1810.08</ele><time>2026-06-12T22:45:52.000Z</time></trkpt>
        <trkpt lat="29.5630813" lon="103.3519714"><ele>1810.43</ele><time>2026-06-12T22:46:00.000Z</time></trkpt>
        <trkpt lat="29.5630357" lon="103.3518652"><ele>1810.85</ele><time>2026-06-12T22:46:06.000Z</time></trkpt>
        <trkpt lat="29.5630235" lon="103.3517488"><ele>1811.69</ele><time>2026-06-12T22:46:14.000Z</time></trkpt>
        <trkpt lat="29.5630176" lon="103.3516178"><ele>1811.26</ele><time>2026-06-12T22:46:24.000Z</time></trkpt>
        <trkpt lat="29.5629694" lon="103.3514986"><ele>1809.17</ele><time>2026-06-12T22:46:34.000Z</time></trkpt>
        <trkpt lat="29.5629748" lon="103.3513637"><ele>1807.2</ele><time>2026-06-12T22:46:44.000Z</time></trkpt>
        <trkpt lat="29.5630241" lon="103.3512644"><ele>1805.57</ele><time>2026-06-12T22:46:50.000Z</time></trkpt>
        <trkpt lat="29.563035" lon="103.3511502"><ele>1804.38</ele><time>2026-06-12T22:46:56.000Z</time></trkpt>
        <trkpt lat="29.5630146" lon="103.3510453"><ele>1803.66</ele><time>2026-06-12T22:47:08.000Z</time></trkpt>
        <trkpt lat="29.5629867" lon="103.3509277"><ele>1801.83</ele><time>2026-06-12T22:47:18.000Z</time></trkpt>
        <trkpt lat="29.5629543" lon="103.3508236"><ele>1799.53</ele><time>2026-06-12T22:47:24.000Z</time></trkpt>
        <trkpt lat="29.5628753" lon="103.3507612"><ele>1797.89</ele><time>2026-06-12T22:47:32.000Z</time></trkpt>
        <trkpt lat="29.5628541" lon="103.3507436"><ele>1795.1</ele><time>2026-06-12T22:47:46.000Z</time></trkpt>
        <trkpt lat="29.5628258" lon="103.3506597"><ele>1794.8</ele><time>2026-06-12T22:48:34.000Z</time></trkpt>
        <trkpt lat="29.5628171" lon="103.350539"><ele>1793.38</ele><time>2026-06-12T22:48:40.000Z</time></trkpt>
        <trkpt lat="29.5628165" lon="103.3504215"><ele>1792.87</ele><time>2026-06-12T22:48:48.000Z</time></trkpt>
        <trkpt lat="29.5628638" lon="103.3502955"><ele>1792.54</ele><time>2026-06-12T22:48:56.000Z</time></trkpt>
        <trkpt lat="29.5628837" lon="103.3501627"><ele>1790.72</ele><time>2026-06-12T22:49:06.000Z</time></trkpt>
        <trkpt lat="29.5629054" lon="103.3500211"><ele>1788.04</ele><time>2026-06-12T22:49:14.000Z</time></trkpt>
        <trkpt lat="29.5629012" lon="103.3499161"><ele>1786.26</ele><time>2026-06-12T22:49:20.000Z</time></trkpt>
        <trkpt lat="29.5628586" lon="103.3498168"><ele>1785.12</ele><time>2026-06-12T22:49:26.000Z</time></trkpt>
        <trkpt lat="29.5629009" lon="103.3497243"><ele>1781.8</ele><time>2026-06-12T22:49:32.000Z</time></trkpt>
        <trkpt lat="29.5629782" lon="103.3496194"><ele>1781.33</ele><time>2026-06-12T22:49:40.000Z</time></trkpt>
        <trkpt lat="29.563039" lon="103.3495215"><ele>1781.79</ele><time>2026-06-12T22:49:46.000Z</time></trkpt>
        <trkpt lat="29.5631075" lon="103.3494315"><ele>1781.88</ele><time>2026-06-12T22:49:52.000Z</time></trkpt>
        <trkpt lat="29.5631517" lon="103.3493239"><ele>1782.23</ele><time>2026-06-12T22:50:00.000Z</time></trkpt>
        <trkpt lat="29.5632097" lon="103.3492294"><ele>1782.56</ele><time>2026-06-12T22:50:06.000Z</time></trkpt>
        <trkpt lat="29.5632411" lon="103.3491078"><ele>1784.64</ele><time>2026-06-12T22:50:16.000Z</time></trkpt>
        <trkpt lat="29.5632324" lon="103.3489934"><ele>1782.99</ele><time>2026-06-12T22:50:22.000Z</time></trkpt>
        <trkpt lat="29.5632441" lon="103.3488867"><ele>1781.88</ele><time>2026-06-12T22:50:28.000Z</time></trkpt>
        <trkpt lat="29.5632487" lon="103.3487693"><ele>1782.4</ele><time>2026-06-12T22:50:38.000Z</time></trkpt>
        <trkpt lat="29.5632285" lon="103.3486616"><ele>1781.67</ele><time>2026-06-12T22:50:46.000Z</time></trkpt>
        <trkpt lat="29.5632174" lon="103.3485553"><ele>1779.23</ele><time>2026-06-12T22:50:52.000Z</time></trkpt>
        <trkpt lat="29.5632626" lon="103.3484517"><ele>1780.04</ele><time>2026-06-12T22:50:58.000Z</time></trkpt>
        <trkpt lat="29.5633038" lon="103.3483526"><ele>1782.95</ele><time>2026-06-12T22:51:06.000Z</time></trkpt>
        <trkpt lat="29.5633481" lon="103.34826"><ele>1785.98</ele><time>2026-06-12T22:51:14.000Z</time></trkpt>
        <trkpt lat="29.563386" lon="103.3481542"><ele>1785.9</ele><time>2026-06-12T22:51:24.000Z</time></trkpt>
        <trkpt lat="29.5634282" lon="103.3480343"><ele>1786.16</ele><time>2026-06-12T22:51:32.000Z</time></trkpt>
        <trkpt lat="29.5634919" lon="103.3479536"><ele>1785.79</ele><time>2026-06-12T22:51:38.000Z</time></trkpt>
        <trkpt lat="29.5635532" lon="103.3478505"><ele>1785.06</ele><time>2026-06-12T22:51:46.000Z</time></trkpt>
        <trkpt lat="29.5635609" lon="103.3477277"><ele>1784.86</ele><time>2026-06-12T22:51:54.000Z</time></trkpt>
        <trkpt lat="29.5635822" lon="103.3476043"><ele>1784.84</ele><time>2026-06-12T22:52:04.000Z</time></trkpt>
        <trkpt lat="29.5635724" lon="103.3474807"><ele>1784.43</ele><time>2026-06-12T22:52:12.000Z</time></trkpt>
        <trkpt lat="29.5635468" lon="103.3473602"><ele>1783.82</ele><time>2026-06-12T22:52:20.000Z</time></trkpt>
        <trkpt lat="29.5634949" lon="103.3472601"><ele>1783.72</ele><time>2026-06-12T22:52:30.000Z</time></trkpt>
        <trkpt lat="29.5634254" lon="103.3471736"><ele>1783.84</ele><time>2026-06-12T22:52:40.000Z</time></trkpt>
        <trkpt lat="29.5633307" lon="103.3471174"><ele>1785.85</ele><time>2026-06-12T22:52:56.000Z</time></trkpt>
        <trkpt lat="29.5632264" lon="103.3471285"><ele>1786.08</ele><time>2026-06-12T22:53:04.000Z</time></trkpt>
        <trkpt lat="29.563189" lon="103.347108"><ele>1781.32</ele><time>2026-06-12T22:53:28.000Z</time></trkpt>
        <trkpt lat="29.563189" lon="103.347108"><ele>1781.32</ele><time>2026-06-12T22:53:59.000Z</time></trkpt>
        <trkpt lat="29.563189" lon="103.347108"><ele>1781.32</ele><time>2026-06-12T22:54:22.000Z</time></trkpt>
        <trkpt lat="29.563189" lon="103.347108"><ele>1781.32</ele><time>2026-06-12T22:54:31.000Z</time></trkpt>
        <trkpt lat="29.563189" lon="103.347108"><ele>1781.32</ele><time>2026-06-12T22:57:46.000Z</time></trkpt>
        <trkpt lat="29.563189" lon="103.347108"><ele>1781.32</ele><time>2026-06-12T22:58:03.000Z</time></trkpt>
        <trkpt lat="29.563189" lon="103.347108"><ele>1781.32</ele><time>2026-06-12T22:58:38.000Z</time></trkpt>
        <trkpt lat="29.563189" lon="103.347108"><ele>1781.32</ele><time>2026-06-12T22:59:03.000Z</time></trkpt>
        <trkpt lat="29.563189" lon="103.347108"><ele>1781.32</ele><time>2026-06-12T22:59:16.000Z</time></trkpt>
        <trkpt lat="29.563189" lon="103.347108"><ele>1781.32</ele><time>2026-06-12T23:00:43.000Z</time></trkpt>
        <trkpt lat="29.563189" lon="103.347108"><ele>1781.32</ele><time>2026-06-12T23:00:44.000Z</time></trkpt>
        <trkpt lat="29.563189" lon="103.347108"><ele>1781.32</ele><time>2026-06-12T23:01:15.000Z</time></trkpt>
        <trkpt lat="29.563189" lon="103.347108"><ele>1781.32</ele><time>2026-06-12T23:02:02.000Z</time></trkpt>
        <trkpt lat="29.563189" lon="103.347108"><ele>1781.32</ele><time>2026-06-12T23:02:17.000Z</time></trkpt>
        <trkpt lat="29.563189" lon="103.347108"><ele>1781.32</ele><time>2026-06-12T23:02:18.000Z</time></trkpt>
        <trkpt lat="29.563189" lon="103.347108"><ele>1781.32</ele><time>2026-06-12T23:02:47.000Z</time></trkpt>
        <trkpt lat="29.5632383" lon="103.3470033"><ele>1781.95</ele><time>2026-06-12T23:03:04.000Z</time></trkpt>
        <trkpt lat="29.5632383" lon="103.3470033"><ele>1781.95</ele><time>2026-06-12T23:03:36.000Z</time></trkpt>
        <trkpt lat="29.5631583" lon="103.346935"><ele>1788.04</ele><time>2026-06-12T23:03:44.000Z</time></trkpt>
        <trkpt lat="29.5630783" lon="103.3468582"><ele>1791.21</ele><time>2026-06-12T23:03:52.000Z</time></trkpt>
        <trkpt lat="29.5630176" lon="103.3467658"><ele>1791.81</ele><time>2026-06-12T23:04:02.000Z</time></trkpt>
        <trkpt lat="29.5629329" lon="103.3466797"><ele>1789.57</ele><time>2026-06-12T23:04:12.000Z</time></trkpt>
        <trkpt lat="29.5628689" lon="103.3465839"><ele>1784.59</ele><time>2026-06-12T23:04:18.000Z</time></trkpt>
        <trkpt lat="29.5628019" lon="103.3465086"><ele>1781.37</ele><time>2026-06-12T23:04:24.000Z</time></trkpt>
        <trkpt lat="29.5627144" lon="103.3464653"><ele>1778.59</ele><time>2026-06-12T23:04:30.000Z</time></trkpt>
        <trkpt lat="29.5626304" lon="103.3464178"><ele>1776.4</ele><time>2026-06-12T23:04:36.000Z</time></trkpt>
        <trkpt lat="29.5625424" lon="103.3463666"><ele>1774.81</ele><time>2026-06-12T23:04:42.000Z</time></trkpt>
        <trkpt lat="29.5624683" lon="103.3462856"><ele>1773.51</ele><time>2026-06-12T23:04:48.000Z</time></trkpt>
        <trkpt lat="29.562396" lon="103.3462022"><ele>1772.35</ele><time>2026-06-12T23:04:54.000Z</time></trkpt>
        <trkpt lat="29.5623262" lon="103.3461282"><ele>1770.86</ele><time>2026-06-12T23:05:00.000Z</time></trkpt>
        <trkpt lat="29.5622758" lon="103.3460347"><ele>1769.42</ele><time>2026-06-12T23:05:06.000Z</time></trkpt>
        <trkpt lat="29.5622346" lon="103.3459178"><ele>1768.29</ele><time>2026-06-12T23:05:14.000Z</time></trkpt>
        <trkpt lat="29.5622043" lon="103.3457921"><ele>1768.51</ele><time>2026-06-12T23:05:28.000Z</time></trkpt>
        <trkpt lat="29.5621293" lon="103.3457077"><ele>1768.51</ele><time>2026-06-12T23:05:36.000Z</time></trkpt>
        <trkpt lat="29.5620592" lon="103.3456348"><ele>1767.47</ele><time>2026-06-12T23:05:48.000Z</time></trkpt>
        <trkpt lat="29.5619701" lon="103.3455821"><ele>1767.31</ele><time>2026-06-12T23:06:00.000Z</time></trkpt>
        <trkpt lat="29.5618699" lon="103.3455629"><ele>1769.03</ele><time>2026-06-12T23:06:12.000Z</time></trkpt>
        <trkpt lat="29.5617569" lon="103.3455654"><ele>1771.98</ele><time>2026-06-12T23:06:22.000Z</time></trkpt>
        <trkpt lat="29.5616544" lon="103.3455442"><ele>1776.03</ele><time>2026-06-12T23:06:30.000Z</time></trkpt>
        <trkpt lat="29.5615684" lon="103.3454791"><ele>1779.76</ele><time>2026-06-12T23:06:40.000Z</time></trkpt>
        <trkpt lat="29.561505" lon="103.3453841"><ele>1783.48</ele><time>2026-06-12T23:06:46.000Z</time></trkpt>
        <trkpt lat="29.5614351" lon="103.3453042"><ele>1785.64</ele><time>2026-06-12T23:06:54.000Z</time></trkpt>
        <trkpt lat="29.5614302" lon="103.3452766"><ele>1790.7</ele><time>2026-06-12T23:07:02.000Z</time></trkpt>
        <trkpt lat="29.561387" lon="103.3452162"><ele>1792.85</ele><time>2026-06-12T23:07:30.000Z</time></trkpt>
        <trkpt lat="29.5613135" lon="103.3451501"><ele>1791.62</ele><time>2026-06-12T23:07:46.000Z</time></trkpt>
        <trkpt lat="29.5612291" lon="103.3450999"><ele>1789.08</ele><time>2026-06-12T23:08:02.000Z</time></trkpt>
        <trkpt lat="29.5611448" lon="103.3450398"><ele>1787.37</ele><time>2026-06-12T23:08:48.000Z</time></trkpt>
        <trkpt lat="29.5610507" lon="103.3450105"><ele>1789.23</ele><time>2026-06-12T23:09:40.000Z</time></trkpt>
        <trkpt lat="29.5609533" lon="103.3450583"><ele>1795.02</ele><time>2026-06-12T23:11:06.000Z</time></trkpt>
        <trkpt lat="29.5608433" lon="103.3449567"><ele>1801.04</ele><time>2026-06-12T23:11:40.000Z</time></trkpt>
        <trkpt lat="29.5607644" lon="103.3448903"><ele>1807.17</ele><time>2026-06-12T23:12:32.000Z</time></trkpt>
        <trkpt lat="29.5607467" lon="103.3447917"><ele>1816.52</ele><time>2026-06-12T23:13:44.000Z</time></trkpt>
        <trkpt lat="29.5606883" lon="103.3447"><ele>1825.11</ele><time>2026-06-12T23:14:00.000Z</time></trkpt>
        <trkpt lat="29.5606883" lon="103.3447"><ele>1825.11</ele><time>2026-06-12T23:14:25.000Z</time></trkpt>
        <trkpt lat="29.5606883" lon="103.3447"><ele>1825.11</ele><time>2026-06-12T23:14:38.000Z</time></trkpt>
        <trkpt lat="29.5606883" lon="103.3447"><ele>1825.11</ele><time>2026-06-12T23:14:49.000Z</time></trkpt>
        <trkpt lat="29.56059" lon="103.34466"><ele>1831.65</ele><time>2026-06-12T23:15:00.000Z</time></trkpt>
        <trkpt lat="29.56059" lon="103.34466"><ele>1831.65</ele><time>2026-06-12T23:16:03.000Z</time></trkpt>
        <trkpt lat="29.5605067" lon="103.3446033"><ele>1838.81</ele><time>2026-06-12T23:16:21.000Z</time></trkpt>
        <trkpt lat="29.5604262" lon="103.3445537"><ele>1844.05</ele><time>2026-06-12T23:16:45.000Z</time></trkpt>
        <trkpt lat="29.5603436" lon="103.3444899"><ele>1849.41</ele><time>2026-06-12T23:17:07.000Z</time></trkpt>
        <trkpt lat="29.5603436" lon="103.3444899"><ele>1849.41</ele><time>2026-06-12T23:17:33.000Z</time></trkpt>
        <trkpt lat="29.5602641" lon="103.3444292"><ele>1854.27</ele><time>2026-06-12T23:17:44.000Z</time></trkpt>
        <trkpt lat="29.5602641" lon="103.3444292"><ele>1854.27</ele><time>2026-06-12T23:18:03.000Z</time></trkpt>
        <trkpt lat="29.5601933" lon="103.3443487"><ele>1861.12</ele><time>2026-06-12T23:18:19.000Z</time></trkpt>
        <trkpt lat="29.5601543" lon="103.3442511"><ele>1866.02</ele><time>2026-06-12T23:18:39.000Z</time></trkpt>
        <trkpt lat="29.5601543" lon="103.3442511"><ele>1866.02</ele><time>2026-06-12T23:19:07.000Z</time></trkpt>
        <trkpt lat="29.56008" lon="103.34419"><ele>1870.87</ele><time>2026-06-12T23:19:58.000Z</time></trkpt>
        <trkpt lat="29.56008" lon="103.34419"><ele>1870.87</ele><time>2026-06-12T23:20:27.000Z</time></trkpt>
        <trkpt lat="29.56011" lon="103.3440833"><ele>1879.36</ele><time>2026-06-12T23:20:43.000Z</time></trkpt>
        <trkpt lat="29.5601329" lon="103.3440669"><ele>1883.94</ele><time>2026-06-12T23:20:49.000Z</time></trkpt>
        <trkpt lat="29.5601329" lon="103.3440669"><ele>1883.94</ele><time>2026-06-12T23:21:15.000Z</time></trkpt>
        <trkpt lat="29.56007" lon="103.344"><ele>1888.78</ele><time>2026-06-12T23:21:22.000Z</time></trkpt>
        <trkpt lat="29.56007" lon="103.344"><ele>1888.78</ele><time>2026-06-12T23:21:55.000Z</time></trkpt>
        <trkpt lat="29.5601417" lon="103.34393"><ele>1894.64</ele><time>2026-06-12T23:22:15.000Z</time></trkpt>
        <trkpt lat="29.5601005" lon="103.3438515"><ele>1900.04</ele><time>2026-06-12T23:22:49.000Z</time></trkpt>
        <trkpt lat="29.5601005" lon="103.3438515"><ele>1900.04</ele><time>2026-06-12T23:23:17.000Z</time></trkpt>
        <trkpt lat="29.5601005" lon="103.3438515"><ele>1900.04</ele><time>2026-06-12T23:23:24.000Z</time></trkpt>
        <trkpt lat="29.5601005" lon="103.3438515"><ele>1900.04</ele><time>2026-06-12T23:23:35.000Z</time></trkpt>
        <trkpt lat="29.5601005" lon="103.3438515"><ele>1900.04</ele><time>2026-06-12T23:24:58.000Z</time></trkpt>
        <trkpt lat="29.5601005" lon="103.3438515"><ele>1900.04</ele><time>2026-06-12T23:25:19.000Z</time></trkpt>
        <trkpt lat="29.5601005" lon="103.3438515"><ele>1900.04</ele><time>2026-06-12T23:26:10.000Z</time></trkpt>
        <trkpt lat="29.5601005" lon="103.3438515"><ele>1900.04</ele><time>2026-06-12T23:26:21.000Z</time></trkpt>
        <trkpt lat="29.5601005" lon="103.3438515"><ele>1900.04</ele><time>2026-06-12T23:26:34.000Z</time></trkpt>
        <trkpt lat="29.5601005" lon="103.3438515"><ele>1900.04</ele><time>2026-06-12T23:26:57.000Z</time></trkpt>
        <trkpt lat="29.5601005" lon="103.3438515"><ele>1900.04</ele><time>2026-06-12T23:28:14.000Z</time></trkpt>
        <trkpt lat="29.5601005" lon="103.3438515"><ele>1900.04</ele><time>2026-06-12T23:28:29.000Z</time></trkpt>
        <trkpt lat="29.5601005" lon="103.3438515"><ele>1900.04</ele><time>2026-06-12T23:28:54.000Z</time></trkpt>
        <trkpt lat="29.5601005" lon="103.3438515"><ele>1900.04</ele><time>2026-06-12T23:29:33.000Z</time></trkpt>
        <trkpt lat="29.5601005" lon="103.3438515"><ele>1900.04</ele><time>2026-06-12T23:29:38.000Z</time></trkpt>
        <trkpt lat="29.5601005" lon="103.3438515"><ele>1900.04</ele><time>2026-06-12T23:29:53.000Z</time></trkpt>
        <trkpt lat="29.5599933" lon="103.3437917"><ele>1904.84</ele><time>2026-06-12T23:30:08.000Z</time></trkpt>
        <trkpt lat="29.5599933" lon="103.3437917"><ele>1904.84</ele><time>2026-06-12T23:31:09.000Z</time></trkpt>
        <trkpt lat="29.5599117" lon="103.343745"><ele>1910.46</ele><time>2026-06-12T23:31:25.000Z</time></trkpt>
        <trkpt lat="29.5598385" lon="103.3436673"><ele>1915.85</ele><time>2026-06-12T23:31:51.000Z</time></trkpt>
        <trkpt lat="29.5597848" lon="103.3435764"><ele>1922.58</ele><time>2026-06-12T23:32:15.000Z</time></trkpt>
        <trkpt lat="29.5597234" lon="103.3434988"><ele>1926.94</ele><time>2026-06-12T23:32:31.000Z</time></trkpt>
        <trkpt lat="29.5597234" lon="103.3434988"><ele>1926.94</ele><time>2026-06-12T23:32:49.000Z</time></trkpt>
        <trkpt lat="29.5597234" lon="103.3434988"><ele>1926.94</ele><time>2026-06-12T23:32:56.000Z</time></trkpt>
        <trkpt lat="29.5597234" lon="103.3434988"><ele>1926.94</ele><time>2026-06-12T23:33:39.000Z</time></trkpt>
        <trkpt lat="29.5596833" lon="103.3435933"><ele>1929.46</ele><time>2026-06-12T23:33:50.000Z</time></trkpt>
        <trkpt lat="29.5596833" lon="103.3435933"><ele>1929.46</ele><time>2026-06-12T23:34:16.000Z</time></trkpt>
        <trkpt lat="29.5595483" lon="103.3435217"><ele>1933.78</ele><time>2026-06-12T23:34:58.000Z</time></trkpt>
        <trkpt lat="29.5594726" lon="103.3435727"><ele>1938.61</ele><time>2026-06-12T23:35:58.000Z</time></trkpt>
        <trkpt lat="29.5594726" lon="103.3435727"><ele>1938.61</ele><time>2026-06-12T23:37:15.000Z</time></trkpt>
        <trkpt lat="29.5594726" lon="103.3435727"><ele>1938.61</ele><time>2026-06-12T23:37:24.000Z</time></trkpt>
        <trkpt lat="29.5594726" lon="103.3435727"><ele>1938.61</ele><time>2026-06-12T23:37:41.000Z</time></trkpt>
        <trkpt lat="29.5594726" lon="103.3435727"><ele>1938.61</ele><time>2026-06-12T23:37:44.000Z</time></trkpt>
        <trkpt lat="29.5594726" lon="103.3435727"><ele>1938.61</ele><time>2026-06-12T23:37:57.000Z</time></trkpt>
        <trkpt lat="29.5593467" lon="103.34361"><ele>1945.96</ele><time>2026-06-12T23:38:44.000Z</time></trkpt>
        <trkpt lat="29.5593467" lon="103.34361"><ele>1945.96</ele><time>2026-06-12T23:38:53.000Z</time></trkpt>
        <trkpt lat="29.5593117" lon="103.3437617"><ele>1954.11</ele><time>2026-06-12T23:39:39.000Z</time></trkpt>
        <trkpt lat="29.5592471" lon="103.3438414"><ele>1962.23</ele><time>2026-06-12T23:40:01.000Z</time></trkpt>
        <trkpt lat="29.5592471" lon="103.3438414"><ele>1962.23</ele><time>2026-06-12T23:40:17.000Z</time></trkpt>
        <trkpt lat="29.5592471" lon="103.3438414"><ele>1962.23</ele><time>2026-06-12T23:40:28.000Z</time></trkpt>
        <trkpt lat="29.5592471" lon="103.3438414"><ele>1962.23</ele><time>2026-06-12T23:40:39.000Z</time></trkpt>
        <trkpt lat="29.5592471" lon="103.3438414"><ele>1962.23</ele><time>2026-06-12T23:40:42.000Z</time></trkpt>
        <trkpt lat="29.5592471" lon="103.3438414"><ele>1962.23</ele><time>2026-06-12T23:41:03.000Z</time></trkpt>
        <trkpt lat="29.559165" lon="103.343765"><ele>1968.03</ele><time>2026-06-12T23:41:08.000Z</time></trkpt>
        <trkpt lat="29.559165" lon="103.343765"><ele>1968.03</ele><time>2026-06-12T23:41:28.000Z</time></trkpt>
        <trkpt lat="29.5590867" lon="103.3437"><ele>1972.14</ele><time>2026-06-12T23:42:40.000Z</time></trkpt>
        <trkpt lat="29.5590017" lon="103.3437517"><ele>1977.98</ele><time>2026-06-12T23:43:18.000Z</time></trkpt>
        <trkpt lat="29.5589547" lon="103.3438456"><ele>1984.61</ele><time>2026-06-12T23:43:58.000Z</time></trkpt>
        <trkpt lat="29.558885" lon="103.3439432"><ele>1992.35</ele><time>2026-06-12T23:44:08.000Z</time></trkpt>
        <trkpt lat="29.5589011" lon="103.3440497"><ele>1995.12</ele><time>2026-06-12T23:44:16.000Z</time></trkpt>
        <trkpt lat="29.5589545" lon="103.344145"><ele>1996.36</ele><time>2026-06-12T23:44:34.000Z</time></trkpt>
        <trkpt lat="29.5589133" lon="103.3442233"><ele>2000.08</ele><time>2026-06-12T23:46:00.000Z</time></trkpt>
        <trkpt lat="29.55886" lon="103.3443133"><ele>2006.88</ele><time>2026-06-12T23:48:18.000Z</time></trkpt>
        <trkpt lat="29.55886" lon="103.3443133"><ele>2006.88</ele><time>2026-06-12T23:48:33.000Z</time></trkpt>
        <trkpt lat="29.558855" lon="103.3442083"><ele>2014.63</ele><time>2026-06-12T23:48:36.000Z</time></trkpt>
        <trkpt lat="29.558855" lon="103.3442083"><ele>2014.63</ele><time>2026-06-12T23:48:51.000Z</time></trkpt>
        <trkpt lat="29.5587414" lon="103.3441753"><ele>2020.51</ele><time>2026-06-12T23:49:51.000Z</time></trkpt>
        <trkpt lat="29.5586305" lon="103.3441433"><ele>2022.92</ele><time>2026-06-12T23:50:09.000Z</time></trkpt>
        <trkpt lat="29.5585323" lon="103.3441121"><ele>2025.92</ele><time>2026-06-12T23:50:29.000Z</time></trkpt>
        <trkpt lat="29.558519" lon="103.3440127"><ele>2029.05</ele><time>2026-06-12T23:50:43.000Z</time></trkpt>
        <trkpt lat="29.5585267" lon="103.3441083"><ele>2031.7</ele><time>2026-06-12T23:52:41.000Z</time></trkpt>
        <trkpt lat="29.5584767" lon="103.3441117"><ele>2034.84</ele><time>2026-06-12T23:52:53.000Z</time></trkpt>
        <trkpt lat="29.5583858" lon="103.3440981"><ele>2036.71</ele><time>2026-06-12T23:53:43.000Z</time></trkpt>
        <trkpt lat="29.5583635" lon="103.3440879"><ele>2037.35</ele><time>2026-06-12T23:53:47.000Z</time></trkpt>
        <trkpt lat="29.5581744" lon="103.3440926"><ele>2037.8</ele><time>2026-06-12T23:54:16.000Z</time></trkpt>
        <trkpt lat="29.5580764" lon="103.3441864"><ele>2044.53</ele><time>2026-06-12T23:54:34.000Z</time></trkpt>
        <trkpt lat="29.5579925" lon="103.3441522"><ele>2052.74</ele><time>2026-06-12T23:54:42.000Z</time></trkpt>
        <trkpt lat="29.5579925" lon="103.3441522"><ele>2052.74</ele><time>2026-06-12T23:54:43.000Z</time></trkpt>
        <trkpt lat="29.5579655" lon="103.3442148"><ele>2056.42</ele><time>2026-06-12T23:54:44.000Z</time></trkpt>
        <trkpt lat="29.5579655" lon="103.3442148"><ele>2056.42</ele><time>2026-06-12T23:54:46.000Z</time></trkpt>
        <trkpt lat="29.5580019" lon="103.3443121"><ele>2057.36</ele><time>2026-06-12T23:54:50.000Z</time></trkpt>
        <trkpt lat="29.5581028" lon="103.3443012"><ele>2057.29</ele><time>2026-06-12T23:55:02.000Z</time></trkpt>
        <trkpt lat="29.5581028" lon="103.3443012"><ele>2057.29</ele><time>2026-06-12T23:55:03.000Z</time></trkpt>
        <trkpt lat="29.5581654" lon="103.3442385"><ele>2056.05</ele><time>2026-06-12T23:55:12.000Z</time></trkpt>
        <trkpt lat="29.5581654" lon="103.3442385"><ele>2056.05</ele><time>2026-06-12T23:55:15.000Z</time></trkpt>
        <trkpt lat="29.5582288" lon="103.3441284"><ele>2052.28</ele><time>2026-06-12T23:55:21.000Z</time></trkpt>
        <trkpt lat="29.5582174" lon="103.3441324"><ele>2048.25</ele><time>2026-06-12T23:55:25.000Z</time></trkpt>
        <trkpt lat="29.5581791" lon="103.3442334"><ele>2045.39</ele><time>2026-06-12T23:55:29.000Z</time></trkpt>
        <trkpt lat="29.5578091" lon="103.3441348"><ele>2043.24</ele><time>2026-06-12T23:56:00.000Z</time></trkpt>
        <trkpt lat="29.5577046" lon="103.3439836"><ele>2043.44</ele><time>2026-06-12T23:56:04.000Z</time></trkpt>
        <trkpt lat="29.557672" lon="103.3439894"><ele>2055.6</ele><time>2026-06-12T23:56:26.000Z</time></trkpt>
        <trkpt lat="29.5576441" lon="103.343924"><ele>2061.92</ele><time>2026-06-12T23:56:44.000Z</time></trkpt>
        <trkpt lat="29.5575869" lon="103.343845"><ele>2060.06</ele><time>2026-06-12T23:56:56.000Z</time></trkpt>
        <trkpt lat="29.5575557" lon="103.3437386"><ele>2056.42</ele><time>2026-06-12T23:57:10.000Z</time></trkpt>
        <trkpt lat="29.5575557" lon="103.3437386"><ele>2056.42</ele><time>2026-06-12T23:57:55.000Z</time></trkpt>
        <trkpt lat="29.5575557" lon="103.3437386"><ele>2056.42</ele><time>2026-06-12T23:58:30.000Z</time></trkpt>
        <trkpt lat="29.5575557" lon="103.3437386"><ele>2056.42</ele><time>2026-06-12T23:59:01.000Z</time></trkpt>
        <trkpt lat="29.5575557" lon="103.3437386"><ele>2056.42</ele><time>2026-06-12T23:59:04.000Z</time></trkpt>
        <trkpt lat="29.5575557" lon="103.3437386"><ele>2056.42</ele><time>2026-06-12T23:59:15.000Z</time></trkpt>
        <trkpt lat="29.5575557" lon="103.3437386"><ele>2056.42</ele><time>2026-06-12T23:59:18.000Z</time></trkpt>
        <trkpt lat="29.5575557" lon="103.3437386"><ele>2056.42</ele><time>2026-06-12T23:59:47.000Z</time></trkpt>
        <trkpt lat="29.5575557" lon="103.3437386"><ele>2056.42</ele><time>2026-06-13T00:00:06.000Z</time></trkpt>
        <trkpt lat="29.5575557" lon="103.3437386"><ele>2056.42</ele><time>2026-06-13T00:00:19.000Z</time></trkpt>
        <trkpt lat="29.5575557" lon="103.3437386"><ele>2056.42</ele><time>2026-06-13T00:00:26.000Z</time></trkpt>
        <trkpt lat="29.5575557" lon="103.3437386"><ele>2056.42</ele><time>2026-06-13T00:00:41.000Z</time></trkpt>
        <trkpt lat="29.5575557" lon="103.3437386"><ele>2056.42</ele><time>2026-06-13T00:00:44.000Z</time></trkpt>
        <trkpt lat="29.5575557" lon="103.3437386"><ele>2056.42</ele><time>2026-06-13T00:01:09.000Z</time></trkpt>
        <trkpt lat="29.5575557" lon="103.3437386"><ele>2056.42</ele><time>2026-06-13T00:01:18.000Z</time></trkpt>
        <trkpt lat="29.5575557" lon="103.3437386"><ele>2056.42</ele><time>2026-06-13T00:01:53.000Z</time></trkpt>
        <trkpt lat="29.5575557" lon="103.3437386"><ele>2056.42</ele><time>2026-06-13T00:01:56.000Z</time></trkpt>
        <trkpt lat="29.5575557" lon="103.3437386"><ele>2056.42</ele><time>2026-06-13T00:02:25.000Z</time></trkpt>
        <trkpt lat="29.5575557" lon="103.3437386"><ele>2056.42</ele><time>2026-06-13T00:02:42.000Z</time></trkpt>
        <trkpt lat="29.5575557" lon="103.3437386"><ele>2056.42</ele><time>2026-06-13T00:02:53.000Z</time></trkpt>
        <trkpt lat="29.5575557" lon="103.3437386"><ele>2056.42</ele><time>2026-06-13T00:03:14.000Z</time></trkpt>
        <trkpt lat="29.5575557" lon="103.3437386"><ele>2056.42</ele><time>2026-06-13T00:03:25.000Z</time></trkpt>
        <trkpt lat="29.5575557" lon="103.3437386"><ele>2056.42</ele><time>2026-06-13T00:03:30.000Z</time></trkpt>
        <trkpt lat="29.5575557" lon="103.3437386"><ele>2056.42</ele><time>2026-06-13T00:03:57.000Z</time></trkpt>
        <trkpt lat="29.5575557" lon="103.3437386"><ele>2056.42</ele><time>2026-06-13T00:04:28.000Z</time></trkpt>
        <trkpt lat="29.5575557" lon="103.3437386"><ele>2056.42</ele><time>2026-06-13T00:07:13.000Z</time></trkpt>
        <trkpt lat="29.5574717" lon="103.3436667"><ele>2054.13</ele><time>2026-06-13T00:07:24.000Z</time></trkpt>
        <trkpt lat="29.5574717" lon="103.3436667"><ele>2054.13</ele><time>2026-06-13T00:09:04.000Z</time></trkpt>
        <trkpt lat="29.5573783" lon="103.3436317"><ele>2047.11</ele><time>2026-06-13T00:09:16.000Z</time></trkpt>
        <trkpt lat="29.5572878" lon="103.3436051"><ele>2044.39</ele><time>2026-06-13T00:09:44.000Z</time></trkpt>
        <trkpt lat="29.5571978" lon="103.3435981"><ele>2045.86</ele><time>2026-06-13T00:10:12.000Z</time></trkpt>
        <trkpt lat="29.557105" lon="103.3436583"><ele>2047.98</ele><time>2026-06-13T00:11:36.000Z</time></trkpt>
        <trkpt lat="29.5570217" lon="103.3437"><ele>2050.31</ele><time>2026-06-13T00:11:52.000Z</time></trkpt>
        <trkpt lat="29.5570217" lon="103.3437"><ele>2050.31</ele><time>2026-06-13T00:12:25.000Z</time></trkpt>
        <trkpt lat="29.5569233" lon="103.3437367"><ele>2052.72</ele><time>2026-06-13T00:12:30.000Z</time></trkpt>
        <trkpt lat="29.5569233" lon="103.3437367"><ele>2052.72</ele><time>2026-06-13T00:13:00.000Z</time></trkpt>
        <trkpt lat="29.5568367" lon="103.3437083"><ele>2055.98</ele><time>2026-06-13T00:13:16.000Z</time></trkpt>
        <trkpt lat="29.55675" lon="103.3437308"><ele>2059.26</ele><time>2026-06-13T00:13:38.000Z</time></trkpt>
        <trkpt lat="29.5566685" lon="103.3437918"><ele>2063.58</ele><time>2026-06-13T00:14:04.000Z</time></trkpt>
        <trkpt lat="29.5566249" lon="103.3438877"><ele>2068.23</ele><time>2026-06-13T00:14:38.000Z</time></trkpt>
        <trkpt lat="29.5566012" lon="103.3440006"><ele>2073.9</ele><time>2026-06-13T00:15:02.000Z</time></trkpt>
        <trkpt lat="29.5565651" lon="103.3441251"><ele>2078.5</ele><time>2026-06-13T00:15:26.000Z</time></trkpt>
        <trkpt lat="29.5564934" lon="103.344202"><ele>2083.06</ele><time>2026-06-13T00:15:42.000Z</time></trkpt>
        <trkpt lat="29.5564194" lon="103.3442694"><ele>2088.07</ele><time>2026-06-13T00:15:54.000Z</time></trkpt>
        <trkpt lat="29.5563338" lon="103.3443185"><ele>2093.16</ele><time>2026-06-13T00:16:20.000Z</time></trkpt>
        <trkpt lat="29.5562711" lon="103.3444023"><ele>2096.92</ele><time>2026-06-13T00:16:40.000Z</time></trkpt>
        <trkpt lat="29.5562081" lon="103.3444941"><ele>2101.69</ele><time>2026-06-13T00:16:58.000Z</time></trkpt>
        <trkpt lat="29.556123" lon="103.3445428"><ele>2105.86</ele><time>2026-06-13T00:17:20.000Z</time></trkpt>
        <trkpt lat="29.5560683" lon="103.3446199"><ele>2108.37</ele><time>2026-06-13T00:17:34.000Z</time></trkpt>
        <trkpt lat="29.5560333" lon="103.3447141"><ele>2109.68</ele><time>2026-06-13T00:17:52.000Z</time></trkpt>
        <trkpt lat="29.5559893" lon="103.3448053"><ele>2112.57</ele><time>2026-06-13T00:18:10.000Z</time></trkpt>
        <trkpt lat="29.5559228" lon="103.3448742"><ele>2115.85</ele><time>2026-06-13T00:18:24.000Z</time></trkpt>
        <trkpt lat="29.5559228" lon="103.3448742"><ele>2115.85</ele><time>2026-06-13T00:19:05.000Z</time></trkpt>
        <trkpt lat="29.5559228" lon="103.3448742"><ele>2115.85</ele><time>2026-06-13T00:20:04.000Z</time></trkpt>
        <trkpt lat="29.5559228" lon="103.3448742"><ele>2115.85</ele><time>2026-06-13T00:20:17.000Z</time></trkpt>
        <trkpt lat="29.5559228" lon="103.3448742"><ele>2115.85</ele><time>2026-06-13T00:21:30.000Z</time></trkpt>
        <trkpt lat="29.5559228" lon="103.3448742"><ele>2115.85</ele><time>2026-06-13T00:21:39.000Z</time></trkpt>
        <trkpt lat="29.5559228" lon="103.3448742"><ele>2115.85</ele><time>2026-06-13T00:21:42.000Z</time></trkpt>
        <trkpt lat="29.5559228" lon="103.3448742"><ele>2115.85</ele><time>2026-06-13T00:22:15.000Z</time></trkpt>
        <trkpt lat="29.5559228" lon="103.3448742"><ele>2115.85</ele><time>2026-06-13T00:22:30.000Z</time></trkpt>
        <trkpt lat="29.5559228" lon="103.3448742"><ele>2115.85</ele><time>2026-06-13T00:22:45.000Z</time></trkpt>
        <trkpt lat="29.555825" lon="103.3449533"><ele>2119.27</ele><time>2026-06-13T00:22:46.000Z</time></trkpt>
        <trkpt lat="29.555825" lon="103.3449533"><ele>2119.27</ele><time>2026-06-13T00:23:42.000Z</time></trkpt>
        <trkpt lat="29.5558983" lon="103.34498"><ele>2122.42</ele><time>2026-06-13T00:23:52.000Z</time></trkpt>
        <trkpt lat="29.5558983" lon="103.34498"><ele>2122.42</ele><time>2026-06-13T00:23:57.000Z</time></trkpt>
        <trkpt lat="29.5558321" lon="103.3449841"><ele>2124.95</ele><time>2026-06-13T00:24:06.000Z</time></trkpt>
        <trkpt lat="29.5558321" lon="103.3449841"><ele>2124.95</ele><time>2026-06-13T00:24:18.000Z</time></trkpt>
        <trkpt lat="29.5557411" lon="103.3449726"><ele>2127.77</ele><time>2026-06-13T00:24:40.000Z</time></trkpt>
        <trkpt lat="29.5557411" lon="103.3449726"><ele>2127.77</ele><time>2026-06-13T00:25:23.000Z</time></trkpt>
        <trkpt lat="29.5556233" lon="103.34496"><ele>2130.88</ele><time>2026-06-13T00:25:26.000Z</time></trkpt>
        <trkpt lat="29.5556233" lon="103.34496"><ele>2130.88</ele><time>2026-06-13T00:25:42.000Z</time></trkpt>
        <trkpt lat="29.5555617" lon="103.3450417"><ele>2135.02</ele><time>2026-06-13T00:26:02.000Z</time></trkpt>
        <trkpt lat="29.5555085" lon="103.3451332"><ele>2138.54</ele><time>2026-06-13T00:26:22.000Z</time></trkpt>
        <trkpt lat="29.5554246" lon="103.3451197"><ele>2142.65</ele><time>2026-06-13T00:26:42.000Z</time></trkpt>
        <trkpt lat="29.5553738" lon="103.3450296"><ele>2146.76</ele><time>2026-06-13T00:27:00.000Z</time></trkpt>
        <trkpt lat="29.5553057" lon="103.3450399"><ele>2151.16</ele><time>2026-06-13T00:27:18.000Z</time></trkpt>
        <trkpt lat="29.5552329" lon="103.3450911"><ele>2155.87</ele><time>2026-06-13T00:27:30.000Z</time></trkpt>
        <trkpt lat="29.5552329" lon="103.3450911"><ele>2155.87</ele><time>2026-06-13T00:27:57.000Z</time></trkpt>
        <trkpt lat="29.5551424" lon="103.3451405"><ele>2159.93</ele><time>2026-06-13T00:28:02.000Z</time></trkpt>
        <trkpt lat="29.5551424" lon="103.3451405"><ele>2159.93</ele><time>2026-06-13T00:28:29.000Z</time></trkpt>
        <trkpt lat="29.5550308" lon="103.3451762"><ele>2163.96</ele><time>2026-06-13T00:28:41.000Z</time></trkpt>
        <trkpt lat="29.5549392" lon="103.3452291"><ele>2167.89</ele><time>2026-06-13T00:28:59.000Z</time></trkpt>
        <trkpt lat="29.5548541" lon="103.3452819"><ele>2171.12</ele><time>2026-06-13T00:29:13.000Z</time></trkpt>
        <trkpt lat="29.55477" lon="103.3453312"><ele>2173.05</ele><time>2026-06-13T00:29:39.000Z</time></trkpt>
        <trkpt lat="29.554682" lon="103.3453661"><ele>2176.81</ele><time>2026-06-13T00:30:07.000Z</time></trkpt>
        <trkpt lat="29.5545874" lon="103.3454071"><ele>2181.24</ele><time>2026-06-13T00:30:29.000Z</time></trkpt>
        <trkpt lat="29.5544866" lon="103.3454234"><ele>2184.58</ele><time>2026-06-13T00:30:51.000Z</time></trkpt>
        <trkpt lat="29.5543941" lon="103.3454094"><ele>2188.2</ele><time>2026-06-13T00:31:21.000Z</time></trkpt>
        <trkpt lat="29.5543941" lon="103.3454094"><ele>2188.2</ele><time>2026-06-13T00:31:35.000Z</time></trkpt>
        <trkpt lat="29.5543941" lon="103.3454094"><ele>2188.2</ele><time>2026-06-13T00:31:46.000Z</time></trkpt>
        <trkpt lat="29.5543941" lon="103.3454094"><ele>2188.2</ele><time>2026-06-13T00:32:17.000Z</time></trkpt>
        <trkpt lat="29.5543941" lon="103.3454094"><ele>2188.2</ele><time>2026-06-13T00:32:20.000Z</time></trkpt>
        <trkpt lat="29.5543941" lon="103.3454094"><ele>2188.2</ele><time>2026-06-13T00:32:29.000Z</time></trkpt>
        <trkpt lat="29.5543941" lon="103.3454094"><ele>2188.2</ele><time>2026-06-13T00:32:32.000Z</time></trkpt>
        <trkpt lat="29.5543941" lon="103.3454094"><ele>2188.2</ele><time>2026-06-13T00:32:43.000Z</time></trkpt>
        <trkpt lat="29.5543941" lon="103.3454094"><ele>2188.2</ele><time>2026-06-13T00:32:46.000Z</time></trkpt>
        <trkpt lat="29.5543941" lon="103.3454094"><ele>2188.2</ele><time>2026-06-13T00:32:59.000Z</time></trkpt>
        <trkpt lat="29.5543941" lon="103.3454094"><ele>2188.2</ele><time>2026-06-13T00:33:06.000Z</time></trkpt>
        <trkpt lat="29.5543941" lon="103.3454094"><ele>2188.2</ele><time>2026-06-13T00:33:27.000Z</time></trkpt>
        <trkpt lat="29.5543941" lon="103.3454094"><ele>2188.2</ele><time>2026-06-13T00:33:32.000Z</time></trkpt>
        <trkpt lat="29.5543941" lon="103.3454094"><ele>2188.2</ele><time>2026-06-13T00:33:55.000Z</time></trkpt>
        <trkpt lat="29.5543941" lon="103.3454094"><ele>2188.2</ele><time>2026-06-13T00:34:10.000Z</time></trkpt>
        <trkpt lat="29.5543941" lon="103.3454094"><ele>2188.2</ele><time>2026-06-13T00:34:29.000Z</time></trkpt>
        <trkpt lat="29.5543941" lon="103.3454094"><ele>2188.2</ele><time>2026-06-13T00:34:36.000Z</time></trkpt>
        <trkpt lat="29.5543941" lon="103.3454094"><ele>2188.2</ele><time>2026-06-13T00:35:03.000Z</time></trkpt>
        <trkpt lat="29.5543941" lon="103.3454094"><ele>2188.2</ele><time>2026-06-13T00:35:24.000Z</time></trkpt>
        <trkpt lat="29.5543941" lon="103.3454094"><ele>2188.2</ele><time>2026-06-13T00:35:45.000Z</time></trkpt>
        <trkpt lat="29.5543941" lon="103.3454094"><ele>2188.2</ele><time>2026-06-13T00:35:54.000Z</time></trkpt>
        <trkpt lat="29.5543941" lon="103.3454094"><ele>2188.2</ele><time>2026-06-13T00:36:03.000Z</time></trkpt>
        <trkpt lat="29.5543941" lon="103.3454094"><ele>2188.2</ele><time>2026-06-13T00:36:06.000Z</time></trkpt>
        <trkpt lat="29.5543941" lon="103.3454094"><ele>2188.2</ele><time>2026-06-13T00:36:25.000Z</time></trkpt>
        <trkpt lat="29.5543941" lon="103.3454094"><ele>2188.2</ele><time>2026-06-13T00:36:28.000Z</time></trkpt>
        <trkpt lat="29.5543941" lon="103.3454094"><ele>2188.2</ele><time>2026-06-13T00:36:41.000Z</time></trkpt>
        <trkpt lat="29.5543941" lon="103.3454094"><ele>2188.2</ele><time>2026-06-13T00:37:22.000Z</time></trkpt>
        <trkpt lat="29.5543941" lon="103.3454094"><ele>2188.2</ele><time>2026-06-13T00:37:41.000Z</time></trkpt>
        <trkpt lat="29.5543941" lon="103.3454094"><ele>2188.2</ele><time>2026-06-13T00:37:48.000Z</time></trkpt>
        <trkpt lat="29.5543941" lon="103.3454094"><ele>2188.2</ele><time>2026-06-13T00:38:03.000Z</time></trkpt>
        <trkpt lat="29.5543941" lon="103.3454094"><ele>2188.2</ele><time>2026-06-13T00:38:08.000Z</time></trkpt>
        <trkpt lat="29.5543941" lon="103.3454094"><ele>2188.2</ele><time>2026-06-13T00:38:19.000Z</time></trkpt>
        <trkpt lat="29.5542983" lon="103.345435"><ele>2191.77</ele><time>2026-06-13T00:38:24.000Z</time></trkpt>
        <trkpt lat="29.5542983" lon="103.345435"><ele>2191.77</ele><time>2026-06-13T00:38:48.000Z</time></trkpt>
        <trkpt lat="29.55419" lon="103.3454633"><ele>2197.68</ele><time>2026-06-13T00:39:38.000Z</time></trkpt>
        <trkpt lat="29.5540859" lon="103.3454747"><ele>2202.72</ele><time>2026-06-13T00:39:54.000Z</time></trkpt>
        <trkpt lat="29.5539954" lon="103.3454356"><ele>2206.93</ele><time>2026-06-13T00:40:06.000Z</time></trkpt>
        <trkpt lat="29.553918" lon="103.3453755"><ele>2210.66</ele><time>2026-06-13T00:40:24.000Z</time></trkpt>
        <trkpt lat="29.5538148" lon="103.3453346"><ele>2214.63</ele><time>2026-06-13T00:40:44.000Z</time></trkpt>
        <trkpt lat="29.5537173" lon="103.3453221"><ele>2217.93</ele><time>2026-06-13T00:40:56.000Z</time></trkpt>
        <trkpt lat="29.5536252" lon="103.3453306"><ele>2220.11</ele><time>2026-06-13T00:41:12.000Z</time></trkpt>
        <trkpt lat="29.553534" lon="103.3453353"><ele>2223.12</ele><time>2026-06-13T00:41:24.000Z</time></trkpt>
        <trkpt lat="29.5534453" lon="103.3453607"><ele>2226.42</ele><time>2026-06-13T00:41:38.000Z</time></trkpt>
        <trkpt lat="29.5533423" lon="103.3453891"><ele>2228.18</ele><time>2026-06-13T00:41:52.000Z</time></trkpt>
        <trkpt lat="29.5532364" lon="103.3453869"><ele>2231.15</ele><time>2026-06-13T00:42:00.000Z</time></trkpt>
        <trkpt lat="29.5531376" lon="103.345404"><ele>2234.06</ele><time>2026-06-13T00:42:08.000Z</time></trkpt>
        <trkpt lat="29.5530444" lon="103.3454255"><ele>2236.74</ele><time>2026-06-13T00:42:16.000Z</time></trkpt>
        <trkpt lat="29.5529532" lon="103.3454418"><ele>2238.79</ele><time>2026-06-13T00:42:24.000Z</time></trkpt>
        <trkpt lat="29.5528422" lon="103.3454421"><ele>2240.3</ele><time>2026-06-13T00:42:34.000Z</time></trkpt>
        <trkpt lat="29.5527313" lon="103.3454402"><ele>2242.15</ele><time>2026-06-13T00:42:44.000Z</time></trkpt>
        <trkpt lat="29.5526313" lon="103.3454385"><ele>2244.41</ele><time>2026-06-13T00:42:52.000Z</time></trkpt>
        <trkpt lat="29.552532" lon="103.3454237"><ele>2245.18</ele><time>2026-06-13T00:43:00.000Z</time></trkpt>
        <trkpt lat="29.5524965" lon="103.3453392"><ele>2245.23</ele><time>2026-06-13T00:43:08.000Z</time></trkpt>
        <trkpt lat="29.5524603" lon="103.3452289"><ele>2244.7</ele><time>2026-06-13T00:43:22.000Z</time></trkpt>
        <trkpt lat="29.5523927" lon="103.3451586"><ele>2245.17</ele><time>2026-06-13T00:43:28.000Z</time></trkpt>
        <trkpt lat="29.5522905" lon="103.3451191"><ele>2244.58</ele><time>2026-06-13T00:43:36.000Z</time></trkpt>
        <trkpt lat="29.5521775" lon="103.3450956"><ele>2243.73</ele><time>2026-06-13T00:43:46.000Z</time></trkpt>
        <trkpt lat="29.5520968" lon="103.345001"><ele>2243.93</ele><time>2026-06-13T00:43:54.000Z</time></trkpt>
        <trkpt lat="29.5520484" lon="103.3448873"><ele>2244.43</ele><time>2026-06-13T00:44:02.000Z</time></trkpt>
        <trkpt lat="29.5519934" lon="103.3447784"><ele>2244.94</ele><time>2026-06-13T00:44:10.000Z</time></trkpt>
        <trkpt lat="29.5519352" lon="103.3446851"><ele>2244.49</ele><time>2026-06-13T00:44:16.000Z</time></trkpt>
        <trkpt lat="29.5518711" lon="103.3445886"><ele>2243.98</ele><time>2026-06-13T00:44:24.000Z</time></trkpt>
        <trkpt lat="29.5518135" lon="103.3445006"><ele>2243.43</ele><time>2026-06-13T00:44:32.000Z</time></trkpt>
        <trkpt lat="29.5517408" lon="103.3444221"><ele>2242.51</ele><time>2026-06-13T00:44:42.000Z</time></trkpt>
        <trkpt lat="29.5516837" lon="103.344324"><ele>2241.35</ele><time>2026-06-13T00:44:50.000Z</time></trkpt>
        <trkpt lat="29.5515992" lon="103.3442544"><ele>2240.29</ele><time>2026-06-13T00:45:00.000Z</time></trkpt>
        <trkpt lat="29.5515054" lon="103.3442134"><ele>2239.57</ele><time>2026-06-13T00:45:08.000Z</time></trkpt>
        <trkpt lat="29.5514044" lon="103.3441753"><ele>2238.55</ele><time>2026-06-13T00:45:16.000Z</time></trkpt>
        <trkpt lat="29.5513033" lon="103.3441399"><ele>2237.41</ele><time>2026-06-13T00:45:24.000Z</time></trkpt>
        <trkpt lat="29.5512119" lon="103.3441579"><ele>2234.05</ele><time>2026-06-13T00:45:30.000Z</time></trkpt>
        <trkpt lat="29.551112" lon="103.3441696"><ele>2231.79</ele><time>2026-06-13T00:45:44.000Z</time></trkpt>
        <trkpt lat="29.5510589" lon="103.3441606"><ele>2229.64</ele><time>2026-06-13T00:45:48.000Z</time></trkpt>
        <trkpt lat="29.5509719" lon="103.3441563"><ele>2229.45</ele><time>2026-06-13T00:45:58.000Z</time></trkpt>
        <trkpt lat="29.5509027" lon="103.3441553"><ele>2230.42</ele><time>2026-06-13T00:46:04.000Z</time></trkpt>
        <trkpt lat="29.5508142" lon="103.3441042"><ele>2231.92</ele><time>2026-06-13T00:46:16.000Z</time></trkpt>
        <trkpt lat="29.5507832" lon="103.3440045"><ele>2231.95</ele><time>2026-06-13T00:46:26.000Z</time></trkpt>
        <trkpt lat="29.5507101" lon="103.3439548"><ele>2232.19</ele><time>2026-06-13T00:46:40.000Z</time></trkpt>
        <trkpt lat="29.550625" lon="103.3438948"><ele>2232.54</ele><time>2026-06-13T00:46:48.000Z</time></trkpt>
        <trkpt lat="29.5505614" lon="103.343798"><ele>2233.9</ele><time>2026-06-13T00:47:00.000Z</time></trkpt>
        <trkpt lat="29.5504918" lon="103.3437017"><ele>2233.04</ele><time>2026-06-13T00:47:12.000Z</time></trkpt>
        <trkpt lat="29.5504218" lon="103.3436241"><ele>2232.76</ele><time>2026-06-13T00:47:22.000Z</time></trkpt>
        <trkpt lat="29.5503731" lon="103.3435243"><ele>2232.74</ele><time>2026-06-13T00:47:32.000Z</time></trkpt>
        <trkpt lat="29.5503221" lon="103.343436"><ele>2232.98</ele><time>2026-06-13T00:47:40.000Z</time></trkpt>
        <trkpt lat="29.5502791" lon="103.3433417"><ele>2233.76</ele><time>2026-06-13T00:47:48.000Z</time></trkpt>
        <trkpt lat="29.5501973" lon="103.3432613"><ele>2234.85</ele><time>2026-06-13T00:47:58.000Z</time></trkpt>
        <trkpt lat="29.5501131" lon="103.3432013"><ele>2233.88</ele><time>2026-06-13T00:48:08.000Z</time></trkpt>
        <trkpt lat="29.5500385" lon="103.3431331"><ele>2233.2</ele><time>2026-06-13T00:48:18.000Z</time></trkpt>
        <trkpt lat="29.5499899" lon="103.3430279"><ele>2232.99</ele><time>2026-06-13T00:48:30.000Z</time></trkpt>
        <trkpt lat="29.5499482" lon="103.3429251"><ele>2234.84</ele><time>2026-06-13T00:48:40.000Z</time></trkpt>
        <trkpt lat="29.5498964" lon="103.3428264"><ele>2235.08</ele><time>2026-06-13T00:48:48.000Z</time></trkpt>
        <trkpt lat="29.549836" lon="103.3427337"><ele>2235.69</ele><time>2026-06-13T00:49:02.000Z</time></trkpt>
        <trkpt lat="29.5497787" lon="103.3426348"><ele>2234.92</ele><time>2026-06-13T00:49:12.000Z</time></trkpt>
        <trkpt lat="29.5497143" lon="103.342542"><ele>2234.18</ele><time>2026-06-13T00:49:24.000Z</time></trkpt>
        <trkpt lat="29.549661" lon="103.342448"><ele>2233.8</ele><time>2026-06-13T00:49:32.000Z</time></trkpt>
        <trkpt lat="29.549591" lon="103.3423722"><ele>2234.53</ele><time>2026-06-13T00:49:46.000Z</time></trkpt>
        <trkpt lat="29.5495207" lon="103.3422891"><ele>2236.2</ele><time>2026-06-13T00:49:58.000Z</time></trkpt>
        <trkpt lat="29.5494548" lon="103.3422074"><ele>2238.61</ele><time>2026-06-13T00:50:10.000Z</time></trkpt>
        <trkpt lat="29.5494247" lon="103.3421098"><ele>2240.58</ele><time>2026-06-13T00:50:22.000Z</time></trkpt>
        <trkpt lat="29.5494114" lon="103.3419987"><ele>2242.31</ele><time>2026-06-13T00:50:34.000Z</time></trkpt>
        <trkpt lat="29.5493935" lon="103.3418822"><ele>2242.56</ele><time>2026-06-13T00:51:04.000Z</time></trkpt>
        <trkpt lat="29.5493532" lon="103.3417761"><ele>2242.45</ele><time>2026-06-13T00:51:16.000Z</time></trkpt>
        <trkpt lat="29.5493302" lon="103.3416686"><ele>2242.26</ele><time>2026-06-13T00:51:32.000Z</time></trkpt>
        <trkpt lat="29.549293" lon="103.3415566"><ele>2241.93</ele><time>2026-06-13T00:51:46.000Z</time></trkpt>
        <trkpt lat="29.5492639" lon="103.341443"><ele>2242.09</ele><time>2026-06-13T00:52:00.000Z</time></trkpt>
        <trkpt lat="29.5492082" lon="103.3413592"><ele>2242.65</ele><time>2026-06-13T00:52:14.000Z</time></trkpt>
        <trkpt lat="29.5491502" lon="103.3412777"><ele>2241.25</ele><time>2026-06-13T00:52:28.000Z</time></trkpt>
        <trkpt lat="29.5490638" lon="103.3412219"><ele>2240.71</ele><time>2026-06-13T00:52:48.000Z</time></trkpt>
        <trkpt lat="29.5489717" lon="103.3411757"><ele>2242.77</ele><time>2026-06-13T00:52:58.000Z</time></trkpt>
        <trkpt lat="29.5488769" lon="103.341165"><ele>2244.03</ele><time>2026-06-13T00:53:16.000Z</time></trkpt>
        <trkpt lat="29.5487814" lon="103.3411883"><ele>2246.99</ele><time>2026-06-13T00:53:40.000Z</time></trkpt>
        <trkpt lat="29.5486839" lon="103.3411886"><ele>2251.85</ele><time>2026-06-13T00:54:00.000Z</time></trkpt>
        <trkpt lat="29.5485988" lon="103.3412261"><ele>2255.4</ele><time>2026-06-13T00:54:18.000Z</time></trkpt>
        <trkpt lat="29.5485988" lon="103.3412261"><ele>2255.4</ele><time>2026-06-13T00:54:45.000Z</time></trkpt>
        <trkpt lat="29.5485123" lon="103.3412616"><ele>2259.27</ele><time>2026-06-13T00:54:48.000Z</time></trkpt>
        <trkpt lat="29.5485123" lon="103.3412616"><ele>2259.27</ele><time>2026-06-13T00:54:55.000Z</time></trkpt>
        <trkpt lat="29.5484235" lon="103.3412653"><ele>2264.14</ele><time>2026-06-13T00:55:13.000Z</time></trkpt>
        <trkpt lat="29.5483325" lon="103.3412299"><ele>2265.8</ele><time>2026-06-13T00:55:37.000Z</time></trkpt>
        <trkpt lat="29.548242" lon="103.3412328"><ele>2267.65</ele><time>2026-06-13T00:55:57.000Z</time></trkpt>
        <trkpt lat="29.548148" lon="103.3412074"><ele>2270.34</ele><time>2026-06-13T00:56:07.000Z</time></trkpt>
        <trkpt lat="29.5480528" lon="103.341221"><ele>2273.42</ele><time>2026-06-13T00:56:41.000Z</time></trkpt>
        <trkpt lat="29.5480528" lon="103.341221"><ele>2273.42</ele><time>2026-06-13T00:56:45.000Z</time></trkpt>
        <trkpt lat="29.5480528" lon="103.341221"><ele>2273.42</ele><time>2026-06-13T00:58:00.000Z</time></trkpt>
        <trkpt lat="29.5480528" lon="103.341221"><ele>2273.42</ele><time>2026-06-13T00:58:11.000Z</time></trkpt>
        <trkpt lat="29.5480528" lon="103.341221"><ele>2273.42</ele><time>2026-06-13T00:58:18.000Z</time></trkpt>
        <trkpt lat="29.5480528" lon="103.341221"><ele>2273.42</ele><time>2026-06-13T00:58:41.000Z</time></trkpt>
        <trkpt lat="29.5479583" lon="103.3412033"><ele>2279.78</ele><time>2026-06-13T01:00:54.000Z</time></trkpt>
        <trkpt lat="29.5479583" lon="103.3412033"><ele>2279.78</ele><time>2026-06-13T01:01:17.000Z</time></trkpt>
        <trkpt lat="29.5479583" lon="103.3412033"><ele>2279.78</ele><time>2026-06-13T01:01:43.000Z</time></trkpt>
        <trkpt lat="29.547865" lon="103.34115"><ele>2286.07</ele><time>2026-06-13T01:01:46.000Z</time></trkpt>
        <trkpt lat="29.547865" lon="103.34115"><ele>2286.07</ele><time>2026-06-13T01:02:03.000Z</time></trkpt>
        <trkpt lat="29.5477773" lon="103.3411079"><ele>2290</ele><time>2026-06-13T01:02:13.000Z</time></trkpt>
        <trkpt lat="29.5476906" lon="103.3410653"><ele>2291.16</ele><time>2026-06-13T01:02:25.000Z</time></trkpt>
        <trkpt lat="29.5476018" lon="103.3410765"><ele>2291.69</ele><time>2026-06-13T01:02:39.000Z</time></trkpt>
        <trkpt lat="29.5475145" lon="103.3410631"><ele>2292.17</ele><time>2026-06-13T01:02:55.000Z</time></trkpt>
        <trkpt lat="29.5474329" lon="103.3410242"><ele>2292.48</ele><time>2026-06-13T01:03:35.000Z</time></trkpt>
        <trkpt lat="29.547382" lon="103.3409242"><ele>2294.64</ele><time>2026-06-13T01:03:59.000Z</time></trkpt>
        <trkpt lat="29.5473396" lon="103.3408131"><ele>2295.27</ele><time>2026-06-13T01:04:11.000Z</time></trkpt>
        <trkpt lat="29.547292" lon="103.3407159"><ele>2296.1</ele><time>2026-06-13T01:04:23.000Z</time></trkpt>
        <trkpt lat="29.5472474" lon="103.3406088"><ele>2297.26</ele><time>2026-06-13T01:04:37.000Z</time></trkpt>
        <trkpt lat="29.5471784" lon="103.3405189"><ele>2298.65</ele><time>2026-06-13T01:04:53.000Z</time></trkpt>
        <trkpt lat="29.5471463" lon="103.3404211"><ele>2299.84</ele><time>2026-06-13T01:05:29.000Z</time></trkpt>
        <trkpt lat="29.5471715" lon="103.340325"><ele>2301.93</ele><time>2026-06-13T01:05:57.000Z</time></trkpt>
        <trkpt lat="29.547176" lon="103.3402235"><ele>2305.31</ele><time>2026-06-13T01:06:23.000Z</time></trkpt>
        <trkpt lat="29.5471866" lon="103.3401863"><ele>2307.98</ele><time>2026-06-13T01:06:25.000Z</time></trkpt>
        <trkpt lat="29.5471097" lon="103.3401918"><ele>2310.39</ele><time>2026-06-13T01:06:33.000Z</time></trkpt>
        <trkpt lat="29.5470913" lon="103.3401631"><ele>2314.14</ele><time>2026-06-13T01:06:45.000Z</time></trkpt>
        <trkpt lat="29.5471512" lon="103.3401153"><ele>2317.65</ele><time>2026-06-13T01:07:05.000Z</time></trkpt>
        <trkpt lat="29.5471237" lon="103.3400515"><ele>2320.25</ele><time>2026-06-13T01:07:29.000Z</time></trkpt>
        <trkpt lat="29.5471237" lon="103.3400515"><ele>2320.25</ele><time>2026-06-13T01:07:47.000Z</time></trkpt>
        <trkpt lat="29.547125" lon="103.339915"><ele>2323.76</ele><time>2026-06-13T01:08:06.000Z</time></trkpt>
        <trkpt lat="29.547125" lon="103.339915"><ele>2323.76</ele><time>2026-06-13T01:08:37.000Z</time></trkpt>
        <trkpt lat="29.5470283" lon="103.339885"><ele>2328.21</ele><time>2026-06-13T01:08:51.000Z</time></trkpt>
        <trkpt lat="29.5470741" lon="103.3398212"><ele>2331</ele><time>2026-06-13T01:08:59.000Z</time></trkpt>
        <trkpt lat="29.547082" lon="103.3397192"><ele>2332.94</ele><time>2026-06-13T01:09:23.000Z</time></trkpt>
        <trkpt lat="29.54703" lon="103.3396414"><ele>2336.71</ele><time>2026-06-13T01:09:55.000Z</time></trkpt>
        <trkpt lat="29.5469468" lon="103.339574"><ele>2341.52</ele><time>2026-06-13T01:10:21.000Z</time></trkpt>
        <trkpt lat="29.5469468" lon="103.339574"><ele>2341.52</ele><time>2026-06-13T01:10:41.000Z</time></trkpt>
        <trkpt lat="29.5469567" lon="103.3394567"><ele>2345.81</ele><time>2026-06-13T01:10:58.000Z</time></trkpt>
        <trkpt lat="29.5469567" lon="103.3394567"><ele>2345.81</ele><time>2026-06-13T01:11:27.000Z</time></trkpt>
        <trkpt lat="29.546915" lon="103.33936"><ele>2350.97</ele><time>2026-06-13T01:11:55.000Z</time></trkpt>
        <trkpt lat="29.546915" lon="103.33936"><ele>2350.97</ele><time>2026-06-13T01:12:39.000Z</time></trkpt>
        <trkpt lat="29.546915" lon="103.33936"><ele>2350.97</ele><time>2026-06-13T01:12:40.000Z</time></trkpt>
        <trkpt lat="29.546915" lon="103.33936"><ele>2350.97</ele><time>2026-06-13T01:12:51.000Z</time></trkpt>
        <trkpt lat="29.546915" lon="103.33936"><ele>2350.97</ele><time>2026-06-13T01:13:12.000Z</time></trkpt>
        <trkpt lat="29.546915" lon="103.33936"><ele>2350.97</ele><time>2026-06-13T01:13:25.000Z</time></trkpt>
        <trkpt lat="29.546915" lon="103.33936"><ele>2350.97</ele><time>2026-06-13T01:13:35.000Z</time></trkpt>
        <trkpt lat="29.546915" lon="103.33936"><ele>2350.97</ele><time>2026-06-13T01:14:31.000Z</time></trkpt>
        <trkpt lat="29.546915" lon="103.33936"><ele>2350.97</ele><time>2026-06-13T01:14:44.000Z</time></trkpt>
        <trkpt lat="29.546915" lon="103.33936"><ele>2350.97</ele><time>2026-06-13T01:15:05.000Z</time></trkpt>
        <trkpt lat="29.5468433" lon="103.3392833"><ele>2354.98</ele><time>2026-06-13T01:15:34.000Z</time></trkpt>
        <trkpt lat="29.5468433" lon="103.3392833"><ele>2354.98</ele><time>2026-06-13T01:15:53.000Z</time></trkpt>
        <trkpt lat="29.546765" lon="103.33922"><ele>2360.88</ele><time>2026-06-13T01:16:11.000Z</time></trkpt>
        <trkpt lat="29.546705" lon="103.3391341"><ele>2365.97</ele><time>2026-06-13T01:16:37.000Z</time></trkpt>
        <trkpt lat="29.5466418" lon="103.3390468"><ele>2370.45</ele><time>2026-06-13T01:16:57.000Z</time></trkpt>
        <trkpt lat="29.5466418" lon="103.3390468"><ele>2370.45</ele><time>2026-06-13T01:17:29.000Z</time></trkpt>
        <trkpt lat="29.5465933" lon="103.3389483"><ele>2374</ele><time>2026-06-13T01:17:52.000Z</time></trkpt>
        <trkpt lat="29.5465933" lon="103.3389483"><ele>2374</ele><time>2026-06-13T01:18:24.000Z</time></trkpt>
        <trkpt lat="29.5465317" lon="103.3388583"><ele>2378.52</ele><time>2026-06-13T01:18:52.000Z</time></trkpt>
        <trkpt lat="29.5464362" lon="103.3387895"><ele>2382.81</ele><time>2026-06-13T01:19:20.000Z</time></trkpt>
        <trkpt lat="29.5463707" lon="103.3387077"><ele>2386.98</ele><time>2026-06-13T01:19:48.000Z</time></trkpt>
        <trkpt lat="29.5463244" lon="103.3386181"><ele>2391.46</ele><time>2026-06-13T01:20:02.000Z</time></trkpt>
        <trkpt lat="29.5463244" lon="103.3386181"><ele>2391.46</ele><time>2026-06-13T01:20:23.000Z</time></trkpt>
        <trkpt lat="29.5462847" lon="103.3385159"><ele>2395.05</ele><time>2026-06-13T01:20:34.000Z</time></trkpt>
        <trkpt lat="29.5462847" lon="103.3385159"><ele>2395.05</ele><time>2026-06-13T01:20:41.000Z</time></trkpt>
        <trkpt lat="29.5462359" lon="103.3384145"><ele>2399.2</ele><time>2026-06-13T01:20:53.000Z</time></trkpt>
        <trkpt lat="29.5462191" lon="103.3383044"><ele>2401.65</ele><time>2026-06-13T01:21:13.000Z</time></trkpt>
        <trkpt lat="29.5462187" lon="103.3381978"><ele>2405.03</ele><time>2026-06-13T01:21:37.000Z</time></trkpt>
        <trkpt lat="29.5462439" lon="103.3380958"><ele>2408.11</ele><time>2026-06-13T01:21:55.000Z</time></trkpt>
        <trkpt lat="29.5462941" lon="103.3379918"><ele>2411.29</ele><time>2026-06-13T01:22:09.000Z</time></trkpt>
        <trkpt lat="29.546371" lon="103.3379033"><ele>2414.26</ele><time>2026-06-13T01:22:45.000Z</time></trkpt>
        <trkpt lat="29.5464514" lon="103.337828"><ele>2415.91</ele><time>2026-06-13T01:22:53.000Z</time></trkpt>
        <trkpt lat="29.5465013" lon="103.3377353"><ele>2417.33</ele><time>2026-06-13T01:23:03.000Z</time></trkpt>
        <trkpt lat="29.5465033" lon="103.3376302"><ele>2419.68</ele><time>2026-06-13T01:23:09.000Z</time></trkpt>
        <trkpt lat="29.5465299" lon="103.3375296"><ele>2421.45</ele><time>2026-06-13T01:23:21.000Z</time></trkpt>
        <trkpt lat="29.5465973" lon="103.337454"><ele>2421.95</ele><time>2026-06-13T01:23:27.000Z</time></trkpt>
        <trkpt lat="29.5466398" lon="103.3373578"><ele>2421.45</ele><time>2026-06-13T01:23:47.000Z</time></trkpt>
        <trkpt lat="29.5466799" lon="103.337244"><ele>2422.08</ele><time>2026-06-13T01:23:59.000Z</time></trkpt>
        <trkpt lat="29.5466933" lon="103.3371167"><ele>2422.65</ele><time>2026-06-13T01:26:47.000Z</time></trkpt>
        <trkpt lat="29.5466933" lon="103.3371167"><ele>2422.65</ele><time>2026-06-13T01:27:19.000Z</time></trkpt>
        <trkpt lat="29.5466933" lon="103.3371167"><ele>2422.65</ele><time>2026-06-13T01:27:24.000Z</time></trkpt>
        <trkpt lat="29.5466933" lon="103.3371167"><ele>2422.65</ele><time>2026-06-13T01:27:45.000Z</time></trkpt>
        <trkpt lat="29.5466933" lon="103.3371167"><ele>2422.65</ele><time>2026-06-13T01:27:54.000Z</time></trkpt>
        <trkpt lat="29.5466933" lon="103.3371167"><ele>2422.65</ele><time>2026-06-13T01:28:13.000Z</time></trkpt>
        <trkpt lat="29.5466933" lon="103.3371167"><ele>2422.65</ele><time>2026-06-13T01:28:14.000Z</time></trkpt>
        <trkpt lat="29.5466933" lon="103.3371167"><ele>2422.65</ele><time>2026-06-13T01:28:31.000Z</time></trkpt>
        <trkpt lat="29.5466933" lon="103.3371167"><ele>2422.65</ele><time>2026-06-13T01:28:34.000Z</time></trkpt>
        <trkpt lat="29.5466933" lon="103.3371167"><ele>2422.65</ele><time>2026-06-13T01:29:03.000Z</time></trkpt>
        <trkpt lat="29.5466933" lon="103.3371167"><ele>2422.65</ele><time>2026-06-13T01:29:04.000Z</time></trkpt>
        <trkpt lat="29.5466933" lon="103.3371167"><ele>2422.65</ele><time>2026-06-13T01:29:43.000Z</time></trkpt>
        <trkpt lat="29.5466933" lon="103.3371167"><ele>2422.65</ele><time>2026-06-13T01:29:58.000Z</time></trkpt>
        <trkpt lat="29.5466933" lon="103.3371167"><ele>2422.65</ele><time>2026-06-13T01:30:53.000Z</time></trkpt>
        <trkpt lat="29.5466933" lon="103.3371167"><ele>2422.65</ele><time>2026-06-13T01:31:08.000Z</time></trkpt>
        <trkpt lat="29.5466933" lon="103.3371167"><ele>2422.65</ele><time>2026-06-13T01:31:25.000Z</time></trkpt>
        <trkpt lat="29.5466933" lon="103.3371167"><ele>2422.65</ele><time>2026-06-13T01:31:28.000Z</time></trkpt>
        <trkpt lat="29.5466933" lon="103.3371167"><ele>2422.65</ele><time>2026-06-13T01:31:39.000Z</time></trkpt>
        <trkpt lat="29.5466933" lon="103.3371167"><ele>2422.65</ele><time>2026-06-13T01:32:02.000Z</time></trkpt>
        <trkpt lat="29.5466933" lon="103.3371167"><ele>2422.65</ele><time>2026-06-13T01:32:25.000Z</time></trkpt>
        <trkpt lat="29.5466933" lon="103.3371167"><ele>2422.65</ele><time>2026-06-13T01:32:34.000Z</time></trkpt>
        <trkpt lat="29.5466933" lon="103.3371167"><ele>2422.65</ele><time>2026-06-13T01:32:45.000Z</time></trkpt>
        <trkpt lat="29.5466933" lon="103.3371167"><ele>2422.65</ele><time>2026-06-13T01:32:54.000Z</time></trkpt>
        <trkpt lat="29.5466933" lon="103.3371167"><ele>2422.65</ele><time>2026-06-13T01:33:11.000Z</time></trkpt>
        <trkpt lat="29.5466933" lon="103.3371167"><ele>2422.65</ele><time>2026-06-13T01:33:14.000Z</time></trkpt>
        <trkpt lat="29.5466933" lon="103.3371167"><ele>2422.65</ele><time>2026-06-13T01:33:25.000Z</time></trkpt>
        <trkpt lat="29.5466933" lon="103.3371167"><ele>2422.65</ele><time>2026-06-13T01:33:28.000Z</time></trkpt>
        <trkpt lat="29.5466933" lon="103.3371167"><ele>2422.65</ele><time>2026-06-13T01:34:53.000Z</time></trkpt>
        <trkpt lat="29.5466933" lon="103.3371167"><ele>2422.65</ele><time>2026-06-13T01:34:54.000Z</time></trkpt>
        <trkpt lat="29.5466933" lon="103.3371167"><ele>2422.65</ele><time>2026-06-13T01:35:53.000Z</time></trkpt>
        <trkpt lat="29.5466933" lon="103.3371167"><ele>2422.65</ele><time>2026-06-13T01:36:16.000Z</time></trkpt>
        <trkpt lat="29.5466933" lon="103.3371167"><ele>2422.65</ele><time>2026-06-13T01:36:33.000Z</time></trkpt>
        <trkpt lat="29.5466233" lon="103.3370433"><ele>2425.38</ele><time>2026-06-13T01:36:44.000Z</time></trkpt>
        <trkpt lat="29.5466233" lon="103.3370433"><ele>2425.38</ele><time>2026-06-13T01:37:54.000Z</time></trkpt>
        <trkpt lat="29.54656" lon="103.3369383"><ele>2426.12</ele><time>2026-06-13T01:38:46.000Z</time></trkpt>
        <trkpt lat="29.546515" lon="103.3368136"><ele>2427.92</ele><time>2026-06-13T01:38:54.000Z</time></trkpt>
        <trkpt lat="29.5465028" lon="103.3367008"><ele>2428</ele><time>2026-06-13T01:39:02.000Z</time></trkpt>
        <trkpt lat="29.546506" lon="103.3365803"><ele>2427.31</ele><time>2026-06-13T01:39:10.000Z</time></trkpt>
        <trkpt lat="29.5465498" lon="103.336467"><ele>2425.58</ele><time>2026-06-13T01:39:20.000Z</time></trkpt>
        <trkpt lat="29.5465854" lon="103.3363617"><ele>2423.1</ele><time>2026-06-13T01:39:32.000Z</time></trkpt>
        <trkpt lat="29.5465908" lon="103.336244"><ele>2419.7</ele><time>2026-06-13T01:39:44.000Z</time></trkpt>
        <trkpt lat="29.5466364" lon="103.33613"><ele>2416.52</ele><time>2026-06-13T01:39:52.000Z</time></trkpt>
        <trkpt lat="29.5466814" lon="103.3360153"><ele>2414.01</ele><time>2026-06-13T01:40:00.000Z</time></trkpt>
        <trkpt lat="29.5467107" lon="103.3359015"><ele>2411.86</ele><time>2026-06-13T01:40:08.000Z</time></trkpt>
        <trkpt lat="29.5467485" lon="103.3357981"><ele>2410.11</ele><time>2026-06-13T01:40:14.000Z</time></trkpt>
        <trkpt lat="29.5467559" lon="103.3356885"><ele>2408.69</ele><time>2026-06-13T01:40:22.000Z</time></trkpt>
        <trkpt lat="29.5467845" lon="103.3355786"><ele>2407.45</ele><time>2026-06-13T01:40:30.000Z</time></trkpt>
        <trkpt lat="29.5468162" lon="103.3354572"><ele>2405.79</ele><time>2026-06-13T01:40:38.000Z</time></trkpt>
        <trkpt lat="29.5468436" lon="103.335348"><ele>2404.25</ele><time>2026-06-13T01:40:44.000Z</time></trkpt>
        <trkpt lat="29.5468666" lon="103.3352302"><ele>2403.02</ele><time>2026-06-13T01:40:54.000Z</time></trkpt>
        <trkpt lat="29.5468655" lon="103.3351138"><ele>2401.64</ele><time>2026-06-13T01:41:02.000Z</time></trkpt>
        <trkpt lat="29.5468158" lon="103.3350108"><ele>2401.36</ele><time>2026-06-13T01:41:08.000Z</time></trkpt>
        <trkpt lat="29.5467422" lon="103.3349391"><ele>2401.03</ele><time>2026-06-13T01:41:20.000Z</time></trkpt>
        <trkpt lat="29.5466597" lon="103.3348731"><ele>2400.76</ele><time>2026-06-13T01:41:26.000Z</time></trkpt>
        <trkpt lat="29.5465669" lon="103.3348184"><ele>2400.18</ele><time>2026-06-13T01:41:34.000Z</time></trkpt>
        <trkpt lat="29.5464626" lon="103.3347864"><ele>2400.23</ele><time>2026-06-13T01:41:42.000Z</time></trkpt>
        <trkpt lat="29.5463708" lon="103.3347451"><ele>2400.78</ele><time>2026-06-13T01:42:02.000Z</time></trkpt>
        <trkpt lat="29.5462813" lon="103.3347723"><ele>2401.13</ele><time>2026-06-13T01:42:18.000Z</time></trkpt>
        <trkpt lat="29.5461878" lon="103.3347776"><ele>2403.74</ele><time>2026-06-13T01:42:30.000Z</time></trkpt>
        <trkpt lat="29.5460928" lon="103.3347472"><ele>2406.05</ele><time>2026-06-13T01:42:40.000Z</time></trkpt>
        <trkpt lat="29.5459961" lon="103.3347077"><ele>2407.45</ele><time>2026-06-13T01:42:52.000Z</time></trkpt>
        <trkpt lat="29.5459366" lon="103.3346075"><ele>2407</ele><time>2026-06-13T01:43:02.000Z</time></trkpt>
        <trkpt lat="29.5458583" lon="103.334524"><ele>2405.15</ele><time>2026-06-13T01:43:12.000Z</time></trkpt>
        <trkpt lat="29.5457675" lon="103.3344668"><ele>2402.59</ele><time>2026-06-13T01:43:20.000Z</time></trkpt>
        <trkpt lat="29.5456883" lon="103.3344055"><ele>2400.31</ele><time>2026-06-13T01:43:28.000Z</time></trkpt>
        <trkpt lat="29.5456016" lon="103.3343669"><ele>2398.46</ele><time>2026-06-13T01:43:36.000Z</time></trkpt>
        <trkpt lat="29.5455031" lon="103.3343639"><ele>2396.54</ele><time>2026-06-13T01:43:52.000Z</time></trkpt>
        <trkpt lat="29.5454193" lon="103.3343087"><ele>2395.32</ele><time>2026-06-13T01:44:04.000Z</time></trkpt>
        <trkpt lat="29.5453555" lon="103.3342293"><ele>2394.58</ele><time>2026-06-13T01:44:12.000Z</time></trkpt>
        <trkpt lat="29.5452973" lon="103.3341437"><ele>2393.43</ele><time>2026-06-13T01:44:22.000Z</time></trkpt>
        <trkpt lat="29.5452311" lon="103.3341069"><ele>2392.55</ele><time>2026-06-13T01:44:32.000Z</time></trkpt>
        <trkpt lat="29.545146" lon="103.3340817"><ele>2392.02</ele><time>2026-06-13T01:44:42.000Z</time></trkpt>
        <trkpt lat="29.5450488" lon="103.3340702"><ele>2392.22</ele><time>2026-06-13T01:44:52.000Z</time></trkpt>
        <trkpt lat="29.5449508" lon="103.3340933"><ele>2393.5</ele><time>2026-06-13T01:45:02.000Z</time></trkpt>
        <trkpt lat="29.5448636" lon="103.3341563"><ele>2395.05</ele><time>2026-06-13T01:45:12.000Z</time></trkpt>
        <trkpt lat="29.544776" lon="103.3342211"><ele>2395.85</ele><time>2026-06-13T01:45:20.000Z</time></trkpt>
        <trkpt lat="29.5446794" lon="103.334254"><ele>2396.13</ele><time>2026-06-13T01:45:28.000Z</time></trkpt>
        <trkpt lat="29.5445805" lon="103.3342357"><ele>2396.33</ele><time>2026-06-13T01:45:36.000Z</time></trkpt>
        <trkpt lat="29.5444825" lon="103.3342057"><ele>2396.49</ele><time>2026-06-13T01:45:44.000Z</time></trkpt>
        <trkpt lat="29.5443902" lon="103.334182"><ele>2396.37</ele><time>2026-06-13T01:45:52.000Z</time></trkpt>
        <trkpt lat="29.544295" lon="103.3341817"><ele>2393.6</ele><time>2026-06-13T01:46:00.000Z</time></trkpt>
        <trkpt lat="29.5441817" lon="103.334135"><ele>2392.9</ele><time>2026-06-13T01:46:08.000Z</time></trkpt>
        <trkpt lat="29.5441017" lon="103.3340783"><ele>2395</ele><time>2026-06-13T01:46:16.000Z</time></trkpt>
        <trkpt lat="29.5450767" lon="103.3334767"><ele>2043.1</ele><time>2026-06-13T01:50:35.000Z</time></trkpt>
        <trkpt lat="29.5435883" lon="103.334405"><ele>2350.9</ele><time>2026-06-13T01:50:37.000Z</time></trkpt>
        <trkpt lat="29.5435074" lon="103.3341755"><ele>2350.9</ele><time>2026-06-13T01:50:40.000Z</time></trkpt>
        <trkpt lat="29.5434814" lon="103.3340151"><ele>2366.47</ele><time>2026-06-13T01:50:58.000Z</time></trkpt>
        <trkpt lat="29.5434975" lon="103.3338677"><ele>2377.71</ele><time>2026-06-13T01:51:06.000Z</time></trkpt>
        <trkpt lat="29.5435043" lon="103.3337398"><ele>2385.54</ele><time>2026-06-13T01:51:18.000Z</time></trkpt>
        <trkpt lat="29.5435133" lon="103.333625"><ele>2389.61</ele><time>2026-06-13T01:52:20.000Z</time></trkpt>
        <trkpt lat="29.5434733" lon="103.3335017"><ele>2392.53</ele><time>2026-06-13T01:52:30.000Z</time></trkpt>
        <trkpt lat="29.543439" lon="103.3333868"><ele>2392.82</ele><time>2026-06-13T01:52:38.000Z</time></trkpt>
        <trkpt lat="29.5434082" lon="103.3332773"><ele>2392.55</ele><time>2026-06-13T01:52:46.000Z</time></trkpt>
        <trkpt lat="29.5433572" lon="103.3331895"><ele>2392.1</ele><time>2026-06-13T01:52:58.000Z</time></trkpt>
        <trkpt lat="29.5433572" lon="103.3331895"><ele>2392.1</ele><time>2026-06-13T01:53:23.000Z</time></trkpt>
        <trkpt lat="29.5433572" lon="103.3331895"><ele>2392.1</ele><time>2026-06-13T01:53:28.000Z</time></trkpt>
        <trkpt lat="29.5433572" lon="103.3331895"><ele>2392.1</ele><time>2026-06-13T01:54:03.000Z</time></trkpt>
        <trkpt lat="29.5433572" lon="103.3331895"><ele>2392.1</ele><time>2026-06-13T01:54:06.000Z</time></trkpt>
        <trkpt lat="29.5433572" lon="103.3331895"><ele>2392.1</ele><time>2026-06-13T01:54:25.000Z</time></trkpt>
        <trkpt lat="29.543295" lon="103.3331067"><ele>2391.02</ele><time>2026-06-13T01:54:36.000Z</time></trkpt>
        <trkpt lat="29.543295" lon="103.3331067"><ele>2391.02</ele><time>2026-06-13T01:55:06.000Z</time></trkpt>
        <trkpt lat="29.5432133" lon="103.3330133"><ele>2389.38</ele><time>2026-06-13T01:55:14.000Z</time></trkpt>
        <trkpt lat="29.5431162" lon="103.3329736"><ele>2388.57</ele><time>2026-06-13T01:55:22.000Z</time></trkpt>
        <trkpt lat="29.5430239" lon="103.3329356"><ele>2388.71</ele><time>2026-06-13T01:55:30.000Z</time></trkpt>
        <trkpt lat="29.542932" lon="103.3329072"><ele>2389.14</ele><time>2026-06-13T01:55:42.000Z</time></trkpt>
        <trkpt lat="29.542932" lon="103.3329072"><ele>2389.14</ele><time>2026-06-13T01:56:41.000Z</time></trkpt>
        <trkpt lat="29.542932" lon="103.3329072"><ele>2389.14</ele><time>2026-06-13T01:56:48.000Z</time></trkpt>
        <trkpt lat="29.542932" lon="103.3329072"><ele>2389.14</ele><time>2026-06-13T01:57:09.000Z</time></trkpt>
        <trkpt lat="29.5428983" lon="103.3327867"><ele>2388.86</ele><time>2026-06-13T01:57:14.000Z</time></trkpt>
        <trkpt lat="29.5428983" lon="103.3327867"><ele>2388.86</ele><time>2026-06-13T01:57:24.000Z</time></trkpt>
        <trkpt lat="29.54287" lon="103.3326817"><ele>2387.85</ele><time>2026-06-13T01:57:28.000Z</time></trkpt>
        <trkpt lat="29.5427824" lon="103.3326359"><ele>2386.45</ele><time>2026-06-13T01:57:38.000Z</time></trkpt>
        <trkpt lat="29.5426792" lon="103.3326135"><ele>2384.92</ele><time>2026-06-13T01:57:44.000Z</time></trkpt>
        <trkpt lat="29.5426122" lon="103.3325472"><ele>2384.01</ele><time>2026-06-13T01:57:52.000Z</time></trkpt>
        <trkpt lat="29.5425895" lon="103.332445"><ele>2383.32</ele><time>2026-06-13T01:58:06.000Z</time></trkpt>
        <trkpt lat="29.5425511" lon="103.3323467"><ele>2383.91</ele><time>2026-06-13T01:58:18.000Z</time></trkpt>
        <trkpt lat="29.5425104" lon="103.332236"><ele>2384.38</ele><time>2026-06-13T01:58:26.000Z</time></trkpt>
        <trkpt lat="29.5424594" lon="103.3321281"><ele>2384.6</ele><time>2026-06-13T01:58:34.000Z</time></trkpt>
        <trkpt lat="29.5423819" lon="103.3321428"><ele>2384.82</ele><time>2026-06-13T01:58:42.000Z</time></trkpt>
        <trkpt lat="29.5423515" lon="103.3321564"><ele>2384.9</ele><time>2026-06-13T01:58:50.000Z</time></trkpt>
        <trkpt lat="29.5423515" lon="103.3321564"><ele>2384.9</ele><time>2026-06-13T02:00:07.000Z</time></trkpt>
        <trkpt lat="29.5422917" lon="103.332095"><ele>2385.8</ele><time>2026-06-13T02:00:08.000Z</time></trkpt>
        <trkpt lat="29.5422917" lon="103.332095"><ele>2385.8</ele><time>2026-06-13T02:00:17.000Z</time></trkpt>
        <trkpt lat="29.5422917" lon="103.332095"><ele>2385.8</ele><time>2026-06-13T02:00:33.000Z</time></trkpt>
        <trkpt lat="29.5422917" lon="103.332095"><ele>2385.8</ele><time>2026-06-13T02:00:36.000Z</time></trkpt>
        <trkpt lat="29.5422917" lon="103.332095"><ele>2385.8</ele><time>2026-06-13T02:01:01.000Z</time></trkpt>
        <trkpt lat="29.542255" lon="103.3319933"><ele>2386.66</ele><time>2026-06-13T02:01:02.000Z</time></trkpt>
        <trkpt lat="29.542255" lon="103.3319933"><ele>2386.66</ele><time>2026-06-13T02:01:17.000Z</time></trkpt>
        <trkpt lat="29.5422467" lon="103.332105"><ele>2387.45</ele><time>2026-06-13T02:05:43.000Z</time></trkpt>
        <trkpt lat="29.5422467" lon="103.332105"><ele>2387.45</ele><time>2026-06-13T02:06:01.000Z</time></trkpt>
        <trkpt lat="29.542315" lon="103.3320283"><ele>2388.59</ele><time>2026-06-13T02:06:16.000Z</time></trkpt>
        <trkpt lat="29.542315" lon="103.3320283"><ele>2388.59</ele><time>2026-06-13T02:06:34.000Z</time></trkpt>
        <trkpt lat="29.5422465" lon="103.3319756"><ele>2388.51</ele><time>2026-06-13T02:06:48.000Z</time></trkpt>
        <trkpt lat="29.5421551" lon="103.3319735"><ele>2388.03</ele><time>2026-06-13T02:06:58.000Z</time></trkpt>
        <trkpt lat="29.5421123" lon="103.3320613"><ele>2387.72</ele><time>2026-06-13T02:07:08.000Z</time></trkpt>
        <trkpt lat="29.5420169" lon="103.3320971"><ele>2386.38</ele><time>2026-06-13T02:07:20.000Z</time></trkpt>
        <trkpt lat="29.5419058" lon="103.3320926"><ele>2384.84</ele><time>2026-06-13T02:07:30.000Z</time></trkpt>
        <trkpt lat="29.5418043" lon="103.3320763"><ele>2383.36</ele><time>2026-06-13T02:07:38.000Z</time></trkpt>
        <trkpt lat="29.5417851" lon="103.3319825"><ele>2382.43</ele><time>2026-06-13T02:07:48.000Z</time></trkpt>
        <trkpt lat="29.5418229" lon="103.3318669"><ele>2381.82</ele><time>2026-06-13T02:07:58.000Z</time></trkpt>
        <trkpt lat="29.5418724" lon="103.3317534"><ele>2381.81</ele><time>2026-06-13T02:08:06.000Z</time></trkpt>
        <trkpt lat="29.5419071" lon="103.3316359"><ele>2381.59</ele><time>2026-06-13T02:08:18.000Z</time></trkpt>
        <trkpt lat="29.5419142" lon="103.3315176"><ele>2381.51</ele><time>2026-06-13T02:08:26.000Z</time></trkpt>
        <trkpt lat="29.5418851" lon="103.3314078"><ele>2380.99</ele><time>2026-06-13T02:08:34.000Z</time></trkpt>
        <trkpt lat="29.54185" lon="103.3313719"><ele>2380.09</ele><time>2026-06-13T02:08:48.000Z</time></trkpt>
        <trkpt lat="29.54185" lon="103.3313719"><ele>2380.09</ele><time>2026-06-13T02:08:49.000Z</time></trkpt>
        <trkpt lat="29.54185" lon="103.3313719"><ele>2380.09</ele><time>2026-06-13T02:08:50.000Z</time></trkpt>
        <trkpt lat="29.54185" lon="103.3313719"><ele>2380.09</ele><time>2026-06-13T02:09:03.000Z</time></trkpt>
        <trkpt lat="29.5418778" lon="103.3314469"><ele>2379.58</ele><time>2026-06-13T02:09:14.000Z</time></trkpt>
        <trkpt lat="29.5418778" lon="103.3314469"><ele>2379.58</ele><time>2026-06-13T02:09:38.000Z</time></trkpt>
        <trkpt lat="29.5419353" lon="103.3315482"><ele>2379.07</ele><time>2026-06-13T02:09:46.000Z</time></trkpt>
        <trkpt lat="29.5420373" lon="103.3315732"><ele>2378.74</ele><time>2026-06-13T02:09:54.000Z</time></trkpt>
        <trkpt lat="29.5421502" lon="103.3315496"><ele>2378.46</ele><time>2026-06-13T02:10:02.000Z</time></trkpt>
        <trkpt lat="29.5422454" lon="103.3314967"><ele>2378.18</ele><time>2026-06-13T02:10:08.000Z</time></trkpt>
        <trkpt lat="29.5423252" lon="103.3314177"><ele>2378.49</ele><time>2026-06-13T02:10:16.000Z</time></trkpt>
        <trkpt lat="29.5424014" lon="103.33144"><ele>2379.31</ele><time>2026-06-13T02:10:24.000Z</time></trkpt>
        <trkpt lat="29.5424318" lon="103.3315327"><ele>2379.91</ele><time>2026-06-13T02:10:30.000Z</time></trkpt>
        <trkpt lat="29.5424409" lon="103.331666"><ele>2380.42</ele><time>2026-06-13T02:10:40.000Z</time></trkpt>
        <trkpt lat="29.5425002" lon="103.3317932"><ele>2381.83</ele><time>2026-06-13T02:10:48.000Z</time></trkpt>
        <trkpt lat="29.5425002" lon="103.3317932"><ele>2381.83</ele><time>2026-06-13T02:10:59.000Z</time></trkpt>
        <trkpt lat="29.5425002" lon="103.3317932"><ele>2381.83</ele><time>2026-06-13T02:11:02.000Z</time></trkpt>
        <trkpt lat="29.5425002" lon="103.3317932"><ele>2381.83</ele><time>2026-06-13T02:12:35.000Z</time></trkpt>
        <trkpt lat="29.5425002" lon="103.3317932"><ele>2381.83</ele><time>2026-06-13T02:12:48.000Z</time></trkpt>
        <trkpt lat="29.5425002" lon="103.3317932"><ele>2381.83</ele><time>2026-06-13T02:12:59.000Z</time></trkpt>
        <trkpt lat="29.5425002" lon="103.3317932"><ele>2381.83</ele><time>2026-06-13T02:13:04.000Z</time></trkpt>
        <trkpt lat="29.5425002" lon="103.3317932"><ele>2381.83</ele><time>2026-06-13T02:13:35.000Z</time></trkpt>
        <trkpt lat="29.5425002" lon="103.3317932"><ele>2381.83</ele><time>2026-06-13T02:13:40.000Z</time></trkpt>
        <trkpt lat="29.5425002" lon="103.3317932"><ele>2381.83</ele><time>2026-06-13T02:13:51.000Z</time></trkpt>
        <trkpt lat="29.5425002" lon="103.3317932"><ele>2381.83</ele><time>2026-06-13T02:13:56.000Z</time></trkpt>
        <trkpt lat="29.5425002" lon="103.3317932"><ele>2381.83</ele><time>2026-06-13T02:14:05.000Z</time></trkpt>
        <trkpt lat="29.5425002" lon="103.3317932"><ele>2381.83</ele><time>2026-06-13T02:14:06.000Z</time></trkpt>
        <trkpt lat="29.5425002" lon="103.3317932"><ele>2381.83</ele><time>2026-06-13T02:16:03.000Z</time></trkpt>
        <trkpt lat="29.5425002" lon="103.3317932"><ele>2381.83</ele><time>2026-06-13T02:16:06.000Z</time></trkpt>
        <trkpt lat="29.5425002" lon="103.3317932"><ele>2381.83</ele><time>2026-06-13T02:16:33.000Z</time></trkpt>
        <trkpt lat="29.5425002" lon="103.3317932"><ele>2381.83</ele><time>2026-06-13T02:16:42.000Z</time></trkpt>
        <trkpt lat="29.5425002" lon="103.3317932"><ele>2381.83</ele><time>2026-06-13T02:16:59.000Z</time></trkpt>
        <trkpt lat="29.5425002" lon="103.3317932"><ele>2381.83</ele><time>2026-06-13T02:18:46.000Z</time></trkpt>
        <trkpt lat="29.5425002" lon="103.3317932"><ele>2381.83</ele><time>2026-06-13T02:19:07.000Z</time></trkpt>
        <trkpt lat="29.5425002" lon="103.3317932"><ele>2381.83</ele><time>2026-06-13T02:42:10.000Z</time></trkpt>
        <trkpt lat="29.5425002" lon="103.3317932"><ele>2381.83</ele><time>2026-06-13T02:42:21.000Z</time></trkpt>
        <trkpt lat="29.5425002" lon="103.3317932"><ele>2381.83</ele><time>2026-06-13T02:54:28.000Z</time></trkpt>
        <trkpt lat="29.5425002" lon="103.3317932"><ele>2381.83</ele><time>2026-06-13T02:54:39.000Z</time></trkpt>
        <trkpt lat="29.5425002" lon="103.3317932"><ele>2381.83</ele><time>2026-06-13T02:54:44.000Z</time></trkpt>
        <trkpt lat="29.5425002" lon="103.3317932"><ele>2381.83</ele><time>2026-06-13T02:54:53.000Z</time></trkpt>
        <trkpt lat="29.5425002" lon="103.3317932"><ele>2381.83</ele><time>2026-06-13T02:58:22.000Z</time></trkpt>
        <trkpt lat="29.5425002" lon="103.3317932"><ele>2381.83</ele><time>2026-06-13T02:58:33.000Z</time></trkpt>
        <trkpt lat="29.5425002" lon="103.3317932"><ele>2381.83</ele><time>2026-06-13T03:00:14.000Z</time></trkpt>
        <trkpt lat="29.5425002" lon="103.3317932"><ele>2381.83</ele><time>2026-06-13T03:00:25.000Z</time></trkpt>
        <trkpt lat="29.5423683" lon="103.3314983"><ele>2382.68</ele><time>2026-06-13T03:00:32.000Z</time></trkpt>
        <trkpt lat="29.5423683" lon="103.3314983"><ele>2382.68</ele><time>2026-06-13T03:00:52.000Z</time></trkpt>
        <trkpt lat="29.5424183" lon="103.3316267"><ele>2385.74</ele><time>2026-06-13T03:00:56.000Z</time></trkpt>
        <trkpt lat="29.5424232" lon="103.3315435"><ele>2383.92</ele><time>2026-06-13T03:01:11.000Z</time></trkpt>
        <trkpt lat="29.5423828" lon="103.3314498"><ele>2384.17</ele><time>2026-06-13T03:01:19.000Z</time></trkpt>
        <trkpt lat="29.5422891" lon="103.3314333"><ele>2384.96</ele><time>2026-06-13T03:01:29.000Z</time></trkpt>
        <trkpt lat="29.5421807" lon="103.331469"><ele>2384.93</ele><time>2026-06-13T03:01:35.000Z</time></trkpt>
        <trkpt lat="29.5420675" lon="103.3315204"><ele>2383.97</ele><time>2026-06-13T03:01:43.000Z</time></trkpt>
        <trkpt lat="29.5419586" lon="103.3315577"><ele>2382.56</ele><time>2026-06-13T03:01:53.000Z</time></trkpt>
        <trkpt lat="29.5418833" lon="103.3315107"><ele>2381.72</ele><time>2026-06-13T03:02:03.000Z</time></trkpt>
        <trkpt lat="29.5418237" lon="103.3314149"><ele>2380.29</ele><time>2026-06-13T03:02:11.000Z</time></trkpt>
        <trkpt lat="29.541771" lon="103.3313091"><ele>2379.09</ele><time>2026-06-13T03:02:19.000Z</time></trkpt>
        <trkpt lat="29.5417529" lon="103.3312398"><ele>2377.89</ele><time>2026-06-13T03:02:23.000Z</time></trkpt>
        <trkpt lat="29.5417529" lon="103.3312398"><ele>2377.89</ele><time>2026-06-13T03:02:45.000Z</time></trkpt>
        <trkpt lat="29.5422633" lon="103.33144"><ele>2376.99</ele><time>2026-06-13T03:04:20.000Z</time></trkpt>
        <trkpt lat="29.5422633" lon="103.33144"><ele>2376.99</ele><time>2026-06-13T03:05:03.000Z</time></trkpt>
        <trkpt lat="29.5421083" lon="103.3312217"><ele>2376.69</ele><time>2026-06-13T03:05:06.000Z</time></trkpt>
        <trkpt lat="29.5419759" lon="103.3311063"><ele>2376.14</ele><time>2026-06-13T03:05:12.000Z</time></trkpt>
        <trkpt lat="29.5418629" lon="103.3311828"><ele>2376.16</ele><time>2026-06-13T03:05:16.000Z</time></trkpt>
        <trkpt lat="29.5418629" lon="103.3311828"><ele>2376.16</ele><time>2026-06-13T03:06:47.000Z</time></trkpt>
        <trkpt lat="29.5418629" lon="103.3311828"><ele>2376.16</ele><time>2026-06-13T03:07:56.000Z</time></trkpt>
        <trkpt lat="29.5418629" lon="103.3311828"><ele>2376.16</ele><time>2026-06-13T03:08:09.000Z</time></trkpt>
        <trkpt lat="29.5418629" lon="103.3311828"><ele>2376.16</ele><time>2026-06-13T03:09:04.000Z</time></trkpt>
        <trkpt lat="29.5418629" lon="103.3311828"><ele>2376.16</ele><time>2026-06-13T03:09:35.000Z</time></trkpt>
        <trkpt lat="29.5418629" lon="103.3311828"><ele>2376.16</ele><time>2026-06-13T03:09:40.000Z</time></trkpt>
        <trkpt lat="29.5418629" lon="103.3311828"><ele>2376.16</ele><time>2026-06-13T03:10:27.000Z</time></trkpt>
        <trkpt lat="29.5418629" lon="103.3311828"><ele>2376.16</ele><time>2026-06-13T03:10:46.000Z</time></trkpt>
        <trkpt lat="29.5418629" lon="103.3311828"><ele>2376.16</ele><time>2026-06-13T03:11:15.000Z</time></trkpt>
        <trkpt lat="29.5418629" lon="103.3311828"><ele>2376.16</ele><time>2026-06-13T03:11:18.000Z</time></trkpt>
        <trkpt lat="29.5418629" lon="103.3311828"><ele>2376.16</ele><time>2026-06-13T03:11:45.000Z</time></trkpt>
        <trkpt lat="29.5418629" lon="103.3311828"><ele>2376.16</ele><time>2026-06-13T03:12:32.000Z</time></trkpt>
        <trkpt lat="29.5418629" lon="103.3311828"><ele>2376.16</ele><time>2026-06-13T03:12:43.000Z</time></trkpt>
        <trkpt lat="29.5418629" lon="103.3311828"><ele>2376.16</ele><time>2026-06-13T03:24:12.000Z</time></trkpt>
        <trkpt lat="29.5418629" lon="103.3311828"><ele>2376.16</ele><time>2026-06-13T03:24:23.000Z</time></trkpt>
        <trkpt lat="29.5418629" lon="103.3311828"><ele>2376.16</ele><time>2026-06-13T03:25:18.000Z</time></trkpt>
        <trkpt lat="29.5418629" lon="103.3311828"><ele>2376.16</ele><time>2026-06-13T03:25:35.000Z</time></trkpt>
        <trkpt lat="29.5418629" lon="103.3311828"><ele>2376.16</ele><time>2026-06-13T03:27:58.000Z</time></trkpt>
        <trkpt lat="29.5418629" lon="103.3311828"><ele>2376.16</ele><time>2026-06-13T03:28:11.000Z</time></trkpt>
        <trkpt lat="29.5418629" lon="103.3311828"><ele>2376.16</ele><time>2026-06-13T03:28:38.000Z</time></trkpt>
        <trkpt lat="29.5418629" lon="103.3311828"><ele>2376.16</ele><time>2026-06-13T03:28:59.000Z</time></trkpt>
        <trkpt lat="29.5418629" lon="103.3311828"><ele>2376.16</ele><time>2026-06-13T03:29:56.000Z</time></trkpt>
        <trkpt lat="29.5418629" lon="103.3311828"><ele>2376.16</ele><time>2026-06-13T03:30:37.000Z</time></trkpt>
        <trkpt lat="29.5418629" lon="103.3311828"><ele>2376.16</ele><time>2026-06-13T03:32:48.000Z</time></trkpt>
        <trkpt lat="29.5418629" lon="103.3311828"><ele>2376.16</ele><time>2026-06-13T03:33:01.000Z</time></trkpt>
        <trkpt lat="29.5418629" lon="103.3311828"><ele>2376.16</ele><time>2026-06-13T03:54:20.000Z</time></trkpt>
        <trkpt lat="29.5418629" lon="103.3311828"><ele>2376.16</ele><time>2026-06-13T03:54:39.000Z</time></trkpt>
      </trkseg>
      <trkseg>
        <trkpt lat="29.5413433" lon="103.331655"><ele>2401.7</ele><time>2026-06-13T11:34:33.000Z</time></trkpt>
        <trkpt lat="29.5413433" lon="103.331655"><ele>2401.7</ele><time>2026-06-13T11:34:36.000Z</time></trkpt>
        <trkpt lat="29.5412626" lon="103.3317173"><ele>2401.7</ele><time>2026-06-13T11:34:44.000Z</time></trkpt>
        <trkpt lat="29.5411961" lon="103.3318"><ele>2400.67</ele><time>2026-06-13T11:34:52.000Z</time></trkpt>
        <trkpt lat="29.5411342" lon="103.3318177"><ele>2399.22</ele><time>2026-06-13T11:35:02.000Z</time></trkpt>
        <trkpt lat="29.5410557" lon="103.3318435"><ele>2398.39</ele><time>2026-06-13T11:35:14.000Z</time></trkpt>
        <trkpt lat="29.5410557" lon="103.3318435"><ele>2398.39</ele><time>2026-06-13T11:35:30.000Z</time></trkpt>
        <trkpt lat="29.5409515" lon="103.3318193"><ele>2397.92</ele><time>2026-06-13T11:35:31.000Z</time></trkpt>
        <trkpt lat="29.5409515" lon="103.3318193"><ele>2397.92</ele><time>2026-06-13T11:35:40.000Z</time></trkpt>
        <trkpt lat="29.540872" lon="103.3317539"><ele>2397.7</ele><time>2026-06-13T11:35:52.000Z</time></trkpt>
        <trkpt lat="29.5407694" lon="103.3317016"><ele>2397.74</ele><time>2026-06-13T11:36:08.000Z</time></trkpt>
        <trkpt lat="29.5406591" lon="103.3317183"><ele>2397.9</ele><time>2026-06-13T11:36:14.000Z</time></trkpt>
        <trkpt lat="29.5405595" lon="103.3317414"><ele>2397.9</ele><time>2026-06-13T11:36:22.000Z</time></trkpt>
        <trkpt lat="29.5404635" lon="103.3318015"><ele>2398.41</ele><time>2026-06-13T11:36:30.000Z</time></trkpt>
        <trkpt lat="29.5403601" lon="103.3318605"><ele>2399.57</ele><time>2026-06-13T11:36:42.000Z</time></trkpt>
        <trkpt lat="29.5402861" lon="103.3319449"><ele>2400.87</ele><time>2026-06-13T11:36:48.000Z</time></trkpt>
        <trkpt lat="29.5402861" lon="103.3319449"><ele>2400.87</ele><time>2026-06-13T11:37:40.000Z</time></trkpt>
        <trkpt lat="29.5402861" lon="103.3319449"><ele>2400.87</ele><time>2026-06-13T11:37:57.000Z</time></trkpt>
        <trkpt lat="29.5402861" lon="103.3319449"><ele>2400.87</ele><time>2026-06-13T11:38:22.000Z</time></trkpt>
        <trkpt lat="29.5402383" lon="103.33207"><ele>2402.09</ele><time>2026-06-13T11:38:31.000Z</time></trkpt>
        <trkpt lat="29.5402383" lon="103.33207"><ele>2402.09</ele><time>2026-06-13T11:38:40.000Z</time></trkpt>
        <trkpt lat="29.54015" lon="103.33216"><ele>2401.36</ele><time>2026-06-13T11:38:46.000Z</time></trkpt>
        <trkpt lat="29.5400645" lon="103.3322105"><ele>2401.34</ele><time>2026-06-13T11:38:52.000Z</time></trkpt>
        <trkpt lat="29.5399743" lon="103.3322515"><ele>2401.58</ele><time>2026-06-13T11:38:58.000Z</time></trkpt>
        <trkpt lat="29.5398765" lon="103.3323068"><ele>2401.2</ele><time>2026-06-13T11:39:06.000Z</time></trkpt>
        <trkpt lat="29.5397797" lon="103.3323568"><ele>2399.95</ele><time>2026-06-13T11:39:12.000Z</time></trkpt>
        <trkpt lat="29.53968" lon="103.3324087"><ele>2398.21</ele><time>2026-06-13T11:39:20.000Z</time></trkpt>
        <trkpt lat="29.539607" lon="103.3324678"><ele>2396.4</ele><time>2026-06-13T11:39:30.000Z</time></trkpt>
        <trkpt lat="29.5395303" lon="103.3325233"><ele>2395.37</ele><time>2026-06-13T11:39:46.000Z</time></trkpt>
        <trkpt lat="29.5394447" lon="103.3325609"><ele>2395.3</ele><time>2026-06-13T11:40:04.000Z</time></trkpt>
        <trkpt lat="29.5393741" lon="103.3326258"><ele>2395.81</ele><time>2026-06-13T11:40:24.000Z</time></trkpt>
        <trkpt lat="29.5393042" lon="103.3326978"><ele>2397.23</ele><time>2026-06-13T11:40:34.000Z</time></trkpt>
        <trkpt lat="29.5392238" lon="103.3327665"><ele>2398.76</ele><time>2026-06-13T11:40:46.000Z</time></trkpt>
        <trkpt lat="29.5391367" lon="103.3328268"><ele>2400.29</ele><time>2026-06-13T11:41:04.000Z</time></trkpt>
        <trkpt lat="29.5390563" lon="103.3328925"><ele>2401.54</ele><time>2026-06-13T11:41:12.000Z</time></trkpt>
        <trkpt lat="29.5389738" lon="103.3329467"><ele>2402.68</ele><time>2026-06-13T11:41:20.000Z</time></trkpt>
        <trkpt lat="29.5388767" lon="103.3330003"><ele>2403.68</ele><time>2026-06-13T11:41:30.000Z</time></trkpt>
        <trkpt lat="29.5387744" lon="103.3330392"><ele>2405.15</ele><time>2026-06-13T11:41:42.000Z</time></trkpt>
        <trkpt lat="29.5386836" lon="103.3330744"><ele>2406.98</ele><time>2026-06-13T11:41:50.000Z</time></trkpt>
        <trkpt lat="29.5385876" lon="103.3331191"><ele>2408.41</ele><time>2026-06-13T11:42:00.000Z</time></trkpt>
        <trkpt lat="29.5384958" lon="103.3331569"><ele>2409.78</ele><time>2026-06-13T11:42:08.000Z</time></trkpt>
        <trkpt lat="29.5384031" lon="103.3331881"><ele>2410.78</ele><time>2026-06-13T11:42:24.000Z</time></trkpt>
        <trkpt lat="29.5383151" lon="103.3332274"><ele>2411.69</ele><time>2026-06-13T11:42:34.000Z</time></trkpt>
        <trkpt lat="29.5382336" lon="103.3332913"><ele>2412.64</ele><time>2026-06-13T11:42:42.000Z</time></trkpt>
        <trkpt lat="29.5381593" lon="103.3333566"><ele>2413.83</ele><time>2026-06-13T11:42:50.000Z</time></trkpt>
        <trkpt lat="29.5380822" lon="103.3334185"><ele>2415.02</ele><time>2026-06-13T11:42:58.000Z</time></trkpt>
        <trkpt lat="29.5379945" lon="103.3334744"><ele>2416.26</ele><time>2026-06-13T11:43:10.000Z</time></trkpt>
        <trkpt lat="29.5379041" lon="103.3335343"><ele>2417.52</ele><time>2026-06-13T11:43:20.000Z</time></trkpt>
        <trkpt lat="29.5378181" lon="103.333602"><ele>2418.16</ele><time>2026-06-13T11:43:28.000Z</time></trkpt>
        <trkpt lat="29.537733" lon="103.33366"><ele>2418.43</ele><time>2026-06-13T11:43:36.000Z</time></trkpt>
        <trkpt lat="29.5376481" lon="103.3337227"><ele>2418.76</ele><time>2026-06-13T11:43:46.000Z</time></trkpt>
        <trkpt lat="29.5375544" lon="103.3337698"><ele>2419.04</ele><time>2026-06-13T11:43:56.000Z</time></trkpt>
        <trkpt lat="29.5374563" lon="103.333761"><ele>2419.97</ele><time>2026-06-13T11:44:08.000Z</time></trkpt>
        <trkpt lat="29.5373532" lon="103.3337439"><ele>2420.63</ele><time>2026-06-13T11:44:22.000Z</time></trkpt>
        <trkpt lat="29.5372789" lon="103.3338011"><ele>2421.3</ele><time>2026-06-13T11:44:32.000Z</time></trkpt>
        <trkpt lat="29.5372318" lon="103.3338978"><ele>2422.16</ele><time>2026-06-13T11:44:50.000Z</time></trkpt>
        <trkpt lat="29.5371947" lon="103.3339998"><ele>2423.56</ele><time>2026-06-13T11:45:02.000Z</time></trkpt>
        <trkpt lat="29.5371278" lon="103.3340825"><ele>2424.52</ele><time>2026-06-13T11:45:16.000Z</time></trkpt>
        <trkpt lat="29.5370494" lon="103.334146"><ele>2425.63</ele><time>2026-06-13T11:45:28.000Z</time></trkpt>
        <trkpt lat="29.5369564" lon="103.3341809"><ele>2427.04</ele><time>2026-06-13T11:45:40.000Z</time></trkpt>
        <trkpt lat="29.5368578" lon="103.334204"><ele>2428.35</ele><time>2026-06-13T11:45:58.000Z</time></trkpt>
        <trkpt lat="29.5367685" lon="103.334236"><ele>2429.75</ele><time>2026-06-13T11:46:14.000Z</time></trkpt>
        <trkpt lat="29.5366749" lon="103.3342668"><ele>2431.23</ele><time>2026-06-13T11:46:32.000Z</time></trkpt>
        <trkpt lat="29.5365696" lon="103.3342551"><ele>2433.24</ele><time>2026-06-13T11:46:44.000Z</time></trkpt>
        <trkpt lat="29.536473" lon="103.3342644"><ele>2435.46</ele><time>2026-06-13T11:46:54.000Z</time></trkpt>
        <trkpt lat="29.5363789" lon="103.3342939"><ele>2437.37</ele><time>2026-06-13T11:47:25.000Z</time></trkpt>
        <trkpt lat="29.5362883" lon="103.3342971"><ele>2439.66</ele><time>2026-06-13T11:47:35.000Z</time></trkpt>
        <trkpt lat="29.5361987" lon="103.334291"><ele>2439.85</ele><time>2026-06-13T11:47:51.000Z</time></trkpt>
        <trkpt lat="29.5361281" lon="103.3342322"><ele>2439.87</ele><time>2026-06-13T11:48:11.000Z</time></trkpt>
        <trkpt lat="29.5361281" lon="103.3342322"><ele>2439.87</ele><time>2026-06-13T11:48:38.000Z</time></trkpt>
        <trkpt lat="29.5361733" lon="103.3338917"><ele>2440.31</ele><time>2026-06-13T11:51:03.000Z</time></trkpt>
        <trkpt lat="29.5361733" lon="103.3338917"><ele>2440.31</ele><time>2026-06-13T11:51:10.000Z</time></trkpt>
        <trkpt lat="29.5361733" lon="103.3340017"><ele>2431.79</ele><time>2026-06-13T11:51:36.000Z</time></trkpt>
        <trkpt lat="29.5361733" lon="103.3340017"><ele>2431.79</ele><time>2026-06-13T11:51:38.000Z</time></trkpt>
        <trkpt lat="29.5360873" lon="103.3340553"><ele>2432.22</ele><time>2026-06-13T11:51:41.000Z</time></trkpt>
        <trkpt lat="29.5360873" lon="103.3340553"><ele>2432.22</ele><time>2026-06-13T11:52:01.000Z</time></trkpt>
        <trkpt lat="29.5359938" lon="103.3341053"><ele>2433.16</ele><time>2026-06-13T11:52:21.000Z</time></trkpt>
        <trkpt lat="29.5358912" lon="103.3341038"><ele>2439.2</ele><time>2026-06-13T11:52:35.000Z</time></trkpt>
        <trkpt lat="29.5357954" lon="103.334062"><ele>2446.34</ele><time>2026-06-13T11:52:55.000Z</time></trkpt>
        <trkpt lat="29.5356989" lon="103.3340452"><ele>2453.38</ele><time>2026-06-13T11:53:09.000Z</time></trkpt>
        <trkpt lat="29.535614" lon="103.3339991"><ele>2459.28</ele><time>2026-06-13T11:53:25.000Z</time></trkpt>
        <trkpt lat="29.5355713" lon="103.3339006"><ele>2463.42</ele><time>2026-06-13T11:53:43.000Z</time></trkpt>
        <trkpt lat="29.535526" lon="103.3338038"><ele>2466.08</ele><time>2026-06-13T11:53:59.000Z</time></trkpt>
        <trkpt lat="29.5354597" lon="103.3337304"><ele>2468.24</ele><time>2026-06-13T11:54:11.000Z</time></trkpt>
        <trkpt lat="29.5353908" lon="103.3336537"><ele>2469.3</ele><time>2026-06-13T11:54:19.000Z</time></trkpt>
        <trkpt lat="29.5353453" lon="103.3335469"><ele>2469.94</ele><time>2026-06-13T11:54:27.000Z</time></trkpt>
        <trkpt lat="29.5352861" lon="103.3334603"><ele>2469.75</ele><time>2026-06-13T11:54:37.000Z</time></trkpt>
        <trkpt lat="29.5352547" lon="103.3333617"><ele>2468.57</ele><time>2026-06-13T11:54:51.000Z</time></trkpt>
        <trkpt lat="29.5352287" lon="103.3332596"><ele>2467.03</ele><time>2026-06-13T11:55:03.000Z</time></trkpt>
        <trkpt lat="29.5352157" lon="103.3331405"><ele>2465.51</ele><time>2026-06-13T11:55:15.000Z</time></trkpt>
        <trkpt lat="29.5351938" lon="103.3330232"><ele>2464.35</ele><time>2026-06-13T11:55:29.000Z</time></trkpt>
        <trkpt lat="29.535155" lon="103.3329604"><ele>2464.2</ele><time>2026-06-13T11:56:03.000Z</time></trkpt>
        <trkpt lat="29.5350797" lon="103.3328841"><ele>2465.57</ele><time>2026-06-13T11:56:23.000Z</time></trkpt>
        <trkpt lat="29.5349932" lon="103.3328216"><ele>2468.51</ele><time>2026-06-13T11:56:33.000Z</time></trkpt>
        <trkpt lat="29.53489" lon="103.3328297"><ele>2471.73</ele><time>2026-06-13T11:56:59.000Z</time></trkpt>
        <trkpt lat="29.5347951" lon="103.332885"><ele>2477.65</ele><time>2026-06-13T11:57:09.000Z</time></trkpt>
        <trkpt lat="29.5347064" lon="103.3329407"><ele>2481.59</ele><time>2026-06-13T11:57:23.000Z</time></trkpt>
        <trkpt lat="29.5346168" lon="103.3329839"><ele>2484.35</ele><time>2026-06-13T11:57:47.000Z</time></trkpt>
        <trkpt lat="29.5345094" lon="103.33299"><ele>2486</ele><time>2026-06-13T11:58:03.000Z</time></trkpt>
        <trkpt lat="29.5344041" lon="103.333003"><ele>2486.6</ele><time>2026-06-13T11:58:15.000Z</time></trkpt>
        <trkpt lat="29.5343082" lon="103.3330252"><ele>2486.77</ele><time>2026-06-13T11:58:33.000Z</time></trkpt>
        <trkpt lat="29.5342249" lon="103.3330688"><ele>2486.48</ele><time>2026-06-13T11:58:49.000Z</time></trkpt>
        <trkpt lat="29.5341596" lon="103.3330236"><ele>2486.49</ele><time>2026-06-13T11:59:03.000Z</time></trkpt>
        <trkpt lat="29.5340751" lon="103.333021"><ele>2486.8</ele><time>2026-06-13T11:59:21.000Z</time></trkpt>
        <trkpt lat="29.5339808" lon="103.3330331"><ele>2486.67</ele><time>2026-06-13T11:59:35.000Z</time></trkpt>
        <trkpt lat="29.533882" lon="103.3330492"><ele>2486.12</ele><time>2026-06-13T12:00:01.000Z</time></trkpt>
        <trkpt lat="29.5337923" lon="103.3330835"><ele>2484.48</ele><time>2026-06-13T12:00:23.000Z</time></trkpt>
        <trkpt lat="29.5337553" lon="103.3331713"><ele>2483.54</ele><time>2026-06-13T12:00:41.000Z</time></trkpt>
        <trkpt lat="29.5337112" lon="103.3331308"><ele>2485.37</ele><time>2026-06-13T12:01:09.000Z</time></trkpt>
        <trkpt lat="29.5336426" lon="103.3330597"><ele>2486.37</ele><time>2026-06-13T12:01:25.000Z</time></trkpt>
        <trkpt lat="29.5335514" lon="103.3329752"><ele>2485.78</ele><time>2026-06-13T12:01:41.000Z</time></trkpt>
        <trkpt lat="29.5334326" lon="103.3329151"><ele>2484.46</ele><time>2026-06-13T12:02:25.000Z</time></trkpt>
        <trkpt lat="29.5333029" lon="103.3328256"><ele>2484.86</ele><time>2026-06-13T12:02:57.000Z</time></trkpt>
        <trkpt lat="29.5332116" lon="103.3327295"><ele>2486.21</ele><time>2026-06-13T12:03:05.000Z</time></trkpt>
        <trkpt lat="29.5331687" lon="103.3326252"><ele>2486.9</ele><time>2026-06-13T12:03:19.000Z</time></trkpt>
        <trkpt lat="29.5330948" lon="103.3325868"><ele>2486.94</ele><time>2026-06-13T12:03:49.000Z</time></trkpt>
        <trkpt lat="29.5329964" lon="103.3325687"><ele>2487.4</ele><time>2026-06-13T12:04:07.000Z</time></trkpt>
        <trkpt lat="29.5329277" lon="103.3325048"><ele>2488.22</ele><time>2026-06-13T12:04:17.000Z</time></trkpt>
        <trkpt lat="29.532845" lon="103.3324315"><ele>2488.85</ele><time>2026-06-13T12:04:31.000Z</time></trkpt>
        <trkpt lat="29.5327562" lon="103.3323709"><ele>2491.5</ele><time>2026-06-13T12:04:37.000Z</time></trkpt>
        <trkpt lat="29.5327562" lon="103.3323709"><ele>2491.5</ele><time>2026-06-13T12:04:42.000Z</time></trkpt>
        <trkpt lat="29.5327256" lon="103.3323674"><ele>2493.78</ele><time>2026-06-13T12:04:47.000Z</time></trkpt>
        <trkpt lat="29.5327256" lon="103.3323674"><ele>2493.78</ele><time>2026-06-13T12:04:52.000Z</time></trkpt>
        <trkpt lat="29.5327256" lon="103.3323674"><ele>2493.78</ele><time>2026-06-13T12:05:04.000Z</time></trkpt>
        <trkpt lat="29.5327944" lon="103.332347"><ele>2495.77</ele><time>2026-06-13T12:05:11.000Z</time></trkpt>
        <trkpt lat="29.5327944" lon="103.332347"><ele>2495.77</ele><time>2026-06-13T12:05:35.000Z</time></trkpt>
        <trkpt lat="29.5327725" lon="103.3322747"><ele>2507.7</ele><time>2026-06-13T12:06:01.000Z</time></trkpt>
        <trkpt lat="29.5327018" lon="103.3321952"><ele>2520.09</ele><time>2026-06-13T12:06:25.000Z</time></trkpt>
        <trkpt lat="29.5326333" lon="103.3321067"><ele>2531.96</ele><time>2026-06-13T12:06:35.000Z</time></trkpt>
        <trkpt lat="29.5325902" lon="103.3320016"><ele>2539.51</ele><time>2026-06-13T12:07:11.000Z</time></trkpt>
        <trkpt lat="29.5325142" lon="103.3319519"><ele>2545.74</ele><time>2026-06-13T12:07:29.000Z</time></trkpt>
        <trkpt lat="29.532437" lon="103.3318766"><ele>2549.64</ele><time>2026-06-13T12:07:41.000Z</time></trkpt>
        <trkpt lat="29.5323721" lon="103.3317922"><ele>2551.9</ele><time>2026-06-13T12:07:57.000Z</time></trkpt>
        <trkpt lat="29.5323464" lon="103.3316872"><ele>2553.45</ele><time>2026-06-13T12:08:37.000Z</time></trkpt>
        <trkpt lat="29.5323035" lon="103.3315966"><ele>2553.82</ele><time>2026-06-13T12:08:55.000Z</time></trkpt>
        <trkpt lat="29.5322445" lon="103.3315102"><ele>2552.3</ele><time>2026-06-13T12:09:31.000Z</time></trkpt>
        <trkpt lat="29.5321944" lon="103.3314191"><ele>2548.99</ele><time>2026-06-13T12:09:55.000Z</time></trkpt>
        <trkpt lat="29.5321371" lon="103.3313323"><ele>2548.74</ele><time>2026-06-13T12:10:11.000Z</time></trkpt>
        <trkpt lat="29.5321259" lon="103.3312234"><ele>2549.54</ele><time>2026-06-13T12:10:45.000Z</time></trkpt>
        <trkpt lat="29.5320604" lon="103.3311827"><ele>2553.78</ele><time>2026-06-13T12:11:25.000Z</time></trkpt>
        <trkpt lat="29.5319854" lon="103.3312244"><ele>2554.48</ele><time>2026-06-13T12:11:41.000Z</time></trkpt>
        <trkpt lat="29.5319086" lon="103.3312028"><ele>2554.57</ele><time>2026-06-13T12:12:19.000Z</time></trkpt>
        <trkpt lat="29.5318851" lon="103.3311181"><ele>2561.55</ele><time>2026-06-13T12:12:41.000Z</time></trkpt>
        <trkpt lat="29.5318845" lon="103.3310094"><ele>2566.69</ele><time>2026-06-13T12:13:03.000Z</time></trkpt>
        <trkpt lat="29.5318548" lon="103.3308966"><ele>2571.08</ele><time>2026-06-13T12:13:21.000Z</time></trkpt>
        <trkpt lat="29.531788" lon="103.3308181"><ele>2572.64</ele><time>2026-06-13T12:13:31.000Z</time></trkpt>
        <trkpt lat="29.5317268" lon="103.3307253"><ele>2572.79</ele><time>2026-06-13T12:13:39.000Z</time></trkpt>
        <trkpt lat="29.5316747" lon="103.3306339"><ele>2571.81</ele><time>2026-06-13T12:13:47.000Z</time></trkpt>
        <trkpt lat="29.5316293" lon="103.3305308"><ele>2570.08</ele><time>2026-06-13T12:13:57.000Z</time></trkpt>
        <trkpt lat="29.5316201" lon="103.3304186"><ele>2567.47</ele><time>2026-06-13T12:14:07.000Z</time></trkpt>
        <trkpt lat="29.5316287" lon="103.3303099"><ele>2563.61</ele><time>2026-06-13T12:14:23.000Z</time></trkpt>
        <trkpt lat="29.5316755" lon="103.3302047"><ele>2557.28</ele><time>2026-06-13T12:14:29.000Z</time></trkpt>
        <trkpt lat="29.531684" lon="103.330091"><ele>2553.33</ele><time>2026-06-13T12:14:43.000Z</time></trkpt>
        <trkpt lat="29.5317504" lon="103.330028"><ele>2551.86</ele><time>2026-06-13T12:15:05.000Z</time></trkpt>
        <trkpt lat="29.5318546" lon="103.3300528"><ele>2557.25</ele><time>2026-06-13T12:15:15.000Z</time></trkpt>
        <trkpt lat="29.5318546" lon="103.3300528"><ele>2557.25</ele><time>2026-06-13T12:15:28.000Z</time></trkpt>
        <trkpt lat="29.5319872" lon="103.3300808"><ele>2566.18</ele><time>2026-06-13T12:15:29.000Z</time></trkpt>
        <trkpt lat="29.5319872" lon="103.3300808"><ele>2566.18</ele><time>2026-06-13T12:15:31.000Z</time></trkpt>
        <trkpt lat="29.5319663" lon="103.3300463"><ele>2581.03</ele><time>2026-06-13T12:16:27.000Z</time></trkpt>
        <trkpt lat="29.531872" lon="103.3300469"><ele>2599.6</ele><time>2026-06-13T12:16:49.000Z</time></trkpt>
        <trkpt lat="29.53178" lon="103.3301319"><ele>2613.36</ele><time>2026-06-13T12:17:17.000Z</time></trkpt>
        <trkpt lat="29.5316913" lon="103.3301166"><ele>2628.61</ele><time>2026-06-13T12:18:01.000Z</time></trkpt>
        <trkpt lat="29.5316089" lon="103.3300606"><ele>2646.89</ele><time>2026-06-13T12:18:21.000Z</time></trkpt>
        <trkpt lat="29.5315282" lon="103.3299975"><ele>2658.21</ele><time>2026-06-13T12:18:41.000Z</time></trkpt>
        <trkpt lat="29.531445" lon="103.3299392"><ele>2668.7</ele><time>2026-06-13T12:19:15.000Z</time></trkpt>
        <trkpt lat="29.5313699" lon="103.3298663"><ele>2679.67</ele><time>2026-06-13T12:20:01.000Z</time></trkpt>
        <trkpt lat="29.5312829" lon="103.3298015"><ele>2689.96</ele><time>2026-06-13T12:20:53.000Z</time></trkpt>
        <trkpt lat="29.531249" lon="103.3297073"><ele>2698.11</ele><time>2026-06-13T12:21:37.000Z</time></trkpt>
        <trkpt lat="29.531249" lon="103.3297073"><ele>2698.11</ele><time>2026-06-13T12:22:36.000Z</time></trkpt>
        <trkpt lat="29.531249" lon="103.3297073"><ele>2698.11</ele><time>2026-06-13T12:22:53.000Z</time></trkpt>
        <trkpt lat="29.531249" lon="103.3297073"><ele>2698.11</ele><time>2026-06-13T12:23:02.000Z</time></trkpt>
        <trkpt lat="29.531249" lon="103.3297073"><ele>2698.11</ele><time>2026-06-13T12:23:09.000Z</time></trkpt>
        <trkpt lat="29.531249" lon="103.3297073"><ele>2698.11</ele><time>2026-06-13T12:23:20.000Z</time></trkpt>
        <trkpt lat="29.531249" lon="103.3297073"><ele>2698.11</ele><time>2026-06-13T12:23:29.000Z</time></trkpt>
        <trkpt lat="29.531249" lon="103.3297073"><ele>2698.11</ele><time>2026-06-13T12:23:40.000Z</time></trkpt>
        <trkpt lat="29.5312783" lon="103.3295583"><ele>2704.9</ele><time>2026-06-13T12:23:41.000Z</time></trkpt>
        <trkpt lat="29.5312783" lon="103.3295583"><ele>2704.9</ele><time>2026-06-13T12:23:58.000Z</time></trkpt>
        <trkpt lat="29.5311933" lon="103.3295367"><ele>2710.92</ele><time>2026-06-13T12:24:16.000Z</time></trkpt>
        <trkpt lat="29.5311309" lon="103.329436"><ele>2715.99</ele><time>2026-06-13T12:24:36.000Z</time></trkpt>
        <trkpt lat="29.5311509" lon="103.3292918"><ele>2719.18</ele><time>2026-06-13T12:25:12.000Z</time></trkpt>
        <trkpt lat="29.5311492" lon="103.3291511"><ele>2721.29</ele><time>2026-06-13T12:25:26.000Z</time></trkpt>
        <trkpt lat="29.5311532" lon="103.3290216"><ele>2722.97</ele><time>2026-06-13T12:25:48.000Z</time></trkpt>
        <trkpt lat="29.5311691" lon="103.3289093"><ele>2724.62</ele><time>2026-06-13T12:26:02.000Z</time></trkpt>
        <trkpt lat="29.5311932" lon="103.3287877"><ele>2725.99</ele><time>2026-06-13T12:26:18.000Z</time></trkpt>
        <trkpt lat="29.5312091" lon="103.3286794"><ele>2727.5</ele><time>2026-06-13T12:26:38.000Z</time></trkpt>
        <trkpt lat="29.5312046" lon="103.3285675"><ele>2728.79</ele><time>2026-06-13T12:26:56.000Z</time></trkpt>
        <trkpt lat="29.5312163" lon="103.3284611"><ele>2730.17</ele><time>2026-06-13T12:27:10.000Z</time></trkpt>
        <trkpt lat="29.531265" lon="103.3283665"><ele>2731.43</ele><time>2026-06-13T12:27:24.000Z</time></trkpt>
        <trkpt lat="29.5313206" lon="103.3282709"><ele>2732.54</ele><time>2026-06-13T12:27:38.000Z</time></trkpt>
        <trkpt lat="29.531334" lon="103.3281679"><ele>2733.85</ele><time>2026-06-13T12:27:52.000Z</time></trkpt>
        <trkpt lat="29.5313392" lon="103.3280617"><ele>2735.38</ele><time>2026-06-13T12:28:10.000Z</time></trkpt>
        <trkpt lat="29.5313253" lon="103.3279545"><ele>2737.07</ele><time>2026-06-13T12:28:28.000Z</time></trkpt>
        <trkpt lat="29.5312894" lon="103.3278511"><ele>2738.72</ele><time>2026-06-13T12:28:58.000Z</time></trkpt>
        <trkpt lat="29.531281" lon="103.3277454"><ele>2740.6</ele><time>2026-06-13T12:29:24.000Z</time></trkpt>
        <trkpt lat="29.5312872" lon="103.3276226"><ele>2742.41</ele><time>2026-06-13T12:29:42.000Z</time></trkpt>
        <trkpt lat="29.5312446" lon="103.3275123"><ele>2743.91</ele><time>2026-06-13T12:30:00.000Z</time></trkpt>
        <trkpt lat="29.5312194" lon="103.3274026"><ele>2747.86</ele><time>2026-06-13T12:30:16.000Z</time></trkpt>
        <trkpt lat="29.5312466" lon="103.3273042"><ele>2750.07</ele><time>2026-06-13T12:30:28.000Z</time></trkpt>
        <trkpt lat="29.5312693" lon="103.3272424"><ele>2752.15</ele><time>2026-06-13T12:30:38.000Z</time></trkpt>
        <trkpt lat="29.5312412" lon="103.3271619"><ele>2753.42</ele><time>2026-06-13T12:31:04.000Z</time></trkpt>
        <trkpt lat="29.5311746" lon="103.3270886"><ele>2755.82</ele><time>2026-06-13T12:31:24.000Z</time></trkpt>
        <trkpt lat="29.5310885" lon="103.3270288"><ele>2757.1</ele><time>2026-06-13T12:31:40.000Z</time></trkpt>
        <trkpt lat="29.5309985" lon="103.3269648"><ele>2757.88</ele><time>2026-06-13T12:31:50.000Z</time></trkpt>
        <trkpt lat="29.5309037" lon="103.3268982"><ele>2757.93</ele><time>2026-06-13T12:32:02.000Z</time></trkpt>
        <trkpt lat="29.5308238" lon="103.3268717"><ele>2756.37</ele><time>2026-06-13T12:32:12.000Z</time></trkpt>
        <trkpt lat="29.530758" lon="103.3268122"><ele>2754.4</ele><time>2026-06-13T12:32:50.000Z</time></trkpt>
        <trkpt lat="29.5306671" lon="103.3268035"><ele>2755.99</ele><time>2026-06-13T12:33:14.000Z</time></trkpt>
        <trkpt lat="29.5305763" lon="103.3268229"><ele>2757.29</ele><time>2026-06-13T12:33:28.000Z</time></trkpt>
        <trkpt lat="29.5304825" lon="103.3268575"><ele>2758.54</ele><time>2026-06-13T12:33:44.000Z</time></trkpt>
        <trkpt lat="29.5303919" lon="103.3268862"><ele>2759.51</ele><time>2026-06-13T12:34:02.000Z</time></trkpt>
        <trkpt lat="29.5303017" lon="103.3269265"><ele>2759.76</ele><time>2026-06-13T12:34:20.000Z</time></trkpt>
        <trkpt lat="29.5302116" lon="103.3269703"><ele>2760.04</ele><time>2026-06-13T12:34:34.000Z</time></trkpt>
        <trkpt lat="29.5301179" lon="103.3270266"><ele>2760.24</ele><time>2026-06-13T12:34:48.000Z</time></trkpt>
        <trkpt lat="29.5300278" lon="103.3270906"><ele>2759.88</ele><time>2026-06-13T12:35:02.000Z</time></trkpt>
        <trkpt lat="29.5299442" lon="103.3271487"><ele>2758.85</ele><time>2026-06-13T12:35:12.000Z</time></trkpt>
        <trkpt lat="29.5298554" lon="103.3272037"><ele>2757.07</ele><time>2026-06-13T12:35:24.000Z</time></trkpt>
        <trkpt lat="29.5298044" lon="103.3272949"><ele>2755.32</ele><time>2026-06-13T12:35:44.000Z</time></trkpt>
        <trkpt lat="29.529766" lon="103.3273968"><ele>2753.59</ele><time>2026-06-13T12:35:54.000Z</time></trkpt>
        <trkpt lat="29.5297326" lon="103.3275008"><ele>2752.52</ele><time>2026-06-13T12:36:16.000Z</time></trkpt>
        <trkpt lat="29.5296631" lon="103.327565"><ele>2752.73</ele><time>2026-06-13T12:36:38.000Z</time></trkpt>
        <trkpt lat="29.5295691" lon="103.3275825"><ele>2755.42</ele><time>2026-06-13T12:36:46.000Z</time></trkpt>
        <trkpt lat="29.5294724" lon="103.3275569"><ele>2758.25</ele><time>2026-06-13T12:36:56.000Z</time></trkpt>
        <trkpt lat="29.5293744" lon="103.3275404"><ele>2761.24</ele><time>2026-06-13T12:37:06.000Z</time></trkpt>
        <trkpt lat="29.5292759" lon="103.3275527"><ele>2763.16</ele><time>2026-06-13T12:37:18.000Z</time></trkpt>
        <trkpt lat="29.5292104" lon="103.3276235"><ele>2764.55</ele><time>2026-06-13T12:37:28.000Z</time></trkpt>
        <trkpt lat="29.5291537" lon="103.3277138"><ele>2764.49</ele><time>2026-06-13T12:37:38.000Z</time></trkpt>
        <trkpt lat="29.5290961" lon="103.3278039"><ele>2764.19</ele><time>2026-06-13T12:37:48.000Z</time></trkpt>
        <trkpt lat="29.529038" lon="103.3278885"><ele>2762.9</ele><time>2026-06-13T12:38:04.000Z</time></trkpt>
        <trkpt lat="29.5289842" lon="103.327987"><ele>2761.57</ele><time>2026-06-13T12:38:22.000Z</time></trkpt>
        <trkpt lat="29.5289392" lon="103.3280952"><ele>2759.39</ele><time>2026-06-13T12:38:34.000Z</time></trkpt>
        <trkpt lat="29.5289507" lon="103.3282032"><ele>2757.29</ele><time>2026-06-13T12:38:56.000Z</time></trkpt>
        <trkpt lat="29.5289823" lon="103.3283115"><ele>2755.1</ele><time>2026-06-13T12:39:18.000Z</time></trkpt>
        <trkpt lat="29.5289863" lon="103.3284217"><ele>2754.54</ele><time>2026-06-13T12:39:40.000Z</time></trkpt>
        <trkpt lat="29.5289762" lon="103.3285336"><ele>2754.91</ele><time>2026-06-13T12:39:56.000Z</time></trkpt>
        <trkpt lat="29.5289283" lon="103.3286283"><ele>2756.02</ele><time>2026-06-13T12:40:06.000Z</time></trkpt>
        <trkpt lat="29.5288685" lon="103.3287177"><ele>2757.13</ele><time>2026-06-13T12:40:18.000Z</time></trkpt>
        <trkpt lat="29.5288282" lon="103.3288198"><ele>2757.94</ele><time>2026-06-13T12:40:30.000Z</time></trkpt>
        <trkpt lat="29.5287907" lon="103.3289235"><ele>2758.09</ele><time>2026-06-13T12:40:42.000Z</time></trkpt>
        <trkpt lat="29.5287416" lon="103.3290237"><ele>2757.45</ele><time>2026-06-13T12:40:56.000Z</time></trkpt>
        <trkpt lat="29.5286907" lon="103.3291186"><ele>2756.91</ele><time>2026-06-13T12:41:08.000Z</time></trkpt>
        <trkpt lat="29.5286697" lon="103.3292279"><ele>2756.43</ele><time>2026-06-13T12:41:26.000Z</time></trkpt>
        <trkpt lat="29.5286725" lon="103.3293366"><ele>2755.73</ele><time>2026-06-13T12:41:40.000Z</time></trkpt>
        <trkpt lat="29.5286701" lon="103.3294544"><ele>2755.93</ele><time>2026-06-13T12:41:56.000Z</time></trkpt>
        <trkpt lat="29.5286838" lon="103.3295652"><ele>2758.71</ele><time>2026-06-13T12:42:08.000Z</time></trkpt>
        <trkpt lat="29.5286173" lon="103.3296465"><ele>2763.23</ele><time>2026-06-13T12:42:30.000Z</time></trkpt>
        <trkpt lat="29.5285503" lon="103.3297284"><ele>2771.09</ele><time>2026-06-13T12:42:40.000Z</time></trkpt>
        <trkpt lat="29.5284581" lon="103.329787"><ele>2775.78</ele><time>2026-06-13T12:42:46.000Z</time></trkpt>
        <trkpt lat="29.5283824" lon="103.3298756"><ele>2778.46</ele><time>2026-06-13T12:43:06.000Z</time></trkpt>
        <trkpt lat="29.5283552" lon="103.3299818"><ele>2778.04</ele><time>2026-06-13T12:43:12.000Z</time></trkpt>
        <trkpt lat="29.5283562" lon="103.3300913"><ele>2777.94</ele><time>2026-06-13T12:43:18.000Z</time></trkpt>
        <trkpt lat="29.5283662" lon="103.3302206"><ele>2777.28</ele><time>2026-06-13T12:43:24.000Z</time></trkpt>
        <trkpt lat="29.5283855" lon="103.33035"><ele>2776.64</ele><time>2026-06-13T12:43:34.000Z</time></trkpt>
        <trkpt lat="29.5284137" lon="103.3304703"><ele>2775.68</ele><time>2026-06-13T12:43:44.000Z</time></trkpt>
        <trkpt lat="29.5283909" lon="103.3305715"><ele>2774.74</ele><time>2026-06-13T12:43:58.000Z</time></trkpt>
        <trkpt lat="29.5283458" lon="103.3306632"><ele>2775.63</ele><time>2026-06-13T12:44:10.000Z</time></trkpt>
        <trkpt lat="29.5282569" lon="103.3306725"><ele>2775.87</ele><time>2026-06-13T12:44:38.000Z</time></trkpt>
        <trkpt lat="29.5281983" lon="103.3307491"><ele>2777.26</ele><time>2026-06-13T12:45:00.000Z</time></trkpt>
        <trkpt lat="29.5281456" lon="103.3308441"><ele>2778.57</ele><time>2026-06-13T12:45:12.000Z</time></trkpt>
        <trkpt lat="29.528094" lon="103.3309436"><ele>2779.1</ele><time>2026-06-13T12:45:32.000Z</time></trkpt>
        <trkpt lat="29.5280164" lon="103.3310144"><ele>2778.93</ele><time>2026-06-13T12:45:56.000Z</time></trkpt>
        <trkpt lat="29.5279455" lon="103.3310913"><ele>2777.24</ele><time>2026-06-13T12:46:18.000Z</time></trkpt>
        <trkpt lat="29.5278832" lon="103.3311713"><ele>2775.11</ele><time>2026-06-13T12:46:32.000Z</time></trkpt>
        <trkpt lat="29.5278321" lon="103.331284"><ele>2773.6</ele><time>2026-06-13T12:46:46.000Z</time></trkpt>
        <trkpt lat="29.5278022" lon="103.3314023"><ele>2771.92</ele><time>2026-06-13T12:47:06.000Z</time></trkpt>
        <trkpt lat="29.5277956" lon="103.3314545"><ele>2769.98</ele><time>2026-06-13T12:47:08.000Z</time></trkpt>
        <trkpt lat="29.5277922" lon="103.3315438"><ele>2768.7</ele><time>2026-06-13T12:47:16.000Z</time></trkpt>
        <trkpt lat="29.5277653" lon="103.3316484"><ele>2767.84</ele><time>2026-06-13T12:47:28.000Z</time></trkpt>
        <trkpt lat="29.5276897" lon="103.3317131"><ele>2766.57</ele><time>2026-06-13T12:47:44.000Z</time></trkpt>
        <trkpt lat="29.5276345" lon="103.3317958"><ele>2764.74</ele><time>2026-06-13T12:48:22.000Z</time></trkpt>
        <trkpt lat="29.5276536" lon="103.3318969"><ele>2764.42</ele><time>2026-06-13T12:48:36.000Z</time></trkpt>
        <trkpt lat="29.5276677" lon="103.3320132"><ele>2764.88</ele><time>2026-06-13T12:48:52.000Z</time></trkpt>
        <trkpt lat="29.5276086" lon="103.3320839"><ele>2766.91</ele><time>2026-06-13T12:49:06.000Z</time></trkpt>
        <trkpt lat="29.5275085" lon="103.3320665"><ele>2767.55</ele><time>2026-06-13T12:49:56.000Z</time></trkpt>
        <trkpt lat="29.5274014" lon="103.3320473"><ele>2766.2</ele><time>2026-06-13T12:50:02.000Z</time></trkpt>
        <trkpt lat="29.5273107" lon="103.3320885"><ele>2766.33</ele><time>2026-06-13T12:50:08.000Z</time></trkpt>
        <trkpt lat="29.5272185" lon="103.3320684"><ele>2768.29</ele><time>2026-06-13T12:50:20.000Z</time></trkpt>
        <trkpt lat="29.5271498" lon="103.3321745"><ele>2769.72</ele><time>2026-06-13T12:50:26.000Z</time></trkpt>
        <trkpt lat="29.5271126" lon="103.3322993"><ele>2770.74</ele><time>2026-06-13T12:50:30.000Z</time></trkpt>
        <trkpt lat="29.5270645" lon="103.3322786"><ele>2771.67</ele><time>2026-06-13T12:50:44.000Z</time></trkpt>
        <trkpt lat="29.5270927" lon="103.3321934"><ele>2773.23</ele><time>2026-06-13T12:51:22.000Z</time></trkpt>
        <trkpt lat="29.5271594" lon="103.3322157"><ele>2776.96</ele><time>2026-06-13T12:51:46.000Z</time></trkpt>
        <trkpt lat="29.5271781" lon="103.3323064"><ele>2778.14</ele><time>2026-06-13T12:52:04.000Z</time></trkpt>
        <trkpt lat="29.5272261" lon="103.332401"><ele>2776.87</ele><time>2026-06-13T12:52:30.000Z</time></trkpt>
        <trkpt lat="29.5272111" lon="103.3325133"><ele>2774.95</ele><time>2026-06-13T12:52:42.000Z</time></trkpt>
        <trkpt lat="29.5271516" lon="103.3326154"><ele>2772.86</ele><time>2026-06-13T12:52:52.000Z</time></trkpt>
        <trkpt lat="29.527071" lon="103.3326975"><ele>2770.6</ele><time>2026-06-13T12:53:02.000Z</time></trkpt>
        <trkpt lat="29.5270128" lon="103.3327553"><ele>2767.2</ele><time>2026-06-13T12:53:08.000Z</time></trkpt>
        <trkpt lat="29.5269373" lon="103.3328048"><ele>2763.89</ele><time>2026-06-13T12:53:20.000Z</time></trkpt>
        <trkpt lat="29.5268646" lon="103.3328656"><ele>2759.33</ele><time>2026-06-13T12:53:36.000Z</time></trkpt>
        <trkpt lat="29.5267841" lon="103.3329281"><ele>2755.23</ele><time>2026-06-13T12:54:00.000Z</time></trkpt>
        <trkpt lat="29.5266975" lon="103.332965"><ele>2752.51</ele><time>2026-06-13T12:54:10.000Z</time></trkpt>
        <trkpt lat="29.5266069" lon="103.3329888"><ele>2750.78</ele><time>2026-06-13T12:54:22.000Z</time></trkpt>
        <trkpt lat="29.5265092" lon="103.3329816"><ele>2750.19</ele><time>2026-06-13T12:54:56.000Z</time></trkpt>
        <trkpt lat="29.5264108" lon="103.3329795"><ele>2751.01</ele><time>2026-06-13T12:55:10.000Z</time></trkpt>
        <trkpt lat="29.5263128" lon="103.3329994"><ele>2751.95</ele><time>2026-06-13T12:55:20.000Z</time></trkpt>
        <trkpt lat="29.5262192" lon="103.3330257"><ele>2752.36</ele><time>2026-06-13T12:55:32.000Z</time></trkpt>
        <trkpt lat="29.5261273" lon="103.3330363"><ele>2752.94</ele><time>2026-06-13T12:55:52.000Z</time></trkpt>
        <trkpt lat="29.5260272" lon="103.3330654"><ele>2754.04</ele><time>2026-06-13T12:56:06.000Z</time></trkpt>
        <trkpt lat="29.5259464" lon="103.3331231"><ele>2754.93</ele><time>2026-06-13T12:56:22.000Z</time></trkpt>
        <trkpt lat="29.5258606" lon="103.3331492"><ele>2756.33</ele><time>2026-06-13T12:56:34.000Z</time></trkpt>
        <trkpt lat="29.5257607" lon="103.3331792"><ele>2758.73</ele><time>2026-06-13T12:56:50.000Z</time></trkpt>
        <trkpt lat="29.5256631" lon="103.3331989"><ele>2761.13</ele><time>2026-06-13T12:57:06.000Z</time></trkpt>
        <trkpt lat="29.5255707" lon="103.3332412"><ele>2763.27</ele><time>2026-06-13T12:57:22.000Z</time></trkpt>
        <trkpt lat="29.5254867" lon="103.3332862"><ele>2763.8</ele><time>2026-06-13T12:57:38.000Z</time></trkpt>
        <trkpt lat="29.5253981" lon="103.3333263"><ele>2762.64</ele><time>2026-06-13T12:57:58.000Z</time></trkpt>
        <trkpt lat="29.5253085" lon="103.3333602"><ele>2760</ele><time>2026-06-13T12:58:14.000Z</time></trkpt>
        <trkpt lat="29.5252186" lon="103.3333492"><ele>2756.64</ele><time>2026-06-13T12:58:30.000Z</time></trkpt>
        <trkpt lat="29.5251385" lon="103.333396"><ele>2753.66</ele><time>2026-06-13T12:58:52.000Z</time></trkpt>
        <trkpt lat="29.5251285" lon="103.3334953"><ele>2749.85</ele><time>2026-06-13T12:59:04.000Z</time></trkpt>
        <trkpt lat="29.5250884" lon="103.3335869"><ele>2746.21</ele><time>2026-06-13T12:59:18.000Z</time></trkpt>
        <trkpt lat="29.5250095" lon="103.3336119"><ele>2742.72</ele><time>2026-06-13T12:59:36.000Z</time></trkpt>
        <trkpt lat="29.5249095" lon="103.3336209"><ele>2738.88</ele><time>2026-06-13T12:59:56.000Z</time></trkpt>
        <trkpt lat="29.524815" lon="103.3336469"><ele>2736.22</ele><time>2026-06-13T13:00:06.000Z</time></trkpt>
        <trkpt lat="29.5247196" lon="103.3336991"><ele>2735.05</ele><time>2026-06-13T13:00:14.000Z</time></trkpt>
        <trkpt lat="29.5246297" lon="103.333751"><ele>2738.26</ele><time>2026-06-13T13:00:26.000Z</time></trkpt>
        <trkpt lat="29.5245349" lon="103.3337916"><ele>2741.07</ele><time>2026-06-13T13:00:34.000Z</time></trkpt>
        <trkpt lat="29.5244356" lon="103.3338112"><ele>2742.8</ele><time>2026-06-13T13:00:42.000Z</time></trkpt>
        <trkpt lat="29.5243412" lon="103.3338158"><ele>2743.96</ele><time>2026-06-13T13:00:50.000Z</time></trkpt>
        <trkpt lat="29.5242453" lon="103.333815"><ele>2745.05</ele><time>2026-06-13T13:00:58.000Z</time></trkpt>
        <trkpt lat="29.5241412" lon="103.3338137"><ele>2745.93</ele><time>2026-06-13T13:01:08.000Z</time></trkpt>
        <trkpt lat="29.5240379" lon="103.3338083"><ele>2746.78</ele><time>2026-06-13T13:01:18.000Z</time></trkpt>
        <trkpt lat="29.5239429" lon="103.3338008"><ele>2749.67</ele><time>2026-06-13T13:01:28.000Z</time></trkpt>
        <trkpt lat="29.5238349" lon="103.3338018"><ele>2754.63</ele><time>2026-06-13T13:01:40.000Z</time></trkpt>
        <trkpt lat="29.5237405" lon="103.3338189"><ele>2758.88</ele><time>2026-06-13T13:01:48.000Z</time></trkpt>
        <trkpt lat="29.5236366" lon="103.3338165"><ele>2763.02</ele><time>2026-06-13T13:01:58.000Z</time></trkpt>
        <trkpt lat="29.5235301" lon="103.3338073"><ele>2765.55</ele><time>2026-06-13T13:02:10.000Z</time></trkpt>
        <trkpt lat="29.5234304" lon="103.3338099"><ele>2766.52</ele><time>2026-06-13T13:02:24.000Z</time></trkpt>
        <trkpt lat="29.5233334" lon="103.3337899"><ele>2767.2</ele><time>2026-06-13T13:02:34.000Z</time></trkpt>
        <trkpt lat="29.5232485" lon="103.3338252"><ele>2767.16</ele><time>2026-06-13T13:02:44.000Z</time></trkpt>
        <trkpt lat="29.5232153" lon="103.3339293"><ele>2768.08</ele><time>2026-06-13T13:02:54.000Z</time></trkpt>
        <trkpt lat="29.5232165" lon="103.3340487"><ele>2768.69</ele><time>2026-06-13T13:03:10.000Z</time></trkpt>
        <trkpt lat="29.5231769" lon="103.3341535"><ele>2772.09</ele><time>2026-06-13T13:03:26.000Z</time></trkpt>
        <trkpt lat="29.5231138" lon="103.3342407"><ele>2781.04</ele><time>2026-06-13T13:03:44.000Z</time></trkpt>
        <trkpt lat="29.5230787" lon="103.3343392"><ele>2786.53</ele><time>2026-06-13T13:03:54.000Z</time></trkpt>
        <trkpt lat="29.5230115" lon="103.3342957"><ele>2790.43</ele><time>2026-06-13T13:04:06.000Z</time></trkpt>
        <trkpt lat="29.5229381" lon="103.3342149"><ele>2795.28</ele><time>2026-06-13T13:04:12.000Z</time></trkpt>
        <trkpt lat="29.5228337" lon="103.3342558"><ele>2799.46</ele><time>2026-06-13T13:04:32.000Z</time></trkpt>
        <trkpt lat="29.5228337" lon="103.3342558"><ele>2799.46</ele><time>2026-06-13T13:04:35.000Z</time></trkpt>
        <trkpt lat="29.5228337" lon="103.3342558"><ele>2799.46</ele><time>2026-06-13T13:04:38.000Z</time></trkpt>
        <trkpt lat="29.5228337" lon="103.3342558"><ele>2799.46</ele><time>2026-06-13T13:04:40.000Z</time></trkpt>
        <trkpt lat="29.5228337" lon="103.3342558"><ele>2799.46</ele><time>2026-06-13T13:04:42.000Z</time></trkpt>
        <trkpt lat="29.5228337" lon="103.3342558"><ele>2799.46</ele><time>2026-06-13T13:04:44.000Z</time></trkpt>
      </trkseg>
      <trkseg>
        <trkpt lat="29.5227803" lon="103.334366"><ele>2818.28</ele><time>2026-06-13T13:04:46.000Z</time></trkpt>
        <trkpt lat="29.5227803" lon="103.334366"><ele>2818.28</ele><time>2026-06-13T13:04:46.000Z</time></trkpt>
        <trkpt lat="29.5227803" lon="103.334366"><ele>2818.28</ele><time>2026-06-13T13:04:48.000Z</time></trkpt>
        <trkpt lat="29.5227803" lon="103.334366"><ele>2818.28</ele><time>2026-06-13T13:04:50.000Z</time></trkpt>
        <trkpt lat="29.5227803" lon="103.334366"><ele>2818.28</ele><time>2026-06-13T13:04:55.000Z</time></trkpt>
      </trkseg>
      <trkseg>
        <trkpt lat="29.5220233" lon="103.3345783"><ele>2991.9</ele><time>2026-06-13T16:15:39.000Z</time></trkpt>
        <trkpt lat="29.5220233" lon="103.3345783"><ele>2991.9</ele><time>2026-06-13T16:15:43.000Z</time></trkpt>
        <trkpt lat="29.5219279" lon="103.3345267"><ele>2991.9</ele><time>2026-06-13T16:15:49.000Z</time></trkpt>
        <trkpt lat="29.5218409" lon="103.3344474"><ele>2991.08</ele><time>2026-06-13T16:15:57.000Z</time></trkpt>
        <trkpt lat="29.5218409" lon="103.3344474"><ele>2991.08</ele><time>2026-06-13T16:16:08.000Z</time></trkpt>
        <trkpt lat="29.5217614" lon="103.334362"><ele>2990.32</ele><time>2026-06-13T16:16:09.000Z</time></trkpt>
        <trkpt lat="29.5217614" lon="103.334362"><ele>2990.32</ele><time>2026-06-13T16:16:11.000Z</time></trkpt>
        <trkpt lat="29.5216835" lon="103.3342614"><ele>2992.03</ele><time>2026-06-13T16:16:19.000Z</time></trkpt>
        <trkpt lat="29.5216095" lon="103.3341871"><ele>2993.52</ele><time>2026-06-13T16:16:27.000Z</time></trkpt>
        <trkpt lat="29.521518" lon="103.3341703"><ele>2993.38</ele><time>2026-06-13T16:16:33.000Z</time></trkpt>
        <trkpt lat="29.5214297" lon="103.3342075"><ele>2992.7</ele><time>2026-06-13T16:16:39.000Z</time></trkpt>
        <trkpt lat="29.5213434" lon="103.3342533"><ele>2990.98</ele><time>2026-06-13T16:16:45.000Z</time></trkpt>
        <trkpt lat="29.5212531" lon="103.3343225"><ele>2989.18</ele><time>2026-06-13T16:16:51.000Z</time></trkpt>
        <trkpt lat="29.5211424" lon="103.3343835"><ele>2987.43</ele><time>2026-06-13T16:16:59.000Z</time></trkpt>
        <trkpt lat="29.5210372" lon="103.3344347"><ele>2985.82</ele><time>2026-06-13T16:17:05.000Z</time></trkpt>
        <trkpt lat="29.5209426" lon="103.3344639"><ele>2984.57</ele><time>2026-06-13T16:17:11.000Z</time></trkpt>
        <trkpt lat="29.5208461" lon="103.3344635"><ele>2983.12</ele><time>2026-06-13T16:17:17.000Z</time></trkpt>
        <trkpt lat="29.5207521" lon="103.33449"><ele>2981.73</ele><time>2026-06-13T16:17:25.000Z</time></trkpt>
        <trkpt lat="29.5206503" lon="103.3344746"><ele>2979.87</ele><time>2026-06-13T16:17:45.000Z</time></trkpt>
        <trkpt lat="29.5205467" lon="103.3344512"><ele>2979.24</ele><time>2026-06-13T16:17:51.000Z</time></trkpt>
        <trkpt lat="29.5204427" lon="103.3344295"><ele>2978.49</ele><time>2026-06-13T16:17:59.000Z</time></trkpt>
        <trkpt lat="29.5203363" lon="103.334405"><ele>2976.86</ele><time>2026-06-13T16:18:07.000Z</time></trkpt>
        <trkpt lat="29.5202393" lon="103.3343526"><ele>2974.6</ele><time>2026-06-13T16:18:17.000Z</time></trkpt>
        <trkpt lat="29.5201459" lon="103.3343044"><ele>2971.37</ele><time>2026-06-13T16:18:25.000Z</time></trkpt>
        <trkpt lat="29.5200546" lon="103.3342396"><ele>2967.3</ele><time>2026-06-13T16:18:33.000Z</time></trkpt>
        <trkpt lat="29.5199575" lon="103.3341906"><ele>2963.77</ele><time>2026-06-13T16:18:41.000Z</time></trkpt>
        <trkpt lat="29.5198692" lon="103.3341087"><ele>2961.03</ele><time>2026-06-13T16:18:49.000Z</time></trkpt>
        <trkpt lat="29.5198068" lon="103.3340195"><ele>2958.44</ele><time>2026-06-13T16:18:55.000Z</time></trkpt>
        <trkpt lat="29.5197447" lon="103.3339332"><ele>2956.57</ele><time>2026-06-13T16:19:01.000Z</time></trkpt>
        <trkpt lat="29.5196935" lon="103.3338267"><ele>2955.12</ele><time>2026-06-13T16:19:07.000Z</time></trkpt>
        <trkpt lat="29.5196292" lon="103.3337359"><ele>2953.82</ele><time>2026-06-13T16:19:15.000Z</time></trkpt>
        <trkpt lat="29.5195729" lon="103.333641"><ele>2953.25</ele><time>2026-06-13T16:19:23.000Z</time></trkpt>
        <trkpt lat="29.5195183" lon="103.3335544"><ele>2953.7</ele><time>2026-06-13T16:19:29.000Z</time></trkpt>
        <trkpt lat="29.5194364" lon="103.3335099"><ele>2954.73</ele><time>2026-06-13T16:19:41.000Z</time></trkpt>
        <trkpt lat="29.5193469" lon="103.3334728"><ele>2957.21</ele><time>2026-06-13T16:19:53.000Z</time></trkpt>
        <trkpt lat="29.5192558" lon="103.333431"><ele>2961.04</ele><time>2026-06-13T16:20:09.000Z</time></trkpt>
        <trkpt lat="29.5191866" lon="103.3333394"><ele>2966.14</ele><time>2026-06-13T16:20:43.000Z</time></trkpt>
        <trkpt lat="29.5191462" lon="103.3332201"><ele>2970.55</ele><time>2026-06-13T16:20:51.000Z</time></trkpt>
        <trkpt lat="29.5191216" lon="103.3331031"><ele>2972.16</ele><time>2026-06-13T16:20:59.000Z</time></trkpt>
        <trkpt lat="29.5190883" lon="103.3329923"><ele>2971.71</ele><time>2026-06-13T16:21:09.000Z</time></trkpt>
        <trkpt lat="29.5190061" lon="103.3329326"><ele>2969.64</ele><time>2026-06-13T16:21:17.000Z</time></trkpt>
        <trkpt lat="29.5189129" lon="103.332892"><ele>2967.69</ele><time>2026-06-13T16:21:25.000Z</time></trkpt>
        <trkpt lat="29.5188069" lon="103.3328696"><ele>2966.32</ele><time>2026-06-13T16:21:35.000Z</time></trkpt>
        <trkpt lat="29.5187043" lon="103.33284"><ele>2966.18</ele><time>2026-06-13T16:21:43.000Z</time></trkpt>
        <trkpt lat="29.5186009" lon="103.3328031"><ele>2966.53</ele><time>2026-06-13T16:21:51.000Z</time></trkpt>
        <trkpt lat="29.5185054" lon="103.3327339"><ele>2967.29</ele><time>2026-06-13T16:21:59.000Z</time></trkpt>
        <trkpt lat="29.5184232" lon="103.3326491"><ele>2968.5</ele><time>2026-06-13T16:22:07.000Z</time></trkpt>
        <trkpt lat="29.518342" lon="103.3325691"><ele>2970.01</ele><time>2026-06-13T16:22:21.000Z</time></trkpt>
        <trkpt lat="29.5182728" lon="103.3324752"><ele>2971.16</ele><time>2026-06-13T16:22:29.000Z</time></trkpt>
        <trkpt lat="29.5181924" lon="103.3324056"><ele>2971.78</ele><time>2026-06-13T16:22:37.000Z</time></trkpt>
        <trkpt lat="29.5180945" lon="103.3323723"><ele>2972.99</ele><time>2026-06-13T16:22:45.000Z</time></trkpt>
        <trkpt lat="29.5179941" lon="103.3324016"><ele>2974.8</ele><time>2026-06-13T16:22:53.000Z</time></trkpt>
        <trkpt lat="29.5178913" lon="103.3324565"><ele>2976.09</ele><time>2026-06-13T16:23:01.000Z</time></trkpt>
        <trkpt lat="29.5177971" lon="103.3325173"><ele>2977.04</ele><time>2026-06-13T16:23:09.000Z</time></trkpt>
        <trkpt lat="29.5177177" lon="103.3326001"><ele>2977.76</ele><time>2026-06-13T16:23:17.000Z</time></trkpt>
        <trkpt lat="29.5176436" lon="103.3326885"><ele>2978.63</ele><time>2026-06-13T16:23:25.000Z</time></trkpt>
        <trkpt lat="29.5175793" lon="103.3327753"><ele>2979.65</ele><time>2026-06-13T16:23:33.000Z</time></trkpt>
        <trkpt lat="29.5175027" lon="103.3328499"><ele>2980.58</ele><time>2026-06-13T16:23:41.000Z</time></trkpt>
        <trkpt lat="29.5174282" lon="103.3329192"><ele>2981.06</ele><time>2026-06-13T16:23:49.000Z</time></trkpt>
        <trkpt lat="29.5173496" lon="103.3329819"><ele>2980.39</ele><time>2026-06-13T16:23:57.000Z</time></trkpt>
        <trkpt lat="29.5172645" lon="103.3330476"><ele>2978.8</ele><time>2026-06-13T16:24:05.000Z</time></trkpt>
        <trkpt lat="29.517176" lon="103.3330911"><ele>2976.99</ele><time>2026-06-13T16:24:13.000Z</time></trkpt>
        <trkpt lat="29.5170842" lon="103.333113"><ele>2975.45</ele><time>2026-06-13T16:24:21.000Z</time></trkpt>
        <trkpt lat="29.5169866" lon="103.3330994"><ele>2974.31</ele><time>2026-06-13T16:24:29.000Z</time></trkpt>
        <trkpt lat="29.5168885" lon="103.3330585"><ele>2973.92</ele><time>2026-06-13T16:24:37.000Z</time></trkpt>
        <trkpt lat="29.5167934" lon="103.3330217"><ele>2973.78</ele><time>2026-06-13T16:24:45.000Z</time></trkpt>
        <trkpt lat="29.5167096" lon="103.332947"><ele>2974.22</ele><time>2026-06-13T16:24:57.000Z</time></trkpt>
        <trkpt lat="29.5166425" lon="103.3328598"><ele>2974.77</ele><time>2026-06-13T16:25:05.000Z</time></trkpt>
        <trkpt lat="29.5165746" lon="103.3327797"><ele>2975.08</ele><time>2026-06-13T16:25:13.000Z</time></trkpt>
        <trkpt lat="29.5164977" lon="103.3327168"><ele>2975.82</ele><time>2026-06-13T16:25:23.000Z</time></trkpt>
        <trkpt lat="29.5164256" lon="103.3326384"><ele>2976.59</ele><time>2026-06-13T16:25:31.000Z</time></trkpt>
        <trkpt lat="29.5163742" lon="103.3325363"><ele>2976.33</ele><time>2026-06-13T16:25:41.000Z</time></trkpt>
        <trkpt lat="29.5163315" lon="103.3324199"><ele>2975.16</ele><time>2026-06-13T16:25:49.000Z</time></trkpt>
        <trkpt lat="29.5162632" lon="103.3323148"><ele>2974.79</ele><time>2026-06-13T16:25:59.000Z</time></trkpt>
        <trkpt lat="29.5161994" lon="103.3322256"><ele>2976.39</ele><time>2026-06-13T16:26:07.000Z</time></trkpt>
        <trkpt lat="29.5161356" lon="103.3321473"><ele>2978.16</ele><time>2026-06-13T16:26:15.000Z</time></trkpt>
        <trkpt lat="29.5160707" lon="103.3320599"><ele>2980.24</ele><time>2026-06-13T16:26:23.000Z</time></trkpt>
        <trkpt lat="29.516003" lon="103.331963"><ele>2981.86</ele><time>2026-06-13T16:26:31.000Z</time></trkpt>
        <trkpt lat="29.5159493" lon="103.3318515"><ele>2983.55</ele><time>2026-06-13T16:26:39.000Z</time></trkpt>
        <trkpt lat="29.5158861" lon="103.3317689"><ele>2985.16</ele><time>2026-06-13T16:26:47.000Z</time></trkpt>
        <trkpt lat="29.5158236" lon="103.3316904"><ele>2986.17</ele><time>2026-06-13T16:26:53.000Z</time></trkpt>
        <trkpt lat="29.5157654" lon="103.3315999"><ele>2986.74</ele><time>2026-06-13T16:26:59.000Z</time></trkpt>
        <trkpt lat="29.515695" lon="103.3315079"><ele>2986.81</ele><time>2026-06-13T16:27:07.000Z</time></trkpt>
        <trkpt lat="29.5155924" lon="103.3314571"><ele>2986.25</ele><time>2026-06-13T16:27:15.000Z</time></trkpt>
        <trkpt lat="29.5154837" lon="103.3314352"><ele>2985.67</ele><time>2026-06-13T16:27:23.000Z</time></trkpt>
        <trkpt lat="29.5153697" lon="103.3314381"><ele>2985.08</ele><time>2026-06-13T16:27:33.000Z</time></trkpt>
        <trkpt lat="29.5152589" lon="103.3314661"><ele>2984.53</ele><time>2026-06-13T16:27:41.000Z</time></trkpt>
        <trkpt lat="29.5151505" lon="103.3315004"><ele>2983.44</ele><time>2026-06-13T16:27:49.000Z</time></trkpt>
        <trkpt lat="29.5150469" lon="103.3315167"><ele>2981.7</ele><time>2026-06-13T16:27:55.000Z</time></trkpt>
        <trkpt lat="29.5149328" lon="103.3315119"><ele>2979.98</ele><time>2026-06-13T16:28:01.000Z</time></trkpt>
        <trkpt lat="29.5148396" lon="103.331472"><ele>2978.53</ele><time>2026-06-13T16:28:07.000Z</time></trkpt>
        <trkpt lat="29.5147594" lon="103.3314041"><ele>2977.53</ele><time>2026-06-13T16:28:13.000Z</time></trkpt>
        <trkpt lat="29.514682" lon="103.3313209"><ele>2977.34</ele><time>2026-06-13T16:28:19.000Z</time></trkpt>
        <trkpt lat="29.5145992" lon="103.3312514"><ele>2978.27</ele><time>2026-06-13T16:28:25.000Z</time></trkpt>
        <trkpt lat="29.5144963" lon="103.331208"><ele>2979.75</ele><time>2026-06-13T16:28:33.000Z</time></trkpt>
        <trkpt lat="29.5143958" lon="103.3311947"><ele>2981.36</ele><time>2026-06-13T16:28:41.000Z</time></trkpt>
        <trkpt lat="29.5142911" lon="103.3311887"><ele>2982.58</ele><time>2026-06-13T16:28:49.000Z</time></trkpt>
        <trkpt lat="29.5141952" lon="103.3311718"><ele>2983.88</ele><time>2026-06-13T16:28:55.000Z</time></trkpt>
        <trkpt lat="29.5140892" lon="103.3311494"><ele>2985.44</ele><time>2026-06-13T16:29:03.000Z</time></trkpt>
        <trkpt lat="29.5139743" lon="103.3311359"><ele>2987.1</ele><time>2026-06-13T16:29:11.000Z</time></trkpt>
        <trkpt lat="29.5138766" lon="103.3311372"><ele>2988.99</ele><time>2026-06-13T16:29:17.000Z</time></trkpt>
        <trkpt lat="29.5137871" lon="103.3311635"><ele>2990.63</ele><time>2026-06-13T16:29:23.000Z</time></trkpt>
        <trkpt lat="29.5137239" lon="103.3312504"><ele>2992.12</ele><time>2026-06-13T16:29:31.000Z</time></trkpt>
        <trkpt lat="29.5136846" lon="103.3313552"><ele>2993.06</ele><time>2026-06-13T16:29:37.000Z</time></trkpt>
        <trkpt lat="29.5136471" lon="103.3314584"><ele>2993.42</ele><time>2026-06-13T16:29:43.000Z</time></trkpt>
        <trkpt lat="29.513598" lon="103.3315764"><ele>2993.37</ele><time>2026-06-13T16:29:51.000Z</time></trkpt>
        <trkpt lat="29.5135396" lon="103.3316507"><ele>2993.17</ele><time>2026-06-13T16:30:11.000Z</time></trkpt>
        <trkpt lat="29.5135396" lon="103.3316507"><ele>2993.17</ele><time>2026-06-13T16:30:36.000Z</time></trkpt>
        <trkpt lat="29.5135396" lon="103.3316507"><ele>2993.17</ele><time>2026-06-13T16:30:37.000Z</time></trkpt>
        <trkpt lat="29.5135396" lon="103.3316507"><ele>2993.17</ele><time>2026-06-13T16:31:00.000Z</time></trkpt>
        <trkpt lat="29.5135396" lon="103.3316507"><ele>2993.17</ele><time>2026-06-13T16:31:05.000Z</time></trkpt>
        <trkpt lat="29.5135396" lon="103.3316507"><ele>2993.17</ele><time>2026-06-13T16:31:18.000Z</time></trkpt>
        <trkpt lat="29.5135396" lon="103.3316507"><ele>2993.17</ele><time>2026-06-13T16:31:25.000Z</time></trkpt>
        <trkpt lat="29.5135396" lon="103.3316507"><ele>2993.17</ele><time>2026-06-13T16:32:32.000Z</time></trkpt>
        <trkpt lat="29.5135396" lon="103.3316507"><ele>2993.17</ele><time>2026-06-13T16:32:37.000Z</time></trkpt>
        <trkpt lat="29.5135396" lon="103.3316507"><ele>2993.17</ele><time>2026-06-13T16:33:54.000Z</time></trkpt>
        <trkpt lat="29.5135396" lon="103.3316507"><ele>2993.17</ele><time>2026-06-13T16:33:57.000Z</time></trkpt>
        <trkpt lat="29.5135396" lon="103.3316507"><ele>2993.17</ele><time>2026-06-13T16:38:40.000Z</time></trkpt>
        <trkpt lat="29.5135396" lon="103.3316507"><ele>2993.17</ele><time>2026-06-13T16:38:43.000Z</time></trkpt>
        <trkpt lat="29.5135396" lon="103.3316507"><ele>2993.17</ele><time>2026-06-13T16:39:50.000Z</time></trkpt>
        <trkpt lat="29.5135396" lon="103.3316507"><ele>2993.17</ele><time>2026-06-13T16:39:53.000Z</time></trkpt>
        <trkpt lat="29.5135396" lon="103.3316507"><ele>2993.17</ele><time>2026-06-13T16:43:32.000Z</time></trkpt>
        <trkpt lat="29.5135396" lon="103.3316507"><ele>2993.17</ele><time>2026-06-13T16:43:39.000Z</time></trkpt>
        <trkpt lat="29.5135396" lon="103.3316507"><ele>2993.17</ele><time>2026-06-13T16:44:14.000Z</time></trkpt>
        <trkpt lat="29.5135396" lon="103.3316507"><ele>2993.17</ele><time>2026-06-13T16:44:15.000Z</time></trkpt>
        <trkpt lat="29.5135396" lon="103.3316507"><ele>2993.17</ele><time>2026-06-13T16:46:12.000Z</time></trkpt>
        <trkpt lat="29.5135396" lon="103.3316507"><ele>2993.17</ele><time>2026-06-13T16:46:17.000Z</time></trkpt>
        <trkpt lat="29.5135396" lon="103.3316507"><ele>2993.17</ele><time>2026-06-13T16:46:48.000Z</time></trkpt>
        <trkpt lat="29.5135396" lon="103.3316507"><ele>2993.17</ele><time>2026-06-13T16:46:53.000Z</time></trkpt>
        <trkpt lat="29.5135396" lon="103.3316507"><ele>2993.17</ele><time>2026-06-13T16:48:28.000Z</time></trkpt>
        <trkpt lat="29.5135396" lon="103.3316507"><ele>2993.17</ele><time>2026-06-13T16:48:31.000Z</time></trkpt>
        <trkpt lat="29.5135396" lon="103.3316507"><ele>2993.17</ele><time>2026-06-13T16:48:40.000Z</time></trkpt>
        <trkpt lat="29.513455" lon="103.3316933"><ele>2993.44</ele><time>2026-06-13T16:48:41.000Z</time></trkpt>
        <trkpt lat="29.513455" lon="103.3316933"><ele>2993.44</ele><time>2026-06-13T16:49:52.000Z</time></trkpt>
        <trkpt lat="29.5133733" lon="103.3317383"><ele>2994.15</ele><time>2026-06-13T16:49:58.000Z</time></trkpt>
        <trkpt lat="29.5132804" lon="103.3317636"><ele>2993.96</ele><time>2026-06-13T16:50:06.000Z</time></trkpt>
        <trkpt lat="29.513188" lon="103.3318046"><ele>2992.9</ele><time>2026-06-13T16:50:12.000Z</time></trkpt>
        <trkpt lat="29.5131309" lon="103.3318932"><ele>2991.27</ele><time>2026-06-13T16:50:22.000Z</time></trkpt>
        <trkpt lat="29.5130728" lon="103.3319786"><ele>2989.95</ele><time>2026-06-13T16:50:32.000Z</time></trkpt>
        <trkpt lat="29.5129977" lon="103.3320402"><ele>2990.4</ele><time>2026-06-13T16:50:48.000Z</time></trkpt>
        <trkpt lat="29.5130081" lon="103.3321282"><ele>2991.05</ele><time>2026-06-13T16:50:56.000Z</time></trkpt>
        <trkpt lat="29.5130452" lon="103.3322301"><ele>2991.2</ele><time>2026-06-13T16:51:06.000Z</time></trkpt>
        <trkpt lat="29.5129975" lon="103.3323122"><ele>2991.46</ele><time>2026-06-13T16:51:20.000Z</time></trkpt>
        <trkpt lat="29.5129412" lon="103.332407"><ele>2992.42</ele><time>2026-06-13T16:51:34.000Z</time></trkpt>
        <trkpt lat="29.5129412" lon="103.332407"><ele>2992.42</ele><time>2026-06-13T16:51:48.000Z</time></trkpt>
        <trkpt lat="29.5129412" lon="103.332407"><ele>2992.42</ele><time>2026-06-13T16:52:17.000Z</time></trkpt>
        <trkpt lat="29.5129412" lon="103.332407"><ele>2992.42</ele><time>2026-06-13T16:52:34.000Z</time></trkpt>
        <trkpt lat="29.51287" lon="103.3325033"><ele>2994.18</ele><time>2026-06-13T16:52:51.000Z</time></trkpt>
        <trkpt lat="29.51287" lon="103.3325033"><ele>2994.18</ele><time>2026-06-13T16:53:21.000Z</time></trkpt>
        <trkpt lat="29.51287" lon="103.3325033"><ele>2994.18</ele><time>2026-06-13T16:53:50.000Z</time></trkpt>
        <trkpt lat="29.51287" lon="103.3325033"><ele>2994.18</ele><time>2026-06-13T16:53:55.000Z</time></trkpt>
        <trkpt lat="29.51287" lon="103.3325033"><ele>2994.18</ele><time>2026-06-13T16:54:10.000Z</time></trkpt>
        <trkpt lat="29.5129333" lon="103.332595"><ele>2998.44</ele><time>2026-06-13T16:54:23.000Z</time></trkpt>
        <trkpt lat="29.5129333" lon="103.332595"><ele>2998.44</ele><time>2026-06-13T16:54:33.000Z</time></trkpt>
        <trkpt lat="29.5129333" lon="103.332595"><ele>2998.44</ele><time>2026-06-13T16:55:04.000Z</time></trkpt>
        <trkpt lat="29.5128167" lon="103.3325967"><ele>3002.73</ele><time>2026-06-13T16:55:07.000Z</time></trkpt>
        <trkpt lat="29.5128167" lon="103.3325967"><ele>3002.73</ele><time>2026-06-13T16:55:34.000Z</time></trkpt>
        <trkpt lat="29.5127067" lon="103.332625"><ele>3005.86</ele><time>2026-06-13T16:55:48.000Z</time></trkpt>
        <trkpt lat="29.5127067" lon="103.332625"><ele>3005.86</ele><time>2026-06-13T16:56:20.000Z</time></trkpt>
        <trkpt lat="29.512595" lon="103.3326517"><ele>3008.46</ele><time>2026-06-13T16:56:23.000Z</time></trkpt>
        <trkpt lat="29.512595" lon="103.3326517"><ele>3008.46</ele><time>2026-06-13T16:56:59.000Z</time></trkpt>
        <trkpt lat="29.5124983" lon="103.3327133"><ele>3022.37</ele><time>2026-06-13T16:57:05.000Z</time></trkpt>
        <trkpt lat="29.5124059" lon="103.3327017"><ele>3026.64</ele><time>2026-06-13T16:57:22.000Z</time></trkpt>
        <trkpt lat="29.5123104" lon="103.3327002"><ele>3025.94</ele><time>2026-06-13T16:57:38.000Z</time></trkpt>
        <trkpt lat="29.5122076" lon="103.3327215"><ele>3026.18</ele><time>2026-06-13T16:57:54.000Z</time></trkpt>
        <trkpt lat="29.5121123" lon="103.3327306"><ele>3027.78</ele><time>2026-06-13T16:58:04.000Z</time></trkpt>
        <trkpt lat="29.5121123" lon="103.3327306"><ele>3027.78</ele><time>2026-06-13T16:58:58.000Z</time></trkpt>
        <trkpt lat="29.5121123" lon="103.3327306"><ele>3027.78</ele><time>2026-06-13T16:59:39.000Z</time></trkpt>
        <trkpt lat="29.5121123" lon="103.3327306"><ele>3027.78</ele><time>2026-06-13T16:59:58.000Z</time></trkpt>
        <trkpt lat="29.5121123" lon="103.3327306"><ele>3027.78</ele><time>2026-06-13T17:04:35.000Z</time></trkpt>
        <trkpt lat="29.5121123" lon="103.3327306"><ele>3027.78</ele><time>2026-06-13T17:04:58.000Z</time></trkpt>
        <trkpt lat="29.51204" lon="103.332665"><ele>3030.54</ele><time>2026-06-13T17:05:01.000Z</time></trkpt>
        <trkpt lat="29.51204" lon="103.332665"><ele>3030.54</ele><time>2026-06-13T17:05:27.000Z</time></trkpt>
        <trkpt lat="29.5119383" lon="103.332585"><ele>3032.67</ele><time>2026-06-13T17:06:04.000Z</time></trkpt>
        <trkpt lat="29.5118451" lon="103.3325149"><ele>3035.14</ele><time>2026-06-13T17:06:12.000Z</time></trkpt>
        <trkpt lat="29.5117457" lon="103.3324748"><ele>3037.36</ele><time>2026-06-13T17:06:22.000Z</time></trkpt>
        <trkpt lat="29.5117046" lon="103.3324479"><ele>3040.86</ele><time>2026-06-13T17:06:32.000Z</time></trkpt>
        <trkpt lat="29.5117046" lon="103.3324479"><ele>3040.86</ele><time>2026-06-13T17:06:40.000Z</time></trkpt>
        <trkpt lat="29.5117046" lon="103.3324479"><ele>3040.86</ele><time>2026-06-13T17:07:05.000Z</time></trkpt>
        <trkpt lat="29.5117046" lon="103.3324479"><ele>3040.86</ele><time>2026-06-13T17:07:32.000Z</time></trkpt>
        <trkpt lat="29.5116317" lon="103.3324733"><ele>3043.97</ele><time>2026-06-13T17:07:37.000Z</time></trkpt>
        <trkpt lat="29.5116317" lon="103.3324733"><ele>3043.97</ele><time>2026-06-13T17:08:01.000Z</time></trkpt>
        <trkpt lat="29.511525" lon="103.332435"><ele>3043.77</ele><time>2026-06-13T17:08:09.000Z</time></trkpt>
        <trkpt lat="29.511431" lon="103.3324136"><ele>3044.08</ele><time>2026-06-13T17:08:15.000Z</time></trkpt>
        <trkpt lat="29.51132" lon="103.3324299"><ele>3044.26</ele><time>2026-06-13T17:08:21.000Z</time></trkpt>
        <trkpt lat="29.5112238" lon="103.3324481"><ele>3044.06</ele><time>2026-06-13T17:08:27.000Z</time></trkpt>
        <trkpt lat="29.511127" lon="103.3324806"><ele>3043.65</ele><time>2026-06-13T17:08:33.000Z</time></trkpt>
        <trkpt lat="29.511027" lon="103.3324957"><ele>3043.71</ele><time>2026-06-13T17:08:39.000Z</time></trkpt>
        <trkpt lat="29.5109169" lon="103.3325105"><ele>3043.58</ele><time>2026-06-13T17:08:45.000Z</time></trkpt>
        <trkpt lat="29.5108081" lon="103.332509"><ele>3042.73</ele><time>2026-06-13T17:08:51.000Z</time></trkpt>
        <trkpt lat="29.5107092" lon="103.3325166"><ele>3041.86</ele><time>2026-06-13T17:08:57.000Z</time></trkpt>
        <trkpt lat="29.5106066" lon="103.3325486"><ele>3041.01</ele><time>2026-06-13T17:09:05.000Z</time></trkpt>
        <trkpt lat="29.5105135" lon="103.3325481"><ele>3040.28</ele><time>2026-06-13T17:09:09.000Z</time></trkpt>
        <trkpt lat="29.5104151" lon="103.3325194"><ele>3039.94</ele><time>2026-06-13T17:09:17.000Z</time></trkpt>
        <trkpt lat="29.5103305" lon="103.332464"><ele>3039.45</ele><time>2026-06-13T17:09:23.000Z</time></trkpt>
        <trkpt lat="29.5102321" lon="103.3324271"><ele>3039.77</ele><time>2026-06-13T17:09:33.000Z</time></trkpt>
        <trkpt lat="29.5101393" lon="103.3323934"><ele>3041.55</ele><time>2026-06-13T17:09:57.000Z</time></trkpt>
        <trkpt lat="29.5100526" lon="103.3323437"><ele>3045.31</ele><time>2026-06-13T17:10:07.000Z</time></trkpt>
        <trkpt lat="29.5099605" lon="103.3323332"><ele>3047.85</ele><time>2026-06-13T17:10:21.000Z</time></trkpt>
        <trkpt lat="29.5099867" lon="103.332225"><ele>3049.98</ele><time>2026-06-13T17:13:21.000Z</time></trkpt>
        <trkpt lat="29.5099867" lon="103.332225"><ele>3049.98</ele><time>2026-06-13T17:14:38.000Z</time></trkpt>
        <trkpt lat="29.5100883" lon="103.3322933"><ele>3052.87</ele><time>2026-06-13T17:14:49.000Z</time></trkpt>
        <trkpt lat="29.5100883" lon="103.3322933"><ele>3052.87</ele><time>2026-06-13T17:15:25.000Z</time></trkpt>
        <trkpt lat="29.5100883" lon="103.3322933"><ele>3052.87</ele><time>2026-06-13T17:15:42.000Z</time></trkpt>
        <trkpt lat="29.5101867" lon="103.3322467"><ele>3056.11</ele><time>2026-06-13T17:15:49.000Z</time></trkpt>
        <trkpt lat="29.5101867" lon="103.3322467"><ele>3056.11</ele><time>2026-06-13T17:15:57.000Z</time></trkpt>
        <trkpt lat="29.5101867" lon="103.3322467"><ele>3056.11</ele><time>2026-06-13T17:16:08.000Z</time></trkpt>
        <trkpt lat="29.5102751" lon="103.3321633"><ele>3057.52</ele><time>2026-06-13T17:16:15.000Z</time></trkpt>
        <trkpt lat="29.5102751" lon="103.3321633"><ele>3057.52</ele><time>2026-06-13T17:16:32.000Z</time></trkpt>
        <trkpt lat="29.5102023" lon="103.3321173"><ele>3058.33</ele><time>2026-06-13T17:16:38.000Z</time></trkpt>
        <trkpt lat="29.5101229" lon="103.3320462"><ele>3058.58</ele><time>2026-06-13T17:17:22.000Z</time></trkpt>
        <trkpt lat="29.5101229" lon="103.3320462"><ele>3058.58</ele><time>2026-06-13T17:17:46.000Z</time></trkpt>
        <trkpt lat="29.5100517" lon="103.331935"><ele>3059.49</ele><time>2026-06-13T17:17:49.000Z</time></trkpt>
        <trkpt lat="29.5100517" lon="103.331935"><ele>3059.49</ele><time>2026-06-13T17:19:31.000Z</time></trkpt>
        <trkpt lat="29.510075" lon="103.331815"><ele>3060.61</ele><time>2026-06-13T17:19:39.000Z</time></trkpt>
        <trkpt lat="29.5101209" lon="103.3317105"><ele>3059.53</ele><time>2026-06-13T17:19:47.000Z</time></trkpt>
        <trkpt lat="29.5101837" lon="103.3316242"><ele>3057.24</ele><time>2026-06-13T17:19:53.000Z</time></trkpt>
        <trkpt lat="29.5102581" lon="103.3315487"><ele>3054.86</ele><time>2026-06-13T17:19:59.000Z</time></trkpt>
        <trkpt lat="29.5103171" lon="103.33146"><ele>3052.47</ele><time>2026-06-13T17:20:07.000Z</time></trkpt>
        <trkpt lat="29.5103855" lon="103.3313791"><ele>3049.47</ele><time>2026-06-13T17:20:17.000Z</time></trkpt>
        <trkpt lat="29.5104561" lon="103.3313812"><ele>3044.58</ele><time>2026-06-13T17:20:31.000Z</time></trkpt>
        <trkpt lat="29.5104995" lon="103.3314733"><ele>3039.64</ele><time>2026-06-13T17:20:41.000Z</time></trkpt>
        <trkpt lat="29.5105401" lon="103.3315909"><ele>3035.58</ele><time>2026-06-13T17:20:51.000Z</time></trkpt>
        <trkpt lat="29.5106235" lon="103.3316729"><ele>3031.5</ele><time>2026-06-13T17:21:01.000Z</time></trkpt>
        <trkpt lat="29.5107197" lon="103.3317541"><ele>3028.06</ele><time>2026-06-13T17:21:09.000Z</time></trkpt>
        <trkpt lat="29.5108199" lon="103.3318002"><ele>3025.32</ele><time>2026-06-13T17:21:15.000Z</time></trkpt>
        <trkpt lat="29.5109386" lon="103.331783"><ele>3023.12</ele><time>2026-06-13T17:21:23.000Z</time></trkpt>
        <trkpt lat="29.5110642" lon="103.3317494"><ele>3020.23</ele><time>2026-06-13T17:21:29.000Z</time></trkpt>
        <trkpt lat="29.5111657" lon="103.3317092"><ele>3017.51</ele><time>2026-06-13T17:21:33.000Z</time></trkpt>
        <trkpt lat="29.5112584" lon="103.3316609"><ele>3015.48</ele><time>2026-06-13T17:21:37.000Z</time></trkpt>
        <trkpt lat="29.5113573" lon="103.3316231"><ele>3014.07</ele><time>2026-06-13T17:21:41.000Z</time></trkpt>
        <trkpt lat="29.5114568" lon="103.3315857"><ele>3013.7</ele><time>2026-06-13T17:21:47.000Z</time></trkpt>
        <trkpt lat="29.5115829" lon="103.3315373"><ele>3013.27</ele><time>2026-06-13T17:21:53.000Z</time></trkpt>
        <trkpt lat="29.5117038" lon="103.3315001"><ele>3011.39</ele><time>2026-06-13T17:21:57.000Z</time></trkpt>
        <trkpt lat="29.51181" lon="103.3314726"><ele>3009.11</ele><time>2026-06-13T17:22:03.000Z</time></trkpt>
        <trkpt lat="29.5119254" lon="103.3314559"><ele>3006.23</ele><time>2026-06-13T17:22:09.000Z</time></trkpt>
        <trkpt lat="29.5120397" lon="103.3314025"><ele>3003.03</ele><time>2026-06-13T17:22:15.000Z</time></trkpt>
        <trkpt lat="29.5121396" lon="103.3313371"><ele>3000.01</ele><time>2026-06-13T17:22:21.000Z</time></trkpt>
        <trkpt lat="29.5122417" lon="103.331319"><ele>2997.38</ele><time>2026-06-13T17:22:29.000Z</time></trkpt>
        <trkpt lat="29.5123504" lon="103.3313121"><ele>2995.15</ele><time>2026-06-13T17:22:37.000Z</time></trkpt>
        <trkpt lat="29.512448" lon="103.3313301"><ele>2992.72</ele><time>2026-06-13T17:22:43.000Z</time></trkpt>
        <trkpt lat="29.5125488" lon="103.3313805"><ele>2990.69</ele><time>2026-06-13T17:22:53.000Z</time></trkpt>
        <trkpt lat="29.5126276" lon="103.331457"><ele>2988.93</ele><time>2026-06-13T17:22:57.000Z</time></trkpt>
        <trkpt lat="29.5126958" lon="103.3315374"><ele>2987.24</ele><time>2026-06-13T17:23:01.000Z</time></trkpt>
        <trkpt lat="29.5127703" lon="103.3316126"><ele>2985.42</ele><time>2026-06-13T17:23:07.000Z</time></trkpt>
        <trkpt lat="29.5128595" lon="103.3316954"><ele>2983.39</ele><time>2026-06-13T17:23:15.000Z</time></trkpt>
        <trkpt lat="29.5129719" lon="103.3317313"><ele>2981.16</ele><time>2026-06-13T17:23:21.000Z</time></trkpt>
        <trkpt lat="29.5130709" lon="103.3317244"><ele>2979.58</ele><time>2026-06-13T17:23:29.000Z</time></trkpt>
        <trkpt lat="29.5131722" lon="103.3317353"><ele>2978.39</ele><time>2026-06-13T17:23:37.000Z</time></trkpt>
        <trkpt lat="29.5132729" lon="103.3317537"><ele>2977.62</ele><time>2026-06-13T17:23:43.000Z</time></trkpt>
        <trkpt lat="29.5133845" lon="103.3317669"><ele>2977.31</ele><time>2026-06-13T17:23:49.000Z</time></trkpt>
        <trkpt lat="29.5134762" lon="103.3317232"><ele>2977.69</ele><time>2026-06-13T17:23:57.000Z</time></trkpt>
        <trkpt lat="29.5135412" lon="103.3316364"><ele>2979.59</ele><time>2026-06-13T17:24:05.000Z</time></trkpt>
        <trkpt lat="29.5135935" lon="103.3315185"><ele>2982.17</ele><time>2026-06-13T17:24:15.000Z</time></trkpt>
        <trkpt lat="29.5136292" lon="103.331397"><ele>2985.45</ele><time>2026-06-13T17:24:23.000Z</time></trkpt>
        <trkpt lat="29.5136731" lon="103.3312868"><ele>2988.31</ele><time>2026-06-13T17:24:29.000Z</time></trkpt>
        <trkpt lat="29.5137493" lon="103.3312018"><ele>2990.63</ele><time>2026-06-13T17:24:37.000Z</time></trkpt>
        <trkpt lat="29.5138465" lon="103.3311492"><ele>2992.85</ele><time>2026-06-13T17:24:43.000Z</time></trkpt>
        <trkpt lat="29.5139513" lon="103.3311436"><ele>2994.68</ele><time>2026-06-13T17:24:49.000Z</time></trkpt>
        <trkpt lat="29.5140743" lon="103.3311691"><ele>2996.5</ele><time>2026-06-13T17:24:57.000Z</time></trkpt>
        <trkpt lat="29.5141763" lon="103.3311922"><ele>2998.48</ele><time>2026-06-13T17:25:03.000Z</time></trkpt>
        <trkpt lat="29.5142813" lon="103.3311993"><ele>2999.73</ele><time>2026-06-13T17:25:11.000Z</time></trkpt>
        <trkpt lat="29.5143802" lon="103.3312076"><ele>3000.36</ele><time>2026-06-13T17:25:17.000Z</time></trkpt>
        <trkpt lat="29.5144768" lon="103.3312199"><ele>3000.29</ele><time>2026-06-13T17:25:23.000Z</time></trkpt>
        <trkpt lat="29.5145703" lon="103.3312399"><ele>2999.39</ele><time>2026-06-13T17:25:29.000Z</time></trkpt>
        <trkpt lat="29.5146592" lon="103.3312711"><ele>2998.28</ele><time>2026-06-13T17:25:35.000Z</time></trkpt>
        <trkpt lat="29.5147643" lon="103.3313284"><ele>2997.13</ele><time>2026-06-13T17:25:41.000Z</time></trkpt>
        <trkpt lat="29.514867" lon="103.3314006"><ele>2995.57</ele><time>2026-06-13T17:25:47.000Z</time></trkpt>
        <trkpt lat="29.5149707" lon="103.33144"><ele>2994.29</ele><time>2026-06-13T17:25:53.000Z</time></trkpt>
        <trkpt lat="29.5150657" lon="103.3314443"><ele>2993.31</ele><time>2026-06-13T17:25:59.000Z</time></trkpt>
        <trkpt lat="29.5151598" lon="103.331414"><ele>2992.87</ele><time>2026-06-13T17:26:07.000Z</time></trkpt>
        <trkpt lat="29.5152353" lon="103.331381"><ele>2993.23</ele><time>2026-06-13T17:26:21.000Z</time></trkpt>
        <trkpt lat="29.5153393" lon="103.3313727"><ele>2995.02</ele><time>2026-06-13T17:26:31.000Z</time></trkpt>
        <trkpt lat="29.5154348" lon="103.3313702"><ele>2996.73</ele><time>2026-06-13T17:26:37.000Z</time></trkpt>
        <trkpt lat="29.5155262" lon="103.3313869"><ele>2998.05</ele><time>2026-06-13T17:26:51.000Z</time></trkpt>
        <trkpt lat="29.5156237" lon="103.331414"><ele>2999.79</ele><time>2026-06-13T17:27:01.000Z</time></trkpt>
        <trkpt lat="29.5157235" lon="103.331486"><ele>3000.61</ele><time>2026-06-13T17:27:09.000Z</time></trkpt>
        <trkpt lat="29.5158177" lon="103.331567"><ele>3000.99</ele><time>2026-06-13T17:27:21.000Z</time></trkpt>
        <trkpt lat="29.5158996" lon="103.3316656"><ele>3000.65</ele><time>2026-06-13T17:27:29.000Z</time></trkpt>
        <trkpt lat="29.5159622" lon="103.3317635"><ele>3000.07</ele><time>2026-06-13T17:27:35.000Z</time></trkpt>
        <trkpt lat="29.5160047" lon="103.3318765"><ele>2999.01</ele><time>2026-06-13T17:27:43.000Z</time></trkpt>
        <trkpt lat="29.5160438" lon="103.331989"><ele>2997.8</ele><time>2026-06-13T17:27:51.000Z</time></trkpt>
        <trkpt lat="29.5160861" lon="103.3320886"><ele>2997.03</ele><time>2026-06-13T17:27:57.000Z</time></trkpt>
        <trkpt lat="29.516142" lon="103.3321716"><ele>2996.76</ele><time>2026-06-13T17:28:03.000Z</time></trkpt>
        <trkpt lat="29.5161957" lon="103.33226"><ele>2996.22</ele><time>2026-06-13T17:28:09.000Z</time></trkpt>
        <trkpt lat="29.5162683" lon="103.3323603"><ele>2995.18</ele><time>2026-06-13T17:28:17.000Z</time></trkpt>
        <trkpt lat="29.516335" lon="103.3324815"><ele>2993.6</ele><time>2026-06-13T17:28:25.000Z</time></trkpt>
        <trkpt lat="29.5164048" lon="103.3325923"><ele>2992.18</ele><time>2026-06-13T17:28:33.000Z</time></trkpt>
        <trkpt lat="29.5164704" lon="103.3326903"><ele>2991.28</ele><time>2026-06-13T17:28:41.000Z</time></trkpt>
        <trkpt lat="29.5165354" lon="103.3327973"><ele>2989.96</ele><time>2026-06-13T17:28:51.000Z</time></trkpt>
        <trkpt lat="29.5165354" lon="103.3327973"><ele>2989.96</ele><time>2026-06-13T17:29:04.000Z</time></trkpt>
        <trkpt lat="29.5166215" lon="103.3328881"><ele>2988.26</ele><time>2026-06-13T17:29:09.000Z</time></trkpt>
        <trkpt lat="29.5166215" lon="103.3328881"><ele>2988.26</ele><time>2026-06-13T17:29:17.000Z</time></trkpt>
        <trkpt lat="29.516698" lon="103.3329779"><ele>2987.2</ele><time>2026-06-13T17:29:21.000Z</time></trkpt>
        <trkpt lat="29.5167947" lon="103.3330593"><ele>2985.78</ele><time>2026-06-13T17:29:27.000Z</time></trkpt>
        <trkpt lat="29.5169089" lon="103.3331181"><ele>2982.69</ele><time>2026-06-13T17:29:33.000Z</time></trkpt>
        <trkpt lat="29.5170208" lon="103.3331343"><ele>2978.74</ele><time>2026-06-13T17:29:40.000Z</time></trkpt>
        <trkpt lat="29.5171164" lon="103.3331152"><ele>2975.02</ele><time>2026-06-13T17:29:46.000Z</time></trkpt>
        <trkpt lat="29.5171992" lon="103.3330652"><ele>2972.3</ele><time>2026-06-13T17:29:52.000Z</time></trkpt>
        <trkpt lat="29.5172891" lon="103.3330188"><ele>2969.85</ele><time>2026-06-13T17:29:58.000Z</time></trkpt>
        <trkpt lat="29.5173776" lon="103.332961"><ele>2967.68</ele><time>2026-06-13T17:30:06.000Z</time></trkpt>
        <trkpt lat="29.5174243" lon="103.332927"><ele>2965.41</ele><time>2026-06-13T17:30:08.000Z</time></trkpt>
        <trkpt lat="29.5175098" lon="103.332862"><ele>2963.98</ele><time>2026-06-13T17:30:14.000Z</time></trkpt>
        <trkpt lat="29.5176067" lon="103.3327827"><ele>2963.04</ele><time>2026-06-13T17:30:20.000Z</time></trkpt>
        <trkpt lat="29.5176783" lon="103.3327008"><ele>2962.68</ele><time>2026-06-13T17:30:28.000Z</time></trkpt>
        <trkpt lat="29.5177369" lon="103.332607"><ele>2964.07</ele><time>2026-06-13T17:30:52.000Z</time></trkpt>
        <trkpt lat="29.5178317" lon="103.3325424"><ele>2968.17</ele><time>2026-06-13T17:31:02.000Z</time></trkpt>
        <trkpt lat="29.5179371" lon="103.3325009"><ele>2970.16</ele><time>2026-06-13T17:31:12.000Z</time></trkpt>
        <trkpt lat="29.5180274" lon="103.332448"><ele>2971.68</ele><time>2026-06-13T17:31:20.000Z</time></trkpt>
        <trkpt lat="29.518126" lon="103.3324306"><ele>2972.64</ele><time>2026-06-13T17:31:28.000Z</time></trkpt>
        <trkpt lat="29.5182215" lon="103.3324357"><ele>2972.96</ele><time>2026-06-13T17:31:34.000Z</time></trkpt>
        <trkpt lat="29.5182866" lon="103.3325172"><ele>2974.53</ele><time>2026-06-13T17:31:42.000Z</time></trkpt>
        <trkpt lat="29.5183619" lon="103.3326116"><ele>2975.76</ele><time>2026-06-13T17:31:50.000Z</time></trkpt>
        <trkpt lat="29.5184413" lon="103.3326954"><ele>2976.25</ele><time>2026-06-13T17:31:56.000Z</time></trkpt>
        <trkpt lat="29.51852" lon="103.3327566"><ele>2976.01</ele><time>2026-06-13T17:32:08.000Z</time></trkpt>
        <trkpt lat="29.5185997" lon="103.3328307"><ele>2975.23</ele><time>2026-06-13T17:32:29.000Z</time></trkpt>
        <trkpt lat="29.5186835" lon="103.3328889"><ele>2974.23</ele><time>2026-06-13T17:32:39.000Z</time></trkpt>
        <trkpt lat="29.5187975" lon="103.3329133"><ele>2971.46</ele><time>2026-06-13T17:33:07.000Z</time></trkpt>
        <trkpt lat="29.5188948" lon="103.3329585"><ele>2971.05</ele><time>2026-06-13T17:33:17.000Z</time></trkpt>
        <trkpt lat="29.5190042" lon="103.3330047"><ele>2970.25</ele><time>2026-06-13T17:33:25.000Z</time></trkpt>
        <trkpt lat="29.5190967" lon="103.3330752"><ele>2968.81</ele><time>2026-06-13T17:33:33.000Z</time></trkpt>
        <trkpt lat="29.5191498" lon="103.333177"><ele>2967.56</ele><time>2026-06-13T17:33:39.000Z</time></trkpt>
        <trkpt lat="29.5191866" lon="103.3332939"><ele>2967.49</ele><time>2026-06-13T17:33:47.000Z</time></trkpt>
        <trkpt lat="29.5192474" lon="103.3333813"><ele>2968.31</ele><time>2026-06-13T17:34:01.000Z</time></trkpt>
        <trkpt lat="29.5192474" lon="103.3333813"><ele>2968.31</ele><time>2026-06-13T17:34:46.000Z</time></trkpt>
        <trkpt lat="29.5191567" lon="103.3334133"><ele>2970.5</ele><time>2026-06-13T17:35:15.000Z</time></trkpt>
        <trkpt lat="29.5191567" lon="103.3334133"><ele>2970.5</ele><time>2026-06-13T17:35:38.000Z</time></trkpt>
        <trkpt lat="29.51925" lon="103.3334433"><ele>2972.31</ele><time>2026-06-13T17:40:14.000Z</time></trkpt>
        <trkpt lat="29.5193333" lon="103.3334967"><ele>2972.48</ele><time>2026-06-13T17:40:22.000Z</time></trkpt>
        <trkpt lat="29.5194209" lon="103.3335627"><ele>2971.63</ele><time>2026-06-13T17:40:32.000Z</time></trkpt>
        <trkpt lat="29.5194822" lon="103.3336515"><ele>2968.3</ele><time>2026-06-13T17:40:42.000Z</time></trkpt>
        <trkpt lat="29.5195303" lon="103.3337426"><ele>2963.48</ele><time>2026-06-13T17:40:48.000Z</time></trkpt>
        <trkpt lat="29.5195731" lon="103.3338461"><ele>2959.28</ele><time>2026-06-13T17:40:52.000Z</time></trkpt>
        <trkpt lat="29.5196353" lon="103.3339533"><ele>2956.1</ele><time>2026-06-13T17:40:56.000Z</time></trkpt>
        <trkpt lat="29.5197069" lon="103.3340318"><ele>2954.04</ele><time>2026-06-13T17:41:02.000Z</time></trkpt>
        <trkpt lat="29.5197815" lon="103.3341203"><ele>2952.34</ele><time>2026-06-13T17:41:08.000Z</time></trkpt>
        <trkpt lat="29.5198777" lon="103.3342086"><ele>2951.89</ele><time>2026-06-13T17:41:14.000Z</time></trkpt>
        <trkpt lat="29.5199786" lon="103.3342668"><ele>2952.33</ele><time>2026-06-13T17:41:20.000Z</time></trkpt>
        <trkpt lat="29.5200749" lon="103.3343115"><ele>2953.52</ele><time>2026-06-13T17:41:30.000Z</time></trkpt>
        <trkpt lat="29.5201708" lon="103.3343655"><ele>2955.23</ele><time>2026-06-13T17:41:38.000Z</time></trkpt>
        <trkpt lat="29.5202626" lon="103.3344082"><ele>2956.9</ele><time>2026-06-13T17:41:46.000Z</time></trkpt>
        <trkpt lat="29.5203565" lon="103.3344371"><ele>2959.01</ele><time>2026-06-13T17:41:58.000Z</time></trkpt>
        <trkpt lat="29.52045" lon="103.3344744"><ele>2961.02</ele><time>2026-06-13T17:42:08.000Z</time></trkpt>
        <trkpt lat="29.5205496" lon="103.3345008"><ele>2961.83</ele><time>2026-06-13T17:42:22.000Z</time></trkpt>
        <trkpt lat="29.520644" lon="103.3344984"><ele>2961.6</ele><time>2026-06-13T17:42:36.000Z</time></trkpt>
        <trkpt lat="29.5207424" lon="103.3344887"><ele>2962.89</ele><time>2026-06-13T17:42:50.000Z</time></trkpt>
        <trkpt lat="29.5208348" lon="103.3344682"><ele>2964.57</ele><time>2026-06-13T17:43:00.000Z</time></trkpt>
        <trkpt lat="29.5209387" lon="103.3344752"><ele>2965.92</ele><time>2026-06-13T17:43:10.000Z</time></trkpt>
        <trkpt lat="29.5210394" lon="103.3344611"><ele>2966.94</ele><time>2026-06-13T17:43:18.000Z</time></trkpt>
        <trkpt lat="29.5211361" lon="103.3344247"><ele>2968.17</ele><time>2026-06-13T17:43:30.000Z</time></trkpt>
        <trkpt lat="29.5212248" lon="103.3343759"><ele>2970.55</ele><time>2026-06-13T17:43:38.000Z</time></trkpt>
        <trkpt lat="29.5213159" lon="103.3343167"><ele>2973.02</ele><time>2026-06-13T17:43:48.000Z</time></trkpt>
        <trkpt lat="29.5214059" lon="103.3342752"><ele>2975.34</ele><time>2026-06-13T17:43:58.000Z</time></trkpt>
        <trkpt lat="29.5214918" lon="103.3342254"><ele>2977.64</ele><time>2026-06-13T17:44:08.000Z</time></trkpt>
        <trkpt lat="29.5215889" lon="103.3341834"><ele>2980.21</ele><time>2026-06-13T17:44:20.000Z</time></trkpt>
        <trkpt lat="29.5216704" lon="103.3342174"><ele>2983.04</ele><time>2026-06-13T17:44:34.000Z</time></trkpt>
        <trkpt lat="29.5217332" lon="103.3342951"><ele>2987.28</ele><time>2026-06-13T17:44:48.000Z</time></trkpt>
        <trkpt lat="29.5218047" lon="103.334377"><ele>2991.12</ele><time>2026-06-13T17:44:56.000Z</time></trkpt>
        <trkpt lat="29.5218872" lon="103.3344444"><ele>2993.43</ele><time>2026-06-13T17:45:06.000Z</time></trkpt>
        <trkpt lat="29.52198" lon="103.3345127"><ele>2994.71</ele><time>2026-06-13T17:45:14.000Z</time></trkpt>
        <trkpt lat="29.5220612" lon="103.3345843"><ele>2996.21</ele><time>2026-06-13T17:45:22.000Z</time></trkpt>
        <trkpt lat="29.5221499" lon="103.3346343"><ele>2998.06</ele><time>2026-06-13T17:45:30.000Z</time></trkpt>
        <trkpt lat="29.5222377" lon="103.3347097"><ele>3000.31</ele><time>2026-06-13T17:46:10.000Z</time></trkpt>
        <trkpt lat="29.5223474" lon="103.3347491"><ele>3003.15</ele><time>2026-06-13T17:46:20.000Z</time></trkpt>
        <trkpt lat="29.5224537" lon="103.3347419"><ele>3004.59</ele><time>2026-06-13T17:46:24.000Z</time></trkpt>
        <trkpt lat="29.5225501" lon="103.334723"><ele>3005.24</ele><time>2026-06-13T17:46:30.000Z</time></trkpt>
        <trkpt lat="29.5226448" lon="103.3347194"><ele>3005.91</ele><time>2026-06-13T17:46:40.000Z</time></trkpt>
        <trkpt lat="29.522743" lon="103.3347213"><ele>3005.3</ele><time>2026-06-13T17:46:46.000Z</time></trkpt>
        <trkpt lat="29.5228502" lon="103.3346981"><ele>3004.1</ele><time>2026-06-13T17:46:54.000Z</time></trkpt>
        <trkpt lat="29.5228904" lon="103.3347145"><ele>3001.39</ele><time>2026-06-13T17:47:20.000Z</time></trkpt>
        <trkpt lat="29.5228169" lon="103.3347092"><ele>3000.45</ele><time>2026-06-13T17:47:46.000Z</time></trkpt>
        <trkpt lat="29.5227439" lon="103.3347771"><ele>2999.57</ele><time>2026-06-13T17:47:52.000Z</time></trkpt>
        <trkpt lat="29.5226879" lon="103.3348772"><ele>2999.37</ele><time>2026-06-13T17:48:17.000Z</time></trkpt>
        <trkpt lat="29.5227288" lon="103.334845"><ele>2999.29</ele><time>2026-06-13T17:49:01.000Z</time></trkpt>
        <trkpt lat="29.5228402" lon="103.3348158"><ele>2999.99</ele><time>2026-06-13T17:49:09.000Z</time></trkpt>
        <trkpt lat="29.5229628" lon="103.3347779"><ele>2999.91</ele><time>2026-06-13T17:49:17.000Z</time></trkpt>
        <trkpt lat="29.5230856" lon="103.3347921"><ele>2999.3</ele><time>2026-06-13T17:49:25.000Z</time></trkpt>
        <trkpt lat="29.5232007" lon="103.3348209"><ele>2997.75</ele><time>2026-06-13T17:49:31.000Z</time></trkpt>
        <trkpt lat="29.5233098" lon="103.3348581"><ele>2996.4</ele><time>2026-06-13T17:49:37.000Z</time></trkpt>
        <trkpt lat="29.5234033" lon="103.3348942"><ele>2995.54</ele><time>2026-06-13T17:49:43.000Z</time></trkpt>
        <trkpt lat="29.523495" lon="103.3349259"><ele>2994.88</ele><time>2026-06-13T17:49:49.000Z</time></trkpt>
        <trkpt lat="29.523608" lon="103.3349441"><ele>2994.16</ele><time>2026-06-13T17:49:57.000Z</time></trkpt>
        <trkpt lat="29.5237294" lon="103.3349422"><ele>2992.41</ele><time>2026-06-13T17:50:05.000Z</time></trkpt>
        <trkpt lat="29.5238442" lon="103.3349373"><ele>2990.99</ele><time>2026-06-13T17:50:11.000Z</time></trkpt>
        <trkpt lat="29.5239394" lon="103.3349542"><ele>2989.96</ele><time>2026-06-13T17:50:17.000Z</time></trkpt>
        <trkpt lat="29.5240286" lon="103.3349661"><ele>2989.46</ele><time>2026-06-13T17:50:23.000Z</time></trkpt>
        <trkpt lat="29.5240689" lon="103.3348841"><ele>2988.75</ele><time>2026-06-13T17:50:31.000Z</time></trkpt>
        <trkpt lat="29.5241336" lon="103.3348178"><ele>2987.05</ele><time>2026-06-13T17:50:39.000Z</time></trkpt>
        <trkpt lat="29.5241478" lon="103.3347986"><ele>2986.47</ele><time>2026-06-13T17:50:56.000Z</time></trkpt>
        <trkpt lat="29.5242164" lon="103.3348361"><ele>2987.39</ele><time>2026-06-13T17:51:20.000Z</time></trkpt>
        <trkpt lat="29.5242991" lon="103.3349065"><ele>2987.22</ele><time>2026-06-13T17:51:30.000Z</time></trkpt>
        <trkpt lat="29.5244056" lon="103.3349047"><ele>2987.73</ele><time>2026-06-13T17:51:38.000Z</time></trkpt>
        <trkpt lat="29.5245092" lon="103.3348702"><ele>2990.43</ele><time>2026-06-13T17:51:46.000Z</time></trkpt>
        <trkpt lat="29.5245996" lon="103.3348231"><ele>2993.08</ele><time>2026-06-13T17:51:56.000Z</time></trkpt>
        <trkpt lat="29.524698" lon="103.334788"><ele>2994.9</ele><time>2026-06-13T17:52:06.000Z</time></trkpt>
        <trkpt lat="29.5247933" lon="103.334772"><ele>2995.41</ele><time>2026-06-13T17:52:14.000Z</time></trkpt>
        <trkpt lat="29.5248846" lon="103.3347872"><ele>2995.45</ele><time>2026-06-13T17:52:20.000Z</time></trkpt>
        <trkpt lat="29.5249783" lon="103.3348055"><ele>2995.13</ele><time>2026-06-13T17:52:26.000Z</time></trkpt>
        <trkpt lat="29.525078" lon="103.3347878"><ele>2993.91</ele><time>2026-06-13T17:52:36.000Z</time></trkpt>
        <trkpt lat="29.5251824" lon="103.334733"><ele>2991.8</ele><time>2026-06-13T17:52:46.000Z</time></trkpt>
        <trkpt lat="29.5252769" lon="103.3346686"><ele>2988.01</ele><time>2026-06-13T17:52:54.000Z</time></trkpt>
        <trkpt lat="29.5253536" lon="103.3345857"><ele>2983.62</ele><time>2026-06-13T17:53:02.000Z</time></trkpt>
        <trkpt lat="29.5254215" lon="103.3344931"><ele>2979.18</ele><time>2026-06-13T17:53:10.000Z</time></trkpt>
        <trkpt lat="29.52549" lon="103.3344003"><ele>2975.4</ele><time>2026-06-13T17:53:18.000Z</time></trkpt>
        <trkpt lat="29.5255584" lon="103.3343077"><ele>2971.23</ele><time>2026-06-13T17:53:26.000Z</time></trkpt>
        <trkpt lat="29.5256274" lon="103.3342099"><ele>2967.09</ele><time>2026-06-13T17:53:34.000Z</time></trkpt>
        <trkpt lat="29.5257069" lon="103.3341331"><ele>2964.04</ele><time>2026-06-13T17:53:42.000Z</time></trkpt>
        <trkpt lat="29.5257916" lon="103.334057"><ele>2961.18</ele><time>2026-06-13T17:53:50.000Z</time></trkpt>
        <trkpt lat="29.5258778" lon="103.3340078"><ele>2958.57</ele><time>2026-06-13T17:53:58.000Z</time></trkpt>
        <trkpt lat="29.5259601" lon="103.3339605"><ele>2956.65</ele><time>2026-06-13T17:54:06.000Z</time></trkpt>
        <trkpt lat="29.5260431" lon="103.3339058"><ele>2955.08</ele><time>2026-06-13T17:54:14.000Z</time></trkpt>
        <trkpt lat="29.526139" lon="103.3338524"><ele>2953.75</ele><time>2026-06-13T17:54:22.000Z</time></trkpt>
        <trkpt lat="29.526237" lon="103.3337957"><ele>2951.92</ele><time>2026-06-13T17:54:30.000Z</time></trkpt>
        <trkpt lat="29.5263338" lon="103.33374"><ele>2949.25</ele><time>2026-06-13T17:54:38.000Z</time></trkpt>
        <trkpt lat="29.5264247" lon="103.3336736"><ele>2945.91</ele><time>2026-06-13T17:54:48.000Z</time></trkpt>
        <trkpt lat="29.5265244" lon="103.333627"><ele>2944.19</ele><time>2026-06-13T17:54:58.000Z</time></trkpt>
        <trkpt lat="29.5266214" lon="103.3335883"><ele>2943.03</ele><time>2026-06-13T17:55:08.000Z</time></trkpt>
        <trkpt lat="29.5266932" lon="103.3335566"><ele>2940.87</ele><time>2026-06-13T17:55:16.000Z</time></trkpt>
        <trkpt lat="29.5267883" lon="103.333528"><ele>2938.21</ele><time>2026-06-13T17:55:26.000Z</time></trkpt>
        <trkpt lat="29.526887" lon="103.3335184"><ele>2934.85</ele><time>2026-06-13T17:55:34.000Z</time></trkpt>
        <trkpt lat="29.5269752" lon="103.3334764"><ele>2931.43</ele><time>2026-06-13T17:55:42.000Z</time></trkpt>
        <trkpt lat="29.5270453" lon="103.3334036"><ele>2927.42</ele><time>2026-06-13T17:55:50.000Z</time></trkpt>
        <trkpt lat="29.5270741" lon="103.3333005"><ele>2923.37</ele><time>2026-06-13T17:55:58.000Z</time></trkpt>
        <trkpt lat="29.5270601" lon="103.3331824"><ele>2919.55</ele><time>2026-06-13T17:56:06.000Z</time></trkpt>
        <trkpt lat="29.5270896" lon="103.3330579"><ele>2916.35</ele><time>2026-06-13T17:56:16.000Z</time></trkpt>
        <trkpt lat="29.5271102" lon="103.3329435"><ele>2913.01</ele><time>2026-06-13T17:56:20.000Z</time></trkpt>
        <trkpt lat="29.5271184" lon="103.3328305"><ele>2911.03</ele><time>2026-06-13T17:56:24.000Z</time></trkpt>
        <trkpt lat="29.5271049" lon="103.3327008"><ele>2910.03</ele><time>2026-06-13T17:56:28.000Z</time></trkpt>
        <trkpt lat="29.5271081" lon="103.3325788"><ele>2909.67</ele><time>2026-06-13T17:56:36.000Z</time></trkpt>
        <trkpt lat="29.5271165" lon="103.3324657"><ele>2909.21</ele><time>2026-06-13T17:56:48.000Z</time></trkpt>
        <trkpt lat="29.5271981" lon="103.3324848"><ele>2907.61</ele><time>2026-06-13T17:57:12.000Z</time></trkpt>
        <trkpt lat="29.5273024" lon="103.3325168"><ele>2904.51</ele><time>2026-06-13T17:57:18.000Z</time></trkpt>
        <trkpt lat="29.5273984" lon="103.3324959"><ele>2902.4</ele><time>2026-06-13T17:57:24.000Z</time></trkpt>
        <trkpt lat="29.5275028" lon="103.3324447"><ele>2900.64</ele><time>2026-06-13T17:57:32.000Z</time></trkpt>
        <trkpt lat="29.5275188" lon="103.3323516"><ele>2898.6</ele><time>2026-06-13T17:57:40.000Z</time></trkpt>
        <trkpt lat="29.5275351" lon="103.3322337"><ele>2895.59</ele><time>2026-06-13T17:57:52.000Z</time></trkpt>
        <trkpt lat="29.527587" lon="103.3321477"><ele>2891.33</ele><time>2026-06-13T17:58:00.000Z</time></trkpt>
        <trkpt lat="29.5276466" lon="103.3320577"><ele>2887.92</ele><time>2026-06-13T17:58:08.000Z</time></trkpt>
        <trkpt lat="29.527662" lon="103.3319335"><ele>2885.25</ele><time>2026-06-13T17:58:16.000Z</time></trkpt>
        <trkpt lat="29.5276879" lon="103.3318208"><ele>2882.64</ele><time>2026-06-13T17:58:22.000Z</time></trkpt>
        <trkpt lat="29.5277221" lon="103.331718"><ele>2880.35</ele><time>2026-06-13T17:58:28.000Z</time></trkpt>
        <trkpt lat="29.5277674" lon="103.3316143"><ele>2878.09</ele><time>2026-06-13T17:58:36.000Z</time></trkpt>
        <trkpt lat="29.5278227" lon="103.3315036"><ele>2875.77</ele><time>2026-06-13T17:58:44.000Z</time></trkpt>
        <trkpt lat="29.5278898" lon="103.331419"><ele>2873.63</ele><time>2026-06-13T17:58:50.000Z</time></trkpt>
        <trkpt lat="29.5279602" lon="103.3313418"><ele>2871.77</ele><time>2026-06-13T17:58:56.000Z</time></trkpt>
        <trkpt lat="29.5280308" lon="103.3312473"><ele>2869.76</ele><time>2026-06-13T17:59:04.000Z</time></trkpt>
        <trkpt lat="29.5280893" lon="103.3311541"><ele>2867.07</ele><time>2026-06-13T17:59:10.000Z</time></trkpt>
        <trkpt lat="29.5281417" lon="103.3310468"><ele>2863.9</ele><time>2026-06-13T17:59:18.000Z</time></trkpt>
        <trkpt lat="29.5281949" lon="103.3309519"><ele>2859.6</ele><time>2026-06-13T17:59:26.000Z</time></trkpt>
        <trkpt lat="29.5282664" lon="103.3308562"><ele>2855.51</ele><time>2026-06-13T17:59:36.000Z</time></trkpt>
        <trkpt lat="29.5283299" lon="103.3307474"><ele>2852.11</ele><time>2026-06-13T17:59:44.000Z</time></trkpt>
        <trkpt lat="29.5283457" lon="103.3306237"><ele>2849.57</ele><time>2026-06-13T17:59:54.000Z</time></trkpt>
        <trkpt lat="29.5283278" lon="103.3304878"><ele>2846.57</ele><time>2026-06-13T18:00:02.000Z</time></trkpt>
        <trkpt lat="29.5282764" lon="103.3303887"><ele>2844</ele><time>2026-06-13T18:00:08.000Z</time></trkpt>
        <trkpt lat="29.5282962" lon="103.3303005"><ele>2842.11</ele><time>2026-06-13T18:00:28.000Z</time></trkpt>
        <trkpt lat="29.5282962" lon="103.3303005"><ele>2842.11</ele><time>2026-06-13T18:00:32.000Z</time></trkpt>
        <trkpt lat="29.5283583" lon="103.3302117"><ele>2839.57</ele><time>2026-06-13T18:00:41.000Z</time></trkpt>
        <trkpt lat="29.5283583" lon="103.3302117"><ele>2839.57</ele><time>2026-06-13T18:01:32.000Z</time></trkpt>
        <trkpt lat="29.5284367" lon="103.3300967"><ele>2845.04</ele><time>2026-06-13T18:01:41.000Z</time></trkpt>
        <trkpt lat="29.5284783" lon="103.3299788"><ele>2847.69</ele><time>2026-06-13T18:01:51.000Z</time></trkpt>
        <trkpt lat="29.5285289" lon="103.329867"><ele>2848.9</ele><time>2026-06-13T18:02:01.000Z</time></trkpt>
        <trkpt lat="29.5285458" lon="103.3297431"><ele>2849.8</ele><time>2026-06-13T18:02:09.000Z</time></trkpt>
        <trkpt lat="29.5285732" lon="103.3296398"><ele>2850.06</ele><time>2026-06-13T18:02:13.000Z</time></trkpt>
        <trkpt lat="29.5286152" lon="103.3295258"><ele>2850.51</ele><time>2026-06-13T18:02:19.000Z</time></trkpt>
        <trkpt lat="29.5286268" lon="103.3294033"><ele>2850.93</ele><time>2026-06-13T18:02:29.000Z</time></trkpt>
        <trkpt lat="29.5286542" lon="103.3292927"><ele>2849.54</ele><time>2026-06-13T18:02:37.000Z</time></trkpt>
        <trkpt lat="29.5286939" lon="103.3291872"><ele>2847.63</ele><time>2026-06-13T18:02:45.000Z</time></trkpt>
        <trkpt lat="29.5287491" lon="103.3290968"><ele>2845.55</ele><time>2026-06-13T18:02:51.000Z</time></trkpt>
        <trkpt lat="29.5287868" lon="103.3289977"><ele>2843.59</ele><time>2026-06-13T18:03:01.000Z</time></trkpt>
        <trkpt lat="29.5288281" lon="103.3288932"><ele>2840.84</ele><time>2026-06-13T18:03:07.000Z</time></trkpt>
        <trkpt lat="29.5288673" lon="103.3287715"><ele>2837.94</ele><time>2026-06-13T18:03:15.000Z</time></trkpt>
        <trkpt lat="29.5289056" lon="103.3286676"><ele>2834.7</ele><time>2026-06-13T18:03:23.000Z</time></trkpt>
        <trkpt lat="29.5289425" lon="103.3285712"><ele>2831.17</ele><time>2026-06-13T18:03:31.000Z</time></trkpt>
        <trkpt lat="29.5289952" lon="103.3284822"><ele>2828.34</ele><time>2026-06-13T18:03:37.000Z</time></trkpt>
        <trkpt lat="29.5290325" lon="103.3283853"><ele>2825.62</ele><time>2026-06-13T18:03:47.000Z</time></trkpt>
        <trkpt lat="29.5290797" lon="103.3282872"><ele>2822.17</ele><time>2026-06-13T18:03:55.000Z</time></trkpt>
        <trkpt lat="29.5291034" lon="103.3281637"><ele>2819</ele><time>2026-06-13T18:04:05.000Z</time></trkpt>
        <trkpt lat="29.5291132" lon="103.328046"><ele>2816.16</ele><time>2026-06-13T18:04:13.000Z</time></trkpt>
        <trkpt lat="29.5291628" lon="103.3279282"><ele>2813.98</ele><time>2026-06-13T18:04:21.000Z</time></trkpt>
        <trkpt lat="29.5292196" lon="103.3278332"><ele>2811.97</ele><time>2026-06-13T18:04:31.000Z</time></trkpt>
        <trkpt lat="29.5293038" lon="103.3277982"><ele>2810.61</ele><time>2026-06-13T18:04:35.000Z</time></trkpt>
        <trkpt lat="29.5294019" lon="103.327799"><ele>2809.7</ele><time>2026-06-13T18:04:39.000Z</time></trkpt>
        <trkpt lat="29.529513" lon="103.3278141"><ele>2809.31</ele><time>2026-06-13T18:04:45.000Z</time></trkpt>
        <trkpt lat="29.5295568" lon="103.3278278"><ele>2810.12</ele><time>2026-06-13T18:04:55.000Z</time></trkpt>
        <trkpt lat="29.5295568" lon="103.3278278"><ele>2810.12</ele><time>2026-06-13T18:04:58.000Z</time></trkpt>
        <trkpt lat="29.5296519" lon="103.3278068"><ele>2812.31</ele><time>2026-06-13T18:05:03.000Z</time></trkpt>
        <trkpt lat="29.5296519" lon="103.3278068"><ele>2812.31</ele><time>2026-06-13T18:05:21.000Z</time></trkpt>
        <trkpt lat="29.529741" lon="103.327739"><ele>2813.16</ele><time>2026-06-13T18:05:27.000Z</time></trkpt>
        <trkpt lat="29.5298066" lon="103.3276416"><ele>2812.41</ele><time>2026-06-13T18:05:35.000Z</time></trkpt>
        <trkpt lat="29.5298556" lon="103.3275302"><ele>2810.64</ele><time>2026-06-13T18:05:41.000Z</time></trkpt>
        <trkpt lat="29.5298985" lon="103.3274258"><ele>2808.99</ele><time>2026-06-13T18:05:47.000Z</time></trkpt>
        <trkpt lat="29.5299656" lon="103.3273452"><ele>2807.83</ele><time>2026-06-13T18:05:53.000Z</time></trkpt>
        <trkpt lat="29.5300427" lon="103.3272755"><ele>2807</ele><time>2026-06-13T18:05:59.000Z</time></trkpt>
        <trkpt lat="29.5301252" lon="103.3272052"><ele>2806.18</ele><time>2026-06-13T18:06:07.000Z</time></trkpt>
        <trkpt lat="29.5302075" lon="103.3271363"><ele>2805.33</ele><time>2026-06-13T18:06:15.000Z</time></trkpt>
        <trkpt lat="29.5302965" lon="103.327086"><ele>2804.37</ele><time>2026-06-13T18:06:23.000Z</time></trkpt>
        <trkpt lat="29.5303912" lon="103.3270298"><ele>2803.18</ele><time>2026-06-13T18:06:33.000Z</time></trkpt>
        <trkpt lat="29.5304787" lon="103.3269814"><ele>2801.73</ele><time>2026-06-13T18:06:41.000Z</time></trkpt>
        <trkpt lat="29.5305742" lon="103.3269318"><ele>2800.38</ele><time>2026-06-13T18:06:51.000Z</time></trkpt>
        <trkpt lat="29.5306665" lon="103.326895"><ele>2798.67</ele><time>2026-06-13T18:07:01.000Z</time></trkpt>
        <trkpt lat="29.5307633" lon="103.3268776"><ele>2796.23</ele><time>2026-06-13T18:07:11.000Z</time></trkpt>
        <trkpt lat="29.5308018" lon="103.3269528"><ele>2793.68</ele><time>2026-06-13T18:07:25.000Z</time></trkpt>
        <trkpt lat="29.5308637" lon="103.3270292"><ele>2790.16</ele><time>2026-06-13T18:07:37.000Z</time></trkpt>
        <trkpt lat="29.5309535" lon="103.3270975"><ele>2786.44</ele><time>2026-06-13T18:07:47.000Z</time></trkpt>
        <trkpt lat="29.5310526" lon="103.3271584"><ele>2782.72</ele><time>2026-06-13T18:07:55.000Z</time></trkpt>
        <trkpt lat="29.5311262" lon="103.3272368"><ele>2779.36</ele><time>2026-06-13T18:08:05.000Z</time></trkpt>
        <trkpt lat="29.5311729" lon="103.3273312"><ele>2776.45</ele><time>2026-06-13T18:08:13.000Z</time></trkpt>
        <trkpt lat="29.5311869" lon="103.3274454"><ele>2773.89</ele><time>2026-06-13T18:08:25.000Z</time></trkpt>
        <trkpt lat="29.5311831" lon="103.3275604"><ele>2771.53</ele><time>2026-06-13T18:08:35.000Z</time></trkpt>
        <trkpt lat="29.5311782" lon="103.3276739"><ele>2768.89</ele><time>2026-06-13T18:08:43.000Z</time></trkpt>
        <trkpt lat="29.5311791" lon="103.3277845"><ele>2765.97</ele><time>2026-06-13T18:08:51.000Z</time></trkpt>
        <trkpt lat="29.5312085" lon="103.327891"><ele>2763.27</ele><time>2026-06-13T18:09:01.000Z</time></trkpt>
        <trkpt lat="29.5312237" lon="103.3280161"><ele>2760.36</ele><time>2026-06-13T18:09:11.000Z</time></trkpt>
        <trkpt lat="29.5312274" lon="103.3281506"><ele>2756.81</ele><time>2026-06-13T18:09:19.000Z</time></trkpt>
        <trkpt lat="29.5312206" lon="103.3282676"><ele>2753.75</ele><time>2026-06-13T18:09:25.000Z</time></trkpt>
        <trkpt lat="29.5311956" lon="103.3283897"><ele>2751.1</ele><time>2026-06-13T18:09:33.000Z</time></trkpt>
        <trkpt lat="29.5311637" lon="103.3285003"><ele>2749.04</ele><time>2026-06-13T18:09:41.000Z</time></trkpt>
        <trkpt lat="29.5311345" lon="103.3286167"><ele>2746.96</ele><time>2026-06-13T18:09:49.000Z</time></trkpt>
        <trkpt lat="29.5311" lon="103.328732"><ele>2745.3</ele><time>2026-06-13T18:09:57.000Z</time></trkpt>
        <trkpt lat="29.5310764" lon="103.328857"><ele>2742.85</ele><time>2026-06-13T18:10:05.000Z</time></trkpt>
        <trkpt lat="29.53106" lon="103.3289818"><ele>2740.29</ele><time>2026-06-13T18:10:13.000Z</time></trkpt>
        <trkpt lat="29.5310571" lon="103.3290985"><ele>2737.45</ele><time>2026-06-13T18:10:19.000Z</time></trkpt>
        <trkpt lat="29.5310598" lon="103.329207"><ele>2734.98</ele><time>2026-06-13T18:10:25.000Z</time></trkpt>
        <trkpt lat="29.5310723" lon="103.3293316"><ele>2732.92</ele><time>2026-06-13T18:10:35.000Z</time></trkpt>
        <trkpt lat="29.5311001" lon="103.3294502"><ele>2731.02</ele><time>2026-06-13T18:10:43.000Z</time></trkpt>
        <trkpt lat="29.5311512" lon="103.3295623"><ele>2729.08</ele><time>2026-06-13T18:10:51.000Z</time></trkpt>
        <trkpt lat="29.5312196" lon="103.3296582"><ele>2728.01</ele><time>2026-06-13T18:10:59.000Z</time></trkpt>
        <trkpt lat="29.5312897" lon="103.3297374"><ele>2727.36</ele><time>2026-06-13T18:11:07.000Z</time></trkpt>
        <trkpt lat="29.5313621" lon="103.3298177"><ele>2726.99</ele><time>2026-06-13T18:11:19.000Z</time></trkpt>
        <trkpt lat="29.5314331" lon="103.329895"><ele>2725.53</ele><time>2026-06-13T18:11:31.000Z</time></trkpt>
        <trkpt lat="29.531504" lon="103.3299732"><ele>2723.37</ele><time>2026-06-13T18:11:41.000Z</time></trkpt>
        <trkpt lat="29.5315921" lon="103.3300021"><ele>2721.62</ele><time>2026-06-13T18:11:53.000Z</time></trkpt>
        <trkpt lat="29.5316851" lon="103.3300421"><ele>2717.87</ele><time>2026-06-13T18:12:09.000Z</time></trkpt>
        <trkpt lat="29.5317788" lon="103.3300839"><ele>2710.7</ele><time>2026-06-13T18:12:23.000Z</time></trkpt>
        <trkpt lat="29.5318244" lon="103.3301674"><ele>2702.22</ele><time>2026-06-13T18:12:33.000Z</time></trkpt>
        <trkpt lat="29.531877" lon="103.3302552"><ele>2694.43</ele><time>2026-06-13T18:12:43.000Z</time></trkpt>
        <trkpt lat="29.5319608" lon="103.3302924"><ele>2686.5</ele><time>2026-06-13T18:12:57.000Z</time></trkpt>
        <trkpt lat="29.5320519" lon="103.3302885"><ele>2678.89</ele><time>2026-06-13T18:13:15.000Z</time></trkpt>
        <trkpt lat="29.532152" lon="103.330298"><ele>2672.1</ele><time>2026-06-13T18:13:31.000Z</time></trkpt>
        <trkpt lat="29.5321328" lon="103.3303595"><ele>2666.42</ele><time>2026-06-13T18:14:03.000Z</time></trkpt>
        <trkpt lat="29.5321603" lon="103.3304397"><ele>2660.39</ele><time>2026-06-13T18:14:11.000Z</time></trkpt>
        <trkpt lat="29.5321321" lon="103.3305472"><ele>2655.06</ele><time>2026-06-13T18:14:25.000Z</time></trkpt>
        <trkpt lat="29.5321016" lon="103.330671"><ele>2649.01</ele><time>2026-06-13T18:14:33.000Z</time></trkpt>
        <trkpt lat="29.5320862" lon="103.3307931"><ele>2644.49</ele><time>2026-06-13T18:14:39.000Z</time></trkpt>
        <trkpt lat="29.5320832" lon="103.3309036"><ele>2641.4</ele><time>2026-06-13T18:14:45.000Z</time></trkpt>
        <trkpt lat="29.5320799" lon="103.3310098"><ele>2639.63</ele><time>2026-06-13T18:14:53.000Z</time></trkpt>
        <trkpt lat="29.532091" lon="103.3311271"><ele>2638.33</ele><time>2026-06-13T18:15:03.000Z</time></trkpt>
        <trkpt lat="29.5321195" lon="103.3312475"><ele>2636.51</ele><time>2026-06-13T18:15:15.000Z</time></trkpt>
        <trkpt lat="29.532151" lon="103.3313672"><ele>2634.14</ele><time>2026-06-13T18:15:25.000Z</time></trkpt>
        <trkpt lat="29.5322272" lon="103.3313673"><ele>2631.8</ele><time>2026-06-13T18:15:45.000Z</time></trkpt>
        <trkpt lat="29.5322762" lon="103.3312785"><ele>2627.84</ele><time>2026-06-13T18:15:57.000Z</time></trkpt>
        <trkpt lat="29.5323149" lon="103.3313151"><ele>2624.38</ele><time>2026-06-13T18:16:31.000Z</time></trkpt>
        <trkpt lat="29.5323835" lon="103.3313845"><ele>2618.88</ele><time>2026-06-13T18:16:41.000Z</time></trkpt>
        <trkpt lat="29.5324335" lon="103.3314898"><ele>2615.84</ele><time>2026-06-13T18:16:51.000Z</time></trkpt>
        <trkpt lat="29.5324803" lon="103.3316089"><ele>2613.58</ele><time>2026-06-13T18:17:01.000Z</time></trkpt>
        <trkpt lat="29.5325389" lon="103.331708"><ele>2610.88</ele><time>2026-06-13T18:17:11.000Z</time></trkpt>
        <trkpt lat="29.5325769" lon="103.3318223"><ele>2608.35</ele><time>2026-06-13T18:17:25.000Z</time></trkpt>
        <trkpt lat="29.5326109" lon="103.331928"><ele>2604.07</ele><time>2026-06-13T18:17:33.000Z</time></trkpt>
        <trkpt lat="29.5326429" lon="103.332027"><ele>2600.25</ele><time>2026-06-13T18:17:45.000Z</time></trkpt>
        <trkpt lat="29.5327024" lon="103.332101"><ele>2595.28</ele><time>2026-06-13T18:17:55.000Z</time></trkpt>
        <trkpt lat="29.5327712" lon="103.3321812"><ele>2590.22</ele><time>2026-06-13T18:18:05.000Z</time></trkpt>
        <trkpt lat="29.5328372" lon="103.332274"><ele>2585.43</ele><time>2026-06-13T18:18:23.000Z</time></trkpt>
        <trkpt lat="29.5329072" lon="103.3323607"><ele>2580.6</ele><time>2026-06-13T18:18:39.000Z</time></trkpt>
        <trkpt lat="29.5329819" lon="103.3324346"><ele>2577.25</ele><time>2026-06-13T18:18:53.000Z</time></trkpt>
        <trkpt lat="29.5330554" lon="103.3325027"><ele>2574.34</ele><time>2026-06-13T18:19:07.000Z</time></trkpt>
        <trkpt lat="29.5331293" lon="103.3325657"><ele>2571.18</ele><time>2026-06-13T18:19:17.000Z</time></trkpt>
        <trkpt lat="29.533208" lon="103.33263"><ele>2568.52</ele><time>2026-06-13T18:19:29.000Z</time></trkpt>
        <trkpt lat="29.5332921" lon="103.3326943"><ele>2566.11</ele><time>2026-06-13T18:19:43.000Z</time></trkpt>
        <trkpt lat="29.5333779" lon="103.3327638"><ele>2563.74</ele><time>2026-06-13T18:19:55.000Z</time></trkpt>
        <trkpt lat="29.5334664" lon="103.3328303"><ele>2561.83</ele><time>2026-06-13T18:20:15.000Z</time></trkpt>
        <trkpt lat="29.5335467" lon="103.3329131"><ele>2558.12</ele><time>2026-06-13T18:20:27.000Z</time></trkpt>
        <trkpt lat="29.5336249" lon="103.3329806"><ele>2553.89</ele><time>2026-06-13T18:20:35.000Z</time></trkpt>
        <trkpt lat="29.5337014" lon="103.333058"><ele>2550.07</ele><time>2026-06-13T18:20:45.000Z</time></trkpt>
        <trkpt lat="29.5337825" lon="103.3331343"><ele>2545.52</ele><time>2026-06-13T18:20:55.000Z</time></trkpt>
        <trkpt lat="29.5338619" lon="103.3332011"><ele>2541.17</ele><time>2026-06-13T18:21:05.000Z</time></trkpt>
        <trkpt lat="29.5339516" lon="103.3332318"><ele>2536.88</ele><time>2026-06-13T18:21:15.000Z</time></trkpt>
        <trkpt lat="29.5340565" lon="103.3332209"><ele>2532.24</ele><time>2026-06-13T18:21:25.000Z</time></trkpt>
        <trkpt lat="29.5341627" lon="103.333172"><ele>2527.66</ele><time>2026-06-13T18:21:33.000Z</time></trkpt>
        <trkpt lat="29.5342618" lon="103.333169"><ele>2522.95</ele><time>2026-06-13T18:21:41.000Z</time></trkpt>
        <trkpt lat="29.5343566" lon="103.3331304"><ele>2518.07</ele><time>2026-06-13T18:21:49.000Z</time></trkpt>
        <trkpt lat="29.534456" lon="103.3330771"><ele>2512.83</ele><time>2026-06-13T18:21:57.000Z</time></trkpt>
        <trkpt lat="29.534546" lon="103.3330351"><ele>2507.66</ele><time>2026-06-13T18:22:03.000Z</time></trkpt>
        <trkpt lat="29.5346464" lon="103.3330065"><ele>2503.72</ele><time>2026-06-13T18:22:11.000Z</time></trkpt>
        <trkpt lat="29.5347446" lon="103.3329606"><ele>2499.92</ele><time>2026-06-13T18:22:21.000Z</time></trkpt>
        <trkpt lat="29.5348331" lon="103.3329052"><ele>2495.87</ele><time>2026-06-13T18:22:29.000Z</time></trkpt>
        <trkpt lat="29.5349091" lon="103.332827"><ele>2492.87</ele><time>2026-06-13T18:22:37.000Z</time></trkpt>
        <trkpt lat="29.5349685" lon="103.3327763"><ele>2491.03</ele><time>2026-06-13T18:22:49.000Z</time></trkpt>
        <trkpt lat="29.5349685" lon="103.3327763"><ele>2491.03</ele><time>2026-06-13T18:24:00.000Z</time></trkpt>
        <trkpt lat="29.5348583" lon="103.332755"><ele>2491.62</ele><time>2026-06-13T18:24:13.000Z</time></trkpt>
        <trkpt lat="29.5348583" lon="103.332755"><ele>2491.62</ele><time>2026-06-13T18:24:32.000Z</time></trkpt>
        <trkpt lat="29.534765" lon="103.3326733"><ele>2492.04</ele><time>2026-06-13T18:24:38.000Z</time></trkpt>
        <trkpt lat="29.5347126" lon="103.3325465"><ele>2491.03</ele><time>2026-06-13T18:24:46.000Z</time></trkpt>
        <trkpt lat="29.5346944" lon="103.3324323"><ele>2490.16</ele><time>2026-06-13T18:24:52.000Z</time></trkpt>
        <trkpt lat="29.5347097" lon="103.3323193"><ele>2489.62</ele><time>2026-06-13T18:25:02.000Z</time></trkpt>
        <trkpt lat="29.534723" lon="103.3322107"><ele>2488.84</ele><time>2026-06-13T18:25:22.000Z</time></trkpt>
        <trkpt lat="29.5347024" lon="103.3322566"><ele>2488.56</ele><time>2026-06-13T18:25:30.000Z</time></trkpt>
        <trkpt lat="29.5347003" lon="103.3323765"><ele>2488.32</ele><time>2026-06-13T18:25:36.000Z</time></trkpt>
        <trkpt lat="29.5347171" lon="103.332516"><ele>2488.23</ele><time>2026-06-13T18:25:46.000Z</time></trkpt>
        <trkpt lat="29.5347529" lon="103.3326478"><ele>2490.32</ele><time>2026-06-13T18:25:58.000Z</time></trkpt>
        <trkpt lat="29.5348068" lon="103.3327762"><ele>2491.52</ele><time>2026-06-13T18:26:06.000Z</time></trkpt>
        <trkpt lat="29.5348418" lon="103.3328908"><ele>2492.11</ele><time>2026-06-13T18:26:12.000Z</time></trkpt>
        <trkpt lat="29.534858" lon="103.3330042"><ele>2492.97</ele><time>2026-06-13T18:26:20.000Z</time></trkpt>
        <trkpt lat="29.5348635" lon="103.333111"><ele>2494.01</ele><time>2026-06-13T18:26:26.000Z</time></trkpt>
        <trkpt lat="29.5348675" lon="103.3332242"><ele>2494.95</ele><time>2026-06-13T18:26:34.000Z</time></trkpt>
        <trkpt lat="29.5348645" lon="103.3331675"><ele>2494.76</ele><time>2026-06-13T18:26:52.000Z</time></trkpt>
        <trkpt lat="29.5348797" lon="103.3330348"><ele>2494.39</ele><time>2026-06-13T18:27:00.000Z</time></trkpt>
        <trkpt lat="29.5349098" lon="103.3328998"><ele>2493.62</ele><time>2026-06-13T18:27:08.000Z</time></trkpt>
        <trkpt lat="29.5349986" lon="103.3328583"><ele>2492.66</ele><time>2026-06-13T18:27:16.000Z</time></trkpt>
        <trkpt lat="29.5350751" lon="103.3328608"><ele>2492.68</ele><time>2026-06-13T18:27:32.000Z</time></trkpt>
        <trkpt lat="29.5351096" lon="103.3329495"><ele>2493.03</ele><time>2026-06-13T18:28:12.000Z</time></trkpt>
        <trkpt lat="29.5351674" lon="103.3330535"><ele>2491.9</ele><time>2026-06-13T18:28:20.000Z</time></trkpt>
        <trkpt lat="29.535224" lon="103.3331776"><ele>2490.48</ele><time>2026-06-13T18:28:32.000Z</time></trkpt>
        <trkpt lat="29.5352672" lon="103.3333022"><ele>2487.26</ele><time>2026-06-13T18:28:40.000Z</time></trkpt>
        <trkpt lat="29.5353004" lon="103.3334222"><ele>2484.48</ele><time>2026-06-13T18:28:48.000Z</time></trkpt>
        <trkpt lat="29.5353531" lon="103.3335238"><ele>2481.78</ele><time>2026-06-13T18:28:58.000Z</time></trkpt>
        <trkpt lat="29.5353436" lon="103.3336091"><ele>2477.7</ele><time>2026-06-13T18:29:24.000Z</time></trkpt>
        <trkpt lat="29.5353811" lon="103.333704"><ele>2473.74</ele><time>2026-06-13T18:29:36.000Z</time></trkpt>
        <trkpt lat="29.5354612" lon="103.3337775"><ele>2472.26</ele><time>2026-06-13T18:29:44.000Z</time></trkpt>
        <trkpt lat="29.5355423" lon="103.3338432"><ele>2471.03</ele><time>2026-06-13T18:29:54.000Z</time></trkpt>
        <trkpt lat="29.5356146" lon="103.3339224"><ele>2470.24</ele><time>2026-06-13T18:30:04.000Z</time></trkpt>
        <trkpt lat="29.5356821" lon="103.33401"><ele>2468.81</ele><time>2026-06-13T18:30:14.000Z</time></trkpt>
        <trkpt lat="29.5357714" lon="103.3340768"><ele>2466.91</ele><time>2026-06-13T18:30:24.000Z</time></trkpt>
        <trkpt lat="29.5358637" lon="103.3341217"><ele>2467.08</ele><time>2026-06-13T18:30:34.000Z</time></trkpt>
        <trkpt lat="29.5359584" lon="103.3341669"><ele>2464.76</ele><time>2026-06-13T18:30:44.000Z</time></trkpt>
        <trkpt lat="29.5360006" lon="103.3341863"><ele>2462.2</ele><time>2026-06-13T18:30:50.000Z</time></trkpt>
        <trkpt lat="29.536062" lon="103.3342347"><ele>2460.01</ele><time>2026-06-13T18:31:00.000Z</time></trkpt>
        <trkpt lat="29.5361504" lon="103.3342919"><ele>2457.98</ele><time>2026-06-13T18:31:10.000Z</time></trkpt>
        <trkpt lat="29.5362466" lon="103.3343453"><ele>2455.62</ele><time>2026-06-13T18:31:20.000Z</time></trkpt>
        <trkpt lat="29.5363505" lon="103.3343591"><ele>2452.65</ele><time>2026-06-13T18:31:32.000Z</time></trkpt>
        <trkpt lat="29.5364717" lon="103.3343283"><ele>2449.83</ele><time>2026-06-13T18:33:04.000Z</time></trkpt>
        <trkpt lat="29.5364717" lon="103.3343283"><ele>2449.83</ele><time>2026-06-13T18:33:34.000Z</time></trkpt>
        <trkpt lat="29.536565" lon="103.3343617"><ele>2448.23</ele><time>2026-06-13T18:33:35.000Z</time></trkpt>
        <trkpt lat="29.536565" lon="103.3343617"><ele>2448.23</ele><time>2026-06-13T18:34:27.000Z</time></trkpt>
        <trkpt lat="29.53667" lon="103.3343383"><ele>2447.57</ele><time>2026-06-13T18:34:37.000Z</time></trkpt>
        <trkpt lat="29.5367637" lon="103.3342924"><ele>2448.18</ele><time>2026-06-13T18:34:43.000Z</time></trkpt>
        <trkpt lat="29.5368632" lon="103.3342554"><ele>2447.68</ele><time>2026-06-13T18:34:49.000Z</time></trkpt>
        <trkpt lat="29.5369581" lon="103.3342223"><ele>2446.48</ele><time>2026-06-13T18:34:59.000Z</time></trkpt>
        <trkpt lat="29.5370538" lon="103.3341856"><ele>2444.51</ele><time>2026-06-13T18:35:09.000Z</time></trkpt>
        <trkpt lat="29.5371426" lon="103.3341387"><ele>2442.91</ele><time>2026-06-13T18:35:17.000Z</time></trkpt>
        <trkpt lat="29.5372213" lon="103.3340494"><ele>2441.1</ele><time>2026-06-13T18:35:25.000Z</time></trkpt>
        <trkpt lat="29.5372781" lon="103.3339489"><ele>2438.86</ele><time>2026-06-13T18:35:37.000Z</time></trkpt>
        <trkpt lat="29.5373226" lon="103.3338507"><ele>2436.69</ele><time>2026-06-13T18:35:43.000Z</time></trkpt>
        <trkpt lat="29.5374055" lon="103.3337867"><ele>2434.97</ele><time>2026-06-13T18:35:51.000Z</time></trkpt>
        <trkpt lat="29.5375015" lon="103.3337625"><ele>2433.78</ele><time>2026-06-13T18:35:59.000Z</time></trkpt>
        <trkpt lat="29.537596" lon="103.3337626"><ele>2431.98</ele><time>2026-06-13T18:36:19.000Z</time></trkpt>
        <trkpt lat="29.537596" lon="103.3337626"><ele>2431.98</ele><time>2026-06-13T18:36:48.000Z</time></trkpt>
        <trkpt lat="29.5376722" lon="103.3337024"><ele>2427.95</ele><time>2026-06-13T18:36:53.000Z</time></trkpt>
        <trkpt lat="29.5376722" lon="103.3337024"><ele>2427.95</ele><time>2026-06-13T18:37:05.000Z</time></trkpt>
        <trkpt lat="29.5377449" lon="103.3336073"><ele>2425</ele><time>2026-06-13T18:37:15.000Z</time></trkpt>
        <trkpt lat="29.537837" lon="103.3335324"><ele>2421.69</ele><time>2026-06-13T18:37:23.000Z</time></trkpt>
        <trkpt lat="29.5379354" lon="103.3334817"><ele>2419.24</ele><time>2026-06-13T18:37:29.000Z</time></trkpt>
        <trkpt lat="29.5380429" lon="103.3334351"><ele>2418.11</ele><time>2026-06-13T18:37:35.000Z</time></trkpt>
        <trkpt lat="29.5381367" lon="103.3333877"><ele>2418.06</ele><time>2026-06-13T18:37:41.000Z</time></trkpt>
        <trkpt lat="29.5382345" lon="103.3333203"><ele>2418.46</ele><time>2026-06-13T18:37:49.000Z</time></trkpt>
        <trkpt lat="29.5383254" lon="103.3332591"><ele>2418.78</ele><time>2026-06-13T18:37:57.000Z</time></trkpt>
        <trkpt lat="29.5384274" lon="103.3332161"><ele>2417.93</ele><time>2026-06-13T18:38:05.000Z</time></trkpt>
        <trkpt lat="29.5385213" lon="103.3331861"><ele>2415.98</ele><time>2026-06-13T18:38:11.000Z</time></trkpt>
        <trkpt lat="29.5386168" lon="103.3331661"><ele>2414.1</ele><time>2026-06-13T18:38:17.000Z</time></trkpt>
        <trkpt lat="29.5387119" lon="103.3331424"><ele>2412.81</ele><time>2026-06-13T18:38:23.000Z</time></trkpt>
        <trkpt lat="29.5387993" lon="103.3331099"><ele>2411.6</ele><time>2026-06-13T18:38:29.000Z</time></trkpt>
        <trkpt lat="29.5388377" lon="103.33309"><ele>2411.04</ele><time>2026-06-13T18:38:39.000Z</time></trkpt>
        <trkpt lat="29.5389161" lon="103.3330825"><ele>2412.57</ele><time>2026-06-13T18:39:01.000Z</time></trkpt>
        <trkpt lat="29.5389658" lon="103.3330175"><ele>2413.23</ele><time>2026-06-13T18:39:13.000Z</time></trkpt>
        <trkpt lat="29.5390619" lon="103.3329344"><ele>2412.66</ele><time>2026-06-13T18:39:19.000Z</time></trkpt>
        <trkpt lat="29.5391662" lon="103.3328736"><ele>2411.73</ele><time>2026-06-13T18:39:25.000Z</time></trkpt>
        <trkpt lat="29.5392541" lon="103.3328133"><ele>2411.2</ele><time>2026-06-13T18:39:31.000Z</time></trkpt>
        <trkpt lat="29.5393471" lon="103.3327332"><ele>2409.39</ele><time>2026-06-13T18:39:39.000Z</time></trkpt>
        <trkpt lat="29.5394195" lon="103.3326484"><ele>2408.62</ele><time>2026-06-13T18:39:45.000Z</time></trkpt>
        <trkpt lat="29.5394754" lon="103.3325629"><ele>2408.01</ele><time>2026-06-13T18:40:01.000Z</time></trkpt>
        <trkpt lat="29.5395551" lon="103.332493"><ele>2406.8</ele><time>2026-06-13T18:40:19.000Z</time></trkpt>
        <trkpt lat="29.5396236" lon="103.3324156"><ele>2406.46</ele><time>2026-06-13T18:40:27.000Z</time></trkpt>
        <trkpt lat="29.5397013" lon="103.3323636"><ele>2405.7</ele><time>2026-06-13T18:40:39.000Z</time></trkpt>
        <trkpt lat="29.5397852" lon="103.3323184"><ele>2402.56</ele><time>2026-06-13T18:40:49.000Z</time></trkpt>
        <trkpt lat="29.539866" lon="103.3322707"><ele>2398.75</ele><time>2026-06-13T18:40:55.000Z</time></trkpt>
        <trkpt lat="29.5399678" lon="103.3322573"><ele>2395.5</ele><time>2026-06-13T18:41:03.000Z</time></trkpt>
        <trkpt lat="29.540067" lon="103.3322083"><ele>2393.14</ele><time>2026-06-13T18:41:11.000Z</time></trkpt>
        <trkpt lat="29.5401528" lon="103.3321405"><ele>2390.63</ele><time>2026-06-13T18:41:19.000Z</time></trkpt>
        <trkpt lat="29.5402057" lon="103.3320517"><ele>2389.62</ele><time>2026-06-13T18:41:27.000Z</time></trkpt>
        <trkpt lat="29.5402846" lon="103.3319691"><ele>2389.74</ele><time>2026-06-13T18:41:35.000Z</time></trkpt>
        <trkpt lat="29.5403663" lon="103.3319033"><ele>2391.53</ele><time>2026-06-13T18:41:41.000Z</time></trkpt>
        <trkpt lat="29.5404475" lon="103.3318493"><ele>2393.58</ele><time>2026-06-13T18:41:47.000Z</time></trkpt>
        <trkpt lat="29.5405268" lon="103.3317991"><ele>2395.44</ele><time>2026-06-13T18:41:53.000Z</time></trkpt>
        <trkpt lat="29.5406103" lon="103.3317367"><ele>2396.71</ele><time>2026-06-13T18:41:59.000Z</time></trkpt>
        <trkpt lat="29.5406992" lon="103.3316968"><ele>2397.57</ele><time>2026-06-13T18:42:05.000Z</time></trkpt>
        <trkpt lat="29.5408011" lon="103.3317055"><ele>2398.53</ele><time>2026-06-13T18:42:11.000Z</time></trkpt>
        <trkpt lat="29.5409073" lon="103.3317458"><ele>2399.16</ele><time>2026-06-13T18:42:17.000Z</time></trkpt>
        <trkpt lat="29.5410204" lon="103.3317732"><ele>2399.39</ele><time>2026-06-13T18:42:25.000Z</time></trkpt>
        <trkpt lat="29.541124" lon="103.3317824"><ele>2399.18</ele><time>2026-06-13T18:42:33.000Z</time></trkpt>
        <trkpt lat="29.5412159" lon="103.3317225"><ele>2397.21</ele><time>2026-06-13T18:42:41.000Z</time></trkpt>
        <trkpt lat="29.5413024" lon="103.3316603"><ele>2393.68</ele><time>2026-06-13T18:42:53.000Z</time></trkpt>
        <trkpt lat="29.5413838" lon="103.3315799"><ele>2390.46</ele><time>2026-06-13T18:43:05.000Z</time></trkpt>
        <trkpt lat="29.5414804" lon="103.3315778"><ele>2388.11</ele><time>2026-06-13T18:43:15.000Z</time></trkpt>
        <trkpt lat="29.5415931" lon="103.3315751"><ele>2385.48</ele><time>2026-06-13T18:43:21.000Z</time></trkpt>
        <trkpt lat="29.5417024" lon="103.331568"><ele>2383.43</ele><time>2026-06-13T18:43:27.000Z</time></trkpt>
        <trkpt lat="29.5418132" lon="103.3315775"><ele>2382</ele><time>2026-06-13T18:43:35.000Z</time></trkpt>
        <trkpt lat="29.541919" lon="103.3315838"><ele>2380.45</ele><time>2026-06-13T18:43:43.000Z</time></trkpt>
        <trkpt lat="29.5419639" lon="103.3315901"><ele>2378.71</ele><time>2026-06-13T18:43:55.000Z</time></trkpt>
        <trkpt lat="29.5418901" lon="103.3315246"><ele>2377.84</ele><time>2026-06-13T18:44:15.000Z</time></trkpt>
        <trkpt lat="29.5418141" lon="103.3314276"><ele>2376.53</ele><time>2026-06-13T18:44:21.000Z</time></trkpt>
        <trkpt lat="29.541773" lon="103.331393"><ele>2376.18</ele><time>2026-06-13T18:44:32.000Z</time></trkpt>
        <trkpt lat="29.5417855" lon="103.3313073"><ele>2377.05</ele><time>2026-06-13T18:45:10.000Z</time></trkpt>
        <trkpt lat="29.5418657" lon="103.3313005"><ele>2379.18</ele><time>2026-06-13T18:45:18.000Z</time></trkpt>
        <trkpt lat="29.5418202" lon="103.3312343"><ele>2380.26</ele><time>2026-06-13T18:45:24.000Z</time></trkpt>
        <trkpt lat="29.541656" lon="103.3311845"><ele>2380.58</ele><time>2026-06-13T18:45:28.000Z</time></trkpt>
        <trkpt lat="29.5416892" lon="103.3311685"><ele>2380.8</ele><time>2026-06-13T18:45:40.000Z</time></trkpt>
        <trkpt lat="29.5416406" lon="103.3311573"><ele>2380.8</ele><time>2026-06-13T18:46:00.000Z</time></trkpt>
        <trkpt lat="29.5416406" lon="103.3311573"><ele>2380.8</ele><time>2026-06-13T18:46:34.000Z</time></trkpt>
        <trkpt lat="29.5416406" lon="103.3311573"><ele>2380.8</ele><time>2026-06-13T18:46:49.000Z</time></trkpt>
        <trkpt lat="29.5416406" lon="103.3311573"><ele>2380.8</ele><time>2026-06-13T18:47:04.000Z</time></trkpt>
        <trkpt lat="29.5416406" lon="103.3311573"><ele>2380.8</ele><time>2026-06-13T18:47:11.000Z</time></trkpt>
        <trkpt lat="29.5416406" lon="103.3311573"><ele>2380.8</ele><time>2026-06-13T18:47:22.000Z</time></trkpt>
        <trkpt lat="29.5416406" lon="103.3311573"><ele>2380.8</ele><time>2026-06-13T19:19:47.000Z</time></trkpt>
        <trkpt lat="29.5416406" lon="103.3311573"><ele>2380.8</ele><time>2026-06-13T19:19:56.000Z</time></trkpt>
      </trkseg>
  </trk>
</gpx>